# Wetter Temperatur Luftdruck Luftfeuchtigkeit Sichtweite Windgeschwindigkeit Windrichtung Zeit
1 Clear 22 1012 68 10000 3.09 130 09:34 14.08.2022
2 Clear 15 1012 84 10000 1.3 76 06:53 14.08.2022
3 Clear 17 1013 82 10000 0.51 0 05:45 14.08.2022
4 Clouds 18 1015 84 10000 1.13 78 01:43 14.08.2022
5 Clouds 22 1015 74 10000 1.63 75 23:22 13.08.2022
6 Clouds 22 1015 70 10000 1.94 82 22:28 13.08.2022
7 Clear 27 1015 41 10000 4.12 90 20:51 13.08.2022
8 Clear 28 1015 39 10000 5.66 90 19:49 13.08.2022
9 Clear 29 1015 36 10000 6.17 90 19:19 13.08.2022
10 Clear 31 1016 28 10000 5.14 100 17:22 13.08.2022
11 Clear 30 1017 28 10000 5.14 100 15:18 13.08.2022
12 Clear 29 1017 30 10000 3.6 80 14:24 13.08.2022
13 Clear 29 1018 30 10000 4.63 100 13:36 13.08.2022
14 Clear 27 1018 36 10000 2.57 0 11:49 13.08.2022
15 Clear 21 1019 52 10000 1.03 0 09:27 13.08.2022
16 Clear 16 1019 67 10000 0.51 0 07:48 13.08.2022
17 Clear 15 1020 59 10000 0.88 77 01:56 13.08.2022
18 Clear 20 1019 42 10000 1.03 130 23:36 12.08.2022
19 Clear 24 1019 35 10000 3.09 80 21:40 12.08.2022
20 Clear 28 1018 26 10000 6.17 70 19:50 12.08.2022
21 Clear 29 1018 24 10000 5.66 110 19:24 12.08.2022
22 Clear 29 1019 23 10000 6.17 110 18:31 12.08.2022
23 Clear 29 1019 24 10000 6.17 100 16:27 12.08.2022
24 Clear 29 1019 23 10000 5.66 110 15:23 12.08.2022
25 Clear 28 1020 24 10000 7.2 90 13:56 12.08.2022
26 Clear 28 1021 28 10000 5.66 70 12:50 12.08.2022
27 Clear 21 1022 52 10000 2.06 110 09:28 12.08.2022
28 Clear 15 1021 67 10000 0.51 0 07:47 12.08.2022
29 Clear 15 1021 53 10000 1.44 67 06:25 12.08.2022
30 Clouds 19 1021 52 10000 1.51 72 01:22 12.08.2022
31 Clouds 18 1021 50 10000 1.72 63 00:18 12.08.2022
32 Clear 21 1021 48 10000 1.77 60 23:27 11.08.2022
33 Clear 24 1021 35 10000 2.06 90 21:55 11.08.2022
34 Clear 24 1021 35 10000 2.06 90 21:34 11.08.2022
35 Clear 29 1020 28 10000 3.09 90 20:31 11.08.2022
36 Clear 30 1020 24 10000 4.12 80 19:41 11.08.2022
37 Clear 30 1020 24 10000 4.12 50 19:21 11.08.2022
38 Clear 31 1021 21 10000 4.12 100 17:23 11.08.2022
39 Clouds 30 1020 21 10000 2.99 96 15:51 11.08.2022
40 Clear 30 1022 26 10000 3.09 0 15:20 11.08.2022
41 Clear 29 1023 26 10000 4.12 50 12:35 11.08.2022
42 Clear 20 1024 48 10000 1.03 0 09:24 11.08.2022
43 Clear 12 1024 60 10000 0.91 85 06:58 11.08.2022
44 Clear 16 1024 59 10000 1.22 60 03:23 11.08.2022
45 Clear 19 1024 54 10000 1.78 61 00:28 11.08.2022
46 Clear 23 1024 35 10000 2.06 80 22:18 10.08.2022
47 Clear 25 1024 31 10000 2.06 80 21:20 10.08.2022
48 Clear 26 1024 29 10000 3.09 80 20:43 10.08.2022
49 Clear 29 1024 24 10000 4.63 100 18:53 10.08.2022
50 Clear 29 1024 26 10000 3.09 90 17:31 10.08.2022
51 Clear 28 1025 29 10000 3.6 110 15:53 10.08.2022
52 Clear 28 1026 34 10000 4.12 80 13:34 10.08.2022
53 Clear 26 1027 36 10000 4.12 90 12:24 10.08.2022
54 Clear 17 1027 67 10000 1.03 0 08:45 10.08.2022
55 Clear 15 1027 77 10000 0.51 0 07:44 10.08.2022
56 Clear 14 1027 72 10000 1.38 40 05:53 10.08.2022
57 Clear 16 1027 69 10000 1.14 64 02:44 10.08.2022
58 Clear 19 1027 55 10000 1.03 20 23:33 09.08.2022
59 Clear 21 1027 49 10000 1.03 0 22:55 09.08.2022
60 Clear 23 1026 43 10000 3.09 30 21:34 09.08.2022
61 Clear 27 1026 34 10000 3.09 10 19:34 09.08.2022
62 Clear 28 1026 29 10000 4.63 40 18:23 09.08.2022
63 Clear 28 1026 32 10000 3.6 10 17:26 09.08.2022
64 Clear 28 1026 29 10000 3.09 0 16:40 09.08.2022
65 Clear 26 1027 33 10000 4.12 80 15:31 09.08.2022
66 Clear 25 1027 38 10000 2.57 70 12:25 09.08.2022
67 Clear 18 1027 67 10000 1.54 330 09:22 09.08.2022
68 Clear 16 1027 77 10000 1.03 0 08:26 09.08.2022
69 Clear 14 1027 82 10000 1.54 260 07:18 09.08.2022
70 Clear 14 1026 82 10000 1.57 31 03:32 09.08.2022
71 Clouds 18 1025 60 10000 2.19 27 23:27 08.08.2022
72 Clouds 21 1025 60 10000 2.19 27 22:53 08.08.2022
73 Clear 21 1025 45 10000 3.09 340 21:48 08.08.2022
74 Clear 25 1024 53 10000 2.86 18 20:52 08.08.2022
75 Clear 26 1024 33 10000 5.14 350 19:50 08.08.2022
76 Clear 27 1024 29 10000 3.6 350 18:35 08.08.2022
77 Clear 27 1024 27 10000 1.54 280 16:34 08.08.2022
78 Clear 27 1024 27 10000 1.54 0 15:38 08.08.2022
79 Clear 25 1025 33 10000 2.06 0 12:50 08.08.2022
80 Clear 24 1025 35 10000 1.54 0 11:48 08.08.2022
81 Clear 17 1025 63 10000 1.54 340 09:29 08.08.2022
82 Clear 11 1024 81 10000 2.06 210 05:35 08.08.2022
83 Clouds 14 1023 66 10000 1.03 66 01:56 08.08.2022
84 Clear 19 1023 48 10000 1.03 0 21:51 07.08.2022
85 Clear 19 1023 48 10000 1.03 0 21:32 07.08.2022
86 Clear 24 1022 31 10000 2.06 10 20:25 07.08.2022
87 Clear 24 1022 31 10000 1.54 340 19:53 07.08.2022
88 Clear 24 1022 31 10000 2.06 30 19:29 07.08.2022
89 Clear 25 1022 31 10000 2.06 0 18:21 07.08.2022
90 Clear 25 1023 31 10000 2.57 330 16:53 07.08.2022
91 Clear 25 1023 31 10000 1.54 0 15:49 07.08.2022
92 Clear 24 1024 31 10000 3.09 80 14:34 07.08.2022
93 Clear 22 1025 35 10000 3.6 110 12:51 07.08.2022
94 Clear 22 1025 35 10000 3.6 110 12:50 07.08.2022
95 Clear 19 1026 48 10000 1.03 0 10:54 07.08.2022
96 Clear 18 1026 55 10000 1.03 0 10:21 07.08.2022
97 Clear 9 1026 87 10000 1.54 220 04:42 07.08.2022
98 Clear 11 1026 71 10000 0.92 60 02:37 07.08.2022
99 Clear 15 1027 58 10000 1.03 0 22:57 06.08.2022
100 Clear 17 1027 48 10000 1.03 340 22:19 06.08.2022
101 Clear 20 1026 34 10000 3.09 330 20:19 06.08.2022
102 Clear 21 1026 34 10000 3.6 320 19:38 06.08.2022
103 Clear 22 1026 35 10000 5.14 10 17:52 06.08.2022
104 Clear 21 1027 37 10000 3.6 320 16:30 06.08.2022
105 Clouds 20 1027 45 10000 2.06 0 13:52 06.08.2022
106 Clouds 19 1027 48 10000 3.09 330 12:50 06.08.2022
107 Clouds 18 1027 59 10000 3.09 360 11:21 06.08.2022
108 Clouds 15 1027 72 10000 1.54 300 09:49 06.08.2022
109 Clear 12 1026 87 10000 0.51 0 07:36 06.08.2022
110 Clouds 11 1024 77 10000 1.43 358 02:22 06.08.2022
111 Clear 17 1022 59 10000 4.63 310 22:40 05.08.2022
112 Clouds 18 1021 77 10000 2.06 270 21:36 05.08.2022
113 Clouds 21 1020 60 10000 4.63 340 19:22 05.08.2022
114 Clouds 20 1019 59 10000 6.17 320 18:44 05.08.2022
115 Clouds 19 1019 72 10000 6.69 320 16:55 05.08.2022
116 Clouds 19 1019 72 10000 6.69 320 16:37 05.08.2022
117 Clouds 18 1018 88 10000 6.69 320 15:19 05.08.2022
118 Clouds 22 1015 94 6000 7.72 280 13:39 05.08.2022
119 Clouds 26 1014 69 10000 4.63 210 13:20 05.08.2022
120 Clouds 24 1015 78 10000 3.6 170 12:23 05.08.2022
121 Clouds 21 1014 88 10000 1.54 140 10:25 05.08.2022
122 Clouds 20 1015 94 10000 1.03 0 07:58 05.08.2022
123 Clouds 20 1013 88 9000 5.66 100 05:25 05.08.2022
124 Clouds 24 1013 73 10000 2.06 330 23:50 04.08.2022
125 Clouds 24 1013 73 10000 2.06 330 23:50 04.08.2022
126 Clear 27 1013 57 10000 4.12 320 21:58 04.08.2022
127 Clear 28 1013 54 10000 5.66 330 21:25 04.08.2022
128 Clear 30 1013 45 10000 6.17 320 20:41 04.08.2022
129 Clear 34 1012 27 10000 5.66 310 19:21 04.08.2022
130 Clear 34 1012 25 10000 6.69 300 18:34 04.08.2022
131 Clear 35 1012 24 10000 4.12 210 17:28 04.08.2022
132 Clear 34 1013 29 10000 1.54 0 13:35 04.08.2022
133 Clear 30 1014 37 10000 3.09 150 11:46 04.08.2022
134 Clear 27 1014 44 10000 3.6 140 10:27 04.08.2022
135 Clear 20 1014 73 10000 1.54 100 07:51 04.08.2022
136 Clear 20 1014 70 10000 1.01 110 04:28 04.08.2022
137 Clouds 20 1015 64 10000 1 94 01:58 04.08.2022
138 Clouds 23 1015 61 10000 0.77 86 23:42 03.08.2022
139 Clear 27 1015 44 10000 1.54 270 21:39 03.08.2022
140 Clear 32 1015 30 10000 2.06 140 20:22 03.08.2022
141 Clear 32 1015 33 10000 1.54 260 19:28 03.08.2022
142 Clear 33 1015 29 10000 3.6 0 17:41 03.08.2022
143 Clear 33 1016 27 10000 3.09 260 16:24 03.08.2022
144 Clear 32 1016 30 10000 3.6 0 14:25 03.08.2022
145 Clear 30 1017 34 10000 3.6 180 11:53 03.08.2022
146 Clear 19 1017 77 10000 1.54 100 08:20 03.08.2022
147 Clouds 14 1017 70 10000 1.6 166 04:46 03.08.2022
148 Clouds 19 1017 67 10000 1.58 171 03:27 03.08.2022
149 Clouds 18 1017 62 10000 1.73 169 01:18 03.08.2022
150 Clouds 18 1017 62 10000 1.73 169 01:18 03.08.2022
151 Clouds 20 1017 59 10000 1.23 145 22:59 02.08.2022
152 Clear 24 1017 50 10000 1.03 180 21:53 02.08.2022
153 Clear 27 1017 39 10000 1.54 230 20:58 02.08.2022
154 Clear 29 1017 36 10000 2.57 240 18:48 02.08.2022
155 Clear 28 1018 36 10000 3.09 0 16:21 02.08.2022
156 Clouds 23 1019 49 10000 3.09 200 11:45 02.08.2022
157 Fog 18 1020 82 10000 2.06 100 09:34 02.08.2022
158 Fog 14 1019 94 10000 0.51 0 07:54 02.08.2022
159 Clouds 12 1019 88 10000 0.52 187 06:43 02.08.2022
160 Clouds 13 1019 92 10000 0.31 101 04:54 02.08.2022
161 Clouds 17 1019 88 10000 0.55 91 23:51 01.08.2022
162 Clouds 17 1019 85 10000 1.64 11 22:25 01.08.2022
163 Clouds 21 1018 68 10000 3.09 310 20:52 01.08.2022
164 Clouds 22 1018 68 10000 4.63 330 19:25 01.08.2022
165 Clouds 22 1018 68 10000 5.66 330 18:40 01.08.2022
166 Clouds 23 1017 64 10000 6.17 340 16:53 01.08.2022
167 Clouds 22 1017 73 10000 4.63 350 15:52 01.08.2022
168 Clouds 22 1017 68 10000 6.69 310 15:30 01.08.2022
169 Clouds 24 1017 60 10000 5.14 290 14:43 01.08.2022
170 Clouds 21 1017 77 10000 4.12 290 11:59 01.08.2022
171 Rain 19 1017 88 10000 3.09 290 09:43 01.08.2022
172 Clouds 19 1016 88 10000 3.09 280 08:30 01.08.2022
173 Clouds 19 1015 94 10000 3.6 260 04:54 01.08.2022
174 Clouds 18 1015 96 10000 1.97 235 03:49 01.08.2022
175 Clouds 19 1015 96 10000 1.98 238 00:36 01.08.2022
176 Rain 22 1015 60 10000 1.54 240 22:39 31.07.2022
177 Rain 23 1015 56 10000 0.51 0 21:29 31.07.2022
178 Clear 24 1015 53 10000 1.54 30 19:53 31.07.2022
179 Clouds 24 1015 56 10000 6.69 310 17:57 31.07.2022
180 Clear 26 1016 41 10000 4.63 210 15:39 31.07.2022
181 Clear 26 1016 44 10000 3.6 190 13:43 31.07.2022
182 Clear 24 1017 46 10000 4.12 200 11:58 31.07.2022
183 Clear 21 1018 68 10000 2.06 130 09:55 31.07.2022
184 Clear 17 1018 82 10000 0.51 0 07:59 31.07.2022
185 Clouds 16 1019 73 10000 0.95 241 02:58 31.07.2022
186 Clouds 16 1019 56 10000 1.44 237 23:40 30.07.2022
187 Clear 19 1019 72 10000 1.54 180 22:19 30.07.2022
188 Clear 20 1019 72 10000 1.54 180 21:49 30.07.2022
189 Clear 23 1018 56 10000 1.54 20 20:57 30.07.2022
190 Clear 24 1018 53 10000 2.57 40 19:59 30.07.2022
191 Clear 24 1018 53 10000 4.12 30 18:53 30.07.2022
192 Clouds 24 1018 53 10000 2.57 10 17:44 30.07.2022
193 Clouds 23 1018 56 10000 3.6 20 15:54 30.07.2022
194 Clouds 23 1018 53 10000 3.6 340 15:24 30.07.2022
195 Clouds 22 1018 60 10000 2.57 310 13:18 30.07.2022
196 Clouds 21 1018 68 10000 2.06 270 12:19 30.07.2022
197 Clouds 18 1018 88 10000 1.54 180 10:31 30.07.2022
198 Clouds 18 1018 88 10000 1.54 180 10:31 30.07.2022
199 Clouds 19 1018 82 10000 0.51 0 10:31 30.07.2022
200 Clouds 17 1018 94 10000 1.54 200 09:54 30.07.2022
201 Clouds 16 1018 94 10000 0 0 07:55 30.07.2022
202 Clouds 15 1017 90 10000 1.13 266 02:57 30.07.2022
203 Clouds 16 1017 89 10000 1.08 254 02:24 30.07.2022
204 Rain 18 1017 88 10000 3.6 130 22:41 29.07.2022
205 Rain 20 1016 72 10000 6.69 230 21:24 29.07.2022
206 Rain 24 1015 43 10000 1.54 350 20:35 29.07.2022
207 Clear 28 1014 32 10000 4.63 50 18:18 29.07.2022
208 Clear 26 1016 38 10000 3.09 360 15:35 29.07.2022
209 Clouds 22 1016 43 10000 2.57 70 13:19 29.07.2022
210 Clouds 18 1017 63 10000 2.57 90 11:22 29.07.2022
211 Rain 17 1016 55 10000 2.06 60 08:50 29.07.2022
212 Clear 16 1017 59 10000 1.03 0 07:54 29.07.2022
213 Clouds 18 1017 49 10000 2.06 67 01:52 29.07.2022
214 Clouds 21 1017 47 10000 2.03 74 22:49 28.07.2022
215 Clear 22 1016 37 10000 3.09 50 21:20 28.07.2022
216 Clear 24 1016 33 10000 3.6 80 20:31 28.07.2022
217 Clear 25 1016 29 10000 4.63 80 19:43 28.07.2022
218 Clear 26 1016 27 10000 3.09 90 19:23 28.07.2022
219 Clear 25 1017 31 10000 2.57 70 17:43 28.07.2022
220 Clear 25 1017 31 10000 3.09 0 16:55 28.07.2022
221 Clear 25 1018 33 10000 3.6 0 15:32 28.07.2022
222 Clear 23 1018 37 10000 2.57 130 13:29 28.07.2022
223 Clear 18 1019 55 10000 4.12 80 10:37 28.07.2022
224 Clouds 9 1020 78 10000 1.48 47 06:45 28.07.2022
225 Clear 9 1020 93 10000 1.03 0 05:31 28.07.2022
226 Clouds 12 1020 80 10000 1.23 46 01:23 28.07.2022
227 Clear 14 1020 74 10000 1.77 22 22:41 27.07.2022
228 Clear 18 1019 48 10000 2.57 310 21:29 27.07.2022
229 Clear 20 1019 37 10000 4.63 310 19:43 27.07.2022
230 Clear 21 1019 34 10000 5.14 310 17:50 27.07.2022
231 Clear 20 1019 39 10000 3.09 0 15:52 27.07.2022
232 Clouds 20 1019 39 10000 5.14 330 14:58 27.07.2022
233 Clouds 20 1019 39 10000 5.14 330 14:35 27.07.2022
234 Clouds 18 1019 51 10000 4.12 340 12:50 27.07.2022
235 Clouds 13 1019 82 10000 3.09 320 07:54 27.07.2022
236 Clouds 14 1019 77 10000 1.58 317 06:56 27.07.2022
237 Clouds 15 1018 80 10000 2.03 340 01:59 27.07.2022
238 Clouds 16 1017 75 10000 2.23 358 22:29 26.07.2022
239 Clear 18 1017 67 10000 3.6 340 21:21 26.07.2022
240 Clouds 19 1017 68 10000 5.14 320 20:31 26.07.2022
241 Clouds 21 1016 64 10000 7.72 310 18:44 26.07.2022
242 Clouds 21 1016 64 10000 6.69 310 17:59 26.07.2022
243 Clouds 22 1016 56 10000 6.17 300 16:31 26.07.2022
244 Clouds 20 1016 68 10000 5.66 310 15:30 26.07.2022
245 Clouds 21 1016 60 10000 5.66 300 13:46 26.07.2022
246 Clouds 20 1015 68 10000 4.63 250 11:38 26.07.2022
247 Clouds 20 1014 63 10000 4.63 260 08:57 26.07.2022
248 Clouds 19 1014 89 10000 2.14 201 06:26 26.07.2022
249 Clouds 20 1013 85 10000 1.78 294 00:44 26.07.2022
250 Clouds 18 1011 86 10000 1.53 265 23:32 25.07.2022
251 Clear 23 1011 56 10000 8.23 290 22:26 25.07.2022
252 Clouds 24 1011 60 10000 6.69 300 21:43 25.07.2022
253 Clear 26 1009 53 10000 7.2 300 20:42 25.07.2022
254 Rain 26 1009 61 10000 2.06 210 19:46 25.07.2022
255 Clouds 30 1008 42 10000 2.57 200 18:21 25.07.2022
256 Rain 29 1009 57 10000 2.06 200 17:27 25.07.2022
257 Thunderstorm 32 1009 33 10000 5.14 220 15:20 25.07.2022
258 Clear 32 1010 33 10000 4.63 210 12:22 25.07.2022
259 Clear 26 1011 44 10000 3.6 150 09:58 25.07.2022
260 Clouds 15 1013 66 10000 1.99 159 04:38 25.07.2022
261 Clouds 20 1015 57 10000 1.48 133 23:54 24.07.2022
262 Clouds 21 1016 55 10000 1.48 130 23:18 24.07.2022
263 Clouds 21 1016 55 10000 1.47 130 22:34 24.07.2022
264 Clear 28 1016 36 10000 2.06 180 21:25 24.07.2022
265 Clear 29 1016 34 10000 2.06 160 20:51 24.07.2022
266 Clear 30 1016 32 10000 3.6 150 20:26 24.07.2022
267 Clear 31 1016 30 10000 2.57 0 18:48 24.07.2022
268 Clear 31 1018 30 10000 3.09 0 16:32 24.07.2022
269 Clear 30 1018 30 10000 3.09 150 15:50 24.07.2022
270 Clear 29 1019 34 10000 2.06 0 14:38 24.07.2022
271 Clear 27 1020 38 10000 2.06 200 12:55 24.07.2022
272 Clear 25 1020 41 10000 2.57 150 11:40 24.07.2022
273 Clear 24 1020 41 10000 2.57 0 11:18 24.07.2022
274 Clear 17 1021 72 10000 1.54 90 08:48 24.07.2022
275 Clear 15 1021 82 10000 1.03 0 07:52 24.07.2022
276 Clouds 14 1021 85 10000 1.52 168 06:27 24.07.2022
277 Clouds 15 1021 83 10000 1.02 147 01:50 24.07.2022
278 Clear 20 1020 59 10000 2.06 310 22:25 23.07.2022
279 Clear 24 1019 46 10000 5.14 320 20:31 23.07.2022
280 Clear 24 1019 43 10000 4.63 300 18:51 23.07.2022
281 Clear 25 1019 41 10000 6.17 290 17:41 23.07.2022
282 Clear 25 1019 41 10000 6.17 290 17:41 23.07.2022
283 Clear 25 1019 43 10000 6.69 330 17:23 23.07.2022
284 Clouds 24 1019 49 10000 5.66 290 15:42 23.07.2022
285 Clouds 24 1019 49 10000 4.63 300 14:59 23.07.2022
286 Clouds 24 1019 49 10000 4.63 300 14:35 23.07.2022
287 Clouds 23 1019 56 10000 4.63 300 13:39 23.07.2022
288 Clouds 19 1019 63 10000 4.12 320 11:18 23.07.2022
289 Clouds 20 1019 63 10000 3.6 340 10:23 23.07.2022
290 Clouds 17 1018 88 10000 1.54 340 08:55 23.07.2022
291 Rain 16 1018 98 10000 0.49 2 03:40 23.07.2022
292 Clouds 17 1018 98 10000 1.19 359 01:58 23.07.2022
293 Clear 17 1018 82 10000 1.03 330 23:19 22.07.2022
294 Clear 19 1018 77 10000 4.63 320 20:57 22.07.2022
295 Clouds 20 1018 72 10000 5.14 330 19:46 22.07.2022
296 Clouds 23 1017 45 10000 1.9 351 18:29 22.07.2022
297 Clouds 23 1019 60 10000 3.6 10 17:28 22.07.2022
298 Clouds 22 1020 68 10000 2.57 0 14:57 22.07.2022
299 Clouds 18 1020 82 10000 3.09 280 11:49 22.07.2022
300 Clouds 17 1021 88 10000 2.57 260 09:27 22.07.2022
301 Clouds 17 1020 88 10000 3.09 270 08:43 22.07.2022
302 Clouds 17 1020 94 10000 2.54 295 07:20 22.07.2022
303 Clouds 18 1020 95 10000 3.6 277 03:43 22.07.2022
304 Clouds 18 1019 91 10000 3.27 246 22:45 21.07.2022
305 Clouds 20 1019 82 10000 2.57 250 21:34 21.07.2022
306 Rain 19 1019 94 10000 2.57 230 19:28 21.07.2022
307 Clouds 24 1019 56 10000 5.14 260 17:41 21.07.2022
308 Clouds 24 1019 56 10000 5.14 260 17:19 21.07.2022
309 Clouds 24 1019 56 10000 5.14 220 15:22 21.07.2022
310 Clouds 23 1019 64 10000 4.12 210 14:37 21.07.2022
311 Clouds 23 1019 64 10000 5.66 200 12:28 21.07.2022
312 Clouds 22 1019 64 10000 5.66 210 11:19 21.07.2022
313 Clouds 21 1019 77 10000 1.54 200 09:38 21.07.2022
314 Clouds 20 1018 88 10000 2.06 90 08:52 21.07.2022
315 Clouds 18 1019 94 10000 1.54 360 07:50 21.07.2022
316 Clear 18 1018 100 10000 1.03 0 05:47 21.07.2022
317 Clouds 20 1016 85 10000 7.66 291 00:43 21.07.2022
318 Clear 29 1015 44 10000 6.69 290 22:22 20.07.2022
319 Clear 32 1015 35 10000 6.69 290 20:55 20.07.2022
320 Clear 35 1014 27 10000 6.69 300 19:53 20.07.2022
321 Clear 35 1014 26 10000 5.66 320 19:24 20.07.2022
322 Clear 36 1015 24 10000 6.69 310 18:34 20.07.2022
323 Clear 37 1015 21 10000 5.14 310 18:00 20.07.2022
324 Clear 37 1015 21 10000 5.66 300 16:45 20.07.2022
325 Clear 37 1016 17 10000 1.54 0 15:31 20.07.2022
326 Clear 37 1017 16 10000 3.09 160 14:20 20.07.2022
327 Clear 37 1017 16 10000 3.09 160 14:20 20.07.2022
328 Clear 37 1017 16 10000 3.09 160 14:20 20.07.2022
329 Clear 33 1017 25 10000 4.12 150 11:34 20.07.2022
330 Clear 27 1017 32 10000 4.63 150 08:50 20.07.2022
331 Clear 15 1017 50 10000 1.74 134 03:47 20.07.2022
332 Clouds 20 1017 44 10000 1.54 138 00:49 20.07.2022
333 Clouds 20 1017 42 10000 1.66 143 23:41 19.07.2022
334 Clear 23 1017 41 10000 1.63 140 22:33 19.07.2022
335 Clear 33 1017 23 10000 1.03 0 21:31 19.07.2022
336 Clear 36 1017 16 10000 4.63 110 20:28 19.07.2022
337 Clear 37 1017 14 10000 4.63 120 18:44 19.07.2022
338 Clear 37 1018 15 10000 3.6 130 17:58 19.07.2022
339 Clear 36 1018 16 10000 2.57 0 16:37 19.07.2022
340 Clear 35 1019 16 10000 3.6 160 14:53 19.07.2022
341 Clear 31 1021 27 10000 2.06 80 11:43 19.07.2022
342 Clear 28 1021 34 10000 1.54 0 10:52 19.07.2022
343 Clear 22 1021 49 10000 1.03 0 09:23 19.07.2022
344 Clear 20 1021 56 10000 1.03 0 08:38 19.07.2022
345 Clear 17 1021 63 10000 1.03 290 07:19 19.07.2022
346 Clear 14 1021 62 10000 1.67 175 05:28 19.07.2022
347 Clear 11 1021 62 10000 1.67 175 04:53 19.07.2022
348 Clear 17 1021 54 10000 1.43 168 00:38 19.07.2022
349 Clouds 19 1021 52 10000 1.41 164 23:36 18.07.2022
350 Clouds 24 1021 50 10000 1.52 163 23:18 18.07.2022
351 Clear 28 1021 29 10000 1.03 0 21:58 18.07.2022
352 Clear 32 1020 22 10000 3.09 170 20:51 18.07.2022
353 Clear 33 1021 20 10000 2.57 0 19:33 18.07.2022
354 Clear 33 1022 19 10000 2.57 0 17:31 18.07.2022
355 Clear 32 1023 20 10000 3.09 0 15:52 18.07.2022
356 Clear 31 1023 22 10000 2.06 0 14:34 18.07.2022
357 Clear 29 1024 24 10000 3.09 180 12:58 18.07.2022
358 Clear 26 1024 33 10000 2.06 130 11:30 18.07.2022
359 Clear 17 1025 51 10000 1.54 100 08:57 18.07.2022
360 Clear 15 1025 58 10000 0 0 07:38 18.07.2022
361 Clouds 14 1026 63 10000 0.91 117 01:24 18.07.2022
362 Clouds 17 1027 56 10000 1.54 10 22:46 17.07.2022
363 Clouds 19 1026 52 10000 1.54 33 22:22 17.07.2022
364 Clear 23 1025 33 10000 1.03 0 21:23 17.07.2022
365 Clear 23 1025 30 10000 1.54 20 20:44 17.07.2022
366 Clear 25 1025 27 10000 3.09 30 19:34 17.07.2022
367 Clear 25 1026 27 10000 3.09 30 18:54 17.07.2022
368 Clear 26 1026 25 10000 2.57 0 17:38 17.07.2022
369 Clear 26 1026 23 10000 3.09 30 16:51 17.07.2022
370 Clear 25 1027 25 10000 3.09 350 16:26 17.07.2022
371 Clear 25 1027 22 10000 2.57 0 14:58 17.07.2022
372 Clear 23 1027 33 10000 2.57 350 13:31 17.07.2022
373 Clear 21 1027 40 10000 1.54 0 11:41 17.07.2022
374 Clear 15 1028 62 10000 1.03 0 09:30 17.07.2022
375 Clear 8 1027 87 10000 0.51 0 05:25 17.07.2022
376 Clear 9 1028 85 10000 0.83 28 02:33 17.07.2022
377 Clouds 12 1026 70 10000 1.74 338 23:20 16.07.2022
378 Clear 17 1025 51 10000 3.09 340 21:32 16.07.2022
379 Clear 21 1024 37 10000 4.63 350 19:40 16.07.2022
380 Clear 22 1024 32 10000 6.69 320 18:32 16.07.2022
381 Clear 23 1023 33 10000 7.2 300 16:53 16.07.2022
382 Clouds 21 1022 42 10000 7.72 310 13:56 16.07.2022
383 Clouds 19 1022 59 10000 6.69 300 11:38 16.07.2022
384 Clouds 18 1020 55 10000 6.17 270 09:35 16.07.2022
385 Clouds 16 1020 59 10000 4.63 260 08:47 16.07.2022
386 Clear 17 1020 59 10000 4.12 250 08:29 16.07.2022
387 Clear 11 1021 83 10000 2.12 207 04:24 16.07.2022
388 Clear 11 1021 80 10000 2.01 201 03:22 16.07.2022
389 Clear 13 1021 62 10000 2.06 220 23:34 15.07.2022
390 Clear 15 1021 55 10000 2.06 240 22:41 15.07.2022
391 Clear 19 1021 45 10000 3.6 300 21:29 15.07.2022
392 Clear 19 1021 45 10000 4.12 310 20:30 15.07.2022
393 Clear 21 1021 40 10000 4.63 290 18:42 15.07.2022
394 Clear 20 1022 42 10000 3.6 300 17:38 15.07.2022
395 Clouds 19 1022 48 10000 3.6 340 14:54 15.07.2022
396 Clouds 18 1022 45 10000 4.63 270 13:18 15.07.2022
397 Clouds 17 1022 48 10000 5.14 300 11:44 15.07.2022
398 Clouds 16 1022 55 10000 3.6 330 10:23 15.07.2022
399 Clouds 11 1023 90 10000 1.08 287 06:30 15.07.2022
400 Clear 13 1020 76 10000 1.54 0 00:58 15.07.2022
401 Clouds 13 1021 74 10000 1.82 327 00:21 15.07.2022
402 Clear 16 1020 63 10000 2.57 320 22:50 14.07.2022
403 Clear 18 1019 51 10000 5.66 330 21:47 14.07.2022
404 Clear 20 1019 42 10000 5.14 320 21:29 14.07.2022
405 Clear 21 1018 40 10000 5.66 320 20:45 14.07.2022
406 Clear 22 1018 40 10000 6.69 330 20:21 14.07.2022
407 Clear 23 1018 37 10000 6.69 330 19:18 14.07.2022
408 Clouds 25 1018 29 10000 6.69 310 16:23 14.07.2022
409 Clear 25 1018 33 10000 6.17 290 15:34 14.07.2022
410 Clouds 23 1018 46 10000 4.63 310 13:59 14.07.2022
411 Clouds 22 1018 56 10000 4.12 300 12:58 14.07.2022
412 Clouds 20 1019 68 10000 2.57 320 11:54 14.07.2022
413 Clouds 19 1019 72 10000 3.6 330 11:23 14.07.2022
414 Clouds 19 1019 72 10000 2.57 350 10:24 14.07.2022
415 Rain 17 1019 82 10000 2.57 340 07:50 14.07.2022
416 Clouds 19 1020 85 10000 1.48 359 01:26 14.07.2022
417 Clouds 20 1020 85 10000 1.48 359 00:53 14.07.2022
418 Clouds 23 1019 76 10000 2.32 341 22:57 13.07.2022
419 Clouds 23 1019 65 10000 1.62 303 22:22 13.07.2022
420 Clear 26 1019 36 10000 7.72 280 21:19 13.07.2022
421 Rain 25 1019 43 10000 5.66 270 19:58 13.07.2022
422 Clear 29 1019 36 10000 8.23 290 17:52 13.07.2022
423 Clear 29 1019 34 10000 7.2 270 16:46 13.07.2022
424 Clear 30 1019 32 10000 5.66 230 15:26 13.07.2022
425 Clear 28 1020 39 10000 4.12 210 12:56 13.07.2022
426 Clear 24 1021 53 10000 2.57 150 10:46 13.07.2022
427 Clear 24 1021 53 10000 3.09 150 10:25 13.07.2022
428 Rain 22 1021 60 10000 2.57 130 09:26 13.07.2022
429 Clear 17 1022 77 10000 1.03 0 07:52 13.07.2022
430 Clouds 15 1023 71 10000 1.72 186 03:19 13.07.2022
431 Clouds 16 1024 70 10000 1.19 193 23:52 12.07.2022
432 Clear 22 1024 56 10000 1.03 300 22:18 12.07.2022
433 Clear 25 1024 46 10000 2.57 290 21:35 12.07.2022
434 Clear 25 1024 43 10000 3.6 290 20:42 12.07.2022
435 Clear 27 1024 38 10000 5.14 300 19:36 12.07.2022
436 Clear 28 1024 29 10000 4.63 320 17:55 12.07.2022
437 Clear 27 1024 36 10000 1.54 0 16:20 12.07.2022
438 Clouds 25 1025 38 10000 2.06 0 14:31 12.07.2022
439 Clear 23 1025 49 10000 3.09 300 13:21 12.07.2022
440 Clouds 21 1026 60 10000 1.54 0 11:42 12.07.2022
441 Clouds 18 1025 72 10000 1.54 290 10:18 12.07.2022
442 Clouds 16 1025 94 10000 0.51 0 08:26 12.07.2022
443 Clouds 14 1025 100 10000 1.54 290 07:38 12.07.2022
444 Clouds 13 1024 94 10000 0.82 354 05:42 12.07.2022
445 Clouds 15 1024 88 10000 0.83 309 03:29 12.07.2022
446 Clouds 16 1024 91 10000 1.12 298 23:42 11.07.2022
447 Clouds 17 1024 88 10000 1.54 250 22:36 11.07.2022
448 Clouds 18 1024 82 10000 3.09 310 20:54 11.07.2022
449 Clouds 18 1024 82 10000 3.09 290 20:25 11.07.2022
450 Clouds 17 1024 94 10000 3.09 290 18:38 11.07.2022
451 Clouds 17 1024 88 10000 4.12 290 17:55 11.07.2022
452 Clouds 17 1024 88 10000 2.06 350 16:22 11.07.2022
453 Clouds 17 1024 88 9000 2.06 10 14:49 11.07.2022
454 Drizzle 15 1023 94 5000 4.12 360 12:18 11.07.2022
455 Clouds 14 1023 100 6000 1.54 0 10:42 11.07.2022
456 Drizzle 14 1023 100 2500 0.51 0 09:54 11.07.2022
457 Mist 14 1023 94 4100 1.54 270 08:35 11.07.2022
458 Clouds 14 1022 94 10000 1.54 260 07:24 11.07.2022
459 Clouds 14 1023 91 10000 1.36 254 00:24 11.07.2022
460 Clouds 15 1023 91 10000 1.36 254 23:32 10.07.2022
461 Clouds 15 1023 94 10000 2.06 340 22:21 10.07.2022
462 Rain 15 1023 88 9000 4.63 290 20:54 10.07.2022
463 Clouds 16 1023 88 10000 3.09 300 19:50 10.07.2022
464 Clouds 15 1023 94 9000 4.63 290 18:53 10.07.2022
465 Clouds 16 1024 82 10000 5.14 280 17:41 10.07.2022
466 Clouds 16 1024 72 10000 7.72 290 16:59 10.07.2022
467 Clouds 17 1024 67 10000 7.2 300 16:20 10.07.2022
468 Clouds 19 1023 48 10000 6.17 310 14:35 10.07.2022
469 Clouds 16 1024 63 10000 8.23 300 12:38 10.07.2022
470 Clouds 16 1024 63 10000 6.69 300 11:34 10.07.2022
471 Clouds 14 1024 71 10000 7.72 310 09:28 10.07.2022
472 Clouds 14 1024 76 10000 7.72 300 08:38 10.07.2022
473 Clouds 13 1023 76 10000 5.66 290 05:36 10.07.2022
474 Clouds 16 1025 88 10000 2.4 319 23:35 09.07.2022
475 Clouds 17 1024 67 10000 7.2 330 22:26 09.07.2022
476 Clouds 18 1023 63 10000 6.69 330 21:40 09.07.2022
477 Clouds 22 1023 52 10000 3.6 340 19:19 09.07.2022
478 Clouds 20 1023 68 10000 3.09 360 18:23 09.07.2022
479 Clouds 20 1024 64 10000 3.6 260 16:59 09.07.2022
480 Clouds 19 1024 82 10000 5.14 260 15:54 09.07.2022
481 Rain 20 1025 63 10000 5.66 310 15:35 09.07.2022
482 Clouds 21 1025 64 10000 5.66 300 13:54 09.07.2022
483 Rain 20 1025 63 10000 5.14 300 13:27 09.07.2022
484 Clouds 20 1026 63 10000 6.69 290 11:33 09.07.2022
485 Clouds 19 1026 72 10000 7.2 310 10:24 09.07.2022
486 Clouds 17 1026 82 10000 3.09 270 08:25 09.07.2022
487 Clouds 13 1026 93 10000 1.09 231 06:59 09.07.2022
488 Clouds 12 1027 97 10000 1.16 221 04:34 09.07.2022
489 Clouds 18 1028 77 10000 2.57 240 23:22 08.07.2022
490 Clouds 20 1028 68 10000 1.54 260 21:59 08.07.2022
491 Clouds 20 1028 63 10000 3.6 290 21:18 08.07.2022
492 Clouds 21 1028 60 10000 5.14 310 20:30 08.07.2022
493 Clouds 21 1029 56 10000 5.14 320 18:33 08.07.2022
494 Clouds 22 1029 52 10000 6.17 320 17:33 08.07.2022
495 Clouds 21 1029 56 10000 7.2 290 17:33 08.07.2022
496 Clouds 20 1029 55 10000 6.69 290 15:30 08.07.2022
497 Clouds 21 1029 52 10000 6.17 310 14:49 08.07.2022
498 Clouds 18 1030 55 10000 5.66 300 12:28 08.07.2022
499 Clouds 16 1030 58 10000 5.66 300 10:45 08.07.2022
500 Clouds 14 1029 71 10000 4.63 310 08:55 08.07.2022
501 Clouds 14 1029 91 10000 1.88 300 06:55 08.07.2022
502 Clear 13 1028 93 10000 4.21 317 03:22 08.07.2022
503 Clouds 15 1026 67 10000 6.17 300 23:45 07.07.2022
504 Clouds 15 1025 72 10000 5.66 300 22:45 07.07.2022
505 Clouds 16 1023 72 10000 6.69 310 20:59 07.07.2022
506 Rain 16 1022 94 5000 9.26 300 18:42 07.07.2022
507 Clouds 18 1021 72 10000 9.26 290 17:41 07.07.2022
508 Clouds 18 1020 77 10000 6.17 300 15:34 07.07.2022
509 Clouds 17 1019 82 9000 7.72 290 13:30 07.07.2022
510 Clouds 17 1018 94 10000 7.2 300 12:40 07.07.2022
511 Clouds 17 1018 94 10000 7.2 300 12:20 07.07.2022
512 Rain 16 1018 94 9000 4.63 270 11:31 07.07.2022
513 Clouds 16 1018 88 10000 4.63 280 10:44 07.07.2022
514 Clouds 16 1018 88 5000 5.14 250 10:25 07.07.2022
515 Rain 15 1018 82 10000 4.12 210 07:58 07.07.2022
516 Clouds 14 1019 72 10000 3.02 221 04:44 07.07.2022
517 Rain 14 1021 63 10000 2.37 209 23:37 06.07.2022
518 Rain 15 1022 63 10000 2.09 220 23:19 06.07.2022
519 Clouds 15 1022 63 10000 2.09 220 22:57 06.07.2022
520 Clouds 15 1022 61 10000 2.06 221 22:38 06.07.2022
521 Clear 18 1022 51 10000 2.57 280 21:46 06.07.2022
522 Clear 19 1022 45 10000 5.14 290 19:39 06.07.2022
523 Clear 20 1023 39 10000 6.17 300 18:32 06.07.2022
524 Clouds 19 1024 45 10000 3.6 310 16:27 06.07.2022
525 Clouds 18 1024 45 10000 5.14 300 14:58 06.07.2022
526 Clouds 18 1025 45 10000 6.17 290 12:42 06.07.2022
527 Clouds 18 1025 45 10000 5.14 310 11:49 06.07.2022
528 Clouds 16 1024 63 10000 5.14 300 10:20 06.07.2022
529 Clouds 14 1024 76 10000 4.63 290 08:26 06.07.2022
530 Clouds 14 1024 76 10000 3.09 280 07:23 06.07.2022
531 Clouds 13 1023 82 10000 3.6 280 05:28 06.07.2022
532 Clouds 19 1023 78 10000 2.26 334 22:48 05.07.2022
533 Clear 21 1021 42 10000 3.6 300 21:59 05.07.2022
534 Clear 21 1021 42 10000 2.57 320 20:41 05.07.2022
535 Clear 22 1021 40 10000 5.66 320 19:43 05.07.2022
536 Clear 23 1021 37 10000 5.14 310 19:22 05.07.2022
537 Clear 24 1021 35 10000 6.17 290 17:48 05.07.2022
538 Clear 24 1021 33 10000 4.63 300 16:55 05.07.2022
539 Clouds 23 1021 37 10000 5.14 320 15:31 05.07.2022
540 Clouds 23 1021 40 10000 4.12 300 14:28 05.07.2022
541 Clouds 21 1022 49 10000 3.09 0 12:43 05.07.2022
542 Clear 21 1022 52 10000 3.6 290 11:33 05.07.2022
543 Clear 20 1022 52 10000 3.6 320 10:40 05.07.2022
544 Clear 17 1022 67 10000 2.06 320 09:22 05.07.2022
545 Clear 14 1021 77 10000 2.06 310 07:45 05.07.2022
546 Clear 11 1021 85 10000 0.35 239 04:49 05.07.2022
547 Clear 13 1021 84 10000 0.49 292 04:23 05.07.2022
548 Clear 16 1020 77 10000 0.78 334 23:56 04.07.2022
549 Clear 16 1020 71 10000 1.53 327 23:26 04.07.2022
550 Clear 21 1019 42 10000 2.06 320 22:25 04.07.2022
551 Clear 23 1019 37 10000 2.06 300 21:30 04.07.2022
552 Clear 22 1019 40 10000 3.09 310 20:52 04.07.2022
553 Clear 22 1019 40 10000 3.09 310 20:33 04.07.2022
554 Clear 23 1019 37 10000 5.14 300 19:52 04.07.2022
555 Clear 23 1019 37 10000 5.14 300 19:34 04.07.2022
556 Clear 24 1019 35 10000 4.12 310 17:57 04.07.2022
557 Clear 24 1020 35 10000 3.6 0 15:50 04.07.2022
558 Clear 23 1020 35 10000 4.12 300 14:54 04.07.2022
559 Clouds 22 1020 40 10000 4.12 290 13:29 04.07.2022
560 Clouds 20 1020 48 10000 4.12 290 12:20 04.07.2022
561 Clear 19 1021 59 10000 5.66 290 10:33 04.07.2022
562 Clear 18 1021 67 10000 4.63 280 09:40 04.07.2022
563 Clear 15 1020 82 10000 1.54 240 06:53 04.07.2022
564 Clear 16 1020 91 10000 1.06 268 03:30 04.07.2022
565 Clouds 14 1019 84 10000 1.31 312 00:30 04.07.2022
566 Clear 20 1018 63 10000 3.6 300 22:58 03.07.2022
567 Clouds 25 1017 41 10000 7.72 300 20:47 03.07.2022
568 Clouds 26 1016 38 10000 4.63 280 20:21 03.07.2022
569 Clear 26 1016 36 10000 3.6 320 19:26 03.07.2022
570 Clear 27 1016 36 10000 6.69 300 18:32 03.07.2022
571 Clear 29 1016 32 10000 6.69 310 17:43 03.07.2022
572 Clouds 27 1017 36 10000 2.57 350 15:29 03.07.2022
573 Clouds 27 1017 36 10000 3.09 0 14:58 03.07.2022
574 Clouds 27 1017 36 10000 2.57 300 13:59 03.07.2022
575 Clear 28 1017 36 10000 3.09 290 13:27 03.07.2022
576 Clear 26 1018 36 10000 2.57 350 12:22 03.07.2022
577 Clear 25 1018 41 10000 2.57 300 10:55 03.07.2022
578 Clear 25 1018 41 10000 2.57 300 10:36 03.07.2022
579 Clear 20 1017 52 10000 2.57 140 08:48 03.07.2022
580 Clear 18 1017 59 10000 2.06 120 07:34 03.07.2022
581 Clear 15 1019 69 10000 1.7 169 01:32 03.07.2022
582 Clear 16 1019 67 10000 1.57 141 23:38 02.07.2022
583 Clear 19 1019 62 10000 1.75 149 22:31 02.07.2022
584 Clear 26 1019 33 10000 4.12 180 20:37 02.07.2022
585 Clear 27 1019 29 10000 4.63 180 19:50 02.07.2022
586 Clear 28 1019 26 10000 2.57 0 18:48 02.07.2022
587 Clear 27 1020 31 10000 4.12 160 17:40 02.07.2022
588 Clear 27 1021 34 10000 4.63 200 16:35 02.07.2022
589 Clear 24 1022 31 10000 3.6 180 13:51 02.07.2022
590 Clear 23 1023 38 10000 3.09 190 11:51 02.07.2022
591 Clouds 21 1024 49 10000 3.09 140 10:52 02.07.2022
592 Clear 21 1024 52 10000 3.6 140 10:28 02.07.2022
593 Clear 16 1024 72 10000 2.57 140 08:39 02.07.2022
594 Clear 15 1024 77 10000 2.57 130 08:19 02.07.2022
595 Clear 11 1023 87 10000 1.03 100 05:51 02.07.2022
596 Clear 11 1023 89 10000 1.59 175 00:34 02.07.2022
597 Clouds 16 1022 67 10000 1.54 220 23:31 01.07.2022
598 Clouds 17 1021 55 10000 2.06 260 22:35 01.07.2022
599 Clear 19 1020 52 10000 1.54 250 21:39 01.07.2022
600 Clear 20 1020 49 10000 1.54 240 20:59 01.07.2022
601 Clear 20 1020 49 10000 1.54 240 20:37 01.07.2022
602 Clouds 20 1019 48 10000 4.12 270 19:40 01.07.2022
603 Clouds 20 1019 48 10000 3.6 250 17:39 01.07.2022
604 Rain 18 1018 67 10000 4.12 260 15:21 01.07.2022
605 Rain 17 1018 72 10000 2.06 280 13:54 01.07.2022
606 Clouds 18 1018 63 10000 5.14 290 11:48 01.07.2022
607 Clouds 16 1017 77 10000 3.6 270 10:19 01.07.2022
608 Clouds 16 1017 77 10000 3.6 270 10:19 01.07.2022
609 Rain 15 1016 82 10000 4.12 290 07:40 01.07.2022
610 Clouds 17 1015 95 10000 3.06 280 02:49 01.07.2022
611 Clouds 21 1012 93 6731 4.63 303 00:25 01.07.2022
612 Clouds 25 1009 60 10000 1.54 140 22:54 30.06.2022
613 Clouds 25 1009 60 10000 1.54 140 22:32 30.06.2022
614 Clear 27 1009 53 10000 3.6 120 21:55 30.06.2022
615 Clear 27 1009 53 10000 3.6 120 21:34 30.06.2022
616 Clear 29 1009 47 10000 4.12 80 20:22 30.06.2022
617 Clear 30 1009 45 10000 4.12 70 19:53 30.06.2022
618 Clear 30 1009 45 10000 4.12 70 19:18 30.06.2022
619 Clear 30 1010 45 10000 4.12 10 18:34 30.06.2022
620 Clear 29 1010 51 10000 3.6 10 17:37 30.06.2022
621 Clouds 30 1010 42 10000 2.57 0 16:48 30.06.2022
622 Clouds 28 1011 54 10000 4.63 80 14:47 30.06.2022
623 Clouds 29 1012 51 10000 2.57 70 13:30 30.06.2022
624 Rain 27 1012 57 10000 2.06 60 12:34 30.06.2022
625 Clear 26 1012 61 10000 1.54 130 11:28 30.06.2022
626 Clear 23 1013 73 10000 2.06 120 09:53 30.06.2022
627 Clear 23 1013 73 10000 2.06 120 09:31 30.06.2022
628 Clear 19 1013 82 10000 2.06 130 07:41 30.06.2022
629 Clear 16 1013 97 10000 0.92 100 05:47 30.06.2022
630 Clouds 18 1014 93 10000 1.2 54 00:31 30.06.2022
631 Clouds 22 1013 91 10000 1.43 48 23:19 29.06.2022
632 Clouds 22 1013 91 10000 1.43 48 22:38 29.06.2022
633 Clear 23 1013 68 10000 3.09 80 21:34 29.06.2022
634 Clouds 25 1013 60 10000 5.14 90 20:33 29.06.2022
635 Clouds 25 1013 57 10000 5.14 90 19:36 29.06.2022
636 Clear 27 1013 50 10000 4.63 90 17:42 29.06.2022
637 Clear 28 1014 44 10000 3.6 60 16:36 29.06.2022
638 Clear 26 1015 44 10000 6.17 90 14:56 29.06.2022
639 Clear 25 1015 50 10000 6.69 90 12:39 29.06.2022
640 Clear 22 1016 56 10000 4.63 100 10:37 29.06.2022
641 Clear 22 1016 52 10000 2.57 60 09:32 29.06.2022
642 Clear 16 1016 72 10000 0.51 0 07:36 29.06.2022
643 Clouds 13 1017 65 10000 1.55 61 04:50 29.06.2022
644 Clouds 15 1018 63 10000 2.36 43 00:56 29.06.2022
645 Clouds 15 1018 63 10000 2.35 43 00:35 29.06.2022
646 Clouds 17 1019 62 10000 2.24 46 22:53 28.06.2022
647 Clouds 18 1019 63 10000 2.19 44 22:24 28.06.2022
648 Clear 22 1018 43 10000 2.06 50 21:54 28.06.2022
649 Clear 22 1018 43 10000 2.06 50 21:32 28.06.2022
650 Clear 24 1019 38 10000 3.09 60 20:34 28.06.2022
651 Clear 25 1019 33 10000 2.57 0 19:33 28.06.2022
652 Clear 25 1019 33 10000 2.57 0 19:33 28.06.2022
653 Clear 25 1019 33 10000 3.09 60 18:45 28.06.2022
654 Clear 25 1019 33 10000 3.09 60 18:45 28.06.2022
655 Clear 25 1020 31 10000 2.06 0 17:39 28.06.2022
656 Clear 24 1021 35 10000 3.6 10 15:57 28.06.2022
657 Clouds 24 1021 35 10000 3.09 300 15:21 28.06.2022
658 Clouds 23 1022 40 10000 2.06 80 14:20 28.06.2022
659 Clouds 23 1022 37 10000 2.57 40 13:50 28.06.2022
660 Clouds 23 1022 43 10000 1.54 0 12:54 28.06.2022
661 Clear 20 1023 48 10000 2.57 310 10:57 28.06.2022
662 Clear 18 1023 59 10000 2.06 0 09:25 28.06.2022
663 Clear 16 1023 72 10000 1.54 240 08:43 28.06.2022
664 Clear 14 1023 92 10000 1.19 216 07:26 28.06.2022
665 Clear 11 1023 97 10000 1.17 224 04:59 28.06.2022
666 Rain 18 1021 87 10000 2.4 292 23:59 27.06.2022
667 Rain 18 1021 87 10000 2.4 292 23:36 27.06.2022
668 Clouds 18 1019 77 10000 4.12 300 22:51 27.06.2022
669 Clouds 20 1018 82 9000 2.57 330 21:33 27.06.2022
670 Clouds 20 1018 82 9000 3.09 310 20:44 27.06.2022
671 Clouds 21 1017 83 10000 4.12 330 18:58 27.06.2022
672 Clouds 22 1017 78 9000 4.12 310 18:19 27.06.2022
673 Clouds 22 1016 73 10000 7.72 290 16:19 27.06.2022
674 Clouds 25 1015 64 10000 1.03 0 14:44 27.06.2022
675 Clouds 24 1015 64 10000 1.03 0 13:25 27.06.2022
676 Clouds 23 1015 68 10000 1.54 0 12:52 27.06.2022
677 Clouds 21 1015 77 10000 2.57 290 10:22 27.06.2022
678 Clear 19 1014 82 10000 3.09 280 08:47 27.06.2022
679 Clear 18 1013 82 10000 1.03 0 07:59 27.06.2022
680 Clear 18 1013 82 10000 1.54 160 06:38 27.06.2022
681 Clouds 19 1015 98 10000 1.8 348 01:55 27.06.2022
682 Clouds 20 1014 96 10000 2.34 33 23:49 26.06.2022
683 Clear 22 1015 68 10000 3.6 300 21:58 26.06.2022
684 Clear 23 1015 64 10000 4.63 290 20:34 26.06.2022
685 Clear 25 1015 57 10000 5.66 320 19:23 26.06.2022
686 Clear 26 1015 53 10000 6.17 300 18:24 26.06.2022
687 Clouds 27 1016 47 10000 1.03 0 15:53 26.06.2022
688 Clear 26 1016 50 10000 2.57 340 14:34 26.06.2022
689 Clear 25 1016 57 10000 3.09 320 13:30 26.06.2022
690 Clear 24 1016 60 10000 3.09 310 12:52 26.06.2022
691 Clear 24 1015 53 10000 1.54 0 11:21 26.06.2022
692 Clear 22 1015 60 10000 2.57 330 10:23 26.06.2022
693 Clear 20 1014 68 10000 0.51 0 08:45 26.06.2022
694 Clouds 20 1014 79 10000 1.59 168 07:23 26.06.2022
695 Clouds 17 1013 63 10000 0.8 153 00:48 26.06.2022
696 Clouds 18 1013 64 10000 0.74 124 00:20 26.06.2022
697 Clouds 18 1013 64 10000 0.74 124 00:20 26.06.2022
698 Clouds 19 1013 64 10000 0.75 124 23:33 25.06.2022
699 Clouds 19 1013 63 10000 0.67 94 23:33 25.06.2022
700 Clear 21 1013 60 10000 1.54 170 22:51 25.06.2022
701 Clear 22 1013 60 10000 1.54 170 22:25 25.06.2022
702 Clear 25 1012 50 10000 2.06 140 21:22 25.06.2022
703 Clear 25 1012 46 10000 2.57 160 20:54 25.06.2022
704 Clear 26 1012 41 10000 3.6 150 20:25 25.06.2022
705 Clear 27 1012 38 10000 3.09 210 18:42 25.06.2022
706 Clouds 27 1013 41 10000 4.12 170 17:27 25.06.2022
707 Clouds 27 1013 41 10000 2.06 0 16:29 25.06.2022
708 Clouds 25 1013 50 10000 4.12 180 14:47 25.06.2022
709 Clouds 24 1013 53 10000 2.57 270 12:51 25.06.2022
710 Clouds 24 1013 60 10000 3.09 0 12:32 25.06.2022
711 Clouds 22 1013 64 10000 1.54 260 09:40 25.06.2022
712 Clouds 20 1013 77 10000 2.57 190 08:55 25.06.2022
713 Clouds 19 1013 88 10000 2.57 160 08:25 25.06.2022
714 Clouds 16 1013 98 10000 2.21 193 06:36 25.06.2022
715 Clouds 17 1012 97 10000 2.73 192 01:53 25.06.2022
716 Clouds 20 1010 77 10000 5.66 230 00:20 25.06.2022
717 Clouds 21 1009 77 6000 1.03 200 22:29 24.06.2022
718 Clear 21 1008 77 10000 1.54 200 21:28 24.06.2022
719 Clouds 21 1008 77 10000 2.57 50 20:24 24.06.2022
720 Clouds 20 1008 88 10000 2.57 340 19:39 24.06.2022
721 Clouds 22 1007 73 10000 4.12 300 19:18 24.06.2022
722 Clouds 24 1007 60 10000 3.09 230 18:44 24.06.2022
723 Clouds 25 1007 60 10000 3.6 230 18:24 24.06.2022
724 Clouds 23 1007 73 10000 4.63 210 16:48 24.06.2022
725 Clouds 23 1007 56 10000 5.14 200 14:57 24.06.2022
726 Clouds 23 1007 60 10000 4.63 190 14:24 24.06.2022
727 Clouds 24 1008 60 10000 5.14 170 13:46 24.06.2022
728 Clouds 22 1008 68 10000 5.14 180 11:42 24.06.2022
729 Clouds 21 1008 73 10000 5.66 180 10:39 24.06.2022
730 Rain 21 1008 73 10000 4.12 130 09:42 24.06.2022
731 Rain 21 1008 73 10000 4.12 130 09:42 24.06.2022
732 Clouds 21 1008 73 10000 3.09 170 08:54 24.06.2022
733 Clear 22 1008 60 10000 3.6 210 08:19 24.06.2022
734 Clouds 20 1009 96 10000 2.56 177 06:44 24.06.2022
735 Clouds 17 1009 98 10000 2.79 163 06:25 24.06.2022
736 Clear 20 1008 56 10000 3.6 140 04:50 24.06.2022
737 Clear 23 1010 38 10000 3.09 120 23:32 23.06.2022
738 Clear 24 1011 38 10000 2.06 100 22:43 23.06.2022
739 Clear 29 1010 36 10000 2.57 80 20:59 23.06.2022
740 Clear 29 1010 36 10000 2.57 80 20:36 23.06.2022
741 Clear 30 1010 32 10000 3.09 80 19:53 23.06.2022
742 Clear 31 1011 28 10000 3.09 90 18:27 23.06.2022
743 Clear 31 1011 28 10000 2.57 90 17:34 23.06.2022
744 Clear 31 1012 26 10000 2.57 0 16:26 23.06.2022
745 Clear 30 1013 23 10000 4.63 130 15:26 23.06.2022
746 Clear 30 1013 23 10000 4.63 130 15:26 23.06.2022
747 Clear 30 1013 20 10000 3.6 100 14:34 23.06.2022
748 Clear 27 1014 34 10000 3.09 110 11:41 23.06.2022
749 Clear 25 1014 41 10000 2.06 120 10:40 23.06.2022
750 Clear 20 1014 60 10000 1.54 90 09:19 23.06.2022
751 Clouds 12 1014 82 10000 1.19 77 04:43 23.06.2022
752 Clouds 16 1013 74 10000 1.22 82 00:27 23.06.2022
753 Clouds 15 1013 74 10000 1.22 82 23:49 22.06.2022
754 Clear 16 1013 73 10000 1.69 62 22:50 22.06.2022
755 Clear 23 1012 49 10000 2.06 10 21:28 22.06.2022
756 Clear 25 1012 43 10000 2.57 10 20:48 22.06.2022
757 Clear 26 1012 38 10000 2.06 30 20:18 22.06.2022
758 Clear 26 1012 36 10000 2.06 30 18:57 22.06.2022
759 Clear 27 1012 31 10000 1.54 0 17:31 22.06.2022
760 Clear 26 1012 36 10000 2.57 0 16:40 22.06.2022
761 Clear 26 1012 38 10000 3.09 10 15:28 22.06.2022
762 Clear 26 1013 38 10000 2.06 0 14:40 22.06.2022
763 Clear 25 1013 35 10000 2.06 0 13:45 22.06.2022
764 Clear 24 1013 40 10000 2.57 0 13:23 22.06.2022
765 Clear 23 1013 40 10000 2.06 90 11:50 22.06.2022
766 Clear 20 1013 59 10000 2.06 340 10:58 22.06.2022
767 Clear 20 1013 59 10000 2.06 340 10:58 22.06.2022
768 Clear 19 1013 59 10000 2.06 10 10:20 22.06.2022
769 Clear 17 1013 67 10000 1.54 350 08:48 22.06.2022
770 Clear 12 1012 87 10000 1.54 220 05:59 22.06.2022
771 Clouds 14 1013 61 10000 1.69 31 01:49 22.06.2022
772 Clouds 15 1014 67 10000 1.38 43 00:39 22.06.2022
773 Clouds 17 1013 68 10000 1.68 58 22:37 21.06.2022
774 Clear 22 1012 46 10000 2.06 10 20:39 21.06.2022
775 Clear 22 1013 40 10000 2.06 0 18:53 21.06.2022
776 Clear 23 1013 38 10000 2.06 340 17:42 21.06.2022
777 Clear 22 1015 40 10000 3.09 110 15:21 21.06.2022
778 Clouds 18 1016 55 10000 1.54 0 11:55 21.06.2022
779 Clouds 15 1017 67 10000 2.06 30 10:20 21.06.2022
780 Clear 13 1017 82 10000 1.03 0 08:51 21.06.2022
781 Clear 11 1017 87 10000 1.03 0 07:35 21.06.2022
782 Clear 8 1017 93 10000 1.13 223 03:21 21.06.2022
783 Clear 14 1016 67 10000 3.09 280 23:27 20.06.2022
784 Clear 16 1015 58 10000 4.12 300 21:58 20.06.2022
785 Clear 16 1015 58 10000 4.12 300 21:32 20.06.2022
786 Clear 18 1015 51 10000 6.69 310 19:57 20.06.2022
787 Clouds 19 1014 42 10000 7.2 290 18:54 20.06.2022
788 Clouds 19 1014 48 10000 7.2 290 18:24 20.06.2022
789 Clouds 19 1014 48 10000 6.17 310 17:41 20.06.2022
790 Clouds 17 1015 67 10000 3.6 290 16:21 20.06.2022
791 Rain 14 1015 82 10000 4.12 280 14:29 20.06.2022
792 Rain 12 1014 93 10000 4.63 300 11:46 20.06.2022
793 Rain 13 1013 94 10000 3.6 330 09:55 20.06.2022
794 Rain 13 1011 94 9000 4.63 330 08:45 20.06.2022
795 Rain 14 1011 94 8000 2.57 260 07:35 20.06.2022
796 Clouds 14 1012 98 10000 1.73 9 03:52 20.06.2022
797 Clouds 14 1013 97 10000 2.24 0 01:32 20.06.2022
798 Clouds 17 1013 67 10000 5.14 340 23:48 19.06.2022
799 Clear 20 1011 59 10000 3.6 340 22:19 19.06.2022
800 Clear 20 1011 59 10000 3.6 340 21:42 19.06.2022
801 Clear 21 1011 56 10000 4.12 350 20:48 19.06.2022
802 Clear 23 1011 53 10000 7.2 340 19:49 19.06.2022
803 Clear 24 1011 49 10000 7.72 330 19:24 19.06.2022
804 Clear 25 1010 50 10000 7.2 330 18:32 19.06.2022
805 Clear 25 1010 50 10000 8.75 330 17:42 19.06.2022
806 Clear 27 1009 47 10000 6.17 310 16:47 19.06.2022
807 Clear 26 1009 50 10000 4.12 320 16:23 19.06.2022
808 Clear 25 1008 50 10000 2.06 60 15:29 19.06.2022
809 Clear 24 1008 53 10000 2.57 350 14:41 19.06.2022
810 Clear 25 1010 50 10000 8.75 330 13:52 19.06.2022
811 Clear 28 1009 53 10000 8.23 310 12:19 19.06.2022
812 Clear 27 1007 57 10000 7.2 300 10:52 19.06.2022
813 Clear 27 1007 36 10000 6.17 170 08:55 19.06.2022
814 Clear 28 1007 39 10000 5.14 160 08:30 19.06.2022
815 Clouds 16 1007 72 10000 2.86 165 06:54 19.06.2022
816 Clouds 16 1009 74 10000 2.62 167 03:38 19.06.2022
817 Clouds 21 1012 78 10000 1.21 120 00:28 19.06.2022
818 Clouds 21 1012 78 10000 1.21 120 23:59 18.06.2022
819 Clouds 21 1012 78 10000 1.21 120 23:34 18.06.2022
820 Clear 25 1013 73 10000 1.57 64 22:23 18.06.2022
821 Clear 30 1014 45 10000 2.06 330 20:51 18.06.2022
822 Clear 32 1014 37 10000 2.06 330 20:18 18.06.2022
823 Clear 33 1014 35 10000 4.12 340 18:57 18.06.2022
824 Clear 33 1014 35 10000 4.12 340 18:38 18.06.2022
825 Clear 35 1015 24 10000 4.63 0 17:29 18.06.2022
826 Clear 34 1016 27 10000 1.54 0 15:57 18.06.2022
827 Clear 33 1016 31 10000 2.57 0 14:54 18.06.2022
828 Clear 33 1016 31 10000 2.57 0 14:35 18.06.2022
829 Clear 30 1018 37 10000 3.09 210 12:30 18.06.2022
830 Clear 28 1018 41 10000 2.57 200 11:20 18.06.2022
831 Clear 25 1018 47 10000 2.06 160 09:46 18.06.2022
832 Clear 22 1019 53 10000 3.09 210 08:46 18.06.2022
833 Clear 20 1019 56 10000 3.6 210 07:34 18.06.2022
834 Clear 17 1019 67 10000 1.03 0 05:20 18.06.2022
835 Clouds 14 1021 66 10000 2.84 179 02:51 18.06.2022
836 Clouds 16 1022 60 10000 2.55 182 01:21 18.06.2022
837 Clouds 17 1022 60 10000 2.55 182 00:32 18.06.2022
838 Clear 20 1021 49 10000 1.54 190 23:37 17.06.2022
839 Clouds 19 1022 58 10000 2.19 172 22:33 17.06.2022
840 Clear 26 1022 33 10000 2.57 190 20:29 17.06.2022
841 Clear 27 1022 31 10000 4.12 140 19:24 17.06.2022
842 Clear 27 1023 31 10000 3.09 150 18:19 17.06.2022
843 Clear 26 1023 31 10000 4.12 150 16:50 17.06.2022
844 Rain 26 1023 31 10000 4.12 150 16:25 17.06.2022
845 Clear 27 1024 31 10000 2.57 0 15:40 17.06.2022
846 Clear 26 1024 31 10000 3.09 220 14:24 17.06.2022
847 Clear 25 1025 35 10000 3.09 270 13:59 17.06.2022
848 Clear 25 1025 35 10000 3.09 270 13:39 17.06.2022
849 Clear 23 1025 43 10000 1.54 0 12:29 17.06.2022
850 Clear 23 1025 43 10000 2.06 0 11:55 17.06.2022
851 Clear 23 1025 43 10000 2.06 0 11:34 17.06.2022
852 Clear 18 1026 59 10000 1.03 0 09:36 17.06.2022
853 Clear 15 1025 77 10000 1.03 0 08:26 17.06.2022
854 Clear 11 1025 81 10000 0.51 0 06:45 17.06.2022
855 Clouds 11 1025 88 10000 0.21 152 03:59 17.06.2022
856 Clouds 13 1025 84 10000 0.3 341 01:56 17.06.2022
857 Clear 16 1024 59 10000 1.54 300 23:47 16.06.2022
858 Clear 17 1024 59 10000 2.57 310 22:42 16.06.2022
859 Clear 20 1022 48 10000 3.09 330 21:22 16.06.2022
860 Clear 21 1022 42 10000 4.63 330 20:52 16.06.2022
861 Clear 21 1022 42 10000 4.63 330 20:33 16.06.2022
862 Clear 22 1022 40 10000 5.66 330 19:32 16.06.2022
863 Clear 23 1022 35 10000 6.69 310 18:24 16.06.2022
864 Clear 23 1022 33 10000 5.14 350 17:42 16.06.2022
865 Clear 23 1021 33 10000 6.69 320 16:33 16.06.2022
866 Clear 23 1022 43 10000 5.14 320 15:22 16.06.2022
867 Clouds 22 1021 46 10000 5.66 320 14:30 16.06.2022
868 Clouds 22 1021 49 10000 5.14 350 13:19 16.06.2022
869 Clear 22 1021 52 10000 4.63 310 12:35 16.06.2022
870 Clear 20 1020 59 10000 2.57 360 11:49 16.06.2022
871 Clear 19 1020 59 10000 5.14 320 10:54 16.06.2022
872 Clouds 17 1020 63 10000 4.63 320 09:43 16.06.2022
873 Clouds 15 1019 67 10000 4.63 320 09:20 16.06.2022
874 Clouds 14 1019 71 10000 3.6 300 07:57 16.06.2022
875 Clouds 14 1019 83 10000 1.78 346 07:24 16.06.2022
876 Clouds 15 1018 89 10000 2.22 353 04:33 16.06.2022
877 Clouds 17 1018 90 10000 2.27 4 01:54 16.06.2022
878 Clouds 17 1018 90 10000 2.27 4 01:34 16.06.2022
879 Clouds 17 1018 90 10000 2.27 4 01:34 16.06.2022
880 Clouds 18 1018 90 10000 2.34 6 00:38 16.06.2022
881 Clouds 17 1017 88 10000 1.97 10 23:25 15.06.2022
882 Clouds 19 1017 84 10000 2.17 359 22:28 15.06.2022
883 Clear 24 1017 43 10000 3.6 330 21:21 15.06.2022
884 Clear 25 1017 41 10000 3.6 340 20:38 15.06.2022
885 Clear 26 1016 38 10000 3.09 350 20:19 15.06.2022
886 Clear 28 1017 29 10000 1.54 20 19:19 15.06.2022
887 Clear 27 1017 31 10000 2.06 330 17:55 15.06.2022
888 Clear 28 1017 32 10000 2.06 0 16:40 15.06.2022
889 Clear 27 1017 31 10000 2.06 0 15:35 15.06.2022
890 Clear 26 1018 36 10000 2.06 0 13:43 15.06.2022
891 Clear 25 1019 35 10000 1.54 0 12:53 15.06.2022
892 Clear 23 1019 46 10000 1.54 0 11:48 15.06.2022
893 Clear 19 1019 55 10000 1.54 0 10:23 15.06.2022
894 Clear 18 1019 59 10000 1.03 0 09:38 15.06.2022
895 Clear 14 1019 76 10000 0.51 0 08:30 15.06.2022
896 Clear 11 1019 89 10000 0.9 72 06:33 15.06.2022
897 Clear 10 1020 91 10000 1.21 80 03:45 15.06.2022
898 Clouds 12 1021 86 10000 1.4 66 01:53 15.06.2022
899 Clouds 13 1021 86 10000 1.36 62 00:50 15.06.2022
900 Clear 14 1021 85 10000 1.39 73 23:39 14.06.2022
901 Clear 17 1021 85 10000 1.69 55 22:56 14.06.2022
902 Clear 18 1020 59 10000 2.06 20 22:18 14.06.2022
903 Clear 20 1020 52 10000 2.06 10 21:28 14.06.2022
904 Clear 21 1020 45 10000 2.57 20 20:48 14.06.2022
905 Clear 21 1020 42 10000 2.57 20 20:28 14.06.2022
906 Clear 22 1020 40 10000 2.06 70 18:54 14.06.2022
907 Clear 22 1021 40 10000 2.57 320 17:39 14.06.2022
908 Clear 21 1021 42 10000 3.09 70 16:43 14.06.2022
909 Clear 21 1022 42 10000 3.6 20 15:50 14.06.2022
910 Clouds 20 1022 42 10000 2.57 290 14:57 14.06.2022
911 Clouds 20 1022 42 10000 2.57 290 14:57 14.06.2022
912 Clouds 20 1022 45 10000 1.54 0 14:30 14.06.2022
913 Clouds 20 1023 42 10000 3.09 0 13:40 14.06.2022
914 Clouds 17 1023 55 10000 3.6 320 12:30 14.06.2022
915 Clouds 18 1023 55 10000 1.03 0 11:28 14.06.2022
916 Clouds 17 1023 59 10000 1.54 0 10:44 14.06.2022
917 Clouds 14 1023 71 10000 1.03 0 09:48 14.06.2022
918 Clear 12 1023 82 10000 1.03 0 08:45 14.06.2022
919 Clouds 10 1024 87 10000 0.75 238 07:26 14.06.2022
920 Clouds 6 1024 93 10000 0.82 220 04:44 14.06.2022
921 Clouds 8 1024 91 10000 1.01 292 02:45 14.06.2022
922 Clouds 10 1024 88 10000 0.97 307 00:28 14.06.2022
923 Clouds 12 1023 87 10000 0.92 339 23:21 13.06.2022
924 Clouds 13 1023 84 10000 1.79 346 22:25 13.06.2022
925 Clear 16 1022 55 10000 2.57 310 21:48 13.06.2022
926 Clear 18 1021 42 10000 4.63 310 20:23 13.06.2022
927 Clear 19 1021 45 10000 4.12 300 19:34 13.06.2022
928 Clouds 17 1022 59 10000 3.09 320 17:57 13.06.2022
929 Clouds 17 1022 59 10000 3.09 320 17:36 13.06.2022
930 Clouds 17 1021 72 10000 3.09 330 16:40 13.06.2022
931 Clouds 16 1021 72 10000 6.17 360 15:37 13.06.2022
932 Clouds 17 1021 48 10000 4.12 270 14:42 13.06.2022
933 Clouds 19 1021 48 10000 5.66 290 13:46 13.06.2022
934 Clouds 17 1021 63 10000 2.57 260 12:47 13.06.2022
935 Rain 15 1021 63 10000 4.12 280 11:26 13.06.2022
936 Clouds 15 1020 67 10000 1.03 0 10:26 13.06.2022
937 Clouds 14 1020 76 10000 4.12 310 09:31 13.06.2022
938 Clouds 13 1020 82 10000 1.54 270 07:38 13.06.2022
939 Clouds 12 1019 82 10000 1.03 0 05:49 13.06.2022
940 Clouds 15 1020 91 10000 1.53 312 02:55 13.06.2022
941 Clouds 16 1020 84 10000 1.4 304 01:37 13.06.2022
942 Clouds 16 1020 86 10000 1.57 306 00:21 13.06.2022
943 Clouds 17 1019 85 10000 1.72 313 23:25 12.06.2022
944 Clouds 14 1019 78 10000 2.11 324 22:22 12.06.2022
945 Clear 20 1019 48 10000 3.09 310 21:22 12.06.2022
946 Clear 22 1019 40 10000 3.6 320 20:29 12.06.2022
947 Clear 24 1019 35 10000 6.17 310 19:30 12.06.2022
948 Clear 24 1020 40 10000 5.14 330 17:53 12.06.2022
949 Clear 24 1020 43 10000 6.17 320 16:24 12.06.2022
950 Clear 24 1021 38 10000 3.6 310 14:58 12.06.2022
951 Clouds 24 1021 35 10000 3.09 310 14:23 12.06.2022
952 Clouds 24 1021 40 10000 4.12 320 13:55 12.06.2022
953 Clouds 24 1021 40 10000 3.6 270 12:40 12.06.2022
954 Clouds 22 1022 49 10000 2.06 280 11:40 12.06.2022
955 Clouds 21 1022 52 10000 2.57 310 10:38 12.06.2022
956 Clear 19 1022 68 10000 2.57 300 09:19 12.06.2022
957 Clear 19 1022 68 10000 2.57 290 08:45 12.06.2022
958 Clouds 18 1022 88 10000 0.88 296 07:33 12.06.2022
959 Clear 16 1022 88 10000 1.54 240 04:52 12.06.2022
960 Clouds 16 1022 89 10000 1.21 308 03:29 12.06.2022
961 Clear 17 1022 91 10000 0.51 263 01:42 12.06.2022
962 Clear 17 1023 90 10000 0.65 207 00:58 12.06.2022
963 Clear 17 1023 90 10000 1.01 129 00:21 12.06.2022
964 Clear 17 1023 90 10000 1.01 128 23:44 11.06.2022
965 Clear 21 1022 68 10000 2.06 330 22:39 11.06.2022
966 Clouds 21 1022 68 10000 2.57 320 21:53 11.06.2022
967 Clear 24 1022 53 10000 2.06 330 20:38 11.06.2022
968 Clouds 23 1022 56 10000 2.57 340 19:46 11.06.2022
969 Clouds 24 1022 49 10000 2.06 330 19:26 11.06.2022
970 Clear 25 1022 50 10000 2.57 340 18:34 11.06.2022
971 Rain 24 1022 49 10000 2.57 20 17:51 11.06.2022
972 Clouds 25 1022 46 10000 1.03 0 17:27 11.06.2022
973 Clouds 25 1022 46 10000 1.54 0 16:56 11.06.2022
974 Clear 24 1022 53 10000 2.57 80 16:29 11.06.2022
975 Clear 24 1023 53 10000 2.57 70 15:42 11.06.2022
976 Clouds 23 1023 53 10000 3.6 290 13:53 11.06.2022
977 Clouds 23 1023 53 10000 1.54 0 12:51 11.06.2022
978 Clear 20 1023 60 10000 2.06 240 10:48 11.06.2022
979 Clouds 18 1023 72 10000 1.03 0 09:51 11.06.2022
980 Clouds 18 1023 77 10000 1.03 0 09:19 11.06.2022
981 Clear 16 1022 77 10000 1.03 0 07:41 11.06.2022
982 Clouds 16 1022 84 10000 2.07 175 06:30 11.06.2022
983 Clouds 16 1022 82 10000 2.08 176 04:30 11.06.2022
984 Clouds 12 1022 88 10000 1.74 168 01:53 11.06.2022
985 Clouds 12 1022 88 10000 1.74 169 01:32 11.06.2022
986 Clear 16 1022 72 10000 1.54 170 23:49 10.06.2022
987 Clear 20 1022 59 10000 1.54 150 22:31 10.06.2022
988 Clear 20 1022 59 10000 1.03 180 21:52 10.06.2022
989 Clear 22 1022 52 10000 2.06 210 20:41 10.06.2022
990 Clear 22 1022 52 10000 2.57 220 20:22 10.06.2022
991 Clear 22 1022 49 10000 3.6 210 19:20 10.06.2022
992 Clear 22 1022 49 10000 2.57 210 18:56 10.06.2022
993 Clear 22 1022 49 10000 4.12 230 17:58 10.06.2022
994 Clear 22 1022 49 10000 4.12 230 17:35 10.06.2022
995 Clear 22 1022 49 10000 3.6 230 16:50 10.06.2022
996 Clear 22 1022 46 10000 2.57 300 15:44 10.06.2022
997 Clear 21 1022 52 10000 3.6 220 14:51 10.06.2022
998 Clouds 23 1023 43 10000 4.12 200 13:26 10.06.2022
999 Clouds 21 1023 52 10000 4.63 210 11:59 10.06.2022
1000 Clouds 21 1023 52 10000 4.63 200 11:25 10.06.2022
1001 Clouds 20 1023 55 10000 5.14 210 10:35 10.06.2022
1002 Clear 17 1023 72 10000 3.09 130 09:26 10.06.2022
1003 Clear 12 1023 94 10000 2.06 110 07:57 10.06.2022
1004 Clear 10 1023 93 10000 1.57 191 06:49 10.06.2022
1005 Clear 8 1023 94 10000 1.62 184 06:30 10.06.2022
1006 Clear 10 1022 93 10000 1.03 140 05:31 10.06.2022
1007 Clear 10 1022 93 10000 1.13 191 02:46 10.06.2022
1008 Clear 11 1022 93 10000 0.82 222 01:37 10.06.2022
1009 Clear 13 1021 93 10000 0.88 243 23:58 09.06.2022
1010 Clear 14 1019 77 10000 2.57 250 22:43 09.06.2022
1011 Clear 16 1019 72 10000 4.12 290 21:44 09.06.2022
1012 Clear 17 1018 67 10000 4.12 300 21:25 09.06.2022
1013 Clouds 18 1018 63 10000 3.6 300 20:38 09.06.2022
1014 Clouds 19 1017 55 10000 6.17 320 19:46 09.06.2022
1015 Clouds 20 1016 63 10000 6.69 310 18:41 09.06.2022
1016 Clouds 18 1016 67 10000 7.2 300 17:33 09.06.2022
1017 Clouds 21 1015 52 10000 6.17 290 16:28 09.06.2022
1018 Clouds 21 1014 52 10000 5.14 290 15:22 09.06.2022
1019 Clouds 20 1014 59 10000 6.17 310 14:30 09.06.2022
1020 Clouds 19 1014 63 10000 6.17 300 13:44 09.06.2022
1021 Clouds 18 1014 72 10000 5.14 310 13:19 09.06.2022
1022 Clouds 17 1013 72 10000 3.6 270 11:35 09.06.2022
1023 Clouds 16 1012 82 10000 3.09 240 09:55 09.06.2022
1024 Clouds 16 1012 82 10000 3.09 240 09:55 09.06.2022
1025 Clouds 15 1011 88 10000 3.6 240 09:37 09.06.2022
1026 Clouds 15 1011 88 10000 2.06 210 08:38 09.06.2022
1027 Clouds 14 1011 96 10000 2.53 207 07:29 09.06.2022
1028 Clouds 14 1010 98 10000 2.77 205 04:30 09.06.2022
1029 Clouds 14 1009 98 10000 1.69 201 00:35 09.06.2022
1030 Rain 15 1008 97 10000 1.51 194 23:18 08.06.2022
1031 Rain 15 1008 97 10000 1.51 194 22:43 08.06.2022
1032 Clouds 15 1007 88 10000 2.57 160 22:23 08.06.2022
1033 Clouds 16 1007 88 10000 3.6 160 21:33 08.06.2022
1034 Drizzle 17 1007 82 10000 2.57 160 20:25 08.06.2022
1035 Rain 17 1007 77 10000 2.57 170 19:42 08.06.2022
1036 Rain 17 1007 77 10000 3.09 240 18:48 08.06.2022
1037 Clouds 17 1007 77 10000 6.69 240 17:41 08.06.2022
1038 Clouds 22 1007 49 10000 4.12 190 15:54 08.06.2022
1039 Clouds 22 1008 52 10000 3.6 180 14:38 08.06.2022
1040 Clouds 21 1008 56 10000 3.09 180 12:55 08.06.2022
1041 Clouds 21 1008 56 10000 3.09 180 12:55 08.06.2022
1042 Clouds 21 1008 56 10000 3.09 180 12:55 08.06.2022
1043 Clouds 21 1008 56 10000 3.09 180 12:55 08.06.2022
1044 Clouds 21 1009 64 10000 2.57 0 11:36 08.06.2022
1045 Clouds 18 1010 72 10000 2.06 190 10:51 08.06.2022
1046 Clouds 16 1010 77 10000 3.6 210 09:28 08.06.2022
1047 Clouds 16 1011 77 10000 1.54 0 08:54 08.06.2022
1048 Clear 15 1010 94 10000 2.57 150 07:21 08.06.2022
1049 Clouds 14 1011 94 10000 1.54 130 04:47 08.06.2022
1050 Clouds 14 1012 97 10000 2.16 187 01:25 08.06.2022
1051 Rain 13 1013 96 10000 1.97 184 23:32 07.06.2022
1052 Clouds 16 1013 96 10000 1.96 184 22:54 07.06.2022
1053 Clouds 13 1013 96 10000 1.96 184 22:34 07.06.2022
1054 Clouds 17 1013 88 10000 1.54 340 21:39 07.06.2022
1055 Clouds 17 1012 82 10000 1.54 250 21:20 07.06.2022
1056 Clouds 17 1012 88 10000 2.06 320 20:40 07.06.2022
1057 Clouds 19 1012 72 10000 3.09 220 19:51 07.06.2022
1058 Clouds 17 1012 82 10000 4.63 240 18:25 07.06.2022
1059 Rain 20 1012 59 10000 4.63 220 17:31 07.06.2022
1060 Clouds 21 1012 60 10000 2.57 260 16:44 07.06.2022
1061 Rain 21 1012 52 10000 3.6 270 15:58 07.06.2022
1062 Clouds 21 1012 52 10000 3.6 270 15:36 07.06.2022
1063 Rain 22 1012 49 10000 4.12 290 15:18 07.06.2022
1064 Clouds 22 1013 49 10000 3.6 0 14:42 07.06.2022
1065 Clouds 20 1013 52 10000 4.63 220 13:34 07.06.2022
1066 Clouds 20 1013 48 10000 4.63 240 12:54 07.06.2022
1067 Clouds 20 1013 48 10000 4.63 210 11:51 07.06.2022
1068 Clouds 19 1013 55 10000 6.17 210 10:48 07.06.2022
1069 Clear 17 1014 63 10000 4.63 210 08:53 07.06.2022
1070 Clear 13 1014 87 10000 2.57 110 07:47 07.06.2022
1071 Clouds 11 1015 87 10000 2.68 187 06:41 07.06.2022
1072 Clouds 9 1015 94 10000 2.22 181 04:41 07.06.2022
1073 Clouds 14 1016 88 10000 1.74 199 01:27 07.06.2022
1074 Clouds 13 1016 87 10000 1.57 210 23:53 06.06.2022
1075 Clouds 12 1015 82 10000 1.84 227 22:54 06.06.2022
1076 Clear 16 1014 72 10000 2.57 220 22:29 06.06.2022
1077 Clear 19 1014 59 10000 4.12 220 20:54 06.06.2022
1078 Clouds 20 1014 55 10000 4.12 210 19:29 06.06.2022
1079 Clouds 20 1014 63 10000 3.6 210 18:49 06.06.2022
1080 Clear 19 1015 68 10000 3.09 210 18:21 06.06.2022
1081 Clear 17 1015 77 10000 1.54 240 17:26 06.06.2022
1082 Clouds 18 1015 72 10000 4.12 280 16:18 06.06.2022
1083 Clouds 23 1014 46 10000 5.14 180 15:23 06.06.2022
1084 Clouds 22 1015 56 10000 5.14 160 14:30 06.06.2022
1085 Clouds 20 1015 55 10000 5.14 210 13:22 06.06.2022
1086 Clouds 19 1015 55 10000 5.14 210 12:36 06.06.2022
1087 Clouds 20 1015 63 10000 4.63 220 11:53 06.06.2022
1088 Clouds 20 1015 63 10000 5.66 200 10:21 06.06.2022
1089 Clouds 18 1015 68 10000 4.63 200 09:24 06.06.2022
1090 Clouds 18 1015 77 10000 3.6 210 08:31 06.06.2022
1091 Clouds 17 1015 91 10000 3.67 223 07:28 06.06.2022
1092 Clouds 15 1013 100 10000 1.54 120 04:43 06.06.2022
1093 Clouds 16 1015 96 10000 3.68 200 02:42 06.06.2022
1094 Clouds 16 1014 97 10000 2.99 184 00:57 06.06.2022
1095 Clouds 16 1014 97 10000 2.99 184 00:35 06.06.2022
1096 Clouds 19 1014 95 10000 4.82 214 23:28 05.06.2022
1097 Clouds 19 1013 95 10000 4.43 221 22:33 05.06.2022
1098 Clouds 19 1012 94 10000 2.06 160 20:40 05.06.2022
1099 Clouds 19 1013 94 10000 3.09 140 19:26 05.06.2022
1100 Rain 21 1012 83 10000 3.6 140 18:26 05.06.2022
1101 Rain 21 1013 73 10000 5.66 140 17:50 05.06.2022
1102 Rain 22 1013 73 10000 3.09 140 17:23 05.06.2022
1103 Clear 22 1013 73 10000 4.12 100 16:49 05.06.2022
1104 Clear 22 1014 68 10000 1.54 70 15:50 05.06.2022
1105 Rain 21 1015 73 10000 2.06 130 14:22 05.06.2022
1106 Rain 22 1015 60 10000 5.66 90 12:43 05.06.2022
1107 Rain 22 1015 56 10000 6.17 90 11:35 05.06.2022
1108 Clear 20 1017 63 10000 5.14 100 10:25 05.06.2022
1109 Clear 19 1017 63 10000 5.66 110 09:58 05.06.2022
1110 Clear 18 1018 63 10000 3.6 80 08:26 05.06.2022
1111 Clouds 13 1017 86 10000 2.5 82 06:54 05.06.2022
1112 Clear 13 1019 87 10000 1.03 0 05:20 05.06.2022
1113 Clouds 13 1019 92 10000 1.68 61 03:38 05.06.2022
1114 Clouds 15 1020 92 10000 1.85 72 01:31 05.06.2022
1115 Clear 16 1021 67 10000 0.51 0 23:58 04.06.2022
1116 Clear 20 1020 55 10000 2.06 40 21:49 04.06.2022
1117 Clear 23 1020 49 10000 3.6 60 20:21 04.06.2022
1118 Clear 24 1020 43 10000 2.57 60 17:59 04.06.2022
1119 Clear 24 1020 43 10000 4.12 60 16:42 04.06.2022
1120 Clear 24 1020 43 10000 3.6 50 16:18 04.06.2022
1121 Clear 23 1020 49 10000 3.6 20 14:37 04.06.2022
1122 Clear 20 1020 63 10000 3.09 320 11:51 04.06.2022
1123 Clear 19 1019 63 10000 3.09 330 10:57 04.06.2022
1124 Clear 19 1019 68 10000 2.06 350 10:22 04.06.2022
1125 Clear 17 1019 72 10000 2.06 330 09:41 04.06.2022
1126 Clear 16 1019 72 10000 2.06 330 08:40 04.06.2022
1127 Clouds 15 1019 94 10000 1.37 37 07:39 04.06.2022
1128 Clouds 14 1018 96 10000 1.93 26 04:33 04.06.2022
1129 Clouds 16 1018 95 10000 1.59 20 00:56 04.06.2022
1130 Clouds 18 1017 72 10000 2.06 30 23:35 03.06.2022
1131 Clear 20 1017 59 10000 2.06 10 22:30 03.06.2022
1132 Clear 21 1016 60 10000 1.54 10 21:21 03.06.2022
1133 Clear 22 1016 52 10000 1.54 10 20:33 03.06.2022
1134 Clear 25 1017 38 10000 3.6 60 17:58 03.06.2022
1135 Clear 24 1017 40 10000 3.6 80 16:47 03.06.2022
1136 Clear 24 1017 38 10000 4.12 80 15:18 03.06.2022
1137 Clear 22 1018 40 10000 3.6 60 12:56 03.06.2022
1138 Clear 19 1019 45 10000 4.12 90 10:54 03.06.2022
1139 Clear 17 1019 51 10000 2.57 70 09:38 03.06.2022
1140 Clear 13 1020 76 10000 1.03 0 08:32 03.06.2022
1141 Clear 11 1020 83 10000 1.6 58 07:26 03.06.2022
1142 Clear 7 1020 83 10000 1.6 58 06:32 03.06.2022
1143 Clear 8 1021 81 10000 1.03 340 05:19 03.06.2022
1144 Clouds 10 1022 87 10000 1.69 66 00:28 03.06.2022
1145 Clear 13 1021 66 10000 2.57 350 22:41 02.06.2022
1146 Clear 13 1021 66 10000 2.57 350 22:41 02.06.2022
1147 Clear 17 1021 51 10000 2.06 20 21:38 02.06.2022
1148 Clear 19 1021 42 10000 1.54 0 20:22 02.06.2022
1149 Clear 19 1021 39 10000 1.03 0 19:43 02.06.2022
1150 Clear 19 1021 39 10000 2.06 0 19:23 02.06.2022
1151 Clear 19 1021 45 10000 1.54 0 16:47 02.06.2022
1152 Clear 18 1021 48 10000 2.06 350 16:27 02.06.2022
1153 Clouds 18 1022 51 10000 2.57 20 13:56 02.06.2022
1154 Clouds 15 1022 58 10000 3.09 350 13:29 02.06.2022
1155 Clouds 15 1022 58 10000 1.54 0 11:24 02.06.2022
1156 Clouds 14 1021 71 10000 1.54 0 10:20 02.06.2022
1157 Clouds 14 1021 71 10000 1.54 0 10:20 02.06.2022
1158 Clouds 12 1021 76 10000 2.06 280 09:27 02.06.2022
1159 Clear 11 1021 81 10000 1.03 0 08:26 02.06.2022
1160 Clear 8 1021 92 10000 1.11 228 07:21 02.06.2022
1161 Clear 4 1021 95 10000 1.45 215 04:49 02.06.2022
1162 Clear 6 1020 93 10000 1.29 219 02:37 02.06.2022
1163 Clouds 9 1018 92 10000 1.51 244 23:43 01.06.2022
1164 Clouds 9 1018 92 10000 1.5 244 23:43 01.06.2022
1165 Clouds 9 1018 92 10000 1.51 244 23:43 01.06.2022
1166 Clouds 9 1018 92 10000 1.51 244 23:43 01.06.2022
1167 Clear 12 1017 82 10000 2.06 300 22:31 01.06.2022
1168 Clear 12 1016 87 10000 2.06 240 21:32 01.06.2022
1169 Clear 12 1016 82 10000 2.06 270 20:40 01.06.2022
1170 Clouds 12 1016 76 10000 3.09 300 19:59 01.06.2022
1171 Rain 14 1016 71 10000 4.63 320 19:19 01.06.2022
1172 Clouds 17 1014 48 10000 4.12 270 17:44 01.06.2022
1173 Clouds 17 1014 48 10000 3.09 250 16:34 01.06.2022
1174 Clouds 17 1014 51 10000 4.63 260 14:52 01.06.2022
1175 Clouds 17 1014 51 10000 3.6 290 13:45 01.06.2022
1176 Clouds 16 1014 55 10000 3.6 300 12:26 01.06.2022
1177 Clouds 14 1014 71 10000 3.09 290 09:40 01.06.2022
1178 Clear 13 1013 71 10000 2.06 240 08:38 01.06.2022
1179 Clouds 10 1015 93 10000 1.6 201 07:22 01.06.2022
1180 Rain 9 1013 100 10000 2.06 170 05:22 01.06.2022
1181 Clouds 9 1014 90 10000 1.62 210 00:20 01.06.2022
1182 Clouds 10 1014 89 10000 1.49 188 22:59 31.05.2022
1183 Clouds 10 1014 89 10000 1.48 188 22:33 31.05.2022
1184 Clear 11 1013 87 10000 2.06 190 21:45 31.05.2022
1185 Clear 13 1013 76 10000 2.57 170 20:45 31.05.2022
1186 Clear 13 1013 76 10000 2.57 170 20:45 31.05.2022
1187 Clear 14 1012 77 10000 3.09 110 19:53 31.05.2022
1188 Rain 14 1013 67 10000 2.06 330 18:45 31.05.2022
1189 Clouds 16 1012 63 10000 2.57 20 17:49 31.05.2022
1190 Clouds 16 1012 63 10000 2.57 20 17:49 31.05.2022
1191 Clouds 16 1012 67 10000 4.63 340 16:48 31.05.2022
1192 Clouds 15 1012 54 10000 9.77 270 15:40 31.05.2022
1193 Clear 19 1012 36 10000 3.09 0 13:38 31.05.2022
1194 Clear 17 1013 41 10000 3.6 130 12:19 31.05.2022
1195 Clear 14 1014 58 10000 2.06 80 10:52 31.05.2022
1196 Clear 9 1014 81 10000 1.03 0 08:41 31.05.2022
1197 Clouds 5 1016 78 10000 0.71 98 06:57 31.05.2022
1198 Clear 5 1015 93 10000 0.51 0 04:46 31.05.2022
1199 Clouds 7 1016 84 10000 0.87 95 23:53 30.05.2022
1200 Clouds 8 1016 83 10000 0.32 90 23:25 30.05.2022
1201 Clear 9 1015 76 10000 1.54 200 22:48 30.05.2022
1202 Clear 11 1014 66 10000 1.03 0 21:51 30.05.2022
1203 Clear 11 1014 66 10000 1.03 0 21:32 30.05.2022
1204 Clouds 14 1014 50 10000 2.57 340 19:51 30.05.2022
1205 Clouds 14 1014 54 10000 3.09 340 18:34 30.05.2022
1206 Clouds 13 1014 58 10000 2.57 330 17:23 30.05.2022
1207 Clouds 13 1014 58 10000 4.12 300 16:39 30.05.2022
1208 Clouds 12 1013 58 10000 1.03 0 13:44 30.05.2022
1209 Clouds 11 1013 66 10000 2.57 350 12:19 30.05.2022
1210 Clouds 10 1013 76 10000 2.06 280 10:26 30.05.2022
1211 Clouds 10 1012 76 10000 2.57 350 09:19 30.05.2022
1212 Clouds 7 1013 96 10000 0.57 288 06:28 30.05.2022
1213 Clouds 8 1011 93 10000 2.06 300 05:47 30.05.2022
1214 Clouds 8 1013 96 10000 0.9 299 01:32 30.05.2022
1215 Clouds 9 1012 87 10000 2.06 270 22:49 29.05.2022
1216 Clouds 10 1012 81 10000 2.57 280 22:31 29.05.2022
1217 Clouds 11 1012 76 10000 4.63 300 20:51 29.05.2022
1218 Clouds 12 1012 76 10000 2.06 310 19:30 29.05.2022
1219 Clouds 12 1012 71 10000 3.09 310 18:35 29.05.2022
1220 Clouds 11 1012 81 10000 5.14 310 16:51 29.05.2022
1221 Clouds 11 1012 81 10000 3.09 340 15:47 29.05.2022
1222 Clouds 13 1012 62 10000 6.17 280 14:56 29.05.2022
1223 Clouds 12 1013 66 10000 5.14 290 13:46 29.05.2022
1224 Clouds 11 1013 71 10000 5.14 300 11:34 29.05.2022
1225 Clouds 11 1013 71 10000 5.66 310 10:37 29.05.2022
1226 Clouds 9 1014 81 10000 3.6 260 08:39 29.05.2022
1227 Clouds 7 1014 87 10000 2.57 250 05:22 29.05.2022
1228 Clouds 5 1014 93 10000 2.57 240 04:41 29.05.2022
1229 Clear 6 1017 93 10000 1.38 250 02:24 29.05.2022
1230 Clear 8 1018 90 10000 1.12 280 23:48 28.05.2022
1231 Clear 8 1018 89 10000 1.55 303 23:25 28.05.2022
1232 Clear 10 1017 86 10000 2.08 311 22:21 28.05.2022
1233 Clouds 13 1017 58 10000 4.12 310 21:31 28.05.2022
1234 Clouds 14 1017 58 10000 5.66 310 19:21 28.05.2022
1235 Clouds 13 1017 58 10000 7.2 310 18:45 28.05.2022
1236 Clouds 15 1017 51 10000 6.69 280 17:34 28.05.2022
1237 Clouds 13 1018 58 10000 8.75 320 16:22 28.05.2022
1238 Clouds 15 1018 51 10000 8.23 280 15:38 28.05.2022
1239 Clouds 14 1018 54 10000 7.72 270 13:42 28.05.2022
1240 Clouds 14 1018 58 10000 8.23 300 12:43 28.05.2022
1241 Clouds 13 1019 62 10000 8.75 290 11:54 28.05.2022
1242 Clouds 12 1019 66 10000 8.75 290 10:43 28.05.2022
1243 Clouds 11 1019 66 10000 7.2 290 09:56 28.05.2022
1244 Clouds 10 1019 76 10000 7.2 290 08:39 28.05.2022
1245 Clouds 9 1018 81 10000 8.23 290 06:53 28.05.2022
1246 Clouds 10 1017 76 10000 5.14 270 05:24 28.05.2022
1247 Clear 9 1019 78 10000 5.39 288 02:33 28.05.2022
1248 Clear 11 1020 62 10000 5.66 270 00:18 28.05.2022
1249 Clear 12 1020 58 10000 6.17 290 22:49 27.05.2022
1250 Clear 13 1019 54 10000 7.2 290 21:35 27.05.2022
1251 Clear 15 1019 47 10000 9.26 300 20:46 27.05.2022
1252 Clear 16 1018 47 10000 9.26 300 20:21 27.05.2022
1253 Clear 17 1018 41 10000 7.72 290 19:38 27.05.2022
1254 Clear 16 1018 44 10000 10.29 290 19:20 27.05.2022
1255 Clear 18 1018 42 10000 10.8 280 17:24 27.05.2022
1256 Clouds 18 1018 45 10000 11.32 290 15:57 27.05.2022
1257 Clouds 17 1018 51 10000 11.83 290 14:58 27.05.2022
1258 Clouds 18 1018 51 10000 9.26 270 13:41 27.05.2022
1259 Clouds 17 1018 59 10000 8.23 270 12:20 27.05.2022
1260 Clouds 15 1019 77 10000 5.66 270 11:31 27.05.2022
1261 Clouds 14 1018 82 10000 5.66 260 10:43 27.05.2022
1262 Clouds 13 1019 87 10000 3.6 250 09:59 27.05.2022
1263 Clouds 13 1019 87 10000 3.6 250 09:30 27.05.2022
1264 Rain 13 1018 94 9000 9.26 290 07:39 27.05.2022
1265 Clouds 14 1018 94 9000 4.63 250 04:58 27.05.2022
1266 Clouds 17 1018 84 10000 4.96 234 01:38 27.05.2022
1267 Clouds 18 1020 76 10000 4.16 244 23:23 26.05.2022
1268 Clouds 18 1019 59 10000 3.6 240 22:22 26.05.2022
1269 Clear 18 1019 59 10000 3.09 240 21:27 26.05.2022
1270 Clear 19 1019 55 10000 5.14 250 19:35 26.05.2022
1271 Clouds 20 1020 48 10000 5.14 270 18:51 26.05.2022
1272 Clouds 19 1020 52 10000 6.69 250 17:36 26.05.2022
1273 Clouds 19 1020 52 10000 5.66 270 16:30 26.05.2022
1274 Clouds 19 1021 48 10000 6.69 270 15:28 26.05.2022
1275 Clouds 19 1021 52 10000 7.2 260 14:19 26.05.2022
1276 Clouds 16 1021 63 10000 5.66 250 12:18 26.05.2022
1277 Clouds 16 1020 72 10000 4.63 240 11:20 26.05.2022
1278 Clouds 16 1019 72 10000 3.6 230 09:39 26.05.2022
1279 Clouds 15 1019 72 10000 5.14 240 08:48 26.05.2022
1280 Clouds 15 1019 72 10000 5.14 240 08:48 26.05.2022
1281 Clouds 14 1018 76 10000 3.6 240 06:47 26.05.2022
1282 Clouds 15 1017 64 10000 5.26 244 02:51 26.05.2022
1283 Clear 16 1017 51 10000 3.6 240 23:58 25.05.2022
1284 Clouds 15 1018 69 10000 2.38 221 22:53 25.05.2022
1285 Clear 17 1016 48 10000 3.09 240 21:42 25.05.2022
1286 Clear 18 1016 45 10000 3.6 240 20:50 25.05.2022
1287 Clear 18 1015 45 10000 3.6 250 19:56 25.05.2022
1288 Clear 19 1015 36 10000 5.14 250 18:48 25.05.2022
1289 Clear 20 1015 37 10000 5.66 250 17:26 25.05.2022
1290 Clear 19 1015 39 10000 5.14 270 16:34 25.05.2022
1291 Clear 19 1015 42 10000 5.66 230 15:36 25.05.2022
1292 Clear 18 1015 42 10000 5.14 260 14:50 25.05.2022
1293 Clouds 18 1015 45 10000 4.63 250 14:32 25.05.2022
1294 Clouds 18 1015 51 10000 4.12 240 13:23 25.05.2022
1295 Clear 18 1015 48 10000 4.16 229 11:50 25.05.2022
1296 Clouds 16 1015 63 10000 3.09 220 10:42 25.05.2022
1297 Clouds 15 1015 67 10000 2.06 240 09:45 25.05.2022
1298 Clouds 13 1015 83 10000 1.88 208 07:42 25.05.2022
1299 Clear 9 1013 93 10000 1.54 130 05:57 25.05.2022
1300 Clouds 9 1013 91 10000 1.58 216 02:44 25.05.2022
1301 Clouds 10 1013 87 10000 1.37 212 23:50 24.05.2022
1302 Clouds 11 1012 86 10000 0.84 247 22:59 24.05.2022
1303 Clear 13 1011 87 10000 1.54 130 21:58 24.05.2022
1304 Clear 13 1011 87 10000 1.54 130 21:37 24.05.2022
1305 Clear 14 1010 76 10000 0.51 0 21:19 24.05.2022
1306 Clouds 18 1009 48 10000 4.12 230 19:27 24.05.2022
1307 Clouds 18 1008 55 10000 3.6 190 18:29 24.05.2022
1308 Clear 19 1008 48 10000 4.63 270 16:40 24.05.2022
1309 Clouds 18 1007 55 10000 5.66 250 15:52 24.05.2022
1310 Clouds 18 1007 55 10000 5.66 240 14:41 24.05.2022
1311 Clouds 17 1007 63 10000 5.14 250 13:47 24.05.2022
1312 Clouds 14 1006 88 10000 3.09 240 12:31 24.05.2022
1313 Rain 16 1004 77 10000 4.63 180 09:52 24.05.2022
1314 Rain 15 1003 82 10000 5.14 190 08:57 24.05.2022
1315 Clouds 16 1003 82 10000 5.14 190 08:38 24.05.2022
1316 Clouds 15 1002 82 10000 2.06 170 06:41 24.05.2022
1317 Clouds 14 1003 95 10000 3.33 228 03:48 24.05.2022
1318 Clouds 16 1002 92 10000 5.37 269 01:47 24.05.2022
1319 Rain 16 1001 95 10000 6.13 247 00:53 24.05.2022
1320 Rain 17 999 94 10000 5.66 190 22:25 23.05.2022
1321 Thunderstorm 17 998 77 5000 8.23 200 21:53 23.05.2022
1322 Clear 21 998 68 10000 5.14 120 20:53 23.05.2022
1323 Clear 22 999 60 10000 6.17 130 19:56 23.05.2022
1324 Clouds 22 999 60 10000 5.14 130 19:30 23.05.2022
1325 Clouds 22 1000 60 10000 5.14 120 18:41 23.05.2022
1326 Clouds 22 1000 60 10000 5.66 140 18:22 23.05.2022
1327 Clear 22 1002 52 10000 5.14 130 16:46 23.05.2022
1328 Clear 21 1004 52 10000 6.69 140 14:44 23.05.2022
1329 Rain 19 1005 59 10000 4.12 110 11:58 23.05.2022
1330 Clear 19 1006 59 10000 3.6 100 11:20 23.05.2022
1331 Clear 16 1007 67 10000 4.63 120 09:48 23.05.2022
1332 Clear 15 1007 72 10000 3.09 120 08:50 23.05.2022
1333 Clear 13 1008 76 10000 2.57 130 07:41 23.05.2022
1334 Clouds 11 1008 84 10000 1.36 92 06:41 23.05.2022
1335 Clear 12 1010 82 10000 1.54 150 04:43 23.05.2022
1336 Clouds 11 1011 90 10000 1.69 82 02:19 23.05.2022
1337 Clouds 11 1011 90 10000 1.68 82 01:34 23.05.2022
1338 Clouds 13 1013 86 10000 1.88 98 23:42 22.05.2022
1339 Clouds 15 1013 87 10000 1.56 102 22:34 22.05.2022
1340 Clear 17 1013 63 10000 2.57 70 21:54 22.05.2022
1341 Clear 19 1013 55 10000 2.06 60 20:51 22.05.2022
1342 Clear 20 1013 48 10000 2.06 70 20:23 22.05.2022
1343 Clear 20 1013 45 10000 2.06 80 19:54 22.05.2022
1344 Clouds 20 1014 48 10000 1.54 40 18:53 22.05.2022
1345 Clouds 21 1014 45 10000 1.54 0 18:24 22.05.2022
1346 Clouds 20 1014 45 10000 2.06 0 17:28 22.05.2022
1347 Clouds 20 1015 52 10000 2.06 0 15:59 22.05.2022
1348 Clouds 19 1016 48 10000 1.54 20 14:48 22.05.2022
1349 Clouds 18 1016 55 10000 3.09 350 13:27 22.05.2022
1350 Clouds 18 1017 59 10000 3.09 340 12:50 22.05.2022
1351 Clouds 17 1017 63 10000 3.6 320 11:37 22.05.2022
1352 Clouds 14 1018 76 10000 1.54 40 09:42 22.05.2022
1353 Clouds 12 1018 87 10000 1.03 0 08:31 22.05.2022
1354 Clouds 10 1019 89 10000 0.41 233 07:21 22.05.2022
1355 Clouds 9 1018 93 10000 0.51 180 05:22 22.05.2022
1356 Clouds 11 1020 91 10000 0.56 264 01:26 22.05.2022
1357 Clouds 11 1020 91 10000 0.56 264 00:43 22.05.2022
1358 Clouds 12 1020 90 10000 0.7 268 23:52 21.05.2022
1359 Clouds 13 1021 90 10000 1.05 305 22:28 21.05.2022
1360 Clear 15 1020 72 10000 2.06 280 21:42 21.05.2022
1361 Clear 16 1020 67 10000 2.57 300 20:51 21.05.2022
1362 Clear 17 1019 59 10000 3.6 300 20:21 21.05.2022
1363 Clouds 17 1020 59 10000 5.14 290 19:25 21.05.2022
1364 Clouds 18 1020 51 10000 5.66 270 17:47 21.05.2022
1365 Clouds 18 1021 55 10000 6.69 280 15:54 21.05.2022
1366 Clouds 17 1021 55 10000 6.69 260 14:37 21.05.2022
1367 Clouds 16 1021 58 10000 7.72 270 13:42 21.05.2022
1368 Clouds 16 1021 63 10000 7.2 260 12:49 21.05.2022
1369 Clouds 16 1020 63 10000 6.69 260 11:58 21.05.2022
1370 Clouds 13 1020 76 10000 5.14 260 10:23 21.05.2022
1371 Clouds 13 1020 76 10000 3.6 250 09:41 21.05.2022
1372 Clouds 13 1020 76 10000 3.6 220 08:52 21.05.2022
1373 Clouds 13 1019 76 10000 3.6 210 07:53 21.05.2022
1374 Clouds 13 1020 91 10000 3.52 264 03:48 21.05.2022
1375 Clouds 16 1015 88 10000 6.69 280 23:50 20.05.2022
1376 Clouds 18 1014 82 10000 8.23 270 22:42 20.05.2022
1377 Clouds 19 1014 82 10000 5.14 260 22:23 20.05.2022
1378 Clouds 19 1013 88 10000 4.12 280 21:40 20.05.2022
1379 Thunderstorm 18 1013 94 8000 8.75 280 20:54 20.05.2022
1380 Clouds 20 1012 88 10000 2.06 150 19:57 20.05.2022
1381 Thunderstorm 19 1013 88 8000 7.72 280 19:24 20.05.2022
1382 Rain 22 1014 78 9000 4.12 220 18:36 20.05.2022
1383 Rain 24 1015 68 10000 4.12 160 16:53 20.05.2022
1384 Rain 24 1016 64 10000 4.12 150 15:58 20.05.2022
1385 Clouds 24 1016 64 10000 4.12 150 15:40 20.05.2022
1386 Clouds 23 1018 68 10000 2.57 0 14:29 20.05.2022
1387 Clouds 23 1018 68 10000 2.06 160 13:54 20.05.2022
1388 Clouds 19 1021 77 10000 1.54 130 11:22 20.05.2022
1389 Clouds 17 1021 88 6000 2.57 10 09:51 20.05.2022
1390 Clouds 16 1022 94 7000 1.03 0 08:43 20.05.2022
1391 Clouds 14 1022 95 10000 0.87 327 06:47 20.05.2022
1392 Clouds 14 1022 97 10000 0.68 318 06:24 20.05.2022
1393 Clouds 14 1021 96 10000 1.17 256 04:22 20.05.2022
1394 Clouds 15 1021 98 10000 2 217 00:24 20.05.2022
1395 Clear 17 1020 82 10000 4.12 200 22:44 19.05.2022
1396 Clouds 18 1020 88 10000 4.12 240 21:53 19.05.2022
1397 Clouds 18 1019 94 10000 1.03 0 21:24 19.05.2022
1398 Clouds 18 1019 94 10000 1.03 0 20:58 19.05.2022
1399 Thunderstorm 18 1020 94 10000 1.03 0 20:21 19.05.2022
1400 Thunderstorm 20 1020 77 10000 6.17 300 19:34 19.05.2022
1401 Clouds 28 1017 41 10000 5.66 200 17:52 19.05.2022
1402 Clear 28 1018 36 10000 6.17 180 16:29 19.05.2022
1403 Clear 27 1018 32 10000 5.14 180 14:52 19.05.2022
1404 Clear 27 1019 36 10000 3.09 180 14:21 19.05.2022
1405 Clear 25 1020 41 10000 6.17 150 12:23 19.05.2022
1406 Clear 23 1020 49 10000 5.14 160 10:40 19.05.2022
1407 Clear 19 1021 59 10000 3.09 150 08:57 19.05.2022
1408 Clear 18 1021 63 10000 3.09 160 07:41 19.05.2022
1409 Clouds 13 1021 83 10000 2.32 153 04:44 19.05.2022
1410 Clouds 15 1021 87 10000 2 158 01:57 19.05.2022
1411 Clouds 17 1022 87 10000 2.09 156 23:49 18.05.2022
1412 Clouds 19 1022 86 10000 1.99 146 22:46 18.05.2022
1413 Clear 22 1021 64 10000 2.57 160 21:47 18.05.2022
1414 Clear 23 1021 60 10000 2.57 160 21:24 18.05.2022
1415 Clear 25 1021 50 10000 2.57 170 20:23 18.05.2022
1416 Clear 27 1022 44 10000 4.12 160 19:32 18.05.2022
1417 Clear 28 1022 41 10000 4.12 170 18:20 18.05.2022
1418 Clear 28 1022 41 10000 4.12 160 17:41 18.05.2022
1419 Clear 28 1022 41 10000 3.09 180 17:23 18.05.2022
1420 Clear 27 1022 41 10000 4.12 200 15:59 18.05.2022
1421 Clear 27 1022 41 10000 4.12 200 15:59 18.05.2022
1422 Clear 27 1022 41 10000 4.12 200 15:38 18.05.2022
1423 Clear 27 1023 44 10000 3.6 200 14:30 18.05.2022
1424 Clear 27 1023 44 10000 3.6 200 14:30 18.05.2022
1425 Clear 24 1023 53 10000 3.09 210 12:59 18.05.2022
1426 Clear 24 1023 53 10000 3.09 210 12:39 18.05.2022
1427 Clear 23 1023 60 10000 4.63 140 11:33 18.05.2022
1428 Clear 22 1023 60 10000 4.63 140 10:49 18.05.2022
1429 Clear 19 1023 77 10000 2.57 120 08:29 18.05.2022
1430 Clouds 17 1023 90 10000 1.63 147 07:28 18.05.2022
1431 Clouds 15 1022 89 10000 1.37 156 04:33 18.05.2022
1432 Clouds 16 1022 90 10000 1.28 137 00:52 18.05.2022
1433 Clouds 16 1022 89 10000 1.13 125 00:18 18.05.2022
1434 Clear 19 1021 72 10000 0.51 0 21:24 17.05.2022
1435 Clear 20 1021 68 10000 1.54 290 20:57 17.05.2022
1436 Clouds 20 1021 68 10000 2.57 310 19:45 17.05.2022
1437 Clear 21 1021 60 10000 3.09 320 19:25 17.05.2022
1438 Clouds 21 1021 56 10000 5.66 300 17:49 17.05.2022
1439 Clouds 22 1021 56 10000 5.14 310 16:58 17.05.2022
1440 Clouds 22 1021 56 10000 4.12 310 16:29 17.05.2022
1441 Clouds 22 1021 56 10000 3.09 340 15:18 17.05.2022
1442 Clouds 23 1021 53 10000 4.12 300 14:29 17.05.2022
1443 Clouds 22 1022 60 10000 2.06 0 13:31 17.05.2022
1444 Clouds 19 1022 72 10000 2.57 290 10:50 17.05.2022
1445 Clear 17 1021 82 10000 3.09 250 08:55 17.05.2022
1446 Clear 14 1021 88 10000 1.03 0 07:57 17.05.2022
1447 Clouds 13 1021 94 10000 1.2 222 06:27 17.05.2022
1448 Clouds 14 1020 96 10000 1.57 254 01:59 17.05.2022
1449 Clouds 17 1020 96 10000 1.51 267 00:28 17.05.2022
1450 Clear 16 1019 94 10000 4.12 290 22:41 16.05.2022
1451 Rain 17 1018 88 10000 7.72 280 21:33 16.05.2022
1452 Drizzle 17 1017 82 10000 6.17 260 20:44 16.05.2022
1453 Rain 20 1016 60 10000 2.57 250 19:19 16.05.2022
1454 Clear 23 1016 49 10000 2.57 300 17:34 16.05.2022
1455 Clear 22 1016 56 10000 1.54 210 15:42 16.05.2022
1456 Clear 23 1016 49 10000 3.09 180 13:48 16.05.2022
1457 Clear 21 1016 52 10000 4.12 150 12:46 16.05.2022
1458 Clear 20 1016 49 10000 4.63 130 10:47 16.05.2022
1459 Clear 16 1016 59 10000 2.57 110 08:37 16.05.2022
1460 Clear 13 1016 71 10000 1.54 150 06:33 16.05.2022
1461 Clear 13 1016 71 10000 1.54 150 06:33 16.05.2022
1462 Clouds 12 1017 91 10000 1.69 83 02:33 16.05.2022
1463 Clear 18 1018 51 10000 1.03 0 22:52 15.05.2022
1464 Clear 18 1018 51 10000 2.06 120 22:28 15.05.2022
1465 Clear 19 1018 48 10000 2.06 90 21:38 15.05.2022
1466 Clear 21 1018 42 10000 2.57 70 20:53 15.05.2022
1467 Clear 24 1018 35 10000 4.12 80 18:53 15.05.2022
1468 Clear 24 1018 35 10000 2.57 60 17:45 15.05.2022
1469 Clear 23 1020 37 10000 2.06 0 15:26 15.05.2022
1470 Clear 22 1021 40 10000 2.57 50 13:49 15.05.2022
1471 Clear 20 1021 45 10000 2.57 90 12:22 15.05.2022
1472 Clouds 20 1021 45 10000 3.09 80 11:38 15.05.2022
1473 Clear 17 1022 55 10000 1.54 110 10:20 15.05.2022
1474 Clear 9 1022 93 10000 1.03 0 07:36 15.05.2022
1475 Clouds 7 1022 88 10000 1.1 66 06:57 15.05.2022
1476 Clear 8 1022 92 10000 0.98 72 04:26 15.05.2022
1477 Clouds 11 1022 92 10000 1.45 60 00:47 15.05.2022
1478 Clouds 12 1022 91 10000 1.62 49 23:38 14.05.2022
1479 Clouds 14 1022 89 10000 1.52 42 22:45 14.05.2022
1480 Clear 17 1020 59 10000 2.06 360 21:27 14.05.2022
1481 Clear 20 1020 45 10000 4.12 320 20:32 14.05.2022
1482 Clear 20 1020 45 10000 5.14 320 19:21 14.05.2022
1483 Clear 21 1020 45 10000 5.14 330 18:59 14.05.2022
1484 Clear 21 1020 42 10000 5.14 330 17:54 14.05.2022
1485 Clear 21 1020 45 10000 5.14 340 16:32 14.05.2022
1486 Clouds 21 1021 45 10000 4.12 330 14:56 14.05.2022
1487 Clouds 21 1021 45 10000 4.12 280 14:30 14.05.2022
1488 Clouds 18 1021 55 10000 2.57 0 12:18 14.05.2022
1489 Clear 17 1021 63 10000 2.57 240 10:53 14.05.2022
1490 Clear 15 1021 63 10000 4.12 260 10:20 14.05.2022
1491 Clear 15 1021 67 10000 2.57 280 09:46 14.05.2022
1492 Clouds 12 1021 82 10000 1.03 0 08:22 14.05.2022
1493 Clear 8 1020 87 10000 2.06 240 05:26 14.05.2022
1494 Clouds 8 1021 89 10000 0.93 234 01:57 14.05.2022
1495 Clear 11 1020 76 10000 2.06 220 23:31 13.05.2022
1496 Clear 12 1020 71 10000 2.57 200 22:56 13.05.2022
1497 Clear 13 1020 71 10000 2.06 200 22:22 13.05.2022
1498 Clear 16 1020 58 10000 1.03 320 21:24 13.05.2022
1499 Clear 17 1020 55 10000 2.06 320 20:43 13.05.2022
1500 Clear 17 1020 55 10000 2.06 320 20:43 13.05.2022
1501 Clear 17 1020 55 10000 2.57 310 20:22 13.05.2022
1502 Clouds 18 1020 45 10000 4.63 280 19:19 13.05.2022
1503 Clear 18 1019 45 10000 5.14 280 17:50 13.05.2022
1504 Clear 18 1019 45 10000 4.63 260 17:24 13.05.2022
1505 Clear 19 1019 42 10000 6.69 270 15:53 13.05.2022
1506 Clouds 17 1019 41 10000 7.2 280 14:47 13.05.2022
1507 Clouds 16 1019 51 10000 6.17 280 12:55 13.05.2022
1508 Clouds 15 1019 51 10000 7.72 280 12:25 13.05.2022
1509 Clouds 15 1019 54 10000 6.69 270 10:23 13.05.2022
1510 Clouds 15 1018 67 10000 3.09 240 09:29 13.05.2022
1511 Clouds 11 1018 76 10000 0.51 0 07:59 13.05.2022
1512 Clouds 10 1017 81 10000 1.03 0 07:30 13.05.2022
1513 Clear 8 1018 81 10000 1.54 230 05:46 13.05.2022
1514 Clouds 9 1019 85 10000 1.99 207 01:37 13.05.2022
1515 Clouds 14 1018 80 10000 0.76 237 23:34 12.05.2022
1516 Clear 15 1018 62 10000 1.54 250 22:35 12.05.2022
1517 Clear 16 1018 58 10000 1.03 300 21:35 12.05.2022
1518 Clear 18 1017 51 10000 5.14 320 19:55 12.05.2022
1519 Clear 19 1017 42 10000 3.09 320 18:30 12.05.2022
1520 Clear 20 1018 42 10000 4.63 300 16:48 12.05.2022
1521 Clear 19 1018 42 10000 4.12 320 15:22 12.05.2022
1522 Clouds 18 1019 48 10000 5.14 300 13:58 12.05.2022
1523 Clouds 16 1019 51 10000 3.6 280 12:46 12.05.2022
1524 Clouds 16 1019 55 10000 6.17 270 10:34 12.05.2022
1525 Clouds 14 1017 67 10000 5.66 290 08:58 12.05.2022
1526 Clouds 14 1017 67 10000 5.66 290 08:35 12.05.2022
1527 Clouds 13 1016 91 10000 4.48 298 07:25 12.05.2022
1528 Clouds 17 1013 91 10000 5.42 264 04:45 12.05.2022
1529 Clouds 16 1011 92 10000 4.84 256 01:55 12.05.2022
1530 Clouds 21 1011 93 10000 2.49 219 23:42 11.05.2022
1531 Clear 22 1010 56 10000 1.54 260 22:22 11.05.2022
1532 Clear 23 1009 53 10000 2.06 300 21:27 11.05.2022
1533 Clear 25 1009 35 10000 3.6 230 20:45 11.05.2022
1534 Clear 28 1008 32 10000 8.23 210 17:43 11.05.2022
1535 Clear 27 1009 34 10000 8.23 220 16:39 11.05.2022
1536 Clear 27 1010 34 10000 9.26 220 14:49 11.05.2022
1537 Clear 25 1010 43 10000 5.66 210 14:25 11.05.2022
1538 Clear 26 1011 44 10000 6.69 210 13:37 11.05.2022
1539 Clouds 24 1012 49 10000 6.17 210 11:48 11.05.2022
1540 Clear 21 1012 56 10000 5.66 210 09:34 11.05.2022
1541 Clouds 15 1013 94 10000 2.79 182 06:59 11.05.2022
1542 Clouds 16 1014 93 10000 2.35 179 03:38 11.05.2022
1543 Clouds 16 1016 79 10000 2.27 204 23:45 10.05.2022
1544 Clouds 15 1016 84 10000 2.79 197 22:30 10.05.2022
1545 Clear 21 1015 52 10000 3.6 190 21:41 10.05.2022
1546 Clear 22 1015 49 10000 3.6 180 20:47 10.05.2022
1547 Rain 23 1015 49 10000 4.12 180 19:18 10.05.2022
1548 Clear 24 1016 38 10000 6.17 190 17:43 10.05.2022
1549 Clear 24 1016 38 10000 5.66 200 16:38 10.05.2022
1550 Clear 24 1018 43 10000 6.17 180 13:37 10.05.2022
1551 Clear 22 1020 49 10000 4.63 210 11:54 10.05.2022
1552 Clear 22 1020 49 10000 4.63 210 11:34 10.05.2022
1553 Clear 20 1020 52 10000 3.09 180 10:56 10.05.2022
1554 Clear 17 1020 63 10000 3.09 140 09:52 10.05.2022
1555 Clear 14 1021 76 10000 2.57 140 08:22 10.05.2022
1556 Clear 11 1021 87 10000 1.54 90 06:20 10.05.2022
1557 Clouds 11 1023 85 10000 1.94 157 02:23 10.05.2022
1558 Clouds 12 1024 87 10000 1.66 132 23:53 09.05.2022
1559 Clear 16 1023 63 10000 1.54 140 22:36 09.05.2022
1560 Clear 18 1023 55 10000 1.03 0 21:42 09.05.2022
1561 Clear 22 1023 40 10000 1.54 0 20:21 09.05.2022
1562 Clear 23 1023 35 10000 1.54 60 18:26 09.05.2022
1563 Clear 24 1024 35 10000 3.09 0 17:26 09.05.2022
1564 Clear 22 1025 40 10000 2.06 0 16:19 09.05.2022
1565 Clear 22 1025 37 10000 1.54 350 15:47 09.05.2022
1566 Clear 22 1025 37 10000 3.09 70 14:37 09.05.2022
1567 Clear 21 1026 42 10000 1.54 0 13:59 09.05.2022
1568 Clear 21 1026 42 10000 2.57 80 13:22 09.05.2022
1569 Clear 19 1027 37 10000 2.57 80 11:53 09.05.2022
1570 Clear 17 1027 39 10000 1.54 0 10:48 09.05.2022
1571 Clear 16 1027 41 10000 2.06 110 10:26 09.05.2022
1572 Clear 8 1027 81 10000 0 0 07:57 09.05.2022
1573 Clear 6 1027 87 10000 0.51 0 05:53 09.05.2022
1574 Clear 11 1028 83 10000 1.34 51 00:59 09.05.2022
1575 Clear 10 1027 76 10000 1.92 32 23:28 08.05.2022
1576 Clear 11 1027 76 10000 1.91 32 22:32 08.05.2022
1577 Clear 14 1026 58 10000 3.6 350 21:20 08.05.2022
1578 Clear 17 1025 51 10000 4.63 350 20:23 08.05.2022
1579 Clear 18 1025 48 10000 4.12 330 19:33 08.05.2022
1580 Clear 18 1025 45 10000 5.14 340 18:38 08.05.2022
1581 Clear 19 1025 42 10000 4.12 330 17:39 08.05.2022
1582 Clear 18 1026 45 10000 5.14 340 15:46 08.05.2022
1583 Clear 18 1026 45 10000 5.14 340 15:22 08.05.2022
1584 Clear 16 1027 55 10000 3.6 350 12:46 08.05.2022
1585 Clouds 13 1026 71 10000 3.09 330 10:59 08.05.2022
1586 Clouds 11 1026 76 10000 3.6 330 10:22 08.05.2022
1587 Clouds 11 1026 76 10000 3.6 340 09:51 08.05.2022
1588 Clouds 10 1026 87 10000 3.6 350 07:43 08.05.2022
1589 Clouds 10 1025 93 10000 4.12 350 05:57 08.05.2022
1590 Clouds 10 1024 97 10000 2.46 5 03:21 08.05.2022
1591 Clouds 12 1024 95 10000 1.96 12 00:42 08.05.2022
1592 Clouds 13 1024 94 10000 1.79 358 23:55 07.05.2022
1593 Clouds 14 1024 93 10000 1.93 354 22:59 07.05.2022
1594 Clouds 14 1024 93 10000 1.93 354 22:35 07.05.2022
1595 Clear 16 1023 63 10000 1.03 350 21:55 07.05.2022
1596 Clear 17 1023 63 10000 2.06 310 21:20 07.05.2022
1597 Clouds 19 1022 55 10000 6.17 350 19:59 07.05.2022
1598 Clear 21 1021 45 10000 4.12 330 18:41 07.05.2022
1599 Clouds 21 1022 42 10000 3.09 340 16:19 07.05.2022
1600 Clouds 20 1022 48 10000 3.6 350 14:46 07.05.2022
1601 Clear 19 1023 52 10000 1.03 0 11:21 07.05.2022
1602 Clear 14 1023 67 10000 2.06 90 09:39 07.05.2022
1603 Clear 11 1023 81 10000 1.03 0 08:28 07.05.2022
1604 Clouds 5 1023 76 10000 1.15 191 06:44 07.05.2022
1605 Clear 7 1023 87 10000 1.03 160 05:41 07.05.2022
1606 Clouds 7 1023 71 10000 1.56 181 03:54 07.05.2022
1607 Clear 12 1023 71 10000 2.57 230 23:41 06.05.2022
1608 Clouds 12 1024 71 10000 0.59 147 22:34 06.05.2022
1609 Clear 15 1023 55 10000 0.51 0 21:47 06.05.2022
1610 Clear 18 1023 48 10000 1.54 320 20:39 06.05.2022
1611 Clear 19 1023 39 10000 3.09 320 19:43 06.05.2022
1612 Clear 20 1023 37 10000 2.57 340 19:19 06.05.2022
1613 Clear 20 1023 37 10000 2.57 330 18:24 06.05.2022
1614 Clear 20 1024 37 10000 3.09 350 16:57 06.05.2022
1615 Clear 20 1024 37 10000 3.09 310 15:47 06.05.2022
1616 Clear 19 1024 39 10000 2.06 0 14:58 06.05.2022
1617 Clouds 19 1025 36 10000 1.54 0 13:31 06.05.2022
1618 Clouds 18 1025 39 10000 3.6 330 12:41 06.05.2022
1619 Clouds 17 1025 41 10000 2.57 330 11:49 06.05.2022
1620 Clear 16 1025 51 10000 1.03 0 10:34 06.05.2022
1621 Clear 13 1025 66 10000 1.03 0 09:46 06.05.2022
1622 Clear 10 1025 81 10000 1.03 0 08:52 06.05.2022
1623 Clear 6 1025 93 10000 1.54 240 07:26 06.05.2022
1624 Clear 6 1024 81 10000 1.03 0 05:48 06.05.2022
1625 Clouds 7 1024 88 10000 1.02 357 02:51 06.05.2022
1626 Clouds 9 1025 87 10000 1.24 5 01:31 06.05.2022
1627 Clear 13 1023 54 10000 2.06 340 22:32 05.05.2022
1628 Clear 15 1022 47 10000 2.06 330 21:31 05.05.2022
1629 Clear 17 1022 41 10000 3.6 330 20:26 05.05.2022
1630 Clear 17 1021 41 10000 5.66 340 18:35 05.05.2022
1631 Clouds 17 1021 41 10000 3.09 340 16:35 05.05.2022
1632 Clouds 17 1021 44 10000 3.09 0 14:51 05.05.2022
1633 Clouds 16 1021 51 10000 2.57 310 13:24 05.05.2022
1634 Clouds 16 1022 51 10000 3.09 340 12:49 05.05.2022
1635 Clear 14 1021 67 10000 1.54 330 10:48 05.05.2022
1636 Clear 12 1021 76 10000 0.51 0 09:40 05.05.2022
1637 Clear 8 1020 93 10000 0.51 0 07:36 05.05.2022
1638 Clear 7 1019 93 10000 0.51 210 05:19 05.05.2022
1639 Clear 7 1019 93 10000 0.51 210 05:19 05.05.2022
1640 Clouds 10 1019 95 10000 1.7 345 01:59 05.05.2022
1641 Clouds 9 1019 94 10000 1.66 348 01:29 05.05.2022
1642 Clouds 12 1019 93 10000 1.3 6 23:52 04.05.2022
1643 Clouds 12 1018 94 10000 1.43 34 22:42 04.05.2022
1644 Clear 13 1017 71 10000 2.06 20 21:50 04.05.2022
1645 Clouds 14 1017 67 10000 2.57 320 21:29 04.05.2022
1646 Clouds 16 1016 63 10000 3.6 320 20:27 04.05.2022
1647 Clear 17 1016 55 10000 3.6 340 19:53 04.05.2022
1648 Clear 17 1016 59 10000 3.6 320 19:18 04.05.2022
1649 Clear 17 1016 55 10000 1.54 350 18:22 04.05.2022
1650 Clear 18 1016 51 10000 2.06 20 17:51 04.05.2022
1651 Clouds 15 1017 67 10000 2.06 360 15:42 04.05.2022
1652 Clouds 15 1017 67 10000 2.06 330 15:23 04.05.2022
1653 Clouds 14 1017 71 10000 2.57 320 14:21 04.05.2022
1654 Rain 13 1018 71 10000 1.54 310 13:35 04.05.2022
1655 Clear 13 1018 66 10000 1.03 0 12:33 04.05.2022
1656 Clear 13 1018 71 10000 1.03 0 10:41 04.05.2022
1657 Clear 10 1018 81 10000 1.54 350 09:44 04.05.2022
1658 Clouds 9 1018 87 10000 2.06 320 08:47 04.05.2022
1659 Clouds 9 1018 87 10000 2.06 320 08:47 04.05.2022
1660 Clouds 8 1018 89 10000 1.01 41 06:47 04.05.2022
1661 Clouds 8 1018 95 10000 1.51 20 02:59 04.05.2022
1662 Clouds 9 1019 94 10000 1.4 20 00:47 04.05.2022
1663 Clouds 13 1019 93 10000 2 27 22:40 03.05.2022
1664 Clear 12 1017 71 10000 3.6 350 21:46 03.05.2022
1665 Clear 15 1016 54 10000 3.6 330 20:56 03.05.2022
1666 Clear 16 1016 51 10000 3.6 320 20:30 03.05.2022
1667 Clear 18 1016 42 10000 5.14 330 18:54 03.05.2022
1668 Clear 18 1016 42 10000 4.63 320 18:21 03.05.2022
1669 Clear 18 1016 42 10000 4.12 330 16:44 03.05.2022
1670 Clear 17 1017 44 10000 3.09 280 15:38 03.05.2022
1671 Clear 16 1018 44 10000 4.63 340 12:47 03.05.2022
1672 Clear 15 1018 51 10000 3.6 320 12:27 03.05.2022
1673 Clear 12 1018 62 10000 2.06 320 10:57 03.05.2022
1674 Clear 11 1018 71 10000 2.06 320 09:35 03.05.2022
1675 Clear 9 1017 87 10000 2.06 290 07:33 03.05.2022
1676 Clouds 9 1017 91 10000 1.75 14 06:45 03.05.2022
1677 Clouds 12 1018 92 10000 1.52 18 01:47 03.05.2022
1678 Clear 14 1017 67 10000 3.09 340 22:44 02.05.2022
1679 Clear 14 1016 67 10000 1.54 330 21:55 02.05.2022
1680 Clear 14 1016 67 10000 2.06 340 21:23 02.05.2022
1681 Clear 18 1016 45 10000 1.03 0 18:46 02.05.2022
1682 Clear 20 1016 45 10000 2.06 30 18:25 02.05.2022
1683 Clear 19 1016 42 10000 2.06 20 17:37 02.05.2022
1684 Clear 19 1017 45 10000 1.54 0 16:23 02.05.2022
1685 Clear 19 1017 42 10000 2.06 60 15:37 02.05.2022
1686 Clear 18 1018 45 10000 2.06 40 13:58 02.05.2022
1687 Clear 16 1019 51 10000 2.57 100 12:27 02.05.2022
1688 Clear 14 1019 58 10000 3.09 90 10:51 02.05.2022
1689 Clear 12 1019 66 10000 2.06 50 09:30 02.05.2022
1690 Clear 8 1019 87 10000 0.51 0 07:52 02.05.2022
1691 Clear 9 1020 87 10000 1.03 0 04:44 02.05.2022
1692 Clouds 9 1022 82 10000 1.89 28 00:25 02.05.2022
1693 Clouds 11 1022 82 10000 1.89 28 23:52 01.05.2022
1694 Clouds 11 1022 83 10000 1.78 32 22:40 01.05.2022
1695 Clouds 12 1021 66 10000 3.09 350 21:26 01.05.2022
1696 Clouds 13 1021 66 10000 3.09 350 20:19 01.05.2022
1697 Clouds 14 1021 58 10000 4.12 350 18:59 01.05.2022
1698 Clouds 14 1021 58 10000 4.12 350 18:39 01.05.2022
1699 Clouds 14 1021 58 10000 4.63 330 17:38 01.05.2022
1700 Clouds 14 1021 62 10000 4.12 340 16:24 01.05.2022
1701 Clouds 14 1022 58 10000 4.63 340 15:38 01.05.2022
1702 Clouds 12 1023 71 10000 4.12 330 13:52 01.05.2022
1703 Clouds 9 1023 87 10000 2.06 340 11:28 01.05.2022
1704 Clouds 8 1023 87 10000 2.57 330 09:32 01.05.2022
1705 Clouds 8 1023 87 10000 2.06 320 08:42 01.05.2022
1706 Clouds 8 1023 93 10000 1.73 1 03:44 01.05.2022
1707 Clouds 9 1024 81 10000 1.95 355 00:34 01.05.2022
1708 Clouds 9 1024 80 10000 1.82 352 21:51 30.04.2022
1709 Clear 10 1023 81 10000 2.06 300 21:19 30.04.2022
1710 Clear 10 1023 76 10000 2.57 330 19:45 30.04.2022
1711 Clouds 10 1023 71 10000 2.57 340 18:28 30.04.2022
1712 Clouds 10 1024 76 10000 4.63 340 16:54 30.04.2022
1713 Clouds 9 1024 81 10000 4.63 320 15:48 30.04.2022
1714 Clouds 9 1024 81 10000 6.17 320 14:53 30.04.2022
1715 Clouds 9 1025 81 10000 4.12 320 13:20 30.04.2022
1716 Clouds 8 1025 87 10000 4.63 340 11:34 30.04.2022
1717 Clouds 8 1025 87 10000 4.12 340 10:49 30.04.2022
1718 Clouds 7 1025 93 9000 4.63 330 09:48 30.04.2022
1719 Clouds 7 1025 96 10000 2.31 354 06:48 30.04.2022
1720 Clouds 8 1025 98 10000 2.72 358 03:34 30.04.2022
1721 Clear 11 1026 71 10000 3.6 330 23:53 29.04.2022
1722 Clear 12 1025 71 10000 4.12 320 22:34 29.04.2022
1723 Clear 12 1025 71 10000 3.6 320 21:54 29.04.2022
1724 Clear 13 1024 71 10000 4.12 310 20:51 29.04.2022
1725 Clear 15 1024 67 10000 3.6 310 19:47 29.04.2022
1726 Clear 17 1024 51 10000 2.57 320 18:36 29.04.2022
1727 Clouds 18 1025 48 10000 2.06 340 17:25 29.04.2022
1728 Clouds 18 1026 45 10000 1.54 50 15:50 29.04.2022
1729 Clear 17 1027 48 10000 1.54 90 14:23 29.04.2022
1730 Clear 15 1027 62 10000 1.03 0 13:22 29.04.2022
1731 Clear 12 1028 66 10000 1.54 20 11:50 29.04.2022
1732 Clear 8 1028 87 10000 1.03 0 09:23 29.04.2022
1733 Clouds 6 1029 89 10000 0.95 45 07:28 29.04.2022
1734 Clouds 4 1029 89 10000 0.95 45 06:46 29.04.2022
1735 Clear 5 1028 87 10000 0.51 0 05:44 29.04.2022
1736 Clouds 9 1031 88 10000 1.67 34 00:46 29.04.2022
1737 Clouds 8 1031 86 10000 1.6 30 23:34 28.04.2022
1738 Clouds 10 1031 85 10000 1.42 33 22:44 28.04.2022
1739 Clear 13 1030 87 10000 1.83 34 21:47 28.04.2022
1740 Clear 9 1030 84 10000 2.45 23 21:22 28.04.2022
1741 Clear 13 1028 62 10000 2.57 340 20:35 28.04.2022
1742 Clear 16 1028 47 10000 3.6 360 19:46 28.04.2022
1743 Clear 17 1028 44 10000 3.6 360 19:23 28.04.2022
1744 Clear 17 1028 44 10000 3.6 330 18:36 28.04.2022
1745 Clouds 17 1028 44 10000 4.63 350 17:26 28.04.2022
1746 Clouds 17 1028 44 10000 4.12 330 16:41 28.04.2022
1747 Clouds 17 1028 44 10000 4.12 350 16:19 28.04.2022
1748 Clouds 16 1028 47 10000 3.6 310 15:29 28.04.2022
1749 Clouds 16 1029 44 10000 3.09 290 14:36 28.04.2022
1750 Clouds 14 1029 54 10000 2.06 10 12:55 28.04.2022
1751 Clouds 13 1029 66 10000 2.57 330 11:59 28.04.2022
1752 Clear 11 1029 71 10000 1.54 330 10:47 28.04.2022
1753 Clear 10 1029 71 10000 1.03 0 10:26 28.04.2022
1754 Clear 7 1028 87 10000 2.06 330 08:44 28.04.2022
1755 Clouds 6 1028 93 9000 1.03 0 07:36 28.04.2022
1756 Clouds 5 1028 93 10000 1.35 17 05:56 28.04.2022
1757 Clouds 5 1027 93 8000 1.54 280 05:38 28.04.2022
1758 Clouds 5 1028 92 10000 1.32 16 04:40 28.04.2022
1759 Clouds 8 1028 90 10000 1.17 32 00:30 28.04.2022
1760 Clear 11 1026 71 10000 2.57 330 22:40 27.04.2022
1761 Clear 11 1026 76 10000 3.09 320 21:56 27.04.2022
1762 Clear 12 1025 71 10000 3.6 300 21:26 27.04.2022
1763 Clouds 15 1025 54 10000 4.12 320 20:38 27.04.2022
1764 Clouds 15 1024 54 10000 4.12 330 19:38 27.04.2022
1765 Clouds 16 1024 51 10000 3.6 330 19:18 27.04.2022
1766 Clouds 16 1024 47 10000 3.6 320 18:22 27.04.2022
1767 Clouds 16 1024 47 10000 3.6 320 18:22 27.04.2022
1768 Clouds 17 1024 48 10000 4.12 350 17:24 27.04.2022
1769 Clouds 16 1024 51 10000 3.6 340 15:21 27.04.2022
1770 Clouds 12 1025 71 10000 2.06 320 12:27 27.04.2022
1771 Clear 11 1025 71 10000 2.57 340 11:21 27.04.2022
1772 Clear 8 1024 87 10000 2.57 340 09:45 27.04.2022
1773 Clear 5 1023 93 10000 2.57 310 07:19 27.04.2022
1774 Clouds 7 1023 97 10000 1.63 349 05:37 27.04.2022
1775 Clouds 7 1021 96 10000 2.33 351 01:35 27.04.2022
1776 Clouds 7 1021 94 10000 2.28 351 00:38 27.04.2022
1777 Clouds 8 1020 92 10000 2.08 352 00:38 27.04.2022
1778 Clear 9 1019 81 10000 2.57 310 23:40 26.04.2022
1779 Clear 9 1019 87 10000 2.57 290 23:22 26.04.2022
1780 Clear 10 1019 81 10000 2.06 310 22:41 26.04.2022
1781 Clear 10 1018 81 10000 2.06 300 21:37 26.04.2022
1782 Clouds 11 1018 81 10000 2.57 320 20:52 26.04.2022
1783 Clouds 11 1017 76 10000 2.57 350 20:30 26.04.2022
1784 Clouds 13 1017 62 10000 5.14 340 19:32 26.04.2022
1785 Clouds 13 1017 66 10000 4.63 300 18:45 26.04.2022
1786 Clouds 13 1016 62 10000 2.57 290 17:59 26.04.2022
1787 Clouds 12 1016 66 10000 2.57 280 16:58 26.04.2022
1788 Clouds 14 1016 58 10000 3.6 120 14:27 26.04.2022
1789 Clouds 14 1015 62 10000 3.09 130 13:33 26.04.2022
1790 Clouds 12 1015 62 10000 3.09 100 11:55 26.04.2022
1791 Clouds 11 1015 76 9000 1.54 50 10:37 26.04.2022
1792 Clouds 9 1014 87 7000 2.06 30 09:25 26.04.2022
1793 Clouds 6 1015 92 10000 1.66 43 07:22 26.04.2022
1794 Clouds 5 1015 94 10000 1.54 56 04:23 26.04.2022
1795 Clouds 8 1015 91 10000 1.45 65 01:25 26.04.2022
1796 Clouds 6 1014 90 10000 1.25 96 00:26 26.04.2022
1797 Clear 10 1013 81 10000 3.09 130 22:36 25.04.2022
1798 Clear 10 1013 81 10000 2.06 130 21:40 25.04.2022
1799 Clouds 11 1012 81 10000 2.57 30 20:39 25.04.2022
1800 Clouds 11 1012 87 10000 2.57 10 18:58 25.04.2022
1801 Clouds 11 1012 87 10000 4.12 20 17:54 25.04.2022
1802 Clouds 12 1012 76 10000 1.54 40 16:55 25.04.2022
1803 Clouds 11 1012 76 10000 1.03 0 15:29 25.04.2022
1804 Clouds 10 1012 87 10000 1.54 150 14:42 25.04.2022
1805 Drizzle 10 1011 87 10000 2.57 140 13:33 25.04.2022
1806 Rain 9 1011 93 10000 1.54 130 11:38 25.04.2022
1807 Rain 9 1010 87 10000 0.51 0 10:26 25.04.2022
1808 Rain 8 1009 93 6000 1.54 330 08:39 25.04.2022
1809 Rain 7 1009 96 10000 1.27 62 06:39 25.04.2022
1810 Clouds 9 1007 94 10000 1.6 349 03:47 25.04.2022
1811 Clouds 8 1006 90 10000 1.38 347 00:43 25.04.2022
1812 Clouds 10 1006 87 10000 2.06 280 23:51 24.04.2022
1813 Clouds 10 1006 87 10000 1.54 260 22:41 24.04.2022
1814 Rain 9 1005 89 10000 0.91 327 22:20 24.04.2022
1815 Rain 9 1005 88 10000 0.65 353 21:26 24.04.2022
1816 Rain 10 1004 87 10000 2.57 300 20:48 24.04.2022
1817 Rain 10 1004 93 10000 2.06 300 20:29 24.04.2022
1818 Rain 11 1004 81 10000 1.03 270 19:45 24.04.2022
1819 Rain 12 1004 66 10000 3.6 110 18:20 24.04.2022
1820 Rain 13 1003 54 10000 5.66 50 17:28 24.04.2022
1821 Clouds 13 1002 54 10000 5.14 40 16:58 24.04.2022
1822 Clouds 14 1002 54 10000 3.6 40 16:32 24.04.2022
1823 Clouds 14 1002 44 10000 4.63 70 15:54 24.04.2022
1824 Clear 15 1002 41 10000 5.66 70 14:58 24.04.2022
1825 Clouds 15 1001 47 10000 6.17 50 13:51 24.04.2022
1826 Clear 15 1001 47 10000 5.14 50 13:24 24.04.2022
1827 Clear 14 1002 50 10000 5.14 60 11:56 24.04.2022
1828 Clear 14 1002 50 10000 5.14 60 11:27 24.04.2022
1829 Clear 12 1002 58 10000 5.14 60 09:55 24.04.2022
1830 Clear 9 1002 66 10000 1.03 0 08:51 24.04.2022
1831 Clear 7 1002 70 10000 3.6 40 06:18 24.04.2022
1832 Clouds 9 1003 80 10000 3.29 47 03:37 24.04.2022
1833 Clouds 9 1003 80 10000 3.29 47 03:37 24.04.2022
1834 Clouds 11 1004 76 10000 4.58 54 01:37 24.04.2022
1835 Clear 12 1004 54 10000 3.6 80 23:57 23.04.2022
1836 Clear 12 1004 54 10000 3.09 80 23:26 23.04.2022
1837 Clouds 13 1005 68 10000 4.58 75 22:46 23.04.2022
1838 Clouds 13 1005 66 10000 5.28 77 21:49 23.04.2022
1839 Clouds 13 1005 66 10000 5.28 77 21:31 23.04.2022
1840 Clear 15 1004 41 10000 6.17 80 20:33 23.04.2022
1841 Clear 15 1004 41 10000 7.2 90 19:41 23.04.2022
1842 Clear 16 1004 38 10000 7.2 80 19:18 23.04.2022
1843 Clear 16 1004 36 10000 7.2 90 18:46 23.04.2022
1844 Clear 17 1005 36 10000 8.23 80 17:48 23.04.2022
1845 Clear 17 1005 33 10000 8.23 80 16:47 23.04.2022
1846 Clear 16 1006 38 10000 7.72 100 15:54 23.04.2022
1847 Clouds 16 1007 44 10000 7.2 90 14:27 23.04.2022
1848 Clouds 12 1007 66 10000 7.72 80 11:59 23.04.2022
1849 Clouds 11 1007 71 10000 7.2 80 10:40 23.04.2022
1850 Clouds 10 1007 81 10000 5.14 90 08:30 23.04.2022
1851 Clouds 10 1007 81 10000 4.63 80 05:27 23.04.2022
1852 Clouds 11 1007 85 10000 5.16 84 03:54 23.04.2022
1853 Clouds 11 1007 81 10000 3.09 80 00:18 23.04.2022
1854 Clouds 11 1007 81 10000 5.14 90 23:25 22.04.2022
1855 Clouds 12 1007 90 10000 3.58 92 21:59 22.04.2022
1856 Clouds 12 1007 90 10000 3.58 92 21:40 22.04.2022
1857 Clouds 13 1006 58 10000 5.14 60 20:37 22.04.2022
1858 Clouds 14 1006 58 10000 5.66 70 19:39 22.04.2022
1859 Clouds 14 1006 58 10000 6.17 70 19:18 22.04.2022
1860 Clouds 14 1006 58 10000 6.17 60 18:28 22.04.2022
1861 Clouds 14 1006 54 10000 6.69 70 17:24 22.04.2022
1862 Clouds 15 1006 58 10000 6.69 60 15:59 22.04.2022
1863 Clouds 14 1006 58 10000 6.17 60 15:30 22.04.2022
1864 Clouds 13 1006 66 10000 6.69 50 14:38 22.04.2022
1865 Clouds 14 1006 62 10000 5.66 50 13:41 22.04.2022
1866 Clouds 11 1007 76 10000 4.63 50 12:47 22.04.2022
1867 Clouds 11 1007 76 10000 6.17 80 11:23 22.04.2022
1868 Clouds 11 1007 76 10000 6.69 90 10:56 22.04.2022
1869 Clouds 11 1007 76 10000 5.66 90 10:34 22.04.2022
1870 Drizzle 10 1007 81 10000 4.63 80 09:59 22.04.2022
1871 Clouds 10 1008 81 10000 4.63 80 09:22 22.04.2022
1872 Clouds 10 1008 81 10000 4.63 70 08:48 22.04.2022
1873 Clouds 9 1008 86 10000 4.63 68 06:42 22.04.2022
1874 Clouds 8 1011 91 10000 3.47 72 01:24 22.04.2022
1875 Clouds 10 1011 90 10000 3.57 68 23:33 21.04.2022
1876 Clouds 10 1012 89 10000 3.35 67 22:43 21.04.2022
1877 Clouds 10 1011 71 10000 4.63 70 21:42 21.04.2022
1878 Clouds 12 1011 66 10000 5.66 70 20:31 21.04.2022
1879 Clouds 12 1011 66 10000 4.12 60 18:49 21.04.2022
1880 Clouds 13 1011 62 10000 4.12 70 18:28 21.04.2022
1881 Clouds 14 1011 58 10000 4.12 70 17:19 21.04.2022
1882 Clouds 13 1012 58 10000 4.12 80 15:25 21.04.2022
1883 Clouds 13 1012 62 10000 4.63 50 14:52 21.04.2022
1884 Clouds 12 1012 62 10000 3.6 50 14:18 21.04.2022
1885 Clouds 11 1013 66 10000 1.03 0 13:21 21.04.2022
1886 Clear 10 1013 71 10000 1.03 0 12:22 21.04.2022
1887 Clouds 6 1013 81 10000 1.03 340 09:33 21.04.2022
1888 Clear 5 1013 87 10000 2.06 320 08:46 21.04.2022
1889 Clouds 3 1014 94 10000 1.63 22 06:44 21.04.2022
1890 Clouds 4 1014 94 10000 1.78 13 03:41 21.04.2022
1891 Clouds 6 1014 93 10000 1.98 9 03:22 21.04.2022
1892 Clouds 5 1014 93 10000 1.98 9 02:44 21.04.2022
1893 Clouds 5 1014 93 10000 1.98 9 02:44 21.04.2022
1894 Clouds 6 1015 91 10000 1.83 5 00:34 21.04.2022
1895 Clouds 7 1015 88 10000 0.69 25 23:25 20.04.2022
1896 Clouds 10 1015 88 10000 0.69 25 22:59 20.04.2022
1897 Clouds 10 1015 88 10000 0.69 25 22:34 20.04.2022
1898 Clouds 11 1015 87 10000 1.09 44 21:36 20.04.2022
1899 Clear 12 1014 58 10000 3.09 60 20:44 20.04.2022
1900 Clear 12 1014 58 10000 3.09 60 20:44 20.04.2022
1901 Clear 12 1014 58 10000 3.09 60 20:44 20.04.2022
1902 Clear 12 1014 58 10000 3.09 60 20:21 20.04.2022
1903 Clouds 13 1014 54 10000 4.63 60 19:44 20.04.2022
1904 Clouds 14 1014 50 10000 5.66 60 18:46 20.04.2022
1905 Clouds 15 1014 44 10000 5.14 60 17:49 20.04.2022
1906 Clouds 15 1015 47 10000 4.12 60 16:39 20.04.2022
1907 Clear 14 1015 44 10000 4.12 30 14:58 20.04.2022
1908 Clear 13 1017 47 10000 2.06 0 12:22 20.04.2022
1909 Clear 12 1017 50 10000 1.54 340 11:40 20.04.2022
1910 Clear 10 1017 57 10000 1.54 300 10:39 20.04.2022
1911 Clear 6 1017 75 10000 1.54 360 09:28 20.04.2022
1912 Clear 5 1017 81 10000 0.51 0 08:27 20.04.2022
1913 Clear 3 1017 80 10000 0.51 290 07:44 20.04.2022
1914 Clouds 2 1017 87 10000 1.41 57 05:29 20.04.2022
1915 Clouds 5 1018 84 10000 1.22 68 01:35 20.04.2022
1916 Clear 6 1018 81 10000 1.39 70 00:21 20.04.2022
1917 Clear 7 1017 79 10000 1.61 68 22:44 19.04.2022
1918 Clear 8 1017 78 10000 1.7 67 22:23 19.04.2022
1919 Clear 11 1017 78 10000 1.7 67 21:46 19.04.2022
1920 Clear 13 1014 37 10000 4.63 50 20:57 19.04.2022
1921 Clear 13 1014 37 10000 4.63 50 20:37 19.04.2022
1922 Clear 14 1014 35 10000 4.63 50 19:32 19.04.2022
1923 Clear 15 1013 38 10000 4.63 30 18:27 19.04.2022
1924 Clear 16 1013 29 10000 4.63 10 16:50 19.04.2022
1925 Clear 16 1013 31 10000 4.12 10 16:25 19.04.2022
1926 Clear 15 1014 30 10000 4.12 40 15:57 19.04.2022
1927 Clear 15 1014 30 10000 3.6 10 14:44 19.04.2022
1928 Clear 14 1014 38 10000 3.09 10 12:53 19.04.2022
1929 Clear 13 1014 43 10000 3.6 20 12:31 19.04.2022
1930 Clear 12 1014 54 10000 1.03 0 11:27 19.04.2022
1931 Clear 8 1015 70 10000 1.54 260 09:35 19.04.2022
1932 Clear 3 1014 81 10000 1.54 260 07:43 19.04.2022
1933 Clear 3 1014 81 10000 1.54 260 07:43 19.04.2022
1934 Clouds 4 1015 78 10000 0.95 28 04:25 19.04.2022
1935 Clouds 5 1016 78 10000 1 60 01:41 19.04.2022
1936 Clouds 7 1017 76 10000 1.05 86 23:49 18.04.2022
1937 Clear 10 1016 46 10000 1.54 20 22:46 18.04.2022
1938 Clear 12 1016 46 10000 2.57 40 21:25 18.04.2022
1939 Clear 13 1016 43 10000 3.09 60 20:39 18.04.2022
1940 Clear 16 1016 38 10000 2.06 20 19:59 18.04.2022
1941 Clear 16 1016 38 10000 2.06 20 19:33 18.04.2022
1942 Clear 17 1016 27 10000 2.06 360 18:45 18.04.2022
1943 Clear 17 1017 27 10000 1.54 0 17:49 18.04.2022
1944 Clear 17 1017 29 10000 2.06 0 17:19 18.04.2022
1945 Clear 16 1017 31 10000 2.06 20 16:38 18.04.2022
1946 Clear 16 1018 33 10000 1.54 80 15:32 18.04.2022
1947 Clear 15 1019 35 10000 2.57 70 14:27 18.04.2022
1948 Clear 15 1020 38 10000 2.57 100 12:56 18.04.2022
1949 Clear 14 1020 35 10000 3.09 120 12:24 18.04.2022
1950 Clear 11 1021 43 10000 3.09 0 10:46 18.04.2022
1951 Clear 10 1021 53 10000 3.09 90 09:32 18.04.2022
1952 Clear 5 1021 81 10000 1.54 90 08:46 18.04.2022
1953 Clear 3 1022 83 10000 0.82 112 07:25 18.04.2022
1954 Clear 3 1023 84 10000 1.43 92 02:45 18.04.2022
1955 Clear 7 1024 56 10000 2.06 130 23:23 17.04.2022
1956 Clear 8 1024 46 10000 2.57 140 22:37 17.04.2022
1957 Clear 10 1024 43 10000 3.09 120 21:34 17.04.2022
1958 Clear 11 1024 37 10000 4.12 100 20:52 17.04.2022
1959 Clear 13 1024 30 10000 4.12 100 20:19 17.04.2022
1960 Clear 15 1024 23 10000 5.14 80 18:58 17.04.2022
1961 Clear 15 1025 21 10000 4.63 110 17:31 17.04.2022
1962 Clear 15 1027 21 10000 4.63 90 15:37 17.04.2022
1963 Clear 15 1027 26 10000 3.09 80 14:46 17.04.2022
1964 Clear 13 1028 37 10000 2.06 100 13:37 17.04.2022
1965 Clear 12 1029 40 10000 2.57 0 12:49 17.04.2022
1966 Clear 9 1030 49 10000 3.6 90 10:59 17.04.2022
1967 Clear 9 1030 53 10000 1.54 120 10:29 17.04.2022
1968 Clear 7 1030 57 10000 2.57 90 09:55 17.04.2022
1969 Clear 6 1030 70 10000 2.06 80 09:21 17.04.2022
1970 Clear 4 1030 70 10000 1.54 120 08:41 17.04.2022
1971 Clear 2 1032 83 10000 1.06 91 06:29 17.04.2022
1972 Clear 2 1033 79 10000 1.2 97 02:26 17.04.2022
1973 Clear 2 1034 77 10000 1.1 91 00:42 17.04.2022
1974 Clear 5 1033 60 10000 1.03 0 23:38 16.04.2022
1975 Clear 7 1032 53 10000 3.09 80 21:49 16.04.2022
1976 Clear 9 1032 46 10000 3.09 80 20:54 16.04.2022
1977 Clear 13 1032 32 10000 4.63 80 19:28 16.04.2022
1978 Clear 13 1032 32 10000 4.63 80 18:44 16.04.2022
1979 Clear 13 1032 32 10000 4.12 80 17:21 16.04.2022
1980 Clear 13 1032 32 10000 5.14 90 16:19 16.04.2022
1981 Clear 13 1033 30 10000 6.17 70 14:59 16.04.2022
1982 Clear 13 1033 30 10000 6.17 70 14:41 16.04.2022
1983 Clear 11 1033 35 10000 6.69 70 13:50 16.04.2022
1984 Clear 11 1033 34 10000 6.69 100 13:18 16.04.2022
1985 Clear 9 1033 36 10000 6.17 90 11:50 16.04.2022
1986 Clouds 7 1033 45 10000 5.66 110 10:35 16.04.2022
1987 Clouds 8 1032 65 10000 4.63 70 09:37 16.04.2022
1988 Clouds 7 1032 81 10000 4.63 50 08:52 16.04.2022
1989 Clouds 5 1032 91 10000 3.13 69 07:22 16.04.2022
1990 Clouds 8 1030 87 10000 4.12 50 05:38 16.04.2022
1991 Clouds 9 1030 95 10000 2.42 24 01:49 16.04.2022
1992 Clouds 10 1030 93 10000 1.98 11 23:52 15.04.2022
1993 Clouds 10 1029 81 10000 2.06 30 22:51 15.04.2022
1994 Clouds 10 1029 81 10000 3.09 30 22:29 15.04.2022
1995 Clouds 9 1029 87 10000 2.13 18 21:25 15.04.2022
1996 Clouds 11 1027 76 10000 2.57 330 20:38 15.04.2022
1997 Clouds 12 1027 66 10000 3.6 340 19:46 15.04.2022
1998 Clouds 12 1027 66 10000 3.09 350 19:23 15.04.2022
1999 Clouds 12 1027 66 10000 3.09 320 18:42 15.04.2022
2000 Clouds 11 1027 71 10000 3.09 320 18:22 15.04.2022
2001 Clouds 11 1027 71 10000 3.6 350 17:27 15.04.2022
2002 Clouds 11 1027 66 10000 4.12 350 16:25 15.04.2022
2003 Clouds 11 1027 71 10000 4.12 340 15:46 15.04.2022
2004 Clouds 9 1026 76 10000 3.6 300 14:18 15.04.2022
2005 Clouds 8 1027 81 10000 3.6 320 12:52 15.04.2022
2006 Clouds 8 1026 81 10000 4.63 320 12:26 15.04.2022
2007 Clouds 8 1026 81 10000 6.17 310 11:52 15.04.2022
2008 Clouds 8 1025 81 10000 6.69 330 10:48 15.04.2022
2009 Clouds 8 1025 87 10000 6.69 330 10:21 15.04.2022
2010 Clouds 9 1025 81 10000 4.12 320 09:23 15.04.2022
2011 Clouds 8 1024 81 10000 4.12 320 08:49 15.04.2022
2012 Clouds 5 1025 96 10000 2.11 322 06:51 15.04.2022
2013 Clear 7 1024 97 10000 1.66 306 04:49 15.04.2022
2014 Clouds 11 1023 93 10000 1.74 302 00:51 15.04.2022
2015 Clear 13 1022 76 10000 3.09 260 23:28 14.04.2022
2016 Clear 13 1022 71 10000 3.09 260 22:46 14.04.2022
2017 Clear 13 1022 71 10000 3.6 270 22:27 14.04.2022
2018 Clear 14 1021 76 10000 3.6 290 21:50 14.04.2022
2019 Clouds 16 1020 67 10000 3.6 320 19:51 14.04.2022
2020 Clouds 18 1020 55 10000 5.66 300 19:22 14.04.2022
2021 Clouds 17 1020 51 10000 2.06 280 17:46 14.04.2022
2022 Clouds 17 1020 55 10000 3.6 300 17:18 14.04.2022
2023 Clouds 17 1020 67 10000 1.03 0 16:21 14.04.2022
2024 Clouds 14 1021 82 10000 1.54 240 13:54 14.04.2022
2025 Clouds 14 1021 88 10000 1.03 0 13:25 14.04.2022
2026 Clouds 13 1021 87 10000 1.03 0 12:33 14.04.2022
2027 Rain 12 1021 93 7000 1.03 0 11:47 14.04.2022
2028 Rain 12 1021 93 7000 1.54 270 11:20 14.04.2022
2029 Rain 12 1021 93 7000 2.57 280 10:33 14.04.2022
2030 Rain 12 1020 93 7000 3.6 300 09:50 14.04.2022
2031 Clouds 12 1020 93 10000 3.09 300 08:35 14.04.2022
2032 Clouds 13 1018 99 10000 1.44 349 05:58 14.04.2022
2033 Clouds 14 1018 97 10000 2.21 342 01:23 14.04.2022
2034 Clouds 16 1018 94 10000 1.74 307 22:41 13.04.2022
2035 Clear 16 1017 63 10000 3.6 290 21:44 13.04.2022
2036 Clear 17 1017 63 10000 4.12 290 20:47 13.04.2022
2037 Clear 20 1016 52 10000 2.06 310 19:54 13.04.2022
2038 Clear 21 1016 49 10000 1.54 340 18:43 13.04.2022
2039 Clear 23 1016 37 10000 2.06 40 17:52 13.04.2022
2040 Clear 23 1016 37 10000 2.06 20 17:23 13.04.2022
2041 Clear 22 1016 37 10000 2.06 50 16:18 13.04.2022
2042 Clear 22 1016 37 10000 1.54 20 15:31 13.04.2022
2043 Clear 21 1016 35 10000 1.03 0 14:43 13.04.2022
2044 Clear 20 1016 39 10000 1.03 0 13:55 13.04.2022
2045 Clear 19 1016 45 10000 2.06 80 12:57 13.04.2022
2046 Clear 18 1016 45 10000 1.54 70 12:19 13.04.2022
2047 Clear 15 1016 44 10000 3.09 130 10:41 13.04.2022
2048 Clear 10 1015 71 10000 1.54 130 08:49 13.04.2022
2049 Clear 10 1014 61 10000 0.51 0 08:24 13.04.2022
2050 Clouds 7 1015 78 10000 1.99 170 06:50 13.04.2022
2051 Clouds 9 1014 75 10000 1.95 164 06:24 13.04.2022
2052 Clouds 8 1014 71 10000 1.66 138 02:27 13.04.2022
2053 Clouds 10 1015 70 10000 1.56 140 00:20 13.04.2022
2054 Clouds 10 1014 70 10000 1.57 132 22:45 12.04.2022
2055 Clouds 12 1014 70 10000 1.65 137 21:56 12.04.2022
2056 Clear 17 1012 41 10000 4.12 120 20:49 12.04.2022
2057 Clear 17 1012 41 10000 4.12 120 20:49 12.04.2022
2058 Clear 17 1012 41 10000 4.12 120 20:22 12.04.2022
2059 Clear 19 1012 34 10000 4.63 130 19:40 12.04.2022
2060 Clear 19 1012 34 10000 6.17 120 19:19 12.04.2022
2061 Clear 21 1012 30 10000 4.63 130 17:49 12.04.2022
2062 Clear 21 1012 32 10000 6.17 110 16:50 12.04.2022
2063 Clear 20 1013 32 10000 5.14 120 15:39 12.04.2022
2064 Clear 20 1013 32 10000 4.63 130 15:20 12.04.2022
2065 Clear 18 1013 36 10000 4.12 110 13:53 12.04.2022
2066 Clear 17 1013 41 10000 4.12 130 13:27 12.04.2022
2067 Clear 17 1013 41 10000 4.12 130 13:27 12.04.2022
2068 Clear 15 1014 41 10000 5.14 120 12:26 12.04.2022
2069 Clear 13 1015 47 10000 5.66 110 11:39 12.04.2022
2070 Clear 10 1015 57 10000 3.09 90 09:59 12.04.2022
2071 Clear 7 1014 65 10000 3.6 110 08:53 12.04.2022
2072 Clouds 4 1016 73 10000 1.76 128 07:21 12.04.2022
2073 Clouds 2 1016 72 10000 1.6 121 05:47 12.04.2022
2074 Clouds 4 1016 71 10000 1.51 106 02:53 12.04.2022
2075 Clouds 6 1018 71 10000 1.57 121 23:25 11.04.2022
2076 Clear 7 1016 61 10000 2.57 140 22:44 11.04.2022
2077 Clear 9 1016 57 10000 1.03 0 21:36 11.04.2022
2078 Clear 11 1015 46 10000 1.54 120 20:49 11.04.2022
2079 Clear 12 1015 46 10000 1.03 80 20:28 11.04.2022
2080 Clear 14 1015 35 10000 2.06 100 19:29 11.04.2022
2081 Clear 14 1016 35 10000 2.57 160 18:59 11.04.2022
2082 Clear 14 1016 35 10000 2.57 160 18:33 11.04.2022
2083 Clear 14 1016 33 10000 2.06 150 17:43 11.04.2022
2084 Clear 14 1016 33 10000 2.57 140 16:36 11.04.2022
2085 Clear 13 1017 40 10000 3.09 130 15:21 11.04.2022
2086 Clear 12 1018 37 10000 2.57 0 13:37 11.04.2022
2087 Clear 11 1019 43 10000 3.09 210 12:41 11.04.2022
2088 Clear 11 1019 46 10000 3.09 210 12:22 11.04.2022
2089 Clear 7 1019 61 10000 2.57 140 10:47 11.04.2022
2090 Clear 4 1020 75 10000 1.54 110 09:58 11.04.2022
2091 Clear 1 1020 86 10000 2.06 100 08:22 11.04.2022
2092 Clear 0 1020 93 10000 1.03 0 04:56 11.04.2022
2093 Clouds 1 1022 87 10000 1.54 186 00:30 11.04.2022
2094 Clear 3 1020 87 10000 2.06 210 22:27 10.04.2022
2095 Clear 3 1020 87 10000 2.06 210 22:27 10.04.2022
2096 Clear 4 1020 81 10000 1.03 200 21:53 10.04.2022
2097 Clear 6 1020 70 10000 1.54 240 20:55 10.04.2022
2098 Clouds 6 1020 75 10000 1.54 300 20:18 10.04.2022
2099 Clouds 7 1020 65 10000 3.09 330 19:36 10.04.2022
2100 Clouds 7 1019 65 10000 3.09 10 18:50 10.04.2022
2101 Clouds 6 1019 75 10000 6.17 350 18:26 10.04.2022
2102 Clouds 9 1019 53 10000 6.69 310 17:44 10.04.2022
2103 Clouds 8 1019 61 10000 8.23 300 16:57 10.04.2022
2104 Clouds 8 1018 57 10000 8.75 290 15:38 10.04.2022
2105 Clouds 5 1019 87 10000 4.12 270 14:41 10.04.2022
2106 Rain 7 1018 56 10000 9.26 290 13:28 10.04.2022
2107 Clouds 7 1018 56 10000 9.26 290 12:27 10.04.2022
2108 Clouds 7 1018 56 10000 7.72 290 11:38 10.04.2022
2109 Rain 5 1018 70 10000 7.2 290 10:59 10.04.2022
2110 Clouds 5 1018 75 10000 6.17 290 10:27 10.04.2022
2111 Clouds 5 1018 81 10000 6.17 280 09:41 10.04.2022
2112 Clouds 3 1017 87 10000 4.63 270 08:26 10.04.2022
2113 Clouds 3 1017 87 10000 4.63 280 07:53 10.04.2022
2114 Clouds 3 1018 93 10000 3.35 270 06:59 10.04.2022
2115 Clouds 3 1017 95 10000 2.61 236 03:36 10.04.2022
2116 Clouds 3 1017 95 10000 2.61 236 03:36 10.04.2022
2117 Clouds 3 1017 95 10000 2.61 236 03:36 10.04.2022
2118 Clouds 3 1014 80 10000 4.12 280 01:30 10.04.2022
2119 Clouds 2 1014 93 10000 2.57 240 23:53 09.04.2022
2120 Clouds 2 1015 92 10000 2.9 265 22:52 09.04.2022
2121 Clouds 3 1015 89 10000 3.67 278 22:24 09.04.2022
2122 Clouds 4 1012 81 10000 5.14 280 21:18 09.04.2022
2123 Clouds 4 1012 87 10000 5.66 280 20:27 09.04.2022
2124 Clouds 4 1012 87 10000 9.26 300 19:49 09.04.2022
2125 Clouds 7 1011 65 10000 8.75 280 19:30 09.04.2022
2126 Rain 7 1010 65 10000 9.26 290 18:23 09.04.2022
2127 Clouds 7 1010 65 10000 10.29 290 17:43 09.04.2022
2128 Clouds 6 1010 81 10000 9.26 270 16:55 09.04.2022
2129 Clouds 8 1009 65 10000 9.77 270 16:29 09.04.2022
2130 Clouds 8 1009 65 10000 12.35 290 15:48 09.04.2022
2131 Clouds 8 1009 65 10000 12.35 290 15:48 09.04.2022
2132 Clouds 7 1009 70 10000 10.8 280 15:25 09.04.2022
2133 Clouds 4 1009 81 9000 14.4 300 14:25 09.04.2022
2134 Clouds 6 1008 81 10000 7.72 300 13:24 09.04.2022
2135 Clouds 6 1008 87 10000 5.14 270 12:53 09.04.2022
2136 Clouds 5 1007 87 9000 6.17 290 11:44 09.04.2022
2137 Clouds 5 1007 81 10000 7.72 280 10:22 09.04.2022
2138 Clouds 5 1006 87 10000 6.69 290 09:53 09.04.2022
2139 Clouds 4 1005 87 10000 5.66 280 08:59 09.04.2022
2140 Clouds 4 1004 87 10000 6.17 280 07:44 09.04.2022
2141 Clouds 4 1000 90 10000 4.74 302 03:22 09.04.2022
2142 Clouds 4 998 80 10000 2.3 305 00:32 09.04.2022
2143 Clear 5 996 60 10000 1.03 250 22:58 08.04.2022
2144 Clear 5 996 65 10000 2.06 260 21:35 08.04.2022
2145 Clear 5 996 75 10000 2.57 300 20:41 08.04.2022
2146 Clouds 7 996 61 10000 4.63 310 19:41 08.04.2022
2147 Clouds 7 995 53 10000 4.63 300 18:38 08.04.2022
2148 Clouds 7 995 53 10000 4.63 280 17:59 08.04.2022
2149 Clouds 8 995 53 10000 3.6 250 17:27 08.04.2022
2150 Clouds 8 995 53 10000 4.12 230 16:52 08.04.2022
2151 Clouds 8 995 53 10000 4.12 250 16:22 08.04.2022
2152 Clouds 8 996 53 10000 4.63 250 15:28 08.04.2022
2153 Clouds 8 996 57 10000 4.63 230 14:44 08.04.2022
2154 Clouds 8 997 61 10000 3.6 240 13:55 08.04.2022
2155 Clouds 8 997 57 10000 3.6 230 13:30 08.04.2022
2156 Clouds 8 997 61 10000 4.63 240 12:42 08.04.2022
2157 Clouds 6 999 65 10000 5.66 250 10:56 08.04.2022
2158 Clouds 6 998 65 10000 4.12 270 09:41 08.04.2022
2159 Clouds 5 998 75 10000 5.66 270 08:59 08.04.2022
2160 Clouds 5 997 75 10000 6.69 270 07:42 08.04.2022
2161 Clouds 5 999 82 10000 6.68 273 06:44 08.04.2022
2162 Clouds 7 993 78 10000 10.75 265 02:29 08.04.2022
2163 Clouds 6 990 66 10000 11.81 250 00:28 08.04.2022
2164 Clouds 6 990 66 10000 11.81 250 23:42 07.04.2022
2165 Clouds 6 990 67 10000 11.07 249 22:41 07.04.2022
2166 Clouds 6 989 65 10000 10.59 247 22:22 07.04.2022
2167 Clouds 5 989 65 10000 10.59 247 21:58 07.04.2022
2168 Clouds 7 989 65 10000 10.36 250 21:28 07.04.2022
2169 Clouds 6 986 75 10000 11.83 240 20:42 07.04.2022
2170 Clouds 9 986 71 10000 9.26 240 19:25 07.04.2022
2171 Clouds 9 984 71 10000 11.83 290 17:28 07.04.2022
2172 Clouds 12 983 54 10000 9.26 260 16:51 07.04.2022
2173 Clouds 12 983 54 10000 9.26 260 16:33 07.04.2022
2174 Clouds 12 983 58 10000 9.26 260 15:40 07.04.2022
2175 Clouds 11 981 82 9000 11.83 190 13:52 07.04.2022
2176 Clouds 11 981 87 9000 10.8 200 13:23 07.04.2022
2177 Clouds 11 984 81 10000 10.8 190 11:52 07.04.2022
2178 Drizzle 10 985 76 10000 11.83 200 10:46 07.04.2022
2179 Clouds 10 989 76 10000 8.75 190 08:43 07.04.2022
2180 Clouds 8 992 87 10000 8.51 218 06:59 07.04.2022
2181 Clouds 8 994 84 10000 8.26 217 05:21 07.04.2022
2182 Clouds 8 995 82 10000 8.13 225 02:34 07.04.2022
2183 Clouds 10 997 80 10000 8.27 228 00:43 07.04.2022
2184 Clouds 10 998 78 10000 7.46 224 23:28 06.04.2022
2185 Clouds 10 998 78 10000 7.46 224 22:44 06.04.2022
2186 Clouds 10 998 78 10000 7.31 222 22:19 06.04.2022
2187 Clear 11 998 62 10000 6.17 200 20:47 06.04.2022
2188 Clear 10 998 62 10000 6.69 200 19:59 06.04.2022
2189 Clear 11 998 62 10000 7.2 200 19:24 06.04.2022
2190 Clouds 11 999 62 10000 7.2 210 18:48 06.04.2022
2191 Clouds 12 999 58 10000 6.17 230 17:36 06.04.2022
2192 Clouds 12 1000 58 10000 7.2 220 16:56 06.04.2022
2193 Clouds 12 1000 58 10000 7.2 220 16:32 06.04.2022
2194 Clouds 12 1000 58 10000 7.72 220 15:43 06.04.2022
2195 Clouds 10 1002 66 10000 7.2 240 13:34 06.04.2022
2196 Clouds 10 1002 66 10000 5.66 230 12:30 06.04.2022
2197 Clouds 9 1002 71 10000 5.66 240 10:57 06.04.2022
2198 Clouds 9 1002 71 10000 5.66 240 10:33 06.04.2022
2199 Clouds 9 1003 76 10000 6.17 220 09:46 06.04.2022
2200 Clouds 9 1002 81 10000 5.66 220 08:59 06.04.2022
2201 Clouds 9 1002 81 10000 6.17 220 07:59 06.04.2022
2202 Clouds 9 1004 91 10000 6.02 233 05:45 06.04.2022
2203 Clouds 9 1005 97 7776 4.21 225 00:45 06.04.2022
2204 Clouds 10 1006 97 7546 4.57 225 23:48 05.04.2022
2205 Clouds 10 1006 95 10000 5.27 254 21:50 05.04.2022
2206 Clouds 10 1005 94 10000 6.22 260 20:59 05.04.2022
2207 Clouds 11 1003 81 10000 5.66 260 20:23 05.04.2022
2208 Clouds 12 1003 76 10000 5.66 270 18:31 05.04.2022
2209 Clouds 11 1003 87 10000 3.6 270 17:21 05.04.2022
2210 Clouds 11 1004 87 6000 4.63 280 16:42 05.04.2022
2211 Clouds 11 1004 87 10000 4.63 270 15:51 05.04.2022
2212 Clouds 11 1004 87 10000 4.12 280 15:30 05.04.2022
2213 Mist 9 1004 93 2900 1.03 0 13:46 05.04.2022
2214 Mist 8 1004 93 4100 1.03 0 12:33 05.04.2022
2215 Clouds 8 1004 93 10000 3.09 240 11:43 05.04.2022
2216 Clouds 7 1004 93 10000 3.6 240 11:24 05.04.2022
2217 Drizzle 7 1004 93 10000 2.57 270 09:31 05.04.2022
2218 Drizzle 7 1004 93 10000 3.09 250 08:33 05.04.2022
2219 Clouds 5 1003 97 3933 3.53 261 03:50 05.04.2022
2220 Clouds 4 1005 95 7992 7.13 235 23:42 04.04.2022
2221 Clouds 5 1005 96 6615 7.59 236 22:37 04.04.2022
2222 Clouds 4 1005 96 7078 7.95 238 21:48 04.04.2022
2223 Clouds 4 1005 96 5135 8.64 240 21:19 04.04.2022
2224 Clouds 5 1003 81 10000 8.75 230 20:47 04.04.2022
2225 Clouds 4 1003 87 10000 9.77 230 19:28 04.04.2022
2226 Clouds 5 1003 81 10000 9.77 230 18:44 04.04.2022
2227 Clouds 5 1004 75 10000 9.26 220 17:21 04.04.2022
2228 Clouds 5 1005 75 10000 8.23 220 16:34 04.04.2022
2229 Clouds 4 1005 75 10000 9.26 220 15:34 04.04.2022
2230 Clouds 6 1006 60 10000 9.77 220 14:46 04.04.2022
2231 Clouds 5 1007 75 10000 8.75 220 14:28 04.04.2022
2232 Clouds 6 1008 52 10000 8.75 210 12:59 04.04.2022
2233 Clear 4 1010 60 10000 7.2 210 11:29 04.04.2022
2234 Clear 3 1011 65 10000 7.2 210 10:29 04.04.2022
2235 Clear 1 1014 80 10000 4.63 210 06:58 04.04.2022
2236 Clouds 1 1019 95 10000 2.7 198 03:18 04.04.2022
2237 Clouds 3 1021 95 10000 2.21 215 23:47 03.04.2022
2238 Clouds 2 1021 92 10000 2.01 234 22:24 03.04.2022
2239 Clouds 2 1021 92 10000 2.01 234 21:32 03.04.2022
2240 Clouds 3 1019 70 10000 4.12 280 20:35 03.04.2022
2241 Clouds 5 1018 60 10000 4.12 290 18:51 03.04.2022
2242 Clouds 5 1019 60 10000 6.69 290 17:57 03.04.2022
2243 Clouds 5 1019 60 10000 6.69 290 17:37 03.04.2022
2244 Clouds 6 1019 52 10000 6.69 280 16:50 03.04.2022
2245 Clouds 4 1019 56 10000 5.66 290 15:57 03.04.2022
2246 Clouds 5 1020 48 10000 4.63 280 14:27 03.04.2022
2247 Clouds 3 1020 52 10000 5.14 290 13:34 03.04.2022
2248 Clear 3 1021 51 10000 3.6 280 11:51 03.04.2022
2249 Clouds 1 1021 64 10000 2.06 280 09:59 03.04.2022
2250 Clouds -2 1020 64 10000 0.51 0 09:18 03.04.2022
2251 Clouds -4 1023 95 10000 0.34 307 06:41 03.04.2022
2252 Clouds 0 1022 94 10000 1.71 348 02:56 03.04.2022
2253 Clouds 0 1021 90 10000 2.2 358 23:50 02.04.2022
2254 Clouds 1 1020 83 10000 3.15 19 22:51 02.04.2022
2255 Clouds 2 1019 81 10000 4.19 17 21:56 02.04.2022
2256 Clouds 2 1019 81 10000 4.19 17 21:56 02.04.2022
2257 Clouds 2 1018 90 10000 2.27 349 21:21 02.04.2022
2258 Clouds 3 1016 60 10000 2.06 20 20:39 02.04.2022
2259 Clouds 4 1015 52 10000 3.09 10 18:49 02.04.2022
2260 Clouds 4 1015 56 10000 4.63 30 18:20 02.04.2022
2261 Clouds 4 1015 56 10000 2.57 350 17:42 02.04.2022
2262 Clouds 3 1014 64 10000 3.09 10 15:58 02.04.2022
2263 Clouds 2 1014 64 10000 5.14 20 15:20 02.04.2022
2264 Clouds 2 1014 69 10000 5.66 10 14:32 02.04.2022
2265 Clouds 2 1014 69 10000 5.14 10 13:34 02.04.2022
2266 Clouds 2 1014 64 10000 6.69 40 12:32 02.04.2022
2267 Clouds 1 1013 69 10000 6.17 40 10:46 02.04.2022
2268 Clouds 0 1011 74 10000 3.6 10 08:33 02.04.2022
2269 Clouds -1 1012 91 10000 5.33 21 05:58 02.04.2022
2270 Clouds 0 1011 91 10000 5.02 20 03:28 02.04.2022
2271 Snow 0 1011 95 1112 5.8 27 23:55 01.04.2022
2272 Snow 0 1011 94 981 6.39 28 22:51 01.04.2022
2273 Clouds 0 1009 84 10000 6.51 26 21:27 01.04.2022
2274 Clouds 1 1006 69 10000 7.2 60 20:49 01.04.2022
2275 Clouds 2 1006 60 10000 6.69 50 19:50 01.04.2022
2276 Clouds 2 1006 64 10000 7.2 60 19:26 01.04.2022
2277 Clouds 1 1006 69 10000 8.23 50 18:42 01.04.2022
2278 Snow 1 1005 60 10000 7.72 50 17:45 01.04.2022
2279 Snow 1 1005 75 10000 5.14 30 16:33 01.04.2022
2280 Mist 0 1005 100 1800 3.6 10 15:18 01.04.2022
2281 Mist -1 1005 100 2500 5.14 20 14:18 01.04.2022
2282 Mist 0 1004 86 3300 6.17 30 13:32 01.04.2022
2283 Snow 0 1004 86 5000 6.17 30 12:30 01.04.2022
2284 Snow 0 1003 93 6000 4.63 20 10:54 01.04.2022
2285 Mist 0 1003 93 4500 4.63 30 09:53 01.04.2022
2286 Snow 0 1001 100 6000 4.12 20 07:50 01.04.2022
2287 Snow 0 1003 96 188 5.7 52 06:30 01.04.2022
2288 Snow 1 1002 96 214 5.8 53 04:44 01.04.2022
2289 Snow 1 1001 98 112 5.48 55 03:21 01.04.2022
2290 Snow 1 1001 98 37 5.01 60 01:52 01.04.2022
2291 Clouds 1 1001 99 29 3.53 60 22:37 31.03.2022
2292 Clouds 1 1000 99 30 3.51 63 21:49 31.03.2022
2293 Clouds 2 1000 98 33 3.8 69 21:21 31.03.2022
2294 Clouds 2 999 93 5000 3.6 40 20:28 31.03.2022
2295 Clouds 3 999 87 8000 4.12 50 19:44 31.03.2022
2296 Clouds 3 998 87 10000 6.17 80 18:35 31.03.2022
2297 Clouds 4 998 81 10000 5.66 90 17:25 31.03.2022
2298 Clouds 5 998 75 10000 7.2 100 15:58 31.03.2022
2299 Clouds 5 998 75 10000 6.69 70 15:29 31.03.2022
2300 Clouds 5 998 70 10000 6.69 90 14:52 31.03.2022
2301 Clouds 5 998 70 10000 5.66 90 14:19 31.03.2022
2302 Clouds 5 999 75 8000 5.14 100 11:31 31.03.2022
2303 Clouds 5 999 75 8000 6.17 100 10:41 31.03.2022
2304 Clouds 5 999 75 8000 5.14 90 09:43 31.03.2022
2305 Clouds 4 999 87 8000 2.06 80 07:49 31.03.2022
2306 Clouds 1 1002 94 10000 1.39 89 03:48 31.03.2022
2307 Clouds 5 1003 86 10000 1.16 124 23:27 30.03.2022
2308 Clouds 5 1003 85 10000 1.46 101 22:20 30.03.2022
2309 Clouds 6 1003 85 10000 1.46 100 21:32 30.03.2022
2310 Clouds 7 1001 57 10000 3.09 70 20:44 30.03.2022
2311 Clouds 9 1001 49 10000 3.09 80 19:54 30.03.2022
2312 Clouds 10 1001 49 10000 2.57 50 18:50 30.03.2022
2313 Clouds 11 1001 50 10000 3.09 10 17:52 30.03.2022
2314 Clouds 11 1001 50 10000 3.6 60 17:29 30.03.2022
2315 Clouds 11 1001 46 10000 2.06 0 16:41 30.03.2022
2316 Clouds 11 1001 43 10000 1.03 0 16:18 30.03.2022
2317 Clouds 11 1002 53 10000 1.03 0 14:42 30.03.2022
2318 Clouds 10 1003 57 10000 2.06 0 13:23 30.03.2022
2319 Clouds 8 1003 66 10000 1.54 360 12:32 30.03.2022
2320 Clear 6 1004 81 10000 1.03 0 10:48 30.03.2022
2321 Clouds 5 1004 81 9000 0.51 0 09:58 30.03.2022
2322 Clouds 4 1004 87 9000 1.54 30 08:27 30.03.2022
2323 Clouds 3 1006 82 10000 1.79 29 07:28 30.03.2022
2324 Clouds 5 1006 80 10000 1.74 30 05:40 30.03.2022
2325 Clouds 4 1007 79 10000 1.78 35 02:32 30.03.2022
2326 Clouds 8 1009 80 10000 1.88 34 22:43 29.03.2022
2327 Clouds 8 1009 80 10000 2.22 43 21:52 29.03.2022
2328 Clouds 8 1009 80 10000 2.22 43 21:34 29.03.2022
2329 Clear 9 1008 61 10000 3.09 340 20:26 29.03.2022
2330 Clear 11 1008 62 10000 2.06 340 19:32 29.03.2022
2331 Clear 12 1008 54 10000 3.09 360 18:53 29.03.2022
2332 Clear 12 1009 46 10000 3.09 340 17:52 29.03.2022
2333 Clear 13 1009 43 10000 3.6 330 17:18 29.03.2022
2334 Clear 12 1009 50 10000 4.12 330 16:52 29.03.2022
2335 Clear 12 1010 54 10000 3.09 340 15:29 29.03.2022
2336 Clear 11 1011 62 10000 2.57 330 14:43 29.03.2022
2337 Clouds 10 1012 71 9000 1.54 330 13:34 29.03.2022
2338 Clouds 8 1013 76 8000 1.54 240 12:21 29.03.2022
2339 Clouds 6 1013 87 6000 2.57 300 10:59 29.03.2022
2340 Mist 5 1013 100 4000 2.57 310 09:51 29.03.2022
2341 Mist 6 1013 93 2500 3.09 310 08:43 29.03.2022
2342 Clouds 5 1015 97 10000 1.5 349 06:21 29.03.2022
2343 Clouds 6 1017 95 10000 0.9 326 02:19 29.03.2022
2344 Clouds 8 1018 94 10000 1.64 344 23:26 28.03.2022
2345 Clouds 8 1018 94 10000 1.64 344 23:26 28.03.2022
2346 Clouds 10 1018 94 10000 1.64 344 22:56 28.03.2022
2347 Clouds 9 1018 94 10000 1.64 344 22:31 28.03.2022
2348 Clear 11 1017 71 10000 4.63 290 21:38 28.03.2022
2349 Clear 12 1017 66 10000 4.12 310 20:32 28.03.2022
2350 Clear 15 1017 47 10000 4.12 310 19:47 28.03.2022
2351 Clear 16 1017 41 10000 5.66 320 19:29 28.03.2022
2352 Clear 17 1017 39 10000 6.17 310 18:40 28.03.2022
2353 Clear 18 1017 45 10000 6.69 310 17:40 28.03.2022
2354 Clouds 18 1018 45 10000 5.66 310 16:38 28.03.2022
2355 Clouds 18 1020 55 10000 1.54 0 14:53 28.03.2022
2356 Clouds 18 1020 55 10000 1.03 0 14:23 28.03.2022
2357 Clear 15 1022 63 10000 2.06 100 12:51 28.03.2022
2358 Clear 13 1022 67 10000 1.54 90 11:42 28.03.2022
2359 Clear 8 1023 87 9000 1.03 0 09:47 28.03.2022
2360 Clear 6 1024 93 9000 2.06 130 09:20 28.03.2022
2361 Fog 3 1024 93 8000 0.51 140 08:23 28.03.2022
2362 Fog 3 1024 93 8000 0.51 0 07:56 28.03.2022
2363 Clear 2 1026 92 10000 0.81 156 05:55 28.03.2022
2364 Clear 8 1029 84 10000 0.82 45 23:53 27.03.2022
2365 Clear 8 1029 78 10000 1.42 32 22:25 27.03.2022
2366 Clear 9 1029 78 10000 1.42 31 22:25 27.03.2022
2367 Clear 8 1029 78 10000 1.42 32 22:25 27.03.2022
2368 Clear 8 1029 78 10000 1.42 31 21:42 27.03.2022
2369 Clear 10 1029 75 10000 1.56 15 20:58 27.03.2022
2370 Clear 16 1028 58 10000 1.03 40 19:53 27.03.2022
2371 Clear 16 1028 58 10000 1.03 40 19:34 27.03.2022
2372 Clear 17 1028 51 10000 1.03 0 18:29 27.03.2022
2373 Clouds 16 1028 55 10000 1.03 0 17:42 27.03.2022
2374 Clouds 17 1029 55 10000 1.54 90 17:23 27.03.2022
2375 Clouds 16 1029 55 10000 1.54 0 15:39 27.03.2022
2376 Clouds 13 1031 71 10000 1.54 330 13:57 27.03.2022
2377 Clouds 12 1031 76 9000 1.54 350 12:50 27.03.2022
2378 Clouds 10 1031 87 9000 1.03 0 11:30 27.03.2022
2379 Clouds 8 1031 93 9000 1.54 280 09:32 27.03.2022
2380 Clouds 4 1031 98 10000 0.95 7 06:44 27.03.2022
2381 Clouds 10 1031 98 10000 0.71 6 01:41 27.03.2022
2382 Clouds 6 1032 97 10000 1.5 11 00:24 27.03.2022
2383 Clouds 10 1032 96 10000 1.9 10 22:43 26.03.2022
2384 Clouds 10 1032 94 10000 1.99 7 21:46 26.03.2022
2385 Clouds 9 1032 89 10000 2.17 3 21:25 26.03.2022
2386 Clear 13 1029 62 10000 3.6 310 19:31 26.03.2022
2387 Clear 16 1029 44 10000 4.12 330 17:54 26.03.2022
2388 Clear 17 1029 44 10000 4.12 330 17:33 26.03.2022
2389 Clear 17 1029 39 10000 6.17 320 16:27 26.03.2022
2390 Clear 17 1030 39 10000 6.17 340 15:23 26.03.2022
2391 Clear 17 1030 41 10000 4.63 310 13:54 26.03.2022
2392 Clear 16 1031 51 10000 3.09 340 13:18 26.03.2022
2393 Clear 14 1031 50 10000 3.09 330 11:41 26.03.2022
2394 Clear 14 1031 50 10000 3.09 330 11:41 26.03.2022
2395 Clear 14 1031 50 10000 3.09 330 11:41 26.03.2022
2396 Clear 10 1031 66 9000 1.03 0 10:29 26.03.2022
2397 Clear 6 1031 70 9000 1.54 260 08:44 26.03.2022
2398 Clear 4 1031 87 10000 1.4 355 06:25 26.03.2022
2399 Clear 4 1031 85 10000 0.8 357 05:22 26.03.2022
2400 Clear 5 1031 75 10000 1.06 20 00:28 26.03.2022
2401 Clear 5 1031 74 10000 1.1 64 21:51 25.03.2022
2402 Clear 9 1029 53 10000 2.06 40 20:46 25.03.2022
2403 Clear 12 1029 46 10000 2.06 30 19:38 25.03.2022
2404 Clear 14 1028 41 10000 2.06 30 18:47 25.03.2022
2405 Clear 16 1028 33 10000 2.06 50 17:47 25.03.2022
2406 Clear 17 1028 31 10000 2.57 70 17:27 25.03.2022
2407 Clear 17 1029 27 10000 3.09 80 16:18 25.03.2022
2408 Clear 16 1029 23 10000 3.6 80 14:26 25.03.2022
2409 Clear 15 1030 30 10000 2.06 70 12:57 25.03.2022
2410 Clear 9 1030 61 10000 1.54 0 10:22 25.03.2022
2411 Clear 6 1029 75 10000 0.51 0 09:28 25.03.2022
2412 Clear 2 1029 80 10000 0 0 07:54 25.03.2022
2413 Clear 2 1029 86 10000 1.03 220 07:27 25.03.2022
2414 Clear 2 1029 76 10000 1.38 22 05:55 25.03.2022
2415 Clear 5 1029 66 10000 1.17 28 00:46 25.03.2022
2416 Clear 7 1029 63 10000 1.37 38 22:39 24.03.2022
2417 Clear 7 1029 62 10000 1.67 38 21:42 24.03.2022
2418 Clear 12 1027 37 10000 2.06 30 19:51 24.03.2022
2419 Clear 12 1027 43 10000 3.09 350 19:33 24.03.2022
2420 Clear 16 1027 31 10000 3.6 360 17:46 24.03.2022
2421 Clear 17 1027 29 10000 4.12 350 17:19 24.03.2022
2422 Clear 18 1028 27 10000 3.09 340 15:21 24.03.2022
2423 Clear 18 1028 25 10000 2.05 334 14:43 24.03.2022
2424 Clear 18 1028 25 10000 1.54 0 14:18 24.03.2022
2425 Clear 16 1029 29 10000 2.06 350 12:47 24.03.2022
2426 Clear 13 1029 38 10000 1.03 0 11:44 24.03.2022
2427 Clear 7 1029 57 10000 1.03 0 09:53 24.03.2022
2428 Clear 6 1029 56 10000 0.51 0 08:41 24.03.2022
2429 Clear -2 1029 73 10000 0.4 93 06:49 24.03.2022
2430 Clear 4 1029 67 10000 0.73 52 02:24 24.03.2022
2431 Clear 8 1031 63 10000 0.87 74 23:20 23.03.2022
2432 Clear 10 1029 40 10000 1.03 0 21:27 23.03.2022
2433 Clear 9 1029 46 10000 1.03 0 20:59 23.03.2022
2434 Clear 11 1029 32 10000 1.54 50 19:45 23.03.2022
2435 Clear 15 1029 26 10000 0.51 10 18:36 23.03.2022
2436 Clear 18 1029 22 10000 1.54 320 17:36 23.03.2022
2437 Clear 18 1029 19 10000 2.57 40 16:21 23.03.2022
2438 Clear 18 1030 22 10000 2.06 30 14:51 23.03.2022
2439 Clear 17 1030 20 10000 2.57 20 14:24 23.03.2022
2440 Clear 16 1031 23 10000 1.03 0 12:45 23.03.2022
2441 Clear 8 1031 53 10000 1.03 0 09:38 23.03.2022
2442 Clear -3 1032 63 10000 0.38 150 06:41 23.03.2022
2443 Clear 4 1031 61 10000 0.29 152 04:31 23.03.2022
2444 Clear 5 1032 52 10000 0.46 91 00:29 23.03.2022
2445 Clear 8 1032 51 10000 0.67 85 22:33 22.03.2022
2446 Clear 8 1032 47 10000 1.24 81 21:29 22.03.2022
2447 Clear 9 1031 40 10000 1.54 60 20:39 22.03.2022
2448 Clear 11 1030 35 10000 1.03 0 19:39 22.03.2022
2449 Clear 13 1030 35 10000 2.06 10 19:18 22.03.2022
2450 Clear 18 1030 23 10000 2.06 110 17:58 22.03.2022
2451 Clear 18 1030 23 10000 2.57 90 17:29 22.03.2022
2452 Clear 17 1031 23 10000 1.54 60 15:59 22.03.2022
2453 Clear 17 1031 23 10000 2.57 130 15:22 22.03.2022
2454 Clear 17 1031 23 10000 2.57 90 14:46 22.03.2022
2455 Clear 17 1031 25 10000 1.54 0 14:26 22.03.2022
2456 Clear 15 1032 24 10000 3.09 100 12:55 22.03.2022
2457 Clear 13 1033 26 10000 3.09 110 11:48 22.03.2022
2458 Clear 11 1033 35 10000 1.54 120 10:35 22.03.2022
2459 Clear 5 1033 65 10000 0.51 0 08:24 22.03.2022
2460 Clear 3 1034 74 10000 1.27 152 05:21 22.03.2022
2461 Clear -1 1033 75 10000 1.35 154 03:46 22.03.2022
2462 Clear 4 1034 70 10000 1.26 154 23:59 21.03.2022
2463 Clear 7 1034 69 10000 1.44 141 22:29 21.03.2022
2464 Clear 10 1032 46 10000 4.12 120 20:54 21.03.2022
2465 Clear 10 1032 46 10000 4.12 120 20:33 21.03.2022
2466 Clear 10 1031 46 10000 3.09 130 19:58 21.03.2022
2467 Clear 12 1031 43 10000 2.57 130 19:25 21.03.2022
2468 Clear 15 1031 35 10000 3.6 100 18:18 21.03.2022
2469 Clear 16 1031 29 10000 3.09 120 17:18 21.03.2022
2470 Clear 17 1031 29 10000 3.6 120 16:42 21.03.2022
2471 Clear 17 1031 29 10000 3.09 140 15:48 21.03.2022
2472 Clear 16 1031 29 10000 4.12 130 14:56 21.03.2022
2473 Clear 15 1032 26 10000 2.06 120 13:58 21.03.2022
2474 Clear 14 1032 28 10000 2.06 150 12:35 21.03.2022
2475 Clear 12 1032 35 10000 1.03 0 11:45 21.03.2022
2476 Clear 10 1033 37 10000 2.06 140 10:36 21.03.2022
2477 Clear 4 1032 65 10000 2.57 90 08:30 21.03.2022
2478 Clear -2 1034 70 10000 1.75 147 06:38 21.03.2022
2479 Clear 1 1033 70 10000 1.55 131 02:51 21.03.2022
2480 Clear 3 1033 65 10000 1.57 119 23:43 20.03.2022
2481 Clear 5 1033 63 10000 2.05 117 22:44 20.03.2022
2482 Clear 5 1032 61 10000 2.38 122 21:52 20.03.2022
2483 Clear 7 1032 59 10000 2.36 131 21:23 20.03.2022
2484 Clear 9 1030 46 10000 3.09 100 20:43 20.03.2022
2485 Clear 9 1030 46 10000 3.09 100 19:59 20.03.2022
2486 Clear 12 1030 40 10000 5.14 130 19:31 20.03.2022
2487 Clear 14 1029 38 10000 6.17 120 18:22 20.03.2022
2488 Clear 15 1029 35 10000 7.72 120 17:33 20.03.2022
2489 Clear 15 1029 33 10000 7.72 120 16:57 20.03.2022
2490 Clear 15 1029 33 10000 6.69 130 15:34 20.03.2022
2491 Clear 13 1029 37 10000 7.2 120 14:35 20.03.2022
2492 Clear 11 1030 37 10000 8.23 120 12:35 20.03.2022
2493 Clear 9 1030 42 10000 7.2 120 11:23 20.03.2022
2494 Clear 5 1030 48 10000 7.72 100 09:26 20.03.2022
2495 Clouds 3 1033 64 10000 6.38 100 07:28 20.03.2022
2496 Clouds 2 1033 63 10000 6.29 97 05:40 20.03.2022
2497 Clouds 4 1034 55 10000 6.08 84 01:50 20.03.2022
2498 Clear 4 1035 54 10000 6.14 84 00:45 20.03.2022
2499 Clear 6 1036 51 10000 6.38 83 23:19 19.03.2022
2500 Clouds 5 1037 62 10000 6.63 78 21:27 19.03.2022
2501 Clouds 7 1036 53 10000 8.75 90 20:49 19.03.2022
2502 Clouds 8 1036 49 10000 5.66 70 18:58 19.03.2022
2503 Clouds 9 1036 46 10000 8.23 70 18:23 19.03.2022
2504 Clouds 9 1036 46 10000 8.75 70 17:35 19.03.2022
2505 Clouds 7 1037 56 10000 10.29 60 15:44 19.03.2022
2506 Clouds 10 1038 37 10000 8.23 80 14:44 19.03.2022
2507 Clouds 11 1040 37 10000 8.23 70 13:19 19.03.2022
2508 Clouds 11 1040 37 10000 8.23 70 13:19 19.03.2022
2509 Clouds 10 1040 43 10000 8.23 70 12:40 19.03.2022
2510 Clear 10 1041 40 10000 4.12 70 11:54 19.03.2022
2511 Clear 10 1041 40 10000 4.12 70 11:54 19.03.2022
2512 Clear 8 1042 49 10000 3.6 60 10:47 19.03.2022
2513 Clear 3 1043 87 10000 2.06 70 07:33 19.03.2022
2514 Clear 0 1044 94 10000 2.52 35 03:49 19.03.2022
2515 Clear 3 1044 90 10000 2.39 41 02:29 19.03.2022
2516 Clear 5 1044 75 10000 1.54 10 23:45 18.03.2022
2517 Clear 6 1044 70 10000 0.51 0 22:28 18.03.2022
2518 Clear 6 1045 73 10000 2.08 52 21:45 18.03.2022
2519 Clear 8 1043 61 10000 4.12 30 19:52 18.03.2022
2520 Clear 8 1043 61 10000 4.12 30 19:52 18.03.2022
2521 Clear 9 1043 57 10000 3.6 40 19:21 18.03.2022
2522 Clear 12 1042 40 10000 4.63 50 17:52 18.03.2022
2523 Clear 13 1042 35 10000 5.14 20 16:49 18.03.2022
2524 Clear 13 1042 32 10000 4.12 360 15:26 18.03.2022
2525 Clear 12 1042 37 10000 3.6 20 14:22 18.03.2022
2526 Clear 10 1043 57 10000 4.63 350 12:36 18.03.2022
2527 Clouds 5 1042 93 10000 2.06 350 10:53 18.03.2022
2528 Fog 0 1042 100 100 1.54 350 09:30 18.03.2022
2529 Clouds 0 1041 100 10000 1.03 0 08:32 18.03.2022
2530 Clear 0 1042 93 10000 2.14 8 06:35 18.03.2022
2531 Clear 1 1039 94 10000 1.91 13 02:57 18.03.2022
2532 Clouds 2 1038 91 10000 2.04 358 00:23 18.03.2022
2533 Clouds 3 1037 90 10000 1.88 358 23:24 17.03.2022
2534 Clouds 3 1037 88 10000 1.75 7 22:24 17.03.2022
2535 Clouds 5 1037 88 10000 1.75 7 21:48 17.03.2022
2536 Clouds 4 1036 85 10000 1.79 19 21:23 17.03.2022
2537 Clear 5 1034 87 10000 3.09 320 20:44 17.03.2022
2538 Clear 6 1033 81 10000 4.12 330 19:48 17.03.2022
2539 Clouds 7 1032 81 10000 5.66 330 18:59 17.03.2022
2540 Clouds 7 1032 81 10000 5.66 330 18:39 17.03.2022
2541 Clouds 8 1030 81 10000 4.63 330 16:49 17.03.2022
2542 Clouds 8 1030 87 10000 4.12 310 15:44 17.03.2022
2543 Clouds 8 1029 87 10000 5.66 310 15:25 17.03.2022
2544 Drizzle 8 1029 93 8000 6.69 300 14:29 17.03.2022
2545 Clouds 8 1028 87 6000 3.09 260 12:54 17.03.2022
2546 Clouds 8 1027 87 7000 1.54 240 12:23 17.03.2022
2547 Clouds 9 1026 71 10000 3.6 210 11:27 17.03.2022
2548 Drizzle 10 1025 61 10000 1.54 190 10:29 17.03.2022
2549 Clouds 10 1024 61 10000 4.12 170 08:34 17.03.2022
2550 Clear 9 1024 66 10000 4.63 160 07:33 17.03.2022
2551 Clouds 4 1024 86 10000 2.27 144 05:47 17.03.2022
2552 Clouds 8 1025 86 10000 1.84 134 01:23 17.03.2022
2553 Clouds 7 1025 85 10000 1.73 126 23:46 16.03.2022
2554 Clouds 7 1025 82 10000 2.31 109 22:45 16.03.2022
2555 Clouds 8 1025 83 10000 2.59 108 22:21 16.03.2022
2556 Clouds 6 1025 82 10000 2.59 108 21:39 16.03.2022
2557 Clear 9 1024 71 10000 4.12 100 19:41 16.03.2022
2558 Clear 10 1024 71 10000 4.63 100 19:20 16.03.2022
2559 Clear 10 1024 66 10000 5.14 120 18:36 16.03.2022
2560 Clouds 12 1024 62 10000 4.63 100 17:41 16.03.2022
2561 Clouds 13 1024 54 10000 5.14 130 17:19 16.03.2022
2562 Clear 14 1025 50 10000 6.69 110 15:55 16.03.2022
2563 Clouds 12 1025 50 10000 6.69 130 14:25 16.03.2022
2564 Clouds 12 1026 54 10000 4.63 130 13:27 16.03.2022
2565 Clear 8 1026 81 10000 3.09 100 11:54 16.03.2022
2566 Fog 6 1027 93 9000 3.6 90 11:20 16.03.2022
2567 Fog 6 1027 93 9000 2.06 110 10:22 16.03.2022
2568 Fog 3 1027 100 250 2.06 180 08:52 16.03.2022
2569 Clouds 1 1027 92 10000 1.26 126 05:58 16.03.2022
2570 Clouds 2 1026 91 10000 0.4 144 01:35 16.03.2022
2571 Clouds 4 1025 93 10000 0.93 1 22:38 15.03.2022
2572 Clouds 5 1025 91 10000 1.51 6 21:52 15.03.2022
2573 Clouds 7 1023 93 10000 1.03 0 20:18 15.03.2022
2574 Drizzle 8 1023 87 10000 1.03 0 18:54 15.03.2022
2575 Clouds 9 1022 71 10000 2.06 80 16:55 15.03.2022
2576 Clouds 10 1022 66 10000 2.06 90 16:20 15.03.2022
2577 Clouds 9 1023 66 10000 3.6 100 14:57 15.03.2022
2578 Clouds 9 1023 66 10000 3.6 100 14:34 15.03.2022
2579 Clear 9 1025 81 10000 1.54 50 13:27 15.03.2022
2580 Clear 8 1026 81 10000 2.57 100 11:57 15.03.2022
2581 Clear 7 1026 76 10000 2.06 90 11:19 15.03.2022
2582 Clear 5 1027 87 10000 1.54 100 09:39 15.03.2022
2583 Clear 3 1028 100 10000 0.51 0 08:32 15.03.2022
2584 Clear 2 1028 93 10000 1.03 0 07:50 15.03.2022
2585 Clear 3 1028 93 10000 1.03 110 06:51 15.03.2022
2586 Clouds 0 1030 91 10000 1.65 170 02:38 15.03.2022
2587 Clouds 2 1031 89 10000 1.51 181 23:38 14.03.2022
2588 Clouds 6 1030 85 10000 1.69 197 23:20 14.03.2022
2589 Clouds 3 1030 84 10000 1.62 194 21:59 14.03.2022
2590 Clouds 6 1030 85 10000 1.24 214 21:20 14.03.2022
2591 Clouds 8 1028 81 10000 1.03 0 20:34 14.03.2022
2592 Clouds 8 1028 81 10000 2.57 220 19:47 14.03.2022
2593 Clouds 10 1027 76 10000 2.06 210 18:23 14.03.2022
2594 Clouds 10 1027 76 10000 2.57 230 17:43 14.03.2022
2595 Clouds 10 1026 81 10000 3.6 250 16:54 14.03.2022
2596 Clouds 10 1026 87 10000 2.57 230 15:20 14.03.2022
2597 Clouds 8 1025 87 10000 4.12 250 14:00 14.03.2022
2598 Clouds 7 1024 93 7000 2.57 130 11:36 14.03.2022
2599 Clouds 6 1023 87 10000 1.54 150 10:23 14.03.2022
2600 Clouds 6 1023 81 10000 1.03 0 09:38 14.03.2022
2601 Clouds 5 1023 75 10000 1.54 120 09:18 14.03.2022
2602 Clouds 6 1022 61 10000 0.51 0 08:46 14.03.2022
2603 Clouds 5 1022 60 10000 1.03 0 07:21 14.03.2022
2604 Clouds 6 1021 56 10000 1.43 150 04:22 14.03.2022
2605 Clouds 0 1019 55 10000 1.35 153 01:46 14.03.2022
2606 Clouds 1 1019 51 10000 1.31 114 00:35 14.03.2022
2607 Clouds 3 1019 51 10000 1.65 131 21:55 13.03.2022
2608 Clouds 4 1018 52 10000 1.46 129 21:26 13.03.2022
2609 Clear 7 1017 34 10000 2.06 170 20:46 13.03.2022
2610 Clear 9 1017 34 10000 2.06 170 20:23 13.03.2022
2611 Clear 9 1016 29 10000 2.06 140 19:42 13.03.2022
2612 Clear 10 1016 34 10000 3.09 120 19:23 13.03.2022
2613 Clear 10 1016 34 10000 3.09 120 19:23 13.03.2022
2614 Clear 11 1016 30 10000 3.09 120 18:45 13.03.2022
2615 Clear 13 1015 30 10000 3.6 100 18:26 13.03.2022
2616 Clear 14 1015 26 10000 5.14 120 17:39 13.03.2022
2617 Clear 15 1015 23 10000 4.63 130 16:46 13.03.2022
2618 Clear 15 1016 23 10000 3.6 130 16:25 13.03.2022
2619 Clear 14 1016 22 10000 4.12 120 15:42 13.03.2022
2620 Clear 14 1016 24 10000 4.12 140 14:41 13.03.2022
2621 Clear 12 1017 24 10000 4.12 140 13:29 13.03.2022
2622 Clear 11 1017 23 10000 5.14 140 12:23 13.03.2022
2623 Clear 9 1017 23 10000 5.14 140 11:39 13.03.2022
2624 Clear 7 1017 31 10000 4.63 130 10:50 13.03.2022
2625 Clear 7 1018 31 10000 5.14 140 10:28 13.03.2022
2626 Clear 5 1018 36 10000 4.12 110 09:42 13.03.2022
2627 Clear 3 1017 44 10000 4.12 120 08:50 13.03.2022
2628 Clear 3 1017 48 10000 3.09 130 08:29 13.03.2022
2629 Clear -3 1019 59 10000 1.76 129 06:41 13.03.2022
2630 Clear -2 1019 59 10000 1.58 137 04:51 13.03.2022
2631 Clear -1 1019 55 10000 1.52 116 01:47 13.03.2022
2632 Clouds 3 1020 55 10000 1.51 126 23:26 12.03.2022
2633 Clouds 5 1020 55 10000 1.54 130 21:32 12.03.2022
2634 Clear 7 1019 45 10000 2.06 130 20:19 12.03.2022
2635 Clear 8 1019 42 10000 2.57 120 19:44 12.03.2022
2636 Clear 10 1019 40 10000 3.09 120 18:38 12.03.2022
2637 Clear 13 1019 37 10000 3.09 140 17:49 12.03.2022
2638 Clear 14 1019 33 10000 3.09 160 16:28 12.03.2022
2639 Clear 14 1019 33 10000 3.09 150 15:48 12.03.2022
2640 Clear 14 1019 33 10000 4.63 160 15:19 12.03.2022
2641 Clear 12 1020 37 10000 4.12 160 13:53 12.03.2022
2642 Clear 10 1020 29 10000 5.14 140 12:27 12.03.2022
2643 Clear 9 1020 27 10000 5.66 140 11:52 12.03.2022
2644 Clear 9 1020 27 10000 5.66 140 11:32 12.03.2022
2645 Clear 5 1021 28 10000 4.63 140 10:18 12.03.2022
2646 Clear 4 1021 30 10000 5.66 140 09:41 12.03.2022
2647 Clear 2 1020 32 10000 2.06 140 07:52 12.03.2022
2648 Clouds -1 1022 51 10000 2.28 143 05:46 12.03.2022
2649 Clouds 2 1021 55 10000 2.09 114 00:31 12.03.2022
2650 Clouds 0 1022 57 10000 1.66 116 23:38 11.03.2022
2651 Clear 3 1021 57 10000 1.72 108 22:29 11.03.2022
2652 Clouds 4 1021 56 10000 1.78 123 21:23 11.03.2022
2653 Clear 7 1018 33 10000 3.6 130 20:42 11.03.2022
2654 Clear 7 1018 33 10000 3.6 130 20:22 11.03.2022
2655 Clear 8 1018 31 10000 5.14 110 19:29 11.03.2022
2656 Clear 12 1017 22 10000 6.69 120 17:50 11.03.2022
2657 Clear 12 1017 22 10000 7.72 120 17:21 11.03.2022
2658 Clear 12 1018 22 10000 8.75 130 15:57 11.03.2022
2659 Clear 12 1018 22 10000 8.75 130 15:29 11.03.2022
2660 Clear 10 1019 23 10000 7.72 120 13:27 11.03.2022
2661 Clear 8 1020 26 10000 8.23 120 12:30 11.03.2022
2662 Clear 7 1020 28 10000 8.23 120 11:57 11.03.2022
2663 Clear 5 1021 35 10000 5.66 120 10:24 11.03.2022
2664 Clear 3 1021 51 10000 4.12 110 09:32 11.03.2022
2665 Clear 2 1022 60 10000 3.6 100 08:25 11.03.2022
2666 Clear 0 1022 64 10000 3.6 90 07:46 11.03.2022
2667 Clear 0 1024 85 10000 1.48 92 06:22 11.03.2022
2668 Clear 1 1024 87 10000 1.61 94 04:24 11.03.2022
2669 Clear 4 1025 85 10000 1.52 97 00:21 11.03.2022
2670 Clear 5 1025 82 10000 1.59 97 22:31 10.03.2022
2671 Clear 6 1025 77 10000 2.06 98 21:52 10.03.2022
2672 Clear 6 1025 70 10000 2.92 103 21:24 10.03.2022
2673 Clear 8 1024 42 10000 2.57 100 19:54 10.03.2022
2674 Clear 10 1024 40 10000 4.12 90 18:56 10.03.2022
2675 Clear 13 1024 30 10000 5.66 90 17:36 10.03.2022
2676 Clear 14 1024 26 10000 5.66 100 16:37 10.03.2022
2677 Clear 15 1025 26 10000 3.09 110 15:26 10.03.2022
2678 Clear 13 1026 32 10000 4.63 140 13:30 10.03.2022
2679 Clear 12 1026 32 10000 4.12 140 12:34 10.03.2022
2680 Clear 10 1026 40 10000 4.12 110 11:23 10.03.2022
2681 Clear 5 1027 56 10000 3.09 100 09:27 10.03.2022
2682 Clear 2 1026 64 10000 1.03 120 07:43 10.03.2022
2683 Clear 0 1027 72 10000 1.4 120 04:59 10.03.2022
2684 Clear 0 1027 68 10000 1.29 125 01:53 10.03.2022
2685 Clear 0 1027 66 10000 1.47 131 23:29 09.03.2022
2686 Clear 1 1027 66 10000 1.39 131 21:54 09.03.2022
2687 Clear 1 1027 66 10000 1.39 131 21:34 09.03.2022
2688 Clear 5 1024 49 10000 1.54 130 19:55 09.03.2022
2689 Clear 9 1023 39 10000 1.03 100 18:34 09.03.2022
2690 Clear 12 1023 28 10000 3.6 130 17:27 09.03.2022
2691 Clear 13 1023 26 10000 2.57 150 16:31 09.03.2022
2692 Clear 12 1023 28 10000 3.6 160 15:31 09.03.2022
2693 Clear 12 1024 28 10000 4.63 140 13:54 09.03.2022
2694 Clear 10 1024 34 10000 4.63 130 12:48 09.03.2022
2695 Clear 9 1024 36 10000 3.6 140 11:54 09.03.2022
2696 Clear 9 1024 36 10000 3.6 140 11:35 09.03.2022
2697 Clear 6 1025 45 10000 4.12 140 10:34 09.03.2022
2698 Clear 3 1024 64 10000 2.57 110 08:57 09.03.2022
2699 Clear -2 1024 80 10000 2.06 150 07:54 09.03.2022
2700 Clear -2 1025 71 10000 1.6 163 02:57 09.03.2022
2701 Clear -1 1026 72 10000 1.38 123 00:43 09.03.2022
2702 Clear -1 1026 70 10000 1.45 104 22:47 08.03.2022
2703 Clear 0 1025 69 10000 1.43 101 22:26 08.03.2022
2704 Clear 1 1025 68 10000 1.45 99 21:23 08.03.2022
2705 Clear 3 1023 56 10000 0.51 0 20:35 08.03.2022
2706 Clear 3 1022 56 10000 2.06 100 19:35 08.03.2022
2707 Clear 5 1022 52 10000 3.09 110 18:44 08.03.2022
2708 Clear 8 1022 36 10000 5.66 110 17:30 08.03.2022
2709 Clear 10 1022 27 10000 7.2 110 15:45 08.03.2022
2710 Clear 9 1022 34 10000 6.17 100 14:19 08.03.2022
2711 Clear 8 1023 45 10000 3.6 120 12:43 08.03.2022
2712 Clear 7 1024 49 10000 3.09 110 11:45 08.03.2022
2713 Clear 4 1024 60 10000 3.6 110 10:44 08.03.2022
2714 Clear 3 1024 64 10000 2.57 140 09:43 08.03.2022
2715 Clear -4 1026 85 10000 1.04 104 06:43 08.03.2022
2716 Clear -4 1026 85 10000 1 80 04:47 08.03.2022
2717 Clear -2 1028 80 10000 1.15 74 23:50 07.03.2022
2718 Clear -1 1028 78 10000 0.81 87 21:54 07.03.2022
2719 Clear -1 1028 78 10000 0.81 87 21:31 07.03.2022
2720 Clear 1 1025 60 10000 1.03 150 20:44 07.03.2022
2721 Clear 1 1025 60 10000 1.03 120 19:55 07.03.2022
2722 Clear 3 1025 56 10000 1.54 80 19:29 07.03.2022
2723 Clear 3 1024 56 10000 3.09 70 18:40 07.03.2022
2724 Clear 5 1024 45 10000 3.09 90 17:41 07.03.2022
2725 Clear 6 1024 42 10000 4.63 70 16:55 07.03.2022
2726 Clouds 6 1025 45 10000 2.57 50 15:27 07.03.2022
2727 Clouds 4 1026 52 10000 4.12 80 12:54 07.03.2022
2728 Clouds 5 1026 52 10000 4.63 100 12:21 07.03.2022
2729 Clouds 2 1027 60 10000 1.03 0 10:36 07.03.2022
2730 Clouds 0 1026 69 10000 0.51 0 08:39 07.03.2022
2731 Clear -1 1027 77 10000 1.58 26 02:58 07.03.2022
2732 Clouds 0 1027 74 10000 1.6 28 00:22 07.03.2022
2733 Clouds 0 1027 74 10000 1.79 28 23:29 06.03.2022
2734 Clouds 0 1027 74 10000 1.79 28 22:32 06.03.2022
2735 Clouds 0 1027 73 10000 2.06 26 21:45 06.03.2022
2736 Clouds 0 1025 64 10000 3.6 60 20:30 06.03.2022
2737 Clouds 0 1025 64 10000 3.6 60 19:50 06.03.2022
2738 Clouds 1 1024 64 10000 4.12 40 18:51 06.03.2022
2739 Clouds 2 1024 60 10000 4.12 20 17:53 06.03.2022
2740 Clouds 2 1024 60 10000 4.63 30 17:20 06.03.2022
2741 Clouds 2 1024 60 10000 5.14 40 16:40 06.03.2022
2742 Clouds 2 1024 60 10000 5.14 40 16:40 06.03.2022
2743 Clouds 2 1024 64 10000 3.6 20 15:37 06.03.2022
2744 Clouds 3 1024 60 10000 4.63 10 14:49 06.03.2022
2745 Clouds 3 1024 60 10000 5.14 350 14:28 06.03.2022
2746 Clouds 3 1024 64 10000 3.09 340 12:43 06.03.2022
2747 Clouds 3 1024 75 10000 1.54 340 11:56 06.03.2022
2748 Clouds 1 1024 74 10000 1.54 340 10:43 06.03.2022
2749 Clear 0 1024 80 10000 1.03 300 09:25 06.03.2022
2750 Clear -1 1025 75 10000 1.23 33 08:28 06.03.2022
2751 Clear -3 1023 93 10000 1.54 240 07:33 06.03.2022
2752 Clear -3 1025 81 10000 1.32 40 03:58 06.03.2022
2753 Clear -1 1025 78 10000 1.32 50 00:42 06.03.2022
2754 Clear -1 1024 77 10000 1.3 64 00:23 06.03.2022
2755 Clear 1 1024 75 10000 1.21 67 23:19 05.03.2022
2756 Clear 1 1024 75 10000 1.21 67 22:38 05.03.2022
2757 Clear 1 1024 72 10000 1.42 90 21:31 05.03.2022
2758 Clear 1 1022 69 10000 1.03 130 20:39 05.03.2022
2759 Clear 1 1021 64 10000 2.06 100 19:23 05.03.2022
2760 Clear 3 1021 60 10000 2.57 80 18:48 05.03.2022
2761 Clear 5 1021 52 10000 3.6 90 17:35 05.03.2022
2762 Clouds 6 1021 45 10000 3.09 90 16:19 05.03.2022
2763 Clouds 6 1021 42 10000 3.6 90 15:20 05.03.2022
2764 Clouds 6 1021 48 10000 2.06 70 14:36 05.03.2022
2765 Clouds 6 1022 48 10000 4.12 100 13:44 05.03.2022
2766 Clouds 5 1022 56 10000 3.09 100 12:45 05.03.2022
2767 Clear 3 1022 75 10000 2.57 120 11:21 05.03.2022
2768 Clear 3 1022 69 10000 3.09 120 10:53 05.03.2022
2769 Clear 1 1022 80 10000 2.06 110 09:37 05.03.2022
2770 Clear -2 1022 93 10000 1.54 140 08:31 05.03.2022
2771 Clear -2 1023 92 10000 1.27 99 07:22 05.03.2022
2772 Clear -4 1023 89 10000 1.46 88 05:39 05.03.2022
2773 Clear -3 1024 86 10000 1.57 73 00:49 05.03.2022
2774 Clear -2 1024 84 10000 1.3 88 22:58 04.03.2022
2775 Clear -2 1024 84 10000 1.3 88 22:38 04.03.2022
2776 Clear -1 1024 84 10000 1.42 98 21:43 04.03.2022
2777 Clouds 1 1022 69 10000 5.14 100 20:45 04.03.2022
2778 Clouds 1 1022 69 10000 5.66 110 19:38 04.03.2022
2779 Clouds 1 1022 69 10000 5.14 100 18:58 04.03.2022
2780 Clouds 2 1022 69 10000 5.14 100 18:35 04.03.2022
2781 Clouds 3 1022 69 10000 5.66 100 17:29 04.03.2022
2782 Clouds 4 1022 69 10000 5.66 70 15:58 04.03.2022
2783 Clouds 4 1022 65 10000 4.63 70 15:25 04.03.2022
2784 Clouds 4 1022 69 10000 3.09 110 13:36 04.03.2022
2785 Clouds 3 1022 69 10000 4.12 80 12:47 04.03.2022
2786 Clouds 2 1023 74 10000 3.09 80 11:37 04.03.2022
2787 Clouds 2 1023 74 10000 3.09 80 11:37 04.03.2022
2788 Clouds 1 1022 86 10000 3.6 110 10:25 04.03.2022
2789 Clouds -1 1022 86 10000 3.6 110 09:27 04.03.2022
2790 Clouds -2 1022 93 9000 2.57 110 07:48 04.03.2022
2791 Clear -2 1023 91 10000 1.22 59 06:21 04.03.2022
2792 Clear -2 1022 88 10000 1.19 63 01:46 04.03.2022
2793 Clear -2 1023 86 10000 1.33 62 23:35 03.03.2022
2794 Clear 0 1022 82 10000 1.42 73 22:18 03.03.2022
2795 Clear 1 1022 79 10000 1.69 73 21:36 03.03.2022
2796 Clear 2 1019 56 10000 1.03 0 20:44 03.03.2022
2797 Clear 4 1019 52 10000 3.09 20 19:22 03.03.2022
2798 Clear 6 1018 49 10000 3.09 60 18:25 03.03.2022
2799 Clear 8 1018 39 10000 3.09 50 17:31 03.03.2022
2800 Clear 9 1018 36 10000 4.12 50 16:41 03.03.2022
2801 Clear 10 1018 31 10000 4.12 50 15:44 03.03.2022
2802 Clear 9 1018 34 10000 3.6 70 14:44 03.03.2022
2803 Clear 10 1019 37 10000 1.54 60 14:26 03.03.2022
2804 Clear 8 1019 36 10000 2.06 30 12:33 03.03.2022
2805 Clear 5 1020 70 10000 1.03 0 11:26 03.03.2022
2806 Clear 3 1020 69 10000 1.03 0 10:38 03.03.2022
2807 Clear -1 1020 86 10000 1.03 0 08:42 03.03.2022
2808 Clouds -3 1021 65 10000 0.77 77 06:57 03.03.2022
2809 Clouds -3 1021 64 10000 0.75 69 05:37 03.03.2022
2810 Clear -1 1023 63 10000 0.96 84 23:57 02.03.2022
2811 Clear -1 1023 63 10000 0.82 89 23:00 02.03.2022
2812 Clear -1 1023 63 10000 0.82 89 22:40 02.03.2022
2813 Clear 0 1023 63 10000 1.08 97 21:22 02.03.2022
2814 Clear 2 1022 60 10000 1.54 130 20:26 02.03.2022
2815 Clear 3 1022 60 10000 2.57 140 19:41 02.03.2022
2816 Clear 4 1022 52 10000 1.54 110 19:23 02.03.2022
2817 Clear 4 1021 52 10000 1.54 100 18:37 02.03.2022
2818 Clear 8 1021 36 10000 1.03 0 17:45 02.03.2022
2819 Clear 9 1022 31 10000 1.03 0 16:53 02.03.2022
2820 Clear 10 1022 29 10000 1.54 50 16:18 02.03.2022
2821 Clear 10 1023 29 10000 3.09 90 14:32 02.03.2022
2822 Clear 8 1024 36 10000 2.06 70 12:58 02.03.2022
2823 Clear 8 1024 36 10000 2.06 70 12:35 02.03.2022
2824 Clear 5 1024 52 10000 2.06 110 11:28 02.03.2022
2825 Clear 5 1024 56 10000 2.57 70 10:50 02.03.2022
2826 Clear 2 1024 60 10000 2.06 140 09:40 02.03.2022
2827 Clear 1 1025 69 10000 1.54 120 08:44 02.03.2022
2828 Clouds -1 1026 56 10000 0.92 113 07:24 02.03.2022
2829 Clouds 0 1026 54 10000 0.55 110 05:42 02.03.2022
2830 Clouds 0 1029 57 10000 1.26 154 00:42 02.03.2022
2831 Clouds 0 1029 56 10000 1.22 155 23:35 01.03.2022
2832 Clouds 1 1029 57 10000 1.14 151 22:40 01.03.2022
2833 Clouds 1 1029 56 10000 1.84 159 21:53 01.03.2022
2834 Clear 3 1027 56 10000 1.03 150 20:41 01.03.2022
2835 Clear 3 1027 56 10000 1.03 150 20:20 01.03.2022
2836 Clear 4 1027 48 10000 2.06 130 18:58 01.03.2022
2837 Clear 5 1028 42 10000 1.54 170 18:25 01.03.2022
2838 Clear 6 1028 36 10000 2.06 150 17:54 01.03.2022
2839 Clear 7 1028 39 10000 2.06 150 16:39 01.03.2022
2840 Clear 8 1028 33 10000 3.6 220 15:49 01.03.2022
2841 Clear 7 1028 39 10000 4.12 140 14:54 01.03.2022
2842 Clear 7 1028 42 10000 4.12 150 14:31 01.03.2022
2843 Clear 6 1029 42 10000 4.12 170 13:26 01.03.2022
2844 Clear 6 1030 45 10000 4.12 160 12:38 01.03.2022
2845 Clear 4 1030 48 10000 4.63 150 11:44 01.03.2022
2846 Clear 2 1030 55 10000 5.66 140 09:53 01.03.2022
2847 Clear -1 1030 69 10000 4.12 140 08:31 01.03.2022
2848 Clouds -3 1032 65 10000 2.01 167 07:32 01.03.2022
2849 Clear -2 1032 67 10000 2.28 158 03:27 01.03.2022
2850 Clear -1 1032 63 10000 1.86 145 00:49 01.03.2022
2851 Clear 0 1033 63 10000 1.76 132 23:47 28.02.2022
2852 Clear 1 1033 63 10000 1.73 117 22:43 28.02.2022
2853 Clear 2 1031 75 10000 5.66 110 21:48 28.02.2022
2854 Clear 3 1031 65 10000 3.09 120 20:55 28.02.2022
2855 Clear 3 1031 60 10000 3.6 120 19:51 28.02.2022
2856 Clear 4 1031 48 10000 4.63 110 18:57 28.02.2022
2857 Clear 7 1031 45 10000 5.14 100 17:57 28.02.2022
2858 Clear 8 1031 42 10000 4.12 100 17:23 28.02.2022
2859 Clear 9 1031 37 10000 4.12 90 16:32 28.02.2022
2860 Clear 9 1031 34 10000 4.63 120 15:19 28.02.2022
2861 Clear 9 1032 39 10000 3.09 130 14:29 28.02.2022
2862 Clear 9 1032 46 10000 3.6 120 13:24 28.02.2022
2863 Clear 7 1033 52 10000 3.6 150 12:29 28.02.2022
2864 Clear 5 1033 60 10000 3.6 150 11:20 28.02.2022
2865 Clear 3 1033 69 10000 4.12 120 10:23 28.02.2022
2866 Clear 2 1033 69 10000 4.12 130 09:51 28.02.2022
2867 Clear 2 1033 75 10000 2.57 120 09:24 28.02.2022
2868 Clear 2 1033 75 10000 2.57 120 09:24 28.02.2022
2869 Clear 0 1032 80 10000 1.54 110 08:22 28.02.2022
2870 Clear -3 1034 74 10000 0.94 132 06:44 28.02.2022
2871 Clear -2 1034 74 10000 1.33 119 04:31 28.02.2022
2872 Clear -1 1034 74 10000 1.36 116 01:42 28.02.2022
2873 Clear -1 1034 76 10000 1.63 109 22:57 27.02.2022
2874 Clear 0 1034 76 10000 1.83 105 22:32 27.02.2022
2875 Clear 0 1034 76 10000 1.82 105 21:42 27.02.2022
2876 Clear 1 1034 75 10000 2.04 109 20:51 27.02.2022
2877 Clear 2 1033 69 10000 1.54 100 20:22 27.02.2022
2878 Clear 3 1033 65 10000 3.09 100 19:50 27.02.2022
2879 Clear 4 1033 60 10000 2.57 90 19:24 27.02.2022
2880 Clear 4 1032 70 10000 3.09 100 18:37 27.02.2022
2881 Clear 7 1032 52 10000 3.6 100 17:53 27.02.2022
2882 Clouds 8 1032 49 10000 4.63 120 16:31 27.02.2022
2883 Clouds 8 1033 45 10000 5.14 90 15:39 27.02.2022
2884 Clouds 7 1034 49 10000 5.66 140 12:43 27.02.2022
2885 Clouds 7 1034 56 10000 3.6 140 12:25 27.02.2022
2886 Clear 4 1034 75 10000 4.12 120 10:37 27.02.2022
2887 Clear 3 1034 80 10000 3.09 110 09:58 27.02.2022
2888 Clear 2 1034 80 10000 3.09 110 09:24 27.02.2022
2889 Clear 0 1034 86 10000 3.09 120 08:51 27.02.2022
2890 Clear -2 1035 85 10000 1.52 92 06:42 27.02.2022
2891 Clear -1 1035 87 10000 1.54 83 04:26 27.02.2022
2892 Clear -1 1035 91 10000 1.56 91 00:34 27.02.2022
2893 Clear 0 1036 90 10000 1.41 80 22:50 26.02.2022
2894 Clear 1 1035 89 10000 1.28 67 21:34 26.02.2022
2895 Clouds 2 1033 75 10000 0.51 0 20:43 26.02.2022
2896 Clouds 2 1033 80 10000 1.54 190 19:59 26.02.2022
2897 Clouds 2 1033 80 10000 1.54 190 19:34 26.02.2022
2898 Clouds 4 1033 70 10000 2.57 290 18:46 26.02.2022
2899 Clouds 7 1033 61 10000 2.57 330 17:40 26.02.2022
2900 Clouds 7 1033 61 10000 3.09 320 16:48 26.02.2022
2901 Clouds 7 1033 65 10000 3.09 320 15:45 26.02.2022
2902 Clouds 7 1033 61 10000 3.09 320 15:20 26.02.2022
2903 Clouds 7 1033 65 10000 2.57 330 14:51 26.02.2022
2904 Clouds 6 1034 70 10000 3.09 330 14:24 26.02.2022
2905 Clouds 5 1034 75 10000 3.09 330 12:59 26.02.2022
2906 Clouds 5 1034 70 10000 4.63 310 11:54 26.02.2022
2907 Clouds 5 1034 81 10000 4.63 330 11:27 26.02.2022
2908 Clouds 4 1034 87 10000 5.14 320 10:31 26.02.2022
2909 Clouds 1 1033 93 10000 4.63 290 08:45 26.02.2022
2910 Clouds 1 1033 95 10000 2.02 314 06:46 26.02.2022
2911 Clouds 2 1030 94 10000 4.4 307 00:38 26.02.2022
2912 Clouds 3 1028 93 10000 4.29 305 22:45 25.02.2022
2913 Clouds 3 1026 93 10000 3.6 270 21:37 25.02.2022
2914 Clouds 3 1025 87 10000 5.14 270 21:18 25.02.2022
2915 Clouds 3 1024 93 10000 3.6 290 20:31 25.02.2022
2916 Clouds 4 1022 87 10000 5.14 290 18:35 25.02.2022
2917 Clouds 4 1021 87 10000 8.23 280 17:21 25.02.2022
2918 Clouds 4 1020 93 10000 3.6 230 16:20 25.02.2022
2919 Clouds 5 1021 77 10000 6.67 276 15:42 25.02.2022
2920 Clouds 5 1019 75 10000 7.72 260 15:18 25.02.2022
2921 Clouds 6 1019 75 10000 6.17 260 14:39 25.02.2022
2922 Clouds 4 1019 81 10000 6.69 250 13:36 25.02.2022
2923 Clouds 3 1019 93 10000 5.66 230 12:42 25.02.2022
2924 Clouds 5 1018 70 10000 6.17 220 11:23 25.02.2022
2925 Clouds 4 1018 70 10000 5.66 220 10:28 25.02.2022
2926 Clouds 3 1017 75 10000 5.14 210 09:52 25.02.2022
2927 Clouds 2 1017 75 10000 4.63 190 08:44 25.02.2022
2928 Clouds 1 1017 75 10000 5.14 210 07:36 25.02.2022
2929 Clear 1 1018 81 10000 5.13 240 05:47 25.02.2022
2930 Clouds 2 1017 81 10000 5.35 255 02:58 25.02.2022
2931 Clouds 3 1014 82 10000 5.47 255 22:56 24.02.2022
2932 Clouds 3 1013 77 10000 6.23 270 21:54 24.02.2022
2933 Clouds 3 1013 77 10000 6.23 270 21:31 24.02.2022
2934 Clouds 3 1012 82 10000 6.16 277 20:57 24.02.2022
2935 Clouds 5 1008 75 10000 10.8 270 19:38 24.02.2022
2936 Clouds 8 1006 61 10000 14.4 280 18:37 24.02.2022
2937 Clouds 10 1004 57 10000 8.75 210 18:18 24.02.2022
2938 Clouds 10 1004 57 10000 7.2 210 17:33 24.02.2022
2939 Clouds 10 1004 57 10000 7.2 210 17:33 24.02.2022
2940 Clouds 11 1005 62 10000 6.69 200 16:29 24.02.2022
2941 Clouds 10 1006 66 10000 7.72 200 15:47 24.02.2022
2942 Clouds 10 1007 66 10000 6.17 190 14:53 24.02.2022
2943 Clouds 10 1008 66 10000 6.69 190 14:24 24.02.2022
2944 Clouds 10 1008 62 10000 6.17 180 13:39 24.02.2022
2945 Clouds 10 1009 61 10000 5.66 170 12:33 24.02.2022
2946 Clouds 8 1011 66 10000 4.63 180 10:40 24.02.2022
2947 Clouds 7 1013 70 10000 3.09 170 08:58 24.02.2022
2948 Clouds 7 1013 70 10000 3.09 170 08:39 24.02.2022
2949 Clouds 6 1016 89 10000 3.19 189 05:52 24.02.2022
2950 Clouds 4 1019 79 10000 3.41 190 01:56 24.02.2022
2951 Clouds 3 1022 82 10000 2.74 174 22:38 23.02.2022
2952 Clouds 3 1022 82 10000 2.74 174 22:38 23.02.2022
2953 Clouds 3 1022 81 10000 2.62 174 21:37 23.02.2022
2954 Clear 6 1021 65 10000 2.57 170 20:31 23.02.2022
2955 Clear 6 1022 61 10000 4.12 180 19:46 23.02.2022
2956 Clear 8 1022 57 10000 3.6 190 18:32 23.02.2022
2957 Clear 9 1023 49 10000 4.12 200 17:36 23.02.2022
2958 Clouds 11 1024 50 10000 4.63 240 14:42 23.02.2022
2959 Clouds 10 1025 49 10000 6.17 260 12:42 23.02.2022
2960 Clouds 8 1025 61 10000 4.63 260 11:34 23.02.2022
2961 Clouds 7 1025 75 10000 4.12 240 10:31 23.02.2022
2962 Clouds 5 1024 81 10000 3.09 250 08:59 23.02.2022
2963 Clouds 4 1024 81 10000 4.63 270 07:58 23.02.2022
2964 Clouds 5 1022 76 10000 7.36 293 03:49 23.02.2022
2965 Clouds 6 1018 85 10000 6.54 291 00:28 23.02.2022
2966 Clouds 7 1018 85 10000 6.55 291 23:36 22.02.2022
2967 Clouds 8 1017 84 10000 6.87 297 22:31 22.02.2022
2968 Clouds 7 1015 91 9682 7.24 286 21:49 22.02.2022
2969 Clouds 7 1015 91 9682 7.24 286 21:30 22.02.2022
2970 Clouds 7 1014 89 10000 8.08 246 20:55 22.02.2022
2971 Clouds 7 1012 87 10000 6.17 210 20:29 22.02.2022
2972 Drizzle 7 1012 81 10000 6.69 210 19:42 22.02.2022
2973 Clouds 7 1013 87 10000 6.17 200 19:19 22.02.2022
2974 Drizzle 7 1013 76 10000 9.26 210 17:48 22.02.2022
2975 Drizzle 7 1013 76 10000 8.75 220 17:21 22.02.2022
2976 Clouds 7 1014 81 10000 6.17 210 16:37 22.02.2022
2977 Clouds 8 1015 70 10000 6.69 210 15:40 22.02.2022
2978 Clouds 8 1016 65 10000 6.69 220 14:44 22.02.2022
2979 Clouds 7 1017 65 10000 5.66 270 12:23 22.02.2022
2980 Clouds 6 1017 75 10000 6.69 280 10:50 22.02.2022
2981 Clouds 4 1016 87 10000 6.17 280 08:41 22.02.2022
2982 Clouds 4 1017 78 10000 6.84 298 07:26 22.02.2022
2983 Clouds 3 1015 83 10000 7.59 303 04:31 22.02.2022
2984 Clouds 4 1012 82 10000 9.3 303 01:45 22.02.2022
2985 Clouds 5 1012 82 10000 9.3 303 01:45 22.02.2022
2986 Clouds 4 1012 82 10000 9.3 303 01:45 22.02.2022
2987 Clouds 4 1008 85 10000 8.75 294 22:46 21.02.2022
2988 Clouds 5 1007 95 425 8.05 284 21:33 21.02.2022
2989 Clouds 5 1003 81 10000 10.29 300 20:35 21.02.2022
2990 Clouds 5 998 87 10000 10.29 290 18:46 21.02.2022
2991 Clouds 4 994 87 10000 9.26 220 16:58 21.02.2022
2992 Clouds 4 995 87 10000 9.26 210 15:20 21.02.2022
2993 Clouds 4 996 81 9000 9.26 220 14:21 21.02.2022
2994 Clouds 6 997 56 10000 8.75 220 13:20 21.02.2022
2995 Clouds 6 997 56 10000 10.29 230 12:23 21.02.2022
2996 Clouds 4 998 65 10000 8.75 250 10:58 21.02.2022
2997 Clouds 4 998 70 10000 7.72 260 09:34 21.02.2022
2998 Clouds 5 996 73 10000 10.36 269 04:52 21.02.2022
2999 Clouds 9 995 86 10000 12.52 222 23:41 20.02.2022
3000 Clouds 9 998 88 10000 11.58 219 22:21 20.02.2022
3001 Clouds 9 998 88 10000 11.58 219 21:42 20.02.2022
3002 Clouds 8 1000 88 10000 11.06 220 20:53 20.02.2022
3003 Clouds 8 1000 87 10000 8.75 210 20:33 20.02.2022
3004 Clouds 8 1001 87 10000 8.23 200 19:31 20.02.2022
3005 Clouds 8 1001 87 10000 8.23 200 19:31 20.02.2022
3006 Clouds 8 1001 87 10000 7.72 200 18:50 20.02.2022
3007 Clouds 8 1002 81 10000 7.72 210 18:31 20.02.2022
3008 Clouds 9 1003 81 10000 7.72 210 17:47 20.02.2022
3009 Clouds 9 1005 87 10000 7.72 220 15:31 20.02.2022
3010 Clouds 9 1005 87 10000 7.72 220 14:41 20.02.2022
3011 Clouds 8 1006 81 10000 7.2 210 13:23 20.02.2022
3012 Clouds 8 1006 81 10000 7.72 210 12:22 20.02.2022
3013 Clouds 6 1008 81 10000 6.69 0 10:21 20.02.2022
3014 Clouds 6 1009 81 10000 5.66 200 09:53 20.02.2022
3015 Clouds 5 1010 75 10000 4.63 240 07:45 20.02.2022
3016 Clouds 3 1007 96 185 9.8 228 00:54 20.02.2022
3017 Clouds 3 1008 96 87 10.34 212 00:29 20.02.2022
3018 Clouds 5 1010 71 10000 9.27 204 22:25 19.02.2022
3019 Clouds 5 1010 71 10000 9.27 204 21:57 19.02.2022
3020 Clouds 5 1012 69 10000 7.49 208 20:50 19.02.2022
3021 Clear 6 1011 60 10000 6.69 200 19:42 19.02.2022
3022 Clear 6 1012 65 10000 6.69 210 19:20 19.02.2022
3023 Clear 6 1012 49 10000 5.14 220 18:29 19.02.2022
3024 Clear 6 1012 45 10000 5.66 230 17:33 19.02.2022
3025 Clouds 8 1013 42 10000 7.72 250 16:21 19.02.2022
3026 Clouds 8 1013 42 10000 10.8 250 14:56 19.02.2022
3027 Clouds 8 1012 49 10000 6.69 260 13:59 19.02.2022
3028 Clouds 6 1012 56 10000 8.75 260 11:59 19.02.2022
3029 Clouds 6 1012 56 10000 8.75 260 11:36 19.02.2022
3030 Clouds 5 1010 56 10000 7.2 250 09:34 19.02.2022
3031 Clouds 5 1009 72 10000 9.06 256 06:52 19.02.2022
3032 Clouds 6 1003 63 10000 12.42 251 01:39 19.02.2022
3033 Clouds 7 1001 63 10000 11.68 242 22:54 18.02.2022
3034 Clouds 9 998 64 10000 12.39 248 21:28 18.02.2022
3035 Clouds 9 993 49 10000 17.49 250 20:33 18.02.2022
3036 Clouds 9 992 53 10000 13.89 240 19:51 18.02.2022
3037 Clouds 10 992 57 10000 12.86 230 18:39 18.02.2022
3038 Clouds 10 992 71 10000 15.95 250 18:19 18.02.2022
3039 Clouds 12 991 71 10000 11.32 200 17:21 18.02.2022
3040 Clouds 11 996 81 10000 8.75 190 14:39 18.02.2022
3041 Clouds 9 998 87 10000 8.75 190 13:47 18.02.2022
3042 Clouds 8 1000 87 10000 6.69 200 12:51 18.02.2022
3043 Clouds 7 1001 87 10000 5.66 170 11:57 18.02.2022
3044 Clouds 7 1003 87 10000 4.63 160 10:58 18.02.2022
3045 Clouds 6 1005 81 10000 5.66 200 09:29 18.02.2022
3046 Clouds 6 1009 89 10000 4.18 203 06:50 18.02.2022
3047 Clouds 6 1010 89 10000 3.88 207 05:36 18.02.2022
3048 Clouds 6 1012 63 10000 6.82 268 22:43 17.02.2022
3049 Clouds 6 1011 64 10000 7.57 268 21:42 17.02.2022
3050 Clouds 6 1011 68 10000 7.9 274 20:52 17.02.2022
3051 Clouds 7 1008 61 10000 9.77 280 20:33 17.02.2022
3052 Clouds 7 1008 57 10000 13.38 280 19:42 17.02.2022
3053 Clouds 6 1006 75 10000 6.17 280 18:34 17.02.2022
3054 Clouds 8 1005 61 10000 8.75 270 17:46 17.02.2022
3055 Clouds 9 1004 49 10000 9.77 270 16:19 17.02.2022
3056 Clouds 9 1002 49 10000 15.95 280 14:30 17.02.2022
3057 Clouds 9 1002 49 10000 15.95 280 13:47 17.02.2022
3058 Clouds 7 1000 65 10000 11.32 270 11:55 17.02.2022
3059 Clouds 7 1000 75 10000 12.35 270 11:21 17.02.2022
3060 Clouds 8 995 61 10000 12.86 270 07:57 17.02.2022
3061 Clouds 12 992 83 10000 11.97 249 00:20 17.02.2022
3062 Clouds 12 993 85 10000 11.42 242 22:38 16.02.2022
3063 Clouds 11 994 82 10000 5.66 200 20:24 16.02.2022
3064 Clouds 11 995 82 10000 6.17 200 19:23 16.02.2022
3065 Clouds 11 996 82 10000 5.14 200 18:34 16.02.2022
3066 Drizzle 10 996 87 10000 6.17 210 17:27 16.02.2022
3067 Clouds 10 996 81 10000 6.17 210 15:24 16.02.2022
3068 Clouds 9 997 81 10000 8.23 200 13:47 16.02.2022
3069 Clouds 8 997 81 10000 10.29 200 12:27 16.02.2022
3070 Clouds 8 997 81 10000 10.8 200 11:46 16.02.2022
3071 Clouds 7 997 87 10000 7.72 190 10:35 16.02.2022
3072 Clouds 7 999 87 10000 8.75 190 09:39 16.02.2022
3073 Clouds 5 1003 96 1475 8.93 208 06:44 16.02.2022
3074 Clouds 5 1007 93 10000 8.21 210 02:47 16.02.2022
3075 Clouds 6 1009 75 10000 8.18 206 22:34 15.02.2022
3076 Clouds 6 1010 75 10000 8.26 207 21:51 15.02.2022
3077 Clouds 6 1010 75 10000 8.26 207 21:30 15.02.2022
3078 Clouds 6 1011 76 10000 7.93 207 20:58 15.02.2022
3079 Clear 6 1009 61 10000 8.75 200 20:26 15.02.2022
3080 Clear 6 1009 61 10000 6.17 180 19:45 15.02.2022
3081 Clouds 6 1010 65 10000 5.66 210 18:26 15.02.2022
3082 Clouds 6 1010 65 10000 5.66 210 17:55 15.02.2022
3083 Clouds 7 1010 65 10000 5.66 210 17:37 15.02.2022
3084 Clouds 8 1010 61 10000 6.17 240 15:43 15.02.2022
3085 Clouds 8 1011 70 10000 5.14 240 14:31 15.02.2022
3086 Clouds 8 1011 65 10000 4.63 270 13:25 15.02.2022
3087 Clouds 8 1011 71 10000 5.14 240 11:41 15.02.2022
3088 Clouds 6 1010 81 10000 3.6 240 10:27 15.02.2022
3089 Clouds 5 1009 87 10000 2.57 190 08:48 15.02.2022
3090 Clouds 5 1010 93 10000 3.06 217 06:46 15.02.2022
3091 Clouds 6 1008 92 10000 3.47 215 23:35 14.02.2022
3092 Clouds 6 1007 89 10000 4.2 219 21:57 14.02.2022
3093 Clear 7 1005 76 10000 3.09 200 20:53 14.02.2022
3094 Clouds 8 1005 71 10000 2.57 210 19:49 14.02.2022
3095 Clouds 9 1004 76 10000 3.6 220 19:29 14.02.2022
3096 Clouds 9 1004 76 10000 4.63 210 18:24 14.02.2022
3097 Clouds 10 1003 71 10000 5.66 220 17:28 14.02.2022
3098 Clouds 11 1003 71 10000 5.66 210 16:33 14.02.2022
3099 Clouds 11 1002 66 10000 6.17 190 15:22 14.02.2022
3100 Clouds 11 1002 58 10000 8.75 180 13:34 14.02.2022
3101 Clouds 11 1003 62 10000 7.2 200 12:58 14.02.2022
3102 Clouds 11 1003 62 10000 7.2 200 12:32 14.02.2022
3103 Clear 10 1002 57 10000 10.29 180 11:38 14.02.2022
3104 Clear 9 1002 61 10000 8.75 190 10:18 14.02.2022
3105 Clear 6 1003 61 10000 3.6 160 07:49 14.02.2022
3106 Clouds 5 1005 75 10000 5.31 185 07:24 14.02.2022
3107 Clouds 3 1009 70 10000 5.49 186 22:48 13.02.2022
3108 Clouds 4 1010 76 10000 4.54 180 22:30 13.02.2022
3109 Clouds 4 1010 76 10000 4.57 181 21:57 13.02.2022
3110 Clouds 5 1011 82 10000 4.08 180 21:20 13.02.2022
3111 Clear 6 1009 70 10000 4.63 150 20:27 13.02.2022
3112 Clear 7 1010 65 10000 5.14 160 18:58 13.02.2022
3113 Clear 7 1010 65 10000 5.14 160 18:40 13.02.2022
3114 Clear 8 1011 66 10000 5.14 170 16:53 13.02.2022
3115 Clear 9 1012 61 10000 6.17 180 15:51 13.02.2022
3116 Clear 9 1013 53 10000 5.14 180 14:50 13.02.2022
3117 Clear 8 1015 57 10000 4.63 170 13:27 13.02.2022
3118 Clear 7 1015 52 10000 4.12 160 12:42 13.02.2022
3119 Clear 4 1017 65 10000 2.57 150 10:43 13.02.2022
3120 Clear 3 1017 69 10000 2.06 130 10:23 13.02.2022
3121 Clear 1 1017 80 10000 6.17 200 08:55 13.02.2022
3122 Clouds 0 1023 85 10000 2.64 172 01:26 13.02.2022
3123 Clouds -1 1023 84 10000 2.6 171 00:21 13.02.2022
3124 Clouds -1 1024 83 10000 2.7 168 22:34 12.02.2022
3125 Clear 1 1023 69 10000 5.14 170 22:00 12.02.2022
3126 Clear 1 1023 69 10000 4.12 150 20:55 12.02.2022
3127 Clear 2 1024 69 10000 4.63 150 19:56 12.02.2022
3128 Clear 3 1024 65 10000 4.63 150 18:54 12.02.2022
3129 Clear 3 1024 65 10000 4.63 150 18:36 12.02.2022
3130 Clear 4 1025 60 10000 4.12 160 17:39 12.02.2022
3131 Clear 5 1025 56 10000 5.66 160 16:46 12.02.2022
3132 Clear 6 1026 56 10000 4.12 170 15:53 12.02.2022
3133 Clear 6 1027 52 10000 6.17 180 15:20 12.02.2022
3134 Clear 6 1028 56 10000 6.17 170 14:25 12.02.2022
3135 Clear 3 1030 75 10000 4.63 140 11:33 12.02.2022
3136 Clear 2 1031 86 10000 3.09 140 10:32 12.02.2022
3137 Fog 0 1031 93 10000 2.57 160 09:37 12.02.2022
3138 Clear -1 1031 93 10000 2.57 160 08:47 12.02.2022
3139 Clear -2 1031 93 10000 3.6 170 07:44 12.02.2022
3140 Clear 0 1034 92 10000 1.59 168 04:50 12.02.2022
3141 Clear 0 1035 92 10000 1.52 185 02:19 12.02.2022
3142 Clouds 0 1035 93 10000 1.02 232 23:34 11.02.2022
3143 Clouds 1 1034 91 10000 1.04 247 22:23 11.02.2022
3144 Clouds 2 1034 91 10000 1.04 247 21:34 11.02.2022
3145 Clouds 2 1032 93 10000 4.12 290 20:28 11.02.2022
3146 Clouds 2 1031 93 10000 4.63 330 19:29 11.02.2022
3147 Clouds 3 1031 81 10000 5.14 300 18:41 11.02.2022
3148 Clouds 3 1029 87 10000 7.2 310 17:27 11.02.2022
3149 Clouds 3 1028 87 10000 10.29 310 16:47 11.02.2022
3150 Clouds 4 1025 87 10000 11.83 290 15:22 11.02.2022
3151 Drizzle 4 1025 81 10000 11.32 290 14:38 11.02.2022
3152 Clouds 5 1024 81 10000 12.86 290 14:19 11.02.2022
3153 Drizzle 5 1024 81 10000 11.83 280 13:44 11.02.2022
3154 Clouds 5 1023 81 10000 11.83 280 13:25 11.02.2022
3155 Clouds 4 1021 75 10000 10.8 270 10:59 11.02.2022
3156 Clouds 3 1020 81 10000 8.75 270 09:32 11.02.2022
3157 Clouds 2 1020 87 10000 6.69 250 08:33 11.02.2022
3158 Clouds 2 1019 86 10000 4.12 220 07:45 11.02.2022
3159 Clouds 2 1022 83 10000 4.28 257 06:24 11.02.2022
3160 Rain 3 1021 94 6862 2 294 02:21 11.02.2022
3161 Rain 4 1021 98 42 3.5 304 23:45 10.02.2022
3162 Rain 5 1021 97 197 1.38 279 22:26 10.02.2022
3163 Rain 5 1021 97 197 1.38 279 21:41 10.02.2022
3164 Clouds 5 1021 95 5027 1.58 275 20:50 10.02.2022
3165 Clouds 5 1019 93 10000 1.54 230 19:51 10.02.2022
3166 Clouds 5 1019 93 10000 1.03 250 19:22 10.02.2022
3167 Clouds 5 1019 93 10000 1.03 250 19:22 10.02.2022
3168 Clouds 6 1019 87 10000 1.03 230 18:32 10.02.2022
3169 Rain 6 1019 93 10000 4.12 290 17:21 10.02.2022
3170 Rain 6 1019 93 10000 2.06 280 16:43 10.02.2022
3171 Clouds 7 1018 87 10000 4.12 230 15:40 10.02.2022
3172 Clouds 7 1018 81 10000 4.12 220 15:21 10.02.2022
3173 Clouds 7 1018 76 10000 4.12 220 14:35 10.02.2022
3174 Clouds 7 1018 76 10000 4.12 240 13:40 10.02.2022
3175 Clouds 7 1018 76 10000 3.09 230 13:19 10.02.2022
3176 Clouds 6 1018 81 10000 4.63 220 11:52 10.02.2022
3177 Clouds 6 1018 81 10000 5.14 220 11:30 10.02.2022
3178 Clouds 6 1018 81 10000 4.63 200 10:23 10.02.2022
3179 Clouds 5 1018 81 10000 3.09 180 09:44 10.02.2022
3180 Clear 4 1018 93 10000 2.06 200 08:25 10.02.2022
3181 Clouds 3 1020 96 10000 2.88 183 06:33 10.02.2022
3182 Clouds 5 1022 94 10000 2.43 189 02:43 10.02.2022
3183 Clouds 6 1023 80 10000 2.84 208 00:53 10.02.2022
3184 Clouds 7 1023 80 10000 2.84 208 00:30 10.02.2022
3185 Clouds 7 1023 77 10000 2.56 217 23:58 09.02.2022
3186 Clouds 7 1024 80 10000 2.39 217 22:54 09.02.2022
3187 Clouds 7 1024 80 10000 2.39 217 22:30 09.02.2022
3188 Clouds 8 1024 84 10000 2.43 211 21:46 09.02.2022
3189 Clouds 8 1025 85 10000 2.58 214 21:26 09.02.2022
3190 Clouds 8 1024 71 10000 3.09 220 20:42 09.02.2022
3191 Clouds 9 1024 71 10000 3.09 220 20:21 09.02.2022
3192 Clouds 8 1024 71 10000 3.09 220 19:39 09.02.2022
3193 Clouds 9 1024 71 10000 4.12 220 18:30 09.02.2022
3194 Clouds 9 1024 76 10000 4.12 260 16:54 09.02.2022
3195 Clouds 9 1024 76 10000 5.14 260 15:56 09.02.2022
3196 Clouds 10 1024 71 10000 4.63 270 15:22 09.02.2022
3197 Clouds 10 1024 71 10000 4.63 270 15:22 09.02.2022
3198 Clouds 9 1025 81 10000 5.14 240 12:43 09.02.2022
3199 Clouds 9 1025 76 10000 4.63 210 11:23 09.02.2022
3200 Clouds 9 1025 76 10000 4.12 210 10:33 09.02.2022
3201 Clouds 8 1025 76 10000 5.66 210 09:47 09.02.2022
3202 Clouds 8 1025 81 10000 4.63 210 09:20 09.02.2022
3203 Clouds 8 1025 81 10000 3.6 210 08:43 09.02.2022
3204 Clouds 7 1026 85 10000 3.94 225 05:55 09.02.2022
3205 Clouds 7 1027 85 10000 4.14 229 03:51 09.02.2022
3206 Clouds 8 1028 93 10000 3.79 219 01:55 09.02.2022
3207 Clouds 8 1026 81 10000 3.6 230 23:42 08.02.2022
3208 Clouds 8 1026 81 10000 6.17 240 22:53 08.02.2022
3209 Clouds 8 1028 88 10000 4.42 234 22:27 08.02.2022
3210 Clouds 8 1028 88 10000 4.42 234 21:58 08.02.2022
3211 Clouds 8 1028 88 10000 4.28 237 21:22 08.02.2022
3212 Clouds 8 1028 88 10000 4.28 237 20:56 08.02.2022
3213 Clouds 8 1026 81 10000 6.69 240 20:31 08.02.2022
3214 Clouds 9 1025 76 10000 6.69 240 18:55 08.02.2022
3215 Clouds 9 1025 76 10000 6.17 250 17:50 08.02.2022
3216 Clouds 8 1025 76 10000 6.69 250 16:42 08.02.2022
3217 Clouds 8 1025 76 10000 5.66 230 15:39 08.02.2022
3218 Clouds 8 1025 76 10000 7.2 240 14:57 08.02.2022
3219 Clouds 8 1025 81 10000 5.14 240 13:30 08.02.2022
3220 Clouds 7 1025 81 10000 5.66 210 12:20 08.02.2022
3221 Clouds 6 1025 81 10000 4.63 200 10:45 08.02.2022
3222 Clouds 5 1025 87 10000 5.66 210 09:46 08.02.2022
3223 Clouds 5 1024 81 10000 6.17 210 08:27 08.02.2022
3224 Clouds 4 1026 88 10000 4.59 217 05:45 08.02.2022
3225 Clouds 4 1027 86 10000 4.42 211 04:39 08.02.2022
3226 Clouds 4 1027 85 10000 4.77 212 04:21 08.02.2022
3227 Clouds 4 1027 85 10000 4.77 212 03:36 08.02.2022
3228 Clouds 4 1027 86 10000 4.67 210 03:18 08.02.2022
3229 Clouds 4 1027 86 10000 4.67 210 02:59 08.02.2022
3230 Clouds 3 1027 86 10000 4.67 210 02:36 08.02.2022
3231 Clouds 3 1028 90 10000 4.23 210 02:18 08.02.2022
3232 Clouds 3 1028 90 10000 4.23 210 02:18 08.02.2022
3233 Clouds 3 1028 90 10000 4.23 210 01:44 08.02.2022
3234 Clouds 3 1028 92 10000 3.51 214 01:24 08.02.2022
3235 Clouds 3 1028 92 10000 3.51 214 00:55 08.02.2022
3236 Clouds 2 1028 88 10000 3.12 227 23:58 07.02.2022
3237 Clouds 2 1028 88 10000 3.12 227 23:40 07.02.2022
3238 Clouds 2 1028 88 10000 3.12 227 23:40 07.02.2022
3239 Clouds 2 1028 87 10000 3.29 242 23:18 07.02.2022
3240 Clouds 3 1028 87 10000 3.3 242 22:54 07.02.2022
3241 Clouds 3 1028 87 10000 3.67 255 22:18 07.02.2022
3242 Clouds 4 1028 87 10000 3.67 255 21:44 07.02.2022
3243 Clouds 4 1027 85 10000 4.08 266 21:25 07.02.2022
3244 Clouds 4 1025 75 10000 6.69 280 20:41 07.02.2022
3245 Clouds 4 1024 75 10000 7.72 280 19:56 07.02.2022
3246 Clouds 4 1024 75 10000 7.72 280 19:38 07.02.2022
3247 Clouds 5 1023 70 10000 7.72 280 18:21 07.02.2022
3248 Clouds 5 1022 75 10000 8.75 290 16:53 07.02.2022
3249 Clouds 6 1022 70 10000 8.23 280 16:20 07.02.2022
3250 Clouds 6 1021 65 10000 10.29 290 15:48 07.02.2022
3251 Clouds 7 1020 70 10000 10.8 290 13:36 07.02.2022
3252 Clouds 6 1020 70 10000 9.77 290 13:18 07.02.2022
3253 Clouds 5 1018 81 10000 9.26 290 11:58 07.02.2022
3254 Clouds 5 1018 81 10000 9.26 290 11:36 07.02.2022
3255 Clouds 5 1016 81 10000 8.75 290 10:51 07.02.2022
3256 Clouds 4 1016 87 10000 8.23 290 10:31 07.02.2022
3257 Clouds 4 1015 87 10000 8.23 290 09:53 07.02.2022
3258 Clouds 3 1014 93 10000 8.75 290 09:18 07.02.2022
3259 Rain 3 1013 87 10000 9.77 290 08:38 07.02.2022
3260 Clouds 3 1013 83 10000 8.77 298 07:19 07.02.2022
3261 Clouds 3 1013 84 10000 8.76 298 06:34 07.02.2022
3262 Clouds 2 1006 78 10000 8.08 297 03:27 07.02.2022
3263 Rain 4 1002 90 2652 8.32 295 00:45 07.02.2022
3264 Clouds 4 1000 95 2936 8.22 296 23:48 06.02.2022
3265 Clouds 4 999 91 10000 8.35 282 22:48 06.02.2022
3266 Clouds 4 998 96 1463 5.73 246 21:55 06.02.2022
3267 Clouds 4 998 96 1463 5.73 246 21:35 06.02.2022
3268 Rain 4 998 97 160 5.61 260 20:55 06.02.2022
3269 Rain 5 998 87 10000 6.17 230 20:31 06.02.2022
3270 Clouds 5 998 87 10000 7.2 230 19:38 06.02.2022
3271 Clouds 5 998 81 10000 6.17 240 18:40 06.02.2022
3272 Clouds 5 998 87 10000 4.63 260 17:56 06.02.2022
3273 Clouds 5 998 87 10000 6.17 290 17:19 06.02.2022
3274 Rain 6 998 87 10000 12.35 260 16:38 06.02.2022
3275 Rain 6 994 87 10000 10.8 210 15:49 06.02.2022
3276 Rain 5 995 87 10000 10.8 200 15:26 06.02.2022
3277 Rain 5 996 87 10000 10.8 200 14:36 06.02.2022
3278 Rain 5 996 87 10000 10.8 200 14:36 06.02.2022
3279 Drizzle 6 999 81 10000 11.32 210 13:25 06.02.2022
3280 Clouds 6 1000 75 10000 11.83 210 12:52 06.02.2022
3281 Clouds 6 1002 81 10000 9.77 210 11:32 06.02.2022
3282 Clouds 6 1004 87 10000 7.72 200 10:30 06.02.2022
3283 Clouds 5 1006 81 10000 8.23 210 08:53 06.02.2022
3284 Clouds 5 1006 81 10000 8.75 210 07:51 06.02.2022
3285 Rain 5 1009 86 10000 10.24 225 05:30 06.02.2022
3286 Rain 5 1009 86 10000 10.24 225 05:30 06.02.2022
3287 Rain 5 1009 86 10000 10.24 225 05:30 06.02.2022
3288 Clouds 5 1013 81 10000 9.21 227 02:26 06.02.2022
3289 Clouds 5 1013 81 10000 9.21 227 01:47 06.02.2022
3290 Clouds 5 1015 78 10000 8.52 225 00:26 06.02.2022
3291 Clouds 5 1017 77 10000 8.25 227 22:20 05.02.2022
3292 Clouds 4 1018 77 10000 8.04 227 20:59 05.02.2022
3293 Clear 5 1016 65 10000 7.2 210 20:24 05.02.2022
3294 Clear 5 1016 60 10000 7.72 220 19:45 05.02.2022
3295 Clear 5 1017 65 10000 5.66 220 18:52 05.02.2022
3296 Clouds 5 1017 60 10000 7.2 230 17:38 05.02.2022
3297 Clouds 6 1017 60 10000 7.2 230 16:48 05.02.2022
3298 Clouds 6 1018 65 10000 7.2 240 15:33 05.02.2022
3299 Clouds 6 1018 60 10000 6.69 240 14:47 05.02.2022
3300 Clouds 6 1019 60 10000 6.17 260 12:47 05.02.2022
3301 Clouds 5 1018 60 10000 6.17 250 11:49 05.02.2022
3302 Clouds 5 1018 70 10000 6.17 240 10:47 05.02.2022
3303 Clouds 4 1018 65 10000 5.14 260 09:53 05.02.2022
3304 Clouds 4 1018 65 10000 6.17 270 09:29 05.02.2022
3305 Clouds 4 1016 75 10000 6.17 260 07:38 05.02.2022
3306 Clouds 3 1018 72 10000 6.62 266 06:56 05.02.2022
3307 Clouds 4 1016 71 10000 6.65 264 04:28 05.02.2022
3308 Clouds 3 1015 70 10000 7.93 269 01:19 05.02.2022
3309 Clouds 3 1015 70 10000 8.15 270 00:51 05.02.2022
3310 Clouds 4 1011 81 10000 7.72 280 23:38 04.02.2022
3311 Clouds 4 1011 81 10000 7.72 280 23:20 04.02.2022
3312 Drizzle 3 1009 93 10000 8.75 290 21:37 04.02.2022
3313 Clouds 4 1008 87 10000 9.77 280 21:18 04.02.2022
3314 Clouds 4 1007 93 10000 11.83 290 20:50 04.02.2022
3315 Clouds 6 1004 81 10000 8.75 210 19:33 04.02.2022
3316 Clouds 7 1005 81 10000 6.17 210 17:27 04.02.2022
3317 Clouds 7 1006 87 10000 4.63 200 15:38 04.02.2022
3318 Clouds 7 1007 81 10000 6.17 190 14:51 04.02.2022
3319 Clouds 7 1009 81 10000 6.17 200 12:43 04.02.2022
3320 Drizzle 7 1010 87 10000 4.63 190 11:46 04.02.2022
3321 Clouds 7 1010 81 10000 5.66 190 11:18 04.02.2022
3322 Clouds 6 1010 81 10000 7.2 210 10:30 04.02.2022
3323 Clouds 6 1011 87 10000 5.14 200 08:33 04.02.2022
3324 Clouds 5 1013 89 10000 4.51 222 04:53 04.02.2022
3325 Clouds 5 1013 86 10000 4.22 230 02:38 04.02.2022
3326 Rain 5 1013 90 10000 4.27 233 00:26 04.02.2022
3327 Clouds 6 1013 89 10000 4.12 229 22:55 03.02.2022
3328 Clouds 6 1013 88 10000 4.11 231 22:22 03.02.2022
3329 Clouds 6 1013 88 10000 4.11 231 21:41 03.02.2022
3330 Clouds 6 1012 93 10000 2.06 200 20:22 03.02.2022
3331 Clouds 6 1012 93 10000 1.54 210 19:57 03.02.2022
3332 Drizzle 6 1012 93 10000 1.03 260 19:23 03.02.2022
3333 Clouds 7 1012 93 10000 1.54 250 18:24 03.02.2022
3334 Clouds 7 1013 87 10000 3.6 210 17:26 03.02.2022
3335 Clouds 8 1013 87 10000 3.09 210 15:38 03.02.2022
3336 Clouds 8 1014 81 10000 4.12 200 14:22 03.02.2022
3337 Clouds 8 1015 81 10000 4.63 210 12:32 03.02.2022
3338 Clouds 5 1017 93 10000 1.03 0 08:59 03.02.2022
3339 Clouds 4 1017 100 9000 1.54 130 08:18 03.02.2022
3340 Clouds 1 1022 94 10000 2.45 191 00:59 03.02.2022
3341 Clouds 0 1022 94 10000 2.28 200 00:22 03.02.2022
3342 Clouds 0 1022 94 10000 2.13 203 22:40 02.02.2022
3343 Clouds 1 1022 93 10000 1.96 206 21:52 02.02.2022
3344 Clear 2 1020 87 10000 1.03 230 21:29 02.02.2022
3345 Clouds 3 1020 81 10000 3.09 260 20:27 02.02.2022
3346 Clouds 3 1020 75 10000 4.12 270 19:48 02.02.2022
3347 Clear 4 1019 75 10000 3.09 260 19:00 02.02.2022
3348 Clouds 5 1019 75 10000 3.6 300 18:25 02.02.2022
3349 Clouds 6 1018 75 10000 6.69 310 17:22 02.02.2022
3350 Clouds 6 1018 70 10000 8.23 310 16:58 02.02.2022
3351 Clouds 6 1016 70 10000 10.29 300 15:29 02.02.2022
3352 Clouds 6 1015 81 10000 9.77 300 12:31 02.02.2022
3353 Clouds 6 1014 81 10000 9.77 300 11:49 02.02.2022
3354 Clouds 6 1014 75 10000 9.77 300 11:30 02.02.2022
3355 Clouds 5 1012 81 10000 9.77 310 08:48 02.02.2022
3356 Clouds 5 1011 83 10000 8.94 295 02:44 02.02.2022
3357 Rain 6 1009 83 10000 9.57 306 22:33 01.02.2022
3358 Clouds 7 1008 79 10000 9.41 299 20:55 01.02.2022
3359 Clouds 7 1006 87 7000 13.38 290 19:29 01.02.2022
3360 Rain 6 1006 93 7000 5.66 260 17:34 01.02.2022
3361 Rain 4 1006 93 10000 7.72 240 16:21 01.02.2022
3362 Drizzle 4 1011 81 7000 7.2 220 12:57 01.02.2022
3363 Clouds 4 1012 75 10000 6.69 220 12:21 01.02.2022
3364 Clouds 2 1016 87 10000 3.09 250 08:52 01.02.2022
3365 Clouds 2 1016 96 6836 4.12 297 02:20 01.02.2022
3366 Clouds 2 1016 94 10000 4.7 337 23:37 31.01.2022
3367 Clouds 3 1016 94 10000 4.7 337 22:33 31.01.2022
3368 Clouds 3 1014 96 4699 4.8 341 21:35 31.01.2022
3369 Clouds 3 1014 96 4777 4.79 341 21:35 31.01.2022
3370 Drizzle 3 1009 93 6000 10.8 320 20:34 31.01.2022
3371 Drizzle 4 1008 93 10000 6.69 290 19:57 31.01.2022
3372 Clouds 5 1006 93 10000 7.2 280 18:32 31.01.2022
3373 Clouds 5 1006 87 10000 7.2 290 17:55 31.01.2022
3374 Clouds 5 1005 93 10000 7.2 300 16:58 31.01.2022
3375 Clouds 5 1005 93 8000 6.17 320 16:21 31.01.2022
3376 Drizzle 4 1003 93 4200 6.17 300 14:50 31.01.2022
3377 Drizzle 4 1002 87 10000 4.12 260 13:29 31.01.2022
3378 Clouds 3 1002 93 10000 3.09 250 12:37 31.01.2022
3379 Rain 3 1002 93 10000 5.14 230 10:59 31.01.2022
3380 Clouds 3 1002 93 10000 5.14 230 10:38 31.01.2022
3381 Clouds 2 1003 87 10000 4.63 250 09:36 31.01.2022
3382 Clouds 2 1003 87 10000 7.2 230 08:54 31.01.2022
3383 Snow 2 1003 93 9000 6.17 220 08:20 31.01.2022
3384 Snow 2 1003 93 7000 5.66 220 07:37 31.01.2022
3385 Rain 2 1010 93 2186 5.78 214 05:24 31.01.2022
3386 Clouds 2 1021 86 10000 2.28 214 00:23 31.01.2022
3387 Clouds 2 1022 87 10000 2.26 207 22:33 30.01.2022
3388 Clouds 2 1024 87 10000 2.25 233 21:45 30.01.2022
3389 Clouds 3 1025 87 10000 2.39 242 21:24 30.01.2022
3390 Clouds 3 1025 87 10000 2.39 242 20:51 30.01.2022
3391 Clouds 4 1023 70 10000 4.12 280 20:31 30.01.2022
3392 Clouds 4 1024 70 10000 4.12 280 19:55 30.01.2022
3393 Clouds 4 1024 65 10000 7.2 290 18:51 30.01.2022
3394 Clouds 5 1024 60 10000 6.69 290 18:22 30.01.2022
3395 Clouds 5 1024 65 10000 6.17 290 17:30 30.01.2022
3396 Clouds 5 1024 60 10000 7.2 290 16:42 30.01.2022
3397 Clouds 5 1024 60 10000 9.77 300 16:22 30.01.2022
3398 Clouds 5 1024 65 10000 9.77 300 15:54 30.01.2022
3399 Clouds 5 1024 65 10000 9.77 300 15:54 30.01.2022
3400 Clouds 5 1024 65 10000 9.77 300 15:32 30.01.2022
3401 Clouds 5 1024 65 10000 8.23 300 14:47 30.01.2022
3402 Clouds 5 1024 70 10000 8.75 300 13:44 30.01.2022
3403 Clouds 5 1024 75 10000 8.75 300 12:44 30.01.2022
3404 Drizzle 5 1022 75 9000 12.35 300 10:39 30.01.2022
3405 Clouds 4 1022 81 10000 10.8 300 09:58 30.01.2022
3406 Clouds 4 1021 81 10000 12.35 300 09:21 30.01.2022
3407 Clouds 4 1021 81 10000 12.86 300 07:57 30.01.2022
3408 Clouds 6 1022 75 10000 9.89 298 02:44 30.01.2022
3409 Clear 6 1022 75 10000 9.53 295 01:52 30.01.2022
3410 Clouds 8 1021 69 10000 9.47 287 23:46 29.01.2022
3411 Clouds 8 1020 71 10000 9.41 286 22:48 29.01.2022
3412 Clouds 8 1017 76 10000 14.4 290 21:28 29.01.2022
3413 Clouds 8 1017 87 10000 11.32 290 20:50 29.01.2022
3414 Clouds 8 1018 79 10000 9.53 287 19:47 29.01.2022
3415 Clouds 9 1016 71 10000 12.86 280 19:29 29.01.2022
3416 Clouds 9 1016 76 9000 10.8 260 18:39 29.01.2022
3417 Drizzle 8 1016 87 8000 8.23 250 17:42 29.01.2022
3418 Drizzle 9 1017 76 9000 8.75 260 16:43 29.01.2022
3419 Clouds 8 1018 76 10000 6.69 260 15:20 29.01.2022
3420 Clouds 7 1019 81 10000 6.69 230 13:47 29.01.2022
3421 Clouds 8 1020 81 10000 6.69 240 13:26 29.01.2022
3422 Clouds 7 1021 76 10000 4.63 230 12:42 29.01.2022
3423 Clouds 7 1021 81 10000 6.17 250 11:38 29.01.2022
3424 Clouds 6 1022 81 10000 5.66 210 10:25 29.01.2022
3425 Clouds 5 1022 87 10000 5.66 220 07:57 29.01.2022
3426 Clouds 3 1029 90 10000 5.28 216 01:37 29.01.2022
3427 Clouds 2 1031 89 10000 3.54 197 00:31 29.01.2022
3428 Clouds 2 1032 86 10000 2.96 201 23:22 28.01.2022
3429 Clouds 2 1032 86 10000 2.95 201 22:42 28.01.2022
3430 Clouds 2 1033 85 10000 2.7 206 22:18 28.01.2022
3431 Clouds 3 1032 80 10000 1.03 0 20:40 28.01.2022
3432 Clouds 3 1032 80 10000 1.03 0 20:40 28.01.2022
3433 Clouds 3 1032 75 10000 1.03 220 19:51 28.01.2022
3434 Clouds 3 1032 75 10000 1.54 250 18:49 28.01.2022
3435 Clouds 5 1032 70 10000 5.14 280 17:46 28.01.2022
3436 Clouds 6 1033 76 10000 4.77 298 15:46 28.01.2022
3437 Clouds 5 1031 75 10000 6.69 310 14:20 28.01.2022
3438 Clouds 5 1030 75 10000 7.2 310 12:35 28.01.2022
3439 Clouds 5 1030 75 10000 10.8 310 11:38 28.01.2022
3440 Clouds 4 1030 87 10000 7.2 310 10:22 28.01.2022
3441 Clouds 4 1030 87 10000 7.2 310 10:22 28.01.2022
3442 Clouds 4 1029 81 10000 6.17 290 09:45 28.01.2022
3443 Clouds 4 1027 81 10000 8.23 290 07:40 28.01.2022
3444 Clouds 4 1028 75 10000 8.92 309 05:24 28.01.2022
3445 Clouds 4 1027 80 10000 8.33 304 03:47 28.01.2022
3446 Clouds 4 1025 77 10000 8.27 301 02:23 28.01.2022
3447 Clouds 4 1025 77 10000 8.27 301 01:34 28.01.2022
3448 Clouds 4 1023 82 10000 7.77 295 23:33 27.01.2022
3449 Clouds 5 1022 80 10000 7.55 292 21:54 27.01.2022
3450 Clouds 5 1022 80 10000 7.55 292 21:30 27.01.2022
3451 Clouds 5 1022 80 10000 7.55 292 21:30 27.01.2022
3452 Clouds 5 1022 77 10000 7.92 292 20:53 27.01.2022
3453 Clouds 5 1021 77 10000 7.79 289 19:30 27.01.2022
3454 Clouds 5 1019 93 10000 5.14 240 17:56 27.01.2022
3455 Rain 5 1019 93 5000 5.14 240 15:30 27.01.2022
3456 Mist 4 1020 93 4000 3.09 210 13:39 27.01.2022
3457 Drizzle 3 1020 93 4000 5.66 210 12:46 27.01.2022
3458 Clouds 3 1021 81 8000 4.63 210 10:46 27.01.2022
3459 Clouds 2 1021 80 10000 5.14 220 09:19 27.01.2022
3460 Clouds 2 1022 80 10000 5.14 200 08:37 27.01.2022
3461 Clouds 2 1024 85 10000 6.31 224 07:22 27.01.2022
3462 Clouds 2 1027 84 10000 4.81 233 02:57 27.01.2022
3463 Clouds 2 1028 88 10000 4.49 229 23:33 26.01.2022
3464 Clouds 2 1029 86 10000 4 230 22:25 26.01.2022
3465 Clouds 2 1029 86 10000 4 230 21:36 26.01.2022
3466 Mist 2 1028 93 5000 3.6 250 20:41 26.01.2022
3467 Mist 2 1028 93 5000 3.6 250 20:22 26.01.2022
3468 Clouds 2 1029 86 7000 4.12 270 19:23 26.01.2022
3469 Clouds 2 1029 86 7000 4.12 260 18:45 26.01.2022
3470 Clouds 2 1029 80 7000 5.14 280 17:51 26.01.2022
3471 Clouds 2 1029 80 7000 5.66 290 17:23 26.01.2022
3472 Clouds 2 1029 80 7000 4.12 280 16:33 26.01.2022
3473 Clouds 2 1029 86 5000 3.6 240 15:49 26.01.2022
3474 Mist 2 1030 86 3100 2.57 230 14:20 26.01.2022
3475 Mist 1 1030 86 4800 4.12 270 11:52 26.01.2022
3476 Clouds 1 1030 86 9000 3.09 220 10:28 26.01.2022
3477 Clouds 1 1030 86 9000 2.57 220 09:48 26.01.2022
3478 Clouds 1 1030 93 7000 2.57 250 07:44 26.01.2022
3479 Clouds 1 1032 85 10000 1.03 265 03:31 26.01.2022
3480 Clouds 1 1033 87 10000 0.74 247 23:58 25.01.2022
3481 Clouds 2 1033 87 10000 0.6 247 23:19 25.01.2022
3482 Clouds 2 1034 87 10000 0.62 272 22:21 25.01.2022
3483 Clouds 2 1034 87 10000 0.62 272 21:58 25.01.2022
3484 Clouds 2 1032 86 8000 1.54 260 20:47 25.01.2022
3485 Clouds 2 1032 86 8000 1.54 260 20:28 25.01.2022
3486 Clouds 2 1032 86 8000 1.54 260 20:28 25.01.2022
3487 Clouds 2 1032 86 8000 1.54 260 20:28 25.01.2022
3488 Clouds 2 1032 93 9000 0.51 0 19:52 25.01.2022
3489 Clouds 2 1032 93 9000 2.57 10 18:37 25.01.2022
3490 Clouds 2 1032 93 10000 2.06 310 17:44 25.01.2022
3491 Clouds 2 1032 93 10000 1.03 0 16:35 25.01.2022
3492 Clouds 2 1031 93 9000 1.03 0 15:49 25.01.2022
3493 Clouds 2 1032 93 9000 0.51 0 15:31 25.01.2022
3494 Clouds 2 1032 93 9000 1.03 0 14:57 25.01.2022
3495 Clouds 2 1032 93 9000 1.03 0 13:42 25.01.2022
3496 Clouds 2 1033 93 8000 1.03 0 10:51 25.01.2022
3497 Mist 2 1032 93 3900 2.57 350 08:37 25.01.2022
3498 Clear 2 1034 95 10000 0.33 245 07:29 25.01.2022
3499 Clear 2 1034 94 10000 0.44 247 06:49 25.01.2022
3500 Clear 2 1034 94 10000 0.83 215 05:22 25.01.2022
3501 Clear 3 1034 93 10000 1.05 210 23:37 24.01.2022
3502 Clouds 3 1033 93 10000 2.06 210 23:18 24.01.2022
3503 Clouds 3 1033 93 10000 2.06 210 22:59 24.01.2022
3504 Clouds 3 1033 93 10000 2.06 210 22:41 24.01.2022
3505 Clear 3 1034 92 10000 1.18 212 21:53 24.01.2022
3506 Clear 3 1034 92 10000 1.18 212 21:53 24.01.2022
3507 Clear 4 1034 91 10000 1.18 214 21:28 24.01.2022
3508 Clouds 4 1033 87 10000 2.06 200 20:30 24.01.2022
3509 Clouds 4 1033 87 10000 2.57 190 19:44 24.01.2022
3510 Clouds 4 1033 87 10000 2.06 230 19:24 24.01.2022
3511 Clouds 4 1033 93 10000 3.09 160 17:59 24.01.2022
3512 Clouds 4 1033 93 10000 3.09 180 17:23 24.01.2022
3513 Clouds 4 1033 93 10000 3.09 170 16:41 24.01.2022
3514 Clouds 4 1033 93 10000 3.6 180 16:18 24.01.2022
3515 Clouds 5 1033 87 10000 3.09 190 14:35 24.01.2022
3516 Clouds 5 1034 87 10000 4.12 170 12:40 24.01.2022
3517 Clouds 5 1034 87 10000 3.6 190 12:22 24.01.2022
3518 Clouds 5 1034 87 10000 3.6 170 10:27 24.01.2022
3519 Clouds 4 1034 87 10000 2.06 150 09:48 24.01.2022
3520 Clouds 4 1034 87 10000 1.54 150 08:30 24.01.2022
3521 Clear 4 1035 94 10000 0.6 119 04:50 24.01.2022
3522 Clear 4 1035 93 10000 0.64 111 01:30 24.01.2022
3523 Clouds 4 1035 92 10000 0.91 158 00:35 24.01.2022
3524 Clouds 4 1035 91 10000 0.95 145 23:49 23.01.2022
3525 Clouds 4 1035 91 10000 0.95 145 23:49 23.01.2022
3526 Clouds 5 1036 91 10000 0.57 91 22:28 23.01.2022
3527 Clouds 5 1036 91 10000 0.57 90 21:46 23.01.2022
3528 Clouds 5 1036 92 10000 0.72 33 21:24 23.01.2022
3529 Clouds 5 1035 93 10000 1.54 330 20:44 23.01.2022
3530 Clouds 5 1035 93 10000 2.06 320 19:43 23.01.2022
3531 Clouds 5 1035 93 10000 1.54 330 18:50 23.01.2022
3532 Clouds 5 1034 93 10000 1.54 310 17:34 23.01.2022
3533 Clouds 6 1034 87 10000 2.57 300 16:45 23.01.2022
3534 Clouds 6 1034 87 10000 3.6 310 14:59 23.01.2022
3535 Clouds 6 1034 87 10000 2.57 280 14:21 23.01.2022
3536 Clouds 5 1035 81 10000 3.6 300 12:51 23.01.2022
3537 Clouds 5 1035 81 10000 4.12 270 12:22 23.01.2022
3538 Clouds 5 1035 93 10000 2.57 300 11:51 23.01.2022
3539 Clouds 5 1035 87 10000 1.54 320 11:18 23.01.2022
3540 Clouds 4 1035 93 10000 2.06 280 10:27 23.01.2022
3541 Clouds 4 1034 93 10000 2.06 230 09:40 23.01.2022
3542 Clouds 3 1034 93 10000 2.57 290 08:51 23.01.2022
3543 Clouds 3 1034 96 10000 0.95 298 05:55 23.01.2022
3544 Clouds 4 1033 95 10000 2.4 304 01:49 23.01.2022
3545 Clouds 4 1033 96 10000 2.52 301 01:25 23.01.2022
3546 Clouds 4 1033 95 10000 2.82 297 00:23 23.01.2022
3547 Clouds 5 1033 95 10000 2.82 297 23:44 22.01.2022
3548 Clouds 5 1033 94 10000 3.03 294 22:40 22.01.2022
3549 Clouds 5 1033 93 10000 3.22 290 21:28 22.01.2022
3550 Drizzle 5 1031 100 9000 4.12 310 19:51 22.01.2022
3551 Clouds 5 1031 100 10000 5.14 290 18:49 22.01.2022
3552 Clouds 5 1031 87 10000 5.66 290 17:59 22.01.2022
3553 Clouds 5 1031 87 10000 5.66 290 17:35 22.01.2022
3554 Clouds 6 1030 87 10000 7.2 290 16:55 22.01.2022
3555 Clouds 6 1030 93 10000 7.2 290 15:49 22.01.2022
3556 Clouds 6 1030 93 10000 4.12 290 14:57 22.01.2022
3557 Drizzle 6 1030 93 2800 6.17 290 13:42 22.01.2022
3558 Drizzle 6 1030 93 7000 6.17 300 12:50 22.01.2022
3559 Drizzle 6 1030 93 5000 5.66 300 12:28 22.01.2022
3560 Mist 6 1029 93 5000 6.17 290 10:56 22.01.2022
3561 Drizzle 6 1029 93 8000 6.17 290 10:29 22.01.2022
3562 Drizzle 5 1029 100 6000 6.69 290 09:58 22.01.2022
3563 Drizzle 5 1028 100 6000 7.72 290 08:51 22.01.2022
3564 Drizzle 5 1028 93 8000 7.2 290 07:34 22.01.2022
3565 Clouds 5 1028 98 507 5.7 305 04:52 22.01.2022
3566 Clouds 5 1028 97 116 6.36 296 01:34 22.01.2022
3567 Rain 4 1028 98 194 6.25 294 23:38 21.01.2022
3568 Rain 4 1028 98 194 6.25 294 23:38 21.01.2022
3569 Clouds 4 1028 93 10000 7.2 280 22:28 21.01.2022
3570 Drizzle 3 1028 93 3900 5.14 270 20:22 21.01.2022
3571 Drizzle 3 1028 93 4200 3.09 270 18:39 21.01.2022
3572 Clouds 2 1029 83 10000 5.38 310 17:28 21.01.2022
3573 Clouds 3 1029 93 9000 5.66 290 15:30 21.01.2022
3574 Clouds 2 1029 87 10000 7.72 300 13:29 21.01.2022
3575 Clouds 2 1029 93 10000 8.23 300 12:38 21.01.2022
3576 Clouds 1 1029 93 10000 9.26 280 11:27 21.01.2022
3577 Snow 1 1029 93 10000 8.23 280 10:19 21.01.2022
3578 Clouds 1 1028 86 10000 7.2 280 08:24 21.01.2022
3579 Clouds 0 1030 95 10000 3.38 299 04:49 21.01.2022
3580 Snow 0 1029 96 703 3.56 311 23:35 20.01.2022
3581 Snow 1 1028 94 1534 4.68 319 22:24 20.01.2022
3582 Snow 1 1028 94 1592 4.67 319 21:43 20.01.2022
3583 Snow 1 1024 86 10000 10.29 300 20:43 20.01.2022
3584 Snow 1 1023 86 10000 7.2 290 19:20 20.01.2022
3585 Snow 1 1023 80 10000 11.83 300 18:44 20.01.2022
3586 Snow 1 1022 93 10000 6.17 280 17:29 20.01.2022
3587 Snow 2 1022 80 10000 9.26 290 15:43 20.01.2022
3588 Snow 1 1022 80 8000 9.77 290 15:19 20.01.2022
3589 Snow 2 1022 80 2600 8.75 300 13:41 20.01.2022
3590 Snow 2 1022 80 6000 8.23 290 12:35 20.01.2022
3591 Snow 2 1022 80 10000 8.75 300 11:50 20.01.2022
3592 Clouds 2 1022 80 10000 9.26 300 10:40 20.01.2022
3593 Snow 2 1021 86 10000 7.2 310 09:37 20.01.2022
3594 Clouds 2 1020 86 10000 7.2 310 08:32 20.01.2022
3595 Clouds 3 1019 97 132 6.89 272 05:32 20.01.2022
3596 Rain 3 1019 96 7247 5.72 271 23:28 19.01.2022
3597 Clouds 3 1019 97 775 5.84 260 22:24 19.01.2022
3598 Clouds 3 1019 97 128 5.47 252 21:23 19.01.2022
3599 Clouds 3 1017 93 8000 5.14 220 20:49 19.01.2022
3600 Clouds 3 1018 87 9000 4.63 230 19:45 19.01.2022
3601 Clouds 3 1018 81 10000 4.63 220 18:40 19.01.2022
3602 Clouds 3 1019 87 10000 4.12 240 17:45 19.01.2022
3603 Clouds 3 1019 75 10000 4.12 270 16:48 19.01.2022
3604 Clouds 4 1020 75 10000 4.12 210 14:42 19.01.2022
3605 Clouds 4 1023 75 10000 5.66 200 12:43 19.01.2022
3606 Clouds 4 1024 81 10000 4.63 210 11:41 19.01.2022
3607 Clouds 3 1025 87 10000 5.66 200 10:35 19.01.2022
3608 Clouds 3 1025 87 10000 4.63 170 09:34 19.01.2022
3609 Clouds 3 1029 95 10000 1.99 185 06:56 19.01.2022
3610 Clouds 3 1033 93 10000 1.9 155 02:41 19.01.2022
3611 Clouds 4 1035 90 10000 1.25 153 23:20 18.01.2022
3612 Clouds 4 1035 90 10000 1.25 153 22:34 18.01.2022
3613 -273 0 0 0 0 0 21:01 18.01.2022
3614 Clouds 5 1036 81 10000 1.54 250 19:55 18.01.2022
3615 Clouds 5 1036 81 10000 1.54 250 19:36 18.01.2022
3616 Clouds 6 1036 87 10000 2.06 250 18:51 18.01.2022
3617 Clouds 6 1036 81 10000 1.54 300 17:58 18.01.2022
3618 Clouds 6 1036 81 10000 2.06 300 16:58 18.01.2022
3619 Clouds 7 1036 87 10000 2.57 290 15:47 18.01.2022
3620 Clouds 7 1036 87 10000 4.12 300 15:22 18.01.2022
3621 Clouds 6 1037 93 10000 3.09 290 12:47 18.01.2022
3622 Clouds 6 1037 93 9000 3.6 290 10:47 18.01.2022
3623 Clouds 5 1036 100 7000 3.09 300 09:21 18.01.2022
3624 Clouds 4 1036 93 9000 3.09 260 07:55 18.01.2022
3625 Clouds 4 1036 86 10000 2.38 327 02:35 18.01.2022
3626 Clouds 4 1036 93 10000 2.21 319 23:46 17.01.2022
3627 Clouds 5 1035 92 10000 3.59 315 22:27 17.01.2022
3628 Clouds 5 1035 92 10000 3.59 315 21:35 17.01.2022
3629 Clouds 6 1032 81 10000 7.2 320 20:24 17.01.2022
3630 Clouds 6 1029 87 10000 7.2 320 18:30 17.01.2022
3631 Drizzle 7 1029 87 10000 7.72 290 17:44 17.01.2022
3632 Clouds 7 1028 87 10000 9.26 290 16:40 17.01.2022
3633 Mist 6 1027 93 4000 10.29 290 15:19 17.01.2022
3634 Mist 6 1027 93 4500 9.77 290 14:55 17.01.2022
3635 Drizzle 6 1027 93 9000 10.29 280 13:26 17.01.2022
3636 Drizzle 6 1027 93 10000 9.77 280 12:55 17.01.2022
3637 Drizzle 6 1027 87 4800 9.77 280 11:49 17.01.2022
3638 Clouds 5 1026 87 10000 11.32 280 10:21 17.01.2022
3639 Clouds 5 1027 75 10000 11.32 290 09:34 17.01.2022
3640 Clouds 5 1028 80 10000 6.75 286 07:24 17.01.2022
3641 Clouds 4 1028 81 10000 6.97 280 02:59 17.01.2022
3642 Clouds 4 1028 97 6198 5.54 262 00:55 17.01.2022
3643 Clouds 4 1027 95 7093 5.76 262 22:29 16.01.2022
3644 Clouds 4 1024 87 10000 2.06 230 20:36 16.01.2022
3645 Clouds 4 1024 81 10000 3.6 260 18:51 16.01.2022
3646 Clouds 4 1023 81 10000 4.63 250 17:59 16.01.2022
3647 Clouds 4 1023 81 10000 5.14 250 16:59 16.01.2022
3648 Clouds 4 1023 81 10000 5.14 250 16:33 16.01.2022
3649 Clouds 4 1022 87 9000 3.6 250 14:31 16.01.2022
3650 Clouds 3 1022 93 9000 4.12 240 13:46 16.01.2022
3651 Clouds 2 1022 93 10000 3.6 210 12:46 16.01.2022
3652 Clouds 2 1022 93 10000 4.12 200 11:41 16.01.2022
3653 Clouds 2 1022 93 10000 4.63 210 10:53 16.01.2022
3654 Clouds 1 1022 93 10000 4.63 220 09:59 16.01.2022
3655 Clouds 1 1022 93 10000 4.63 220 09:40 16.01.2022
3656 Clouds 2 1022 93 10000 3.09 210 09:22 16.01.2022
3657 Clouds 1 1023 97 10000 2.42 191 07:25 16.01.2022
3658 Clouds 1 1025 95 10000 2.23 181 00:38 16.01.2022
3659 Clouds 1 1025 95 10000 2.16 180 23:34 15.01.2022
3660 Clouds 2 1026 95 10000 2.12 172 21:23 15.01.2022
3661 Clouds 2 1026 95 10000 2.12 172 20:56 15.01.2022
3662 Clouds 2 1025 93 10000 2.06 200 20:38 15.01.2022
3663 Clouds 3 1025 93 10000 4.63 180 19:28 15.01.2022
3664 Clouds 3 1026 93 10000 4.12 170 18:31 15.01.2022
3665 Clouds 3 1026 93 10000 4.12 190 16:52 15.01.2022
3666 Clouds 4 1027 93 10000 3.09 170 15:38 15.01.2022
3667 Clouds 4 1028 93 10000 3.6 170 13:35 15.01.2022
3668 Clouds 4 1029 93 8000 3.09 170 11:46 15.01.2022
3669 Fog 3 1029 100 900 1.54 150 09:49 15.01.2022
3670 Clouds 3 1031 95 10000 0.51 211 05:26 15.01.2022
3671 Clouds 3 1033 95 10000 0.56 244 23:40 14.01.2022
3672 Mist 3 1033 100 1400 2.57 260 21:29 14.01.2022
3673 Drizzle 3 1033 100 900 2.06 260 20:37 14.01.2022
3674 Fog 3 1033 100 700 3.09 270 19:56 14.01.2022
3675 Mist 3 1033 100 1600 2.06 270 18:43 14.01.2022
3676 Mist 3 1033 100 3400 3.09 280 17:52 14.01.2022
3677 Mist 3 1033 100 4700 2.06 280 16:43 14.01.2022
3678 Mist 3 1033 100 4700 2.06 280 16:43 14.01.2022
3679 Clouds 3 1033 100 8000 2.57 270 15:33 14.01.2022
3680 Mist 2 1034 100 5000 2.57 280 14:29 14.01.2022
3681 Mist 2 1034 100 4200 3.09 270 12:59 14.01.2022
3682 Clouds 1 1034 100 6000 1.54 250 11:53 14.01.2022
3683 Fog 0 1034 100 800 2.06 180 10:40 14.01.2022
3684 Mist 0 1033 100 4000 0.51 0 08:53 14.01.2022
3685 Clear 1 1035 91 10000 1.8 208 07:32 14.01.2022
3686 Clear 0 1037 92 10000 2 205 02:27 14.01.2022
3687 Clear 1 1038 93 10000 2.16 201 00:22 14.01.2022
3688 Clear 1 1038 93 10000 2.12 197 21:52 13.01.2022
3689 Clear 1 1039 93 10000 2.11 200 21:29 13.01.2022
3690 Fog 1 1037 100 3000 2.57 160 19:58 13.01.2022
3691 Mist 1 1037 100 4300 1.03 0 19:29 13.01.2022
3692 Mist 1 1037 100 5000 1.54 120 18:40 13.01.2022
3693 Clouds 2 1037 93 8000 3.09 150 16:53 13.01.2022
3694 Clouds 2 1037 93 6000 2.57 140 15:39 13.01.2022
3695 Clouds 3 1037 93 9000 2.57 150 15:21 13.01.2022
3696 Clouds 2 1039 93 10000 2.06 160 13:29 13.01.2022
3697 Clouds 1 1040 100 7000 1.54 170 11:18 13.01.2022
3698 Mist 0 1039 100 5000 1.03 140 09:23 13.01.2022
3699 Clear 1 1040 92 10000 1.8 203 08:29 13.01.2022
3700 Clear 1 1040 92 10000 1.8 203 07:58 13.01.2022
3701 Clouds 0 1040 93 10000 1.69 203 07:19 13.01.2022
3702 Clouds 1 1040 92 10000 1.5 211 05:21 13.01.2022
3703 Clouds 1 1040 89 10000 0.98 225 03:48 13.01.2022
3704 Clouds 1 1041 90 10000 1 226 01:38 13.01.2022
3705 Clouds 1 1041 93 10000 1.07 229 23:53 12.01.2022
3706 Clouds 2 1041 93 10000 1.07 229 23:34 12.01.2022
3707 Clouds 2 1041 93 10000 0.76 247 22:32 12.01.2022
3708 Clouds 2 1041 92 10000 0.69 252 21:43 12.01.2022
3709 Clouds 2 1041 91 10000 0.96 265 21:19 12.01.2022
3710 Clouds 2 1039 93 8000 1.03 0 20:47 12.01.2022
3711 Clouds 3 1038 93 8000 1.03 280 18:52 12.01.2022
3712 Clouds 3 1038 93 8000 1.03 0 18:18 12.01.2022
3713 Clouds 3 1038 93 9000 2.57 300 16:52 12.01.2022
3714 Clouds 3 1037 87 10000 2.06 310 14:50 12.01.2022
3715 Clouds 3 1038 87 10000 2.57 310 14:19 12.01.2022
3716 Clouds 3 1037 93 10000 0.51 0 12:57 12.01.2022
3717 Clouds 1 1037 93 10000 1.03 140 09:48 12.01.2022
3718 Clouds 0 1036 100 7000 1.03 140 07:57 12.01.2022
3719 Clouds 0 1036 100 7000 1.03 140 07:33 12.01.2022
3720 Clouds 0 1036 91 10000 1.84 187 02:20 12.01.2022
3721 Clouds 0 1037 88 10000 1.47 183 23:26 11.01.2022
3722 Clouds 2 1036 89 10000 1.27 187 22:25 11.01.2022
3723 Clouds 1 1036 89 10000 1.27 187 21:58 11.01.2022
3724 Fog -1 1034 100 10000 0.51 0 20:39 11.01.2022
3725 Fog 1 1034 100 10000 2.06 150 19:31 11.01.2022
3726 Fog 1 1033 100 10000 1.54 160 17:53 11.01.2022
3727 Fog 2 1033 100 4000 1.54 150 16:39 11.01.2022
3728 Fog 2 1033 100 3000 1.03 160 16:18 11.01.2022
3729 Clear 4 1034 75 10000 0.85 211 14:50 11.01.2022
3730 Clear 4 1034 75 10000 0.85 211 14:32 11.01.2022
3731 Clear 4 1034 70 10000 1.38 184 13:48 11.01.2022
3732 Clear 6 1034 72 10000 1.43 178 13:25 11.01.2022
3733 Fog 1 1033 100 100 1.54 120 12:25 11.01.2022
3734 Fog 0 1033 93 100 0.51 0 10:31 11.01.2022
3735 Fog 0 1032 100 50 1.03 90 07:50 11.01.2022
3736 Clouds 1 1031 85 10000 0.46 98 03:51 11.01.2022
3737 Clouds 2 1031 86 10000 0.5 57 00:27 11.01.2022
3738 Clouds 2 1031 86 10000 0.52 56 23:39 10.01.2022
3739 Clouds 2 1030 86 10000 1.4 37 22:20 10.01.2022
3740 Clouds 3 1030 86 10000 1.41 37 21:57 10.01.2022
3741 Clouds 2 1029 85 10000 1.59 14 21:33 10.01.2022
3742 Clouds 3 1029 85 10000 1.59 14 20:59 10.01.2022
3743 Clouds 3 1027 93 6000 1.54 320 20:36 10.01.2022
3744 Clouds 3 1027 93 6000 1.54 320 20:18 10.01.2022
3745 Clouds 3 1027 93 6000 2.06 310 19:37 10.01.2022
3746 Clouds 3 1026 93 5000 1.54 240 19:18 10.01.2022
3747 Clouds 3 1026 93 6000 2.06 250 18:46 10.01.2022
3748 Clouds 5 1024 87 8000 1.03 330 16:48 10.01.2022
3749 Clouds 5 1024 87 9000 2.06 310 16:20 10.01.2022
3750 Clouds 5 1022 87 10000 3.09 300 14:42 10.01.2022
3751 Clouds 5 1020 93 8000 4.63 290 12:50 10.01.2022
3752 Clouds 4 1020 87 10000 4.12 300 11:56 10.01.2022
3753 Clouds 3 1018 93 9000 3.6 280 10:48 10.01.2022
3754 Clouds 3 1018 93 10000 2.06 290 09:33 10.01.2022
3755 Clouds 2 1015 90 10000 1.14 236 05:51 10.01.2022
3756 Clouds 2 1012 93 10000 1.17 217 02:30 10.01.2022
3757 Clouds 3 1011 93 10000 1.52 221 01:20 10.01.2022
3758 Clouds 2 1010 93 10000 1.75 212 00:19 10.01.2022
3759 Clouds 3 1009 93 10000 1.83 218 22:44 09.01.2022
3760 Clouds 3 1008 92 10000 1.96 233 21:57 09.01.2022
3761 Clouds 3 1008 92 10000 1.96 233 21:37 09.01.2022
3762 Clouds 3 1008 92 10000 1.96 233 21:37 09.01.2022
3763 Clouds 3 1007 90 10000 2.43 243 21:18 09.01.2022
3764 Clouds 3 1004 87 10000 2.57 250 20:45 09.01.2022
3765 Clouds 3 1004 87 10000 2.57 250 20:26 09.01.2022
3766 Clouds 3 1004 87 10000 2.06 230 19:38 09.01.2022
3767 Clouds 3 1003 87 10000 3.09 240 19:20 09.01.2022
3768 Clouds 3 1003 87 10000 2.06 250 18:37 09.01.2022
3769 Clouds 3 1002 87 10000 3.09 250 17:48 09.01.2022
3770 Clouds 4 1001 87 10000 3.09 260 17:29 09.01.2022
3771 Clouds 4 1001 87 10000 4.63 260 16:43 09.01.2022
3772 Clouds 4 1000 93 7000 4.63 280 15:42 09.01.2022
3773 Clouds 4 1000 93 7000 4.63 280 15:42 09.01.2022
3774 Clouds 5 999 81 9000 5.14 270 14:58 09.01.2022
3775 Clouds 4 999 81 9000 5.66 260 14:24 09.01.2022
3776 Clouds 4 998 81 9000 6.17 260 13:48 09.01.2022
3777 Rain 3 996 93 10000 7.2 280 11:56 09.01.2022
3778 Rain 3 996 93 10000 6.69 270 11:26 09.01.2022
3779 Snow 2 994 93 10000 2.57 250 09:55 09.01.2022
3780 Snow 2 993 93 7000 4.63 270 09:20 09.01.2022
3781 Rain 2 992 97 27 4.63 202 06:57 09.01.2022
3782 Clouds 2 993 96 968 5.75 162 01:30 09.01.2022
3783 Clouds 2 994 90 10000 6.59 162 00:38 09.01.2022
3784 Clouds 2 996 89 10000 6.68 163 23:34 08.01.2022
3785 Clouds 2 997 88 10000 6.82 167 22:48 08.01.2022
3786 Clouds 2 1001 88 10000 6.73 178 21:28 08.01.2022
3787 Clouds 2 1001 86 10000 7.2 160 20:44 08.01.2022
3788 Clouds 2 1001 86 10000 7.2 160 20:22 08.01.2022
3789 Clouds 2 1003 86 10000 6.17 160 19:22 08.01.2022
3790 Clouds 2 1005 80 10000 6.17 170 17:38 08.01.2022
3791 Clouds 2 1006 80 10000 7.2 170 16:45 08.01.2022
3792 Clouds 3 1007 75 10000 6.17 180 15:33 08.01.2022
3793 Clouds 3 1009 70 10000 5.14 210 13:58 08.01.2022
3794 Clouds 3 1010 80 10000 3.6 230 11:41 08.01.2022
3795 Clouds 2 1010 80 10000 2.57 230 10:33 08.01.2022
3796 Clouds 2 1010 86 10000 2.06 230 09:57 08.01.2022
3797 Clouds 2 1010 86 10000 2.06 230 09:34 08.01.2022
3798 Clouds 1 1010 95 10000 1.33 223 06:18 08.01.2022
3799 Clouds 2 1010 86 10000 3.44 213 01:41 08.01.2022
3800 Clouds 2 1011 90 10000 3.45 208 23:31 07.01.2022
3801 Clouds 2 1009 87 10000 2.57 170 21:49 07.01.2022
3802 Snow 1 1010 100 6000 1.54 30 20:34 07.01.2022
3803 Snow 2 1010 93 10000 5.14 150 19:27 07.01.2022
3804 Snow 2 1010 93 10000 5.14 150 19:27 07.01.2022
3805 Clouds 2 1010 93 10000 3.6 170 18:49 07.01.2022
3806 Clouds 2 1010 93 10000 5.14 150 18:21 07.01.2022
3807 Clouds 2 1010 80 10000 5.14 180 17:24 07.01.2022
3808 Clouds 2 1010 93 10000 4.63 170 14:56 07.01.2022
3809 Clouds 2 1011 80 10000 5.14 180 13:52 07.01.2022
3810 Clouds 2 1011 80 10000 5.14 200 12:51 07.01.2022
3811 Snow 1 1012 86 10000 4.63 180 11:22 07.01.2022
3812 Clouds 0 1017 86 10000 4.8 198 04:25 07.01.2022
3813 Clouds -1 1017 87 10000 4.45 200 02:46 07.01.2022
3814 Clouds -1 1018 86 10000 3.79 200 01:48 07.01.2022
3815 Clouds -1 1018 86 10000 3.79 200 01:48 07.01.2022
3816 Clouds -1 1019 86 10000 3.41 192 01:25 07.01.2022
3817 Clouds -1 1018 88 10000 3.62 195 00:30 07.01.2022
3818 Clouds -1 1019 92 10000 2.92 183 00:30 07.01.2022
3819 Clouds -1 1019 93 10000 2.66 177 22:33 06.01.2022
3820 Clear -1 1020 91 10000 2.37 187 20:51 06.01.2022
3821 Clouds 0 1019 80 10000 3.6 220 20:18 06.01.2022
3822 Clouds 0 1019 86 10000 2.57 200 19:36 06.01.2022
3823 Clouds 1 1018 75 10000 2.06 250 17:51 06.01.2022
3824 Clouds 2 1018 80 10000 1.03 210 17:23 06.01.2022
3825 Clouds 3 1018 75 10000 2.06 290 16:32 06.01.2022
3826 Clouds 4 1018 75 10000 3.09 280 15:44 06.01.2022
3827 Clouds 4 1018 65 10000 4.12 280 15:21 06.01.2022
3828 Clouds 5 1017 75 10000 3.6 280 14:20 06.01.2022
3829 Clouds 5 1017 81 10000 4.63 270 13:33 06.01.2022
3830 Clouds 3 1017 87 10000 3.6 270 12:20 06.01.2022
3831 Clouds 3 1017 87 10000 2.57 260 11:29 06.01.2022
3832 Clear 1 1016 86 10000 1.03 0 09:56 06.01.2022
3833 Clouds 1 1015 90 10000 3.97 304 06:37 06.01.2022
3834 Clouds 4 1010 80 10000 6.48 293 00:27 06.01.2022
3835 Clouds 4 1009 77 10000 7.13 298 23:22 05.01.2022
3836 Clouds 4 1009 77 10000 7.11 298 22:48 05.01.2022
3837 Clouds 4 1009 80 10000 7.51 299 22:21 05.01.2022
3838 Clouds 4 1008 81 10000 7.99 298 21:25 05.01.2022
3839 Drizzle 4 1006 87 10000 5.66 270 20:30 05.01.2022
3840 Drizzle 4 1006 87 10000 5.66 270 20:30 05.01.2022
3841 Drizzle 4 1005 87 10000 6.17 270 19:28 05.01.2022
3842 Clouds 3 1004 87 10000 6.17 250 17:56 05.01.2022
3843 Clouds 3 1003 87 10000 5.66 260 16:56 05.01.2022
3844 Clouds 3 1003 87 10000 7.72 260 16:18 05.01.2022
3845 Clouds 3 1001 93 10000 6.69 250 14:54 05.01.2022
3846 Snow 3 1000 87 6000 9.26 240 13:33 05.01.2022
3847 Rain 3 1001 75 10000 6.17 240 11:59 05.01.2022
3848 Clouds 2 1000 80 10000 5.14 260 08:21 05.01.2022
3849 Clouds 2 1001 77 10000 5.56 279 06:37 05.01.2022
3850 Clouds 2 1001 77 10000 5.56 279 06:37 05.01.2022
3851 Clouds 4 998 99 57 2.83 319 01:20 05.01.2022
3852 Rain 5 998 97 1061 3.04 275 23:41 04.01.2022
3853 Rain 5 998 96 1536 3.69 254 23:19 04.01.2022
3854 Rain 6 997 94 10000 3.88 250 21:32 04.01.2022
3855 Clouds 6 996 93 10000 3.6 250 20:27 04.01.2022
3856 Rain 6 996 87 10000 4.12 240 18:35 04.01.2022
3857 Clouds 6 995 87 10000 4.12 210 17:19 04.01.2022
3858 Clouds 7 995 87 10000 3.6 220 16:31 04.01.2022
3859 Clouds 7 994 87 10000 4.12 220 14:58 04.01.2022
3860 Clouds 7 994 87 10000 4.12 220 14:37 04.01.2022
3861 Drizzle 7 995 93 10000 2.57 220 13:55 04.01.2022
3862 Drizzle 7 995 93 10000 2.57 230 12:20 04.01.2022
3863 Clouds 7 996 93 10000 1.03 200 10:21 04.01.2022
3864 Drizzle 7 996 93 10000 1.54 160 08:49 04.01.2022
3865 Clouds 7 999 95 9744 1.82 219 06:28 04.01.2022
3866 Clouds 8 1003 92 10000 3.27 219 00:42 04.01.2022
3867 Clouds 8 1004 89 10000 4.59 229 23:49 03.01.2022
3868 Clouds 8 1006 93 10000 4.6 217 22:21 03.01.2022
3869 Clouds 8 1006 93 10000 4.6 217 21:38 03.01.2022
3870 Clouds 8 1006 81 10000 5.14 220 20:40 03.01.2022
3871 Clouds 8 1007 87 10000 4.63 210 18:55 03.01.2022
3872 Clouds 8 1007 81 10000 6.69 230 18:30 03.01.2022
3873 Clouds 8 1007 81 10000 6.69 230 18:30 03.01.2022
3874 Drizzle 8 1008 93 10000 3.6 210 17:20 03.01.2022
3875 Clouds 9 1008 76 10000 6.69 240 16:31 03.01.2022
3876 Clouds 10 1010 66 10000 5.66 260 14:31 03.01.2022
3877 Clouds 10 1010 76 10000 7.2 230 12:52 03.01.2022
3878 Clouds 10 1011 76 10000 5.14 220 11:50 03.01.2022
3879 Clouds 9 1011 76 10000 4.63 230 10:38 03.01.2022
3880 Clouds 9 1011 66 10000 4.63 240 09:27 03.01.2022
3881 Clouds 9 1011 71 10000 6.17 250 07:53 03.01.2022
3882 Clouds 10 1011 76 10000 8 257 02:56 03.01.2022
3883 Clouds 9 1011 80 10000 7.96 231 23:23 02.01.2022
3884 Rain 9 1011 80 10000 7.96 231 22:56 02.01.2022
3885 Rain 10 1012 85 10000 6.2 212 21:52 02.01.2022
3886 Clouds 10 1013 81 10000 6 224 20:50 02.01.2022
3887 Clouds 11 1012 81 10000 3.6 190 20:29 02.01.2022
3888 Clouds 11 1011 81 10000 3.09 200 19:31 02.01.2022
3889 Clouds 11 1012 76 10000 4.12 210 18:55 02.01.2022
3890 Clouds 11 1012 76 10000 4.63 220 17:56 02.01.2022
3891 Clouds 11 1012 76 10000 4.63 220 17:38 02.01.2022
3892 Clouds 11 1012 81 10000 4.12 220 17:20 02.01.2022
3893 Clouds 11 1011 71 10000 5.66 230 16:27 02.01.2022
3894 Clouds 11 1011 71 10000 7.72 220 14:41 02.01.2022
3895 Clouds 11 1011 71 10000 7.2 180 13:25 02.01.2022
3896 Clouds 10 1013 87 10000 6.69 210 12:31 02.01.2022
3897 Clouds 9 1013 87 10000 6.69 180 11:36 02.01.2022
3898 Clouds 9 1015 93 10000 1.03 0 10:53 02.01.2022
3899 Clouds 9 1015 93 10000 3.09 170 09:55 02.01.2022
3900 Clouds 8 1018 94 10000 3.13 181 07:29 02.01.2022
3901 Clouds 8 1021 94 10000 3.3 185 02:20 02.01.2022
3902 Clouds 10 1022 95 10000 3.44 172 23:41 01.01.2022
3903 Clouds 10 1023 95 10000 2.98 180 23:22 01.01.2022
3904 Clouds 9 1023 95 10000 3.27 174 22:24 01.01.2022
3905 Clouds 9 1023 95 10000 3.27 174 21:44 01.01.2022
3906 Clouds 10 1024 96 10000 2.97 175 20:56 01.01.2022
3907 Clouds 9 1024 95 10000 2.8 172 19:59 01.01.2022
3908 Clear 10 1024 87 10000 2.57 180 19:32 01.01.2022
3909 Clear 10 1024 81 10000 2.57 160 18:29 01.01.2022
3910 Clouds 11 1024 93 10000 2.82 175 16:51 01.01.2022
3911 Clouds 12 1024 89 10000 2.67 187 16:29 01.01.2022
3912 Clouds 13 1024 89 10000 2.67 187 15:30 01.01.2022
3913 Clouds 13 1024 81 10000 3.12 200 14:21 01.01.2022
3914 Clouds 13 1025 71 10000 5.14 210 12:50 01.01.2022
3915 Clouds 13 1025 76 10000 3.09 210 11:59 01.01.2022
3916 Clouds 13 1025 76 10000 2.57 200 11:24 01.01.2022
3917 Clouds 13 1025 76 10000 2.06 200 10:42 01.01.2022
3918 Clouds 12 1025 82 10000 3.09 180 09:47 01.01.2022
3919 Clouds 12 1024 76 10000 2.57 220 08:26 01.01.2022
3920 Clouds 12 1025 88 10000 2.97 239 07:55 01.01.2022
3921 Clouds 12 1025 88 10000 2.97 239 07:34 01.01.2022
3922 Clouds 12 1024 87 10000 2.91 233 06:41 01.01.2022
3923 Clouds 12 1023 86 10000 3.44 235 04:38 01.01.2022
3924 Clouds 12 1023 82 10000 4.03 251 02:54 01.01.2022
3925 Clouds 12 1022 84 10000 4.73 262 23:44 31.12.2021
3926 Clouds 12 1021 85 10000 4.96 262 21:54 31.12.2021
3927 Clouds 13 1020 82 10000 5.66 260 20:41 31.12.2021
3928 Clouds 12 1018 82 10000 2.57 240 19:31 31.12.2021
3929 Clouds 12 1018 82 10000 2.57 240 19:31 31.12.2021
3930 Clouds 12 1018 82 10000 4.63 250 18:44 31.12.2021
3931 Clouds 12 1019 83 10000 4.51 238 17:45 31.12.2021
3932 Clouds 12 1018 80 10000 5.45 241 17:19 31.12.2021
3933 Clouds 13 1018 80 10000 5.45 241 16:40 31.12.2021
3934 Clouds 13 1018 80 10000 5.97 239 15:57 31.12.2021
3935 Clouds 13 1017 77 10000 5.76 238 15:29 31.12.2021
3936 Clouds 13 1017 77 10000 5.76 238 15:29 31.12.2021
3937 Clouds 14 1017 77 10000 5.76 238 14:57 31.12.2021
3938 Clouds 14 1017 76 10000 5.14 220 14:31 31.12.2021
3939 Clouds 14 1017 76 10000 5.66 230 13:37 31.12.2021
3940 Clouds 14 1018 76 10000 5.14 210 12:49 31.12.2021
3941 Clouds 13 1018 82 10000 5.14 210 11:52 31.12.2021
3942 Clouds 13 1018 82 10000 5.14 210 11:33 31.12.2021
3943 Clouds 13 1018 82 10000 6.69 200 10:38 31.12.2021
3944 Clouds 13 1018 82 10000 6.69 190 10:20 31.12.2021
3945 Clouds 13 1018 82 10000 6.17 200 09:33 31.12.2021
3946 Clouds 12 1018 82 10000 5.66 210 08:47 31.12.2021
3947 Clouds 13 1019 94 10000 5.16 212 07:32 31.12.2021
3948 Clouds 13 1018 87 10000 5.99 237 23:36 30.12.2021
3949 Clouds 13 1018 85 10000 6.32 239 22:50 30.12.2021
3950 Clouds 13 1017 82 10000 4.63 240 22:26 30.12.2021
3951 Clouds 13 1017 82 10000 4.63 240 21:37 30.12.2021
3952 Clouds 13 1017 82 10000 4.63 240 21:37 30.12.2021
3953 Clouds 13 1017 94 10000 4.63 230 20:48 30.12.2021
3954 Drizzle 13 1017 82 10000 5.66 230 20:28 30.12.2021
3955 Clouds 13 1016 82 10000 5.14 220 19:48 30.12.2021
3956 Clouds 13 1016 82 10000 3.6 220 19:18 30.12.2021
3957 Drizzle 13 1016 82 10000 5.66 240 18:20 30.12.2021
3958 Clouds 14 1015 82 10000 4.12 240 16:34 30.12.2021
3959 Clouds 14 1014 77 10000 7.2 250 15:52 30.12.2021
3960 Clouds 14 1014 88 10000 5.66 240 14:41 30.12.2021
3961 Clouds 14 1014 94 10000 5.14 230 14:19 30.12.2021
3962 Clouds 14 1014 94 9000 3.6 230 13:23 30.12.2021
3963 Clouds 12 1014 94 10000 4.63 210 11:34 30.12.2021
3964 Drizzle 11 1013 93 6000 4.63 210 10:27 30.12.2021
3965 Drizzle 11 1013 87 8000 5.66 220 09:27 30.12.2021
3966 Clouds 10 1014 94 10000 4.08 226 06:55 30.12.2021
3967 Clouds 11 1012 87 10000 4.08 248 04:25 30.12.2021
3968 Clouds 10 1012 87 10000 4.08 248 03:40 30.12.2021
3969 Clouds 9 1010 97 7559 3.53 254 00:42 30.12.2021
3970 Clouds 8 1009 97 6813 3.72 232 23:35 29.12.2021
3971 Clouds 8 1008 97 7605 4.16 218 22:30 29.12.2021
3972 Clouds 8 1008 97 10000 4.37 209 21:53 29.12.2021
3973 Clouds 8 1006 93 7000 3.6 140 20:56 29.12.2021
3974 Clouds 7 1006 93 7000 3.6 140 20:18 29.12.2021
3975 Rain 7 1006 93 10000 3.6 120 19:30 29.12.2021
3976 Clouds 7 1007 87 10000 3.09 150 18:26 29.12.2021
3977 Clouds 8 1007 81 10000 3.6 190 17:30 29.12.2021
3978 Clouds 8 1007 81 10000 3.6 200 16:58 29.12.2021
3979 Clouds 8 1007 87 10000 3.6 210 16:19 29.12.2021
3980 Clouds 8 1007 87 10000 3.09 240 14:47 29.12.2021
3981 Clouds 9 1006 87 10000 3.6 230 12:50 29.12.2021
3982 Clouds 8 1006 87 10000 3.09 260 12:27 29.12.2021
3983 Clouds 8 1006 87 10000 4.63 250 10:53 29.12.2021
3984 Clouds 8 1004 93 9000 5.14 280 08:56 29.12.2021
3985 Clouds 7 1003 96 10000 5.35 272 06:49 29.12.2021
3986 Clouds 7 1002 95 10000 5.89 278 06:28 29.12.2021
3987 Clouds 7 1002 95 10000 5.89 278 05:51 29.12.2021
3988 Clouds 6 1001 98 10000 2.58 228 03:47 29.12.2021
3989 Clouds 6 998 95 10000 2.14 266 00:32 29.12.2021
3990 Clouds 6 997 95 10000 1.37 248 23:57 28.12.2021
3991 Clouds 6 995 95 10000 1.89 225 22:56 28.12.2021
3992 Clouds 6 995 92 10000 4.41 215 22:24 28.12.2021
3993 Clouds 6 995 92 10000 4.41 215 21:54 28.12.2021
3994 Clouds 6 994 90 10000 5.74 204 21:28 28.12.2021
3995 Clouds 7 993 81 10000 3.6 170 19:52 28.12.2021
3996 Clouds 7 993 87 10000 2.06 200 18:53 28.12.2021
3997 Clouds 7 993 87 10000 3.6 200 18:24 28.12.2021
3998 Clouds 8 992 87 10000 3.09 230 17:29 28.12.2021
3999 Clouds 8 992 87 10000 5.14 190 15:53 28.12.2021
4000 Rain 7 992 93 10000 4.12 160 15:29 28.12.2021
4001 Clouds 7 992 93 10000 3.09 170 14:54 28.12.2021
4002 Clouds 7 993 93 10000 5.14 150 14:22 28.12.2021
4003 Clouds 7 993 93 10000 5.14 150 13:58 28.12.2021
4004 Clouds 7 993 93 10000 5.14 150 13:33 28.12.2021
4005 Clouds 7 994 93 10000 5.14 160 12:55 28.12.2021
4006 Clouds 7 995 93 10000 5.66 150 12:19 28.12.2021
4007 Drizzle 5 996 93 6000 5.66 150 09:32 28.12.2021
4008 Clouds 5 996 93 9000 6.17 150 07:33 28.12.2021
4009 Clouds 3 1002 97 10000 2.53 156 03:31 28.12.2021
4010 Clouds 2 1002 96 10000 2.33 143 23:37 27.12.2021
4011 Clouds 2 1003 97 10000 2.02 124 22:20 27.12.2021
4012 Clouds 3 1003 97 10000 2.02 124 21:30 27.12.2021
4013 Clouds 3 1000 93 7000 4.12 150 20:32 27.12.2021
4014 Clouds 3 1001 93 10000 6.17 140 19:47 27.12.2021
4015 Clouds 3 1001 100 10000 4.63 140 18:57 27.12.2021
4016 Clouds 3 1001 100 7000 6.69 150 17:51 27.12.2021
4017 Mist 3 1000 93 3500 6.17 140 17:28 27.12.2021
4018 Mist 3 1001 100 5000 2.06 120 15:54 27.12.2021
4019 Clouds 2 1001 100 6000 4.63 130 14:57 27.12.2021
4020 Clouds 3 1001 93 6000 3.09 120 14:21 27.12.2021
4021 Mist 2 1002 93 3800 3.09 130 12:52 27.12.2021
4022 Mist 2 1002 93 4700 5.66 140 10:40 27.12.2021
4023 Mist 1 1003 100 5000 4.12 140 10:22 27.12.2021
4024 Mist 1 1002 100 4600 4.12 130 08:43 27.12.2021
4025 Mist 1 1002 100 5000 4.12 130 07:34 27.12.2021
4026 Clouds 0 1005 97 10000 1.54 137 06:27 27.12.2021
4027 Snow -1 1006 94 10000 1.48 117 01:51 27.12.2021
4028 Clouds -1 1008 92 10000 1.49 123 23:49 26.12.2021
4029 Clouds -1 1008 92 10000 1.52 116 23:19 26.12.2021
4030 Clouds -2 1008 91 10000 1.5 115 21:37 26.12.2021
4031 Clouds -2 1009 91 10000 1.39 106 19:55 26.12.2021
4032 Snow -2 1007 93 9000 2.57 110 18:45 26.12.2021
4033 Clouds -2 1007 93 9000 3.09 100 18:21 26.12.2021
4034 Clouds -2 1010 74 10000 1.36 98 15:38 26.12.2021
4035 Clouds -2 1010 65 10000 1.53 105 13:49 26.12.2021
4036 Clouds -3 1010 65 10000 1.53 105 13:31 26.12.2021
4037 Clouds -3 1011 65 10000 1.51 111 12:36 26.12.2021
4038 Clouds -4 1012 67 10000 1.42 106 11:20 26.12.2021
4039 Clear -6 1009 79 10000 3.09 120 09:31 26.12.2021
4040 Clear -7 1009 86 10000 3.6 110 08:45 26.12.2021
4041 Clear -6 1009 79 10000 3.09 120 08:26 26.12.2021
4042 Clouds -9 1012 69 10000 1.74 75 02:19 26.12.2021
4043 Clouds -8 1013 67 10000 1.55 70 00:40 26.12.2021
4044 Clear -7 1013 60 10000 2.03 81 23:37 25.12.2021
4045 Clear -7 1013 60 10000 2.03 81 22:38 25.12.2021
4046 Clear -7 1013 59 10000 2.3 83 22:20 25.12.2021
4047 Clear -6 1013 58 10000 2.93 86 20:26 25.12.2021
4048 Clear -5 1011 68 10000 3.09 90 19:19 25.12.2021
4049 Clear -5 1010 63 10000 4.63 70 18:37 25.12.2021
4050 Clear -3 1010 58 10000 4.12 100 16:50 25.12.2021
4051 Clouds -3 1012 65 10000 3.61 79 15:38 25.12.2021
4052 Clouds -2 1012 61 10000 4.59 83 14:23 25.12.2021
4053 Clouds -2 1012 61 10000 4.92 85 12:40 25.12.2021
4054 Clouds -3 1011 67 10000 5.08 79 10:49 25.12.2021
4055 Clouds -3 1008 86 10000 6.17 90 09:49 25.12.2021
4056 Clouds -2 1009 88 10000 4.6 77 07:28 25.12.2021
4057 Rain 1 1007 98 36 2.14 41 01:43 25.12.2021
4058 Rain 2 1007 98 90 2.1 47 00:22 25.12.2021
4059 Drizzle 3 1004 93 10000 3.6 30 21:59 24.12.2021
4060 Rain 5 1003 91 10000 3.46 291 19:27 24.12.2021
4061 Clouds 6 1003 91 10000 3.46 291 18:57 24.12.2021
4062 Clouds 8 1003 86 10000 5.52 255 16:49 24.12.2021
4063 Clouds 8 1003 86 10000 6.28 260 15:52 24.12.2021
4064 Clouds 8 1003 86 10000 6.28 260 15:32 24.12.2021
4065 Clouds 8 1001 87 5000 6.17 270 14:35 24.12.2021
4066 Clouds 8 1001 81 10000 6.69 260 13:59 24.12.2021
4067 Clouds 9 1001 81 10000 6.69 260 13:32 24.12.2021
4068 Clouds 8 1001 81 10000 6.17 250 12:47 24.12.2021
4069 Clouds 8 1002 81 10000 4.12 230 11:46 24.12.2021
4070 Clouds 8 1002 81 10000 5.66 240 11:24 24.12.2021
4071 Clouds 8 1002 81 10000 6.17 240 10:36 24.12.2021
4072 Clouds 8 1002 87 10000 6.17 250 09:22 24.12.2021
4073 Clouds 7 1002 95 10000 6.74 249 08:19 24.12.2021
4074 Clouds 8 1001 87 9000 5.14 240 07:42 24.12.2021
4075 Clouds 4 1004 93 10000 7.13 240 00:48 24.12.2021
4076 Rain 4 1005 94 10000 6.34 230 23:54 23.12.2021
4077 Clouds 4 1005 94 10000 6 222 22:54 23.12.2021
4078 Clouds 3 1006 93 10000 5.21 224 22:26 23.12.2021
4079 Clouds 3 1006 92 10000 5.2 224 21:50 23.12.2021
4080 Clouds 2 1007 87 10000 4.06 212 20:53 23.12.2021
4081 Drizzle 2 1006 86 8000 1.03 0 19:31 23.12.2021
4082 Drizzle 2 1006 86 9000 3.6 200 18:32 23.12.2021
4083 Snow 1 1007 86 8000 3.6 210 17:47 23.12.2021
4084 Clouds 0 1007 86 8000 3.6 140 16:40 23.12.2021
4085 Clouds 0 1007 86 9000 3.6 140 16:20 23.12.2021
4086 Clouds 0 1008 86 8000 4.12 150 15:31 23.12.2021
4087 Clouds 0 1009 86 9000 3.09 160 14:42 23.12.2021
4088 Clouds 0 1010 86 9000 3.09 150 14:19 23.12.2021
4089 Clouds 0 1011 86 8000 4.12 170 12:39 23.12.2021
4090 Clouds -1 1012 86 8000 2.57 170 10:36 23.12.2021
4091 Clouds -2 1012 86 8000 4.63 140 09:34 23.12.2021
4092 Clear -2 1013 93 10000 3.09 140 08:58 23.12.2021
4093 Clouds -3 1017 73 10000 3.13 178 06:23 23.12.2021
4094 Clouds -4 1020 74 10000 2.6 170 03:28 23.12.2021
4095 Clouds -4 1022 75 10000 2.61 165 22:54 22.12.2021
4096 Clouds -5 1023 76 10000 2.41 170 22:22 22.12.2021
4097 Clouds -5 1023 76 10000 2.41 170 21:48 22.12.2021
4098 Clouds -5 1023 74 10000 2.42 168 21:26 22.12.2021
4099 Clouds -4 1022 93 8000 2.57 150 20:41 22.12.2021
4100 Clouds -4 1022 93 9000 1.54 150 19:59 22.12.2021
4101 Clouds -4 1023 93 6000 0.51 120 18:57 22.12.2021
4102 Clouds -4 1023 100 8000 1.03 0 17:39 22.12.2021
4103 Clear -3 1023 100 10000 2.57 140 16:34 22.12.2021
4104 Clouds -2 1024 93 9000 3.09 150 15:24 22.12.2021
4105 Clouds -2 1025 93 10000 2.57 150 12:59 22.12.2021
4106 Mist -3 1025 93 6000 3.6 150 11:58 22.12.2021
4107 Mist -5 1026 100 3000 2.06 140 09:53 22.12.2021
4108 Mist -5 1026 93 1900 3.09 150 09:31 22.12.2021
4109 Clouds -5 1028 91 10000 1.85 167 07:22 22.12.2021
4110 Clouds -5 1028 91 10000 1.43 170 05:40 22.12.2021
4111 Clouds -5 1028 91 10000 1.45 165 05:21 22.12.2021
4112 Clouds -5 1028 91 10000 1.45 165 04:43 22.12.2021
4113 Clouds -5 1028 91 10000 1.39 165 03:56 22.12.2021
4114 Clouds -4 1028 91 10000 1.39 165 03:31 22.12.2021
4115 Clear -5 1028 91 10000 1.17 156 23:57 21.12.2021
4116 Clear -5 1028 91 10000 1.03 151 22:49 21.12.2021
4117 Clear -4 1028 91 10000 0.82 153 22:27 21.12.2021
4118 Fog -5 1026 100 100 1.03 0 21:43 21.12.2021
4119 Fog -5 1026 100 100 0.51 0 20:53 21.12.2021
4120 Fog -4 1025 93 100 0.51 0 20:20 21.12.2021
4121 Fog -4 1025 93 100 1.03 0 19:41 21.12.2021
4122 Fog -4 1025 93 100 0.51 0 18:36 21.12.2021
4123 Fog -4 1025 93 100 0.51 0 17:59 21.12.2021
4124 Fog -4 1025 93 100 0.51 0 17:40 21.12.2021
4125 Fog -3 1025 93 100 0.51 0 15:46 21.12.2021
4126 Fog -2 1025 100 100 1.03 0 14:29 21.12.2021
4127 Fog -3 1025 93 100 1.03 0 13:42 21.12.2021
4128 Fog -3 1026 93 150 1.03 40 12:58 21.12.2021
4129 Fog -4 1026 100 6000 1.03 0 10:53 21.12.2021
4130 Fog -5 1026 93 6000 0.51 0 09:57 21.12.2021
4131 Mist -6 1026 93 1800 0.51 0 09:18 21.12.2021
4132 Fog -6 1025 100 150 0.51 130 07:45 21.12.2021
4133 Clouds -4 1027 91 10000 0.25 77 07:24 21.12.2021
4134 Clouds -4 1027 90 10000 0.45 81 04:37 21.12.2021
4135 Clouds -3 1028 89 10000 0.42 352 02:31 21.12.2021
4136 Clear -3 1029 85 10000 0.8 33 23:55 20.12.2021
4137 Clear -3 1029 84 10000 0.95 15 22:44 20.12.2021
4138 Clear -3 1029 83 10000 0.96 3 22:25 20.12.2021
4139 Clear -2 1029 82 10000 1.17 357 21:27 20.12.2021
4140 Clear -2 1029 82 10000 1.17 357 20:55 20.12.2021
4141 Clear -2 1029 81 10000 1.29 356 20:24 20.12.2021
4142 Clear -2 1029 81 10000 1.29 356 19:38 20.12.2021
4143 Clear -2 1029 81 10000 1.29 356 19:38 20.12.2021
4144 Clear -2 1027 100 9000 1.03 220 19:19 20.12.2021
4145 Clear -1 1028 81 10000 1.36 6 18:33 20.12.2021
4146 Clear -1 1028 79 10000 1.43 0 17:51 20.12.2021
4147 Fog 0 1027 100 200 0.51 0 16:47 20.12.2021
4148 Fog 1 1027 100 200 0.51 0 16:18 20.12.2021
4149 Fog 1 1027 100 200 0.51 0 15:40 20.12.2021
4150 Fog 2 1027 100 300 1.03 0 14:26 20.12.2021
4151 Fog 2 1027 100 300 1.54 340 12:40 20.12.2021
4152 Fog 1 1027 100 750 2.06 280 10:50 20.12.2021
4153 Fog 0 1026 100 150 2.06 290 09:40 20.12.2021
4154 Fog -1 1026 100 150 2.06 280 08:50 20.12.2021
4155 Fog 0 1026 100 150 2.06 280 08:32 20.12.2021
4156 Mist 0 1026 100 5000 1.03 0 07:38 20.12.2021
4157 Clouds 0 1025 100 9000 1.54 310 06:39 20.12.2021
4158 Clouds 3 1025 75 10000 3.12 334 00:26 20.12.2021
4159 Clouds 6 1025 80 10000 3.31 342 22:58 19.12.2021
4160 Clouds 6 1025 80 10000 3.31 342 22:40 19.12.2021
4161 Clouds 6 1025 81 10000 4.11 335 21:32 19.12.2021
4162 Drizzle 6 1024 93 10000 6.17 300 20:42 19.12.2021
4163 Drizzle 6 1024 93 10000 6.17 300 20:23 19.12.2021
4164 Clouds 6 1024 93 10000 6.69 310 19:41 19.12.2021
4165 Drizzle 6 1024 93 7000 6.69 300 18:42 19.12.2021
4166 Drizzle 6 1024 93 6000 7.72 290 17:53 19.12.2021
4167 Drizzle 6 1024 93 6000 7.72 290 17:34 19.12.2021
4168 Drizzle 6 1024 93 7000 6.17 300 16:41 19.12.2021
4169 Drizzle 6 1025 93 7000 6.69 300 15:56 19.12.2021
4170 Drizzle 6 1025 93 6000 7.2 300 15:24 19.12.2021
4171 Drizzle 6 1026 93 6000 6.69 300 14:45 19.12.2021
4172 Drizzle 6 1026 87 10000 9.26 300 13:32 19.12.2021
4173 Drizzle 6 1027 87 10000 8.75 310 12:59 19.12.2021
4174 Drizzle 6 1027 87 10000 8.23 310 12:31 19.12.2021
4175 Drizzle 6 1027 87 10000 8.23 300 11:37 19.12.2021
4176 Drizzle 6 1028 93 9000 6.69 300 10:50 19.12.2021
4177 Drizzle 6 1028 87 9000 7.2 300 10:22 19.12.2021
4178 Drizzle 5 1029 93 9000 5.66 290 08:50 19.12.2021
4179 Clouds 6 1030 83 10000 5.89 312 06:45 19.12.2021
4180 Clouds 6 1033 87 10000 5.18 309 01:52 19.12.2021
4181 Clouds 6 1033 95 10000 2.41 290 00:54 19.12.2021
4182 Clouds 6 1034 94 10000 1.82 285 23:18 18.12.2021
4183 Clouds 6 1035 96 10000 1.64 271 22:24 18.12.2021
4184 Clouds 6 1035 96 10000 1.64 271 21:44 18.12.2021
4185 Clouds 6 1035 96 10000 1.6 279 21:25 18.12.2021
4186 Drizzle 6 1035 93 10000 4.63 270 20:43 18.12.2021
4187 Clouds 6 1035 93 10000 5.14 280 19:38 18.12.2021
4188 Mist 6 1035 100 3400 5.14 320 18:25 18.12.2021
4189 Drizzle 6 1035 100 2100 4.63 320 17:49 18.12.2021
4190 Drizzle 7 1035 93 1800 5.14 290 16:48 18.12.2021
4191 Mist 7 1035 100 4700 3.6 310 16:20 18.12.2021
4192 Clouds 7 1035 93 10000 4.12 310 15:24 18.12.2021
4193 Clouds 7 1036 93 10000 3.6 320 13:58 18.12.2021
4194 Clouds 7 1037 100 9000 3.6 300 11:57 18.12.2021
4195 Drizzle 6 1038 100 1200 2.57 290 09:59 18.12.2021
4196 Drizzle 6 1038 100 1200 2.57 290 09:32 18.12.2021
4197 Drizzle 6 1038 93 2000 2.57 300 08:36 18.12.2021
4198 Clouds 6 1038 97 10000 0.89 323 07:24 18.12.2021
4199 Clouds 6 1039 97 10000 0.82 346 01:46 18.12.2021
4200 Clouds 6 1040 97 10000 0.77 320 23:51 17.12.2021
4201 Clear 6 1040 97 10000 1.2 335 22:40 17.12.2021
4202 Clear 5 1040 96 10000 1.23 327 21:31 17.12.2021
4203 Clouds 6 1038 87 10000 3.09 320 20:43 17.12.2021
4204 Clouds 6 1038 93 10000 3.6 300 19:57 17.12.2021
4205 Clouds 6 1039 87 10000 2.06 310 18:40 17.12.2021
4206 Clouds 7 1038 87 10000 3.09 330 17:59 17.12.2021
4207 Clouds 7 1038 87 10000 3.09 340 16:53 17.12.2021
4208 Clouds 7 1038 87 10000 4.12 330 16:28 17.12.2021
4209 Clouds 7 1038 93 10000 4.12 330 15:49 17.12.2021
4210 Clouds 8 1038 87 10000 2.57 340 14:43 17.12.2021
4211 Clouds 8 1039 87 10000 3.6 330 13:51 17.12.2021
4212 Clouds 7 1038 93 10000 4.63 330 12:36 17.12.2021
4213 Mist 7 1038 93 2000 2.06 280 10:42 17.12.2021
4214 Drizzle 7 1038 100 800 0.51 280 09:47 17.12.2021
4215 Fog 7 1038 100 600 1.03 320 08:32 17.12.2021
4216 Drizzle 7 1038 93 3500 1.54 270 07:38 17.12.2021
4217 Clear 7 1039 95 10000 1.05 317 04:57 17.12.2021
4218 Clouds 7 1038 88 10000 0.62 318 00:57 17.12.2021
4219 Clouds 7 1039 91 10000 1.35 356 22:44 16.12.2021
4220 Clouds 7 1039 95 10000 0.94 349 22:22 16.12.2021
4221 Clouds 8 1039 95 10000 0.94 349 21:43 16.12.2021
4222 Mist 8 1038 100 2200 1.54 320 20:40 16.12.2021
4223 Mist 8 1038 100 2200 1.54 320 20:21 16.12.2021
4224 Mist 8 1038 100 3200 2.57 330 19:27 16.12.2021
4225 Clouds 8 1037 93 7000 4.12 320 18:31 16.12.2021
4226 Clouds 8 1037 93 7000 4.12 310 17:36 16.12.2021
4227 Mist 8 1036 93 4100 2.57 290 16:24 16.12.2021
4228 Mist 8 1036 93 3000 2.57 300 15:26 16.12.2021
4229 Mist 8 1036 93 2500 2.06 320 13:45 16.12.2021
4230 Mist 7 1036 93 4000 2.06 270 11:56 16.12.2021
4231 Mist 7 1036 93 3000 1.54 260 11:18 16.12.2021
4232 Mist 6 1035 100 3500 1.54 250 10:39 16.12.2021
4233 Drizzle 6 1035 93 1500 0.51 0 09:42 16.12.2021
4234 Clouds 5 1034 91 10000 1.35 224 06:23 16.12.2021
4235 Clouds 6 1034 90 10000 1.55 234 03:54 16.12.2021
4236 Clouds 7 1033 88 10000 1.43 247 23:47 15.12.2021
4237 Clouds 7 1033 89 10000 1.68 226 22:49 15.12.2021
4238 Clouds 7 1033 90 10000 2.01 208 22:20 15.12.2021
4239 Clouds 7 1033 90 10000 1.99 208 21:31 15.12.2021
4240 Clouds 7 1031 93 10000 3.6 220 20:36 15.12.2021
4241 Clouds 8 1031 93 10000 2.57 210 19:53 15.12.2021
4242 Clouds 8 1031 93 10000 3.6 220 18:50 15.12.2021
4243 Clouds 8 1031 87 10000 3.6 220 18:18 15.12.2021
4244 Clouds 8 1031 87 10000 3.09 230 17:43 15.12.2021
4245 Clouds 8 1030 87 10000 4.12 210 16:59 15.12.2021
4246 Clouds 8 1030 87 10000 3.6 210 15:47 15.12.2021
4247 Clouds 8 1030 87 10000 4.12 210 15:29 15.12.2021
4248 Clouds 8 1030 93 10000 4.12 210 14:44 15.12.2021
4249 Clouds 9 1030 87 10000 5.14 210 13:27 15.12.2021
4250 Clouds 8 1030 87 10000 2.57 0 11:40 15.12.2021
4251 Clouds 7 1030 93 10000 2.57 210 09:38 15.12.2021
4252 Clouds 7 1030 93 8000 1.03 0 07:52 15.12.2021
4253 Clouds 6 1030 96 10000 2.23 188 03:58 15.12.2021
4254 Clouds 6 1030 94 10000 2.28 186 23:47 14.12.2021
4255 Clouds 6 1030 94 10000 2.21 185 22:55 14.12.2021
4256 Clouds 6 1030 94 10000 2.21 185 22:37 14.12.2021
4257 Clouds 6 1030 93 10000 2.16 190 21:25 14.12.2021
4258 Clouds 7 1028 87 10000 1.54 160 20:18 14.12.2021
4259 Clouds 7 1028 87 10000 2.06 170 19:21 14.12.2021
4260 Clouds 7 1027 93 10000 2.06 170 18:38 14.12.2021
4261 Clouds 7 1027 87 10000 1.03 160 17:51 14.12.2021
4262 Clouds 7 1027 87 10000 0.51 0 16:43 14.12.2021
4263 Clouds 8 1027 87 10000 1.03 0 15:54 14.12.2021
4264 Clouds 7 1026 87 10000 2.57 260 13:35 14.12.2021
4265 Clouds 7 1026 87 10000 2.57 250 12:47 14.12.2021
4266 Clouds 7 1027 93 9000 1.54 280 11:25 14.12.2021
4267 Clouds 7 1027 93 10000 2.57 250 10:28 14.12.2021
4268 Clouds 6 1026 93 10000 1.54 240 09:53 14.12.2021
4269 Clouds 6 1025 93 10000 2.57 240 08:40 14.12.2021
4270 Clouds 6 1025 93 10000 2.06 210 08:20 14.12.2021
4271 Clouds 5 1027 97 10000 2.41 175 06:27 14.12.2021
4272 Clouds 6 1029 95 10000 1.96 181 23:40 13.12.2021
4273 Clouds 7 1027 93 10000 2.57 210 21:57 13.12.2021
4274 Clouds 7 1027 93 10000 2.57 210 21:34 13.12.2021
4275 Clouds 6 1029 95 10000 1.96 177 20:50 13.12.2021
4276 Clouds 7 1028 87 10000 2.57 220 19:59 13.12.2021
4277 Clouds 7 1028 93 10000 0.51 0 19:27 13.12.2021
4278 Clouds 7 1027 87 10000 3.09 220 17:27 13.12.2021
4279 Clouds 8 1027 87 10000 3.09 220 16:24 13.12.2021
4280 Clouds 7 1027 93 10000 0.51 0 15:43 13.12.2021
4281 Clouds 7 1027 93 10000 0.51 0 15:43 13.12.2021
4282 Clouds 8 1027 93 10000 0.51 0 13:52 13.12.2021
4283 Clouds 8 1027 93 10000 1.03 0 13:18 13.12.2021
4284 Clouds 8 1027 93 9000 1.54 160 12:36 13.12.2021
4285 Clouds 7 1027 100 8000 2.57 190 11:40 13.12.2021
4286 Clouds 7 1028 100 6000 1.54 150 11:19 13.12.2021
4287 Clouds 7 1027 93 6000 1.54 130 10:21 13.12.2021
4288 Drizzle 6 1026 100 6000 1.54 110 08:31 13.12.2021
4289 Clouds 5 1027 99 1524 2.11 190 05:37 13.12.2021
4290 Clouds 5 1026 99 1170 2.19 188 03:32 13.12.2021
4291 Clouds 5 1026 99 1548 2.17 187 23:43 12.12.2021
4292 Clouds 4 1025 99 7239 2.39 187 21:56 12.12.2021
4293 Clouds 4 1023 100 6000 2.57 160 20:46 12.12.2021
4294 Drizzle 4 1023 100 3600 2.57 160 19:33 12.12.2021
4295 Drizzle 4 1023 100 6000 0.51 0 17:46 12.12.2021
4296 Rain 4 1022 100 6000 3.09 150 16:29 12.12.2021
4297 Rain 4 1022 100 6000 3.6 140 15:53 12.12.2021
4298 Clouds 4 1022 93 8000 3.6 150 15:28 12.12.2021
4299 Clouds 4 1022 93 9000 3.6 150 14:38 12.12.2021
4300 Rain 3 1022 93 8000 3.09 140 13:43 12.12.2021
4301 Clouds 3 1022 93 10000 5.14 180 12:37 12.12.2021
4302 Drizzle 4 1022 87 8000 3.6 170 11:45 12.12.2021
4303 Clouds 4 1022 87 10000 2.57 160 11:25 12.12.2021
4304 Clouds 3 1022 93 10000 2.57 0 10:39 12.12.2021
4305 Drizzle 3 1022 87 10000 3.09 160 09:44 12.12.2021
4306 Clear 2 1022 93 10000 4.12 160 08:38 12.12.2021
4307 Clouds 2 1024 88 10000 3.86 196 06:34 12.12.2021
4308 Clouds 1 1024 94 10000 3.19 184 05:27 12.12.2021
4309 Clouds 1 1024 96 10000 2.61 188 03:58 12.12.2021
4310 Clouds 1 1024 98 10000 2.1 181 00:36 12.12.2021
4311 Clouds 1 1023 94 10000 2.39 209 22:42 11.12.2021
4312 Clouds 1 1023 95 10000 2.58 208 22:19 11.12.2021
4313 Clouds 0 1022 97 7252 2.47 205 21:22 11.12.2021
4314 Clouds 0 1020 93 10000 1.03 120 19:40 11.12.2021
4315 Clouds -1 1019 93 10000 1.03 0 19:20 11.12.2021
4316 Clear 0 1018 93 10000 1.54 210 18:38 11.12.2021
4317 Clear 0 1018 93 10000 2.06 190 17:41 11.12.2021
4318 Clear 2 1016 86 10000 1.54 100 15:57 11.12.2021
4319 Clear 2 1016 86 10000 1.54 100 15:35 11.12.2021
4320 Clouds 2 1015 93 10000 1.54 130 13:46 11.12.2021
4321 Clouds 1 1013 93 10000 1.03 0 11:55 11.12.2021
4322 Clouds -2 1012 100 10000 1.03 170 09:57 11.12.2021
4323 Clouds -2 1012 100 10000 1.03 170 09:34 11.12.2021
4324 Clouds 0 1006 92 10000 1.09 328 02:41 11.12.2021
4325 Clouds 0 1003 92 10000 1.25 339 00:42 11.12.2021
4326 Clouds 0 1002 91 10000 1.25 352 23:39 10.12.2021
4327 Clouds -1 1000 90 10000 1.29 30 22:26 10.12.2021
4328 Clouds 0 1000 90 10000 1.29 30 21:37 10.12.2021
4329 Clear 0 996 80 10000 2.57 130 19:23 10.12.2021
4330 Clear 0 996 80 10000 2.06 110 18:57 10.12.2021
4331 Clouds 1 995 80 10000 3.09 130 17:21 10.12.2021
4332 Clouds 2 996 87 10000 1.78 106 16:30 10.12.2021
4333 Clouds 3 994 75 10000 3.6 120 15:42 10.12.2021
4334 Clouds 4 993 70 10000 4.63 110 15:22 10.12.2021
4335 Clouds 4 993 70 10000 4.63 140 13:52 10.12.2021
4336 Clouds 5 994 70 10000 4.63 140 13:31 10.12.2021
4337 Clouds 5 994 75 10000 4.63 150 12:47 10.12.2021
4338 Clouds 4 994 75 10000 3.6 140 11:34 10.12.2021
4339 Clouds 3 994 81 10000 4.63 130 10:38 10.12.2021
4340 Clouds 3 995 93 10000 3.09 130 09:29 10.12.2021
4341 Clouds 3 998 90 10000 2.83 155 07:21 10.12.2021
4342 Clouds 3 1001 93 10000 2.32 174 02:51 10.12.2021
4343 Clouds 3 1002 91 10000 2.58 184 00:57 10.12.2021
4344 Clouds 3 1004 93 10000 2.78 190 23:37 09.12.2021
4345 Clouds 3 1003 87 10000 4.63 190 22:40 09.12.2021
4346 Clouds 2 1003 87 10000 5.14 190 22:19 09.12.2021
4347 Clouds 2 1003 87 10000 3.09 180 21:20 09.12.2021
4348 Clouds 2 1004 87 10000 3.09 140 20:34 09.12.2021
4349 Clouds 3 1005 80 10000 4.12 190 19:22 09.12.2021
4350 Clouds 3 1005 87 10000 4.12 190 18:50 09.12.2021
4351 Clouds 3 1004 87 10000 2.57 180 17:57 09.12.2021
4352 Clouds 3 1004 87 10000 3.09 190 17:27 09.12.2021
4353 Clouds 4 1004 87 10000 4.12 190 16:57 09.12.2021
4354 Clouds 4 1003 87 10000 3.09 160 15:59 09.12.2021
4355 Clouds 5 1003 70 10000 2.06 170 14:51 09.12.2021
4356 Clouds 6 1003 75 10000 2.57 240 13:39 09.12.2021
4357 Clouds 5 1004 81 10000 3.09 220 12:47 09.12.2021
4358 Clouds 3 1004 100 10000 1.54 50 11:25 09.12.2021
4359 Fog 2 1004 93 10000 0.51 0 09:45 09.12.2021
4360 Clouds 2 1005 95 10000 1.86 208 06:51 09.12.2021
4361 Clouds 2 1004 95 10000 1.06 220 03:46 09.12.2021
4362 Clouds 2 1004 93 10000 0.09 194 23:46 08.12.2021
4363 Clouds 2 1004 93 10000 0.87 231 23:26 08.12.2021
4364 Clouds 3 1004 93 10000 0.87 231 22:50 08.12.2021
4365 Clouds 3 1003 92 10000 1.3 185 21:46 08.12.2021
4366 Clouds 3 1003 92 10000 1.27 147 21:28 08.12.2021
4367 Clouds 3 1001 93 10000 2.06 140 20:18 08.12.2021
4368 Clouds 3 1001 93 10000 2.06 130 19:37 08.12.2021
4369 Clouds 3 1002 90 10000 1.45 205 18:53 08.12.2021
4370 Clouds 3 1000 87 10000 2.57 130 17:47 08.12.2021
4371 Clouds 4 999 81 10000 2.57 130 15:58 08.12.2021
4372 Clouds 4 999 87 10000 3.09 140 15:29 08.12.2021
4373 Clouds 4 999 87 10000 3.6 160 14:50 08.12.2021
4374 Clouds 3 1000 87 10000 5.14 150 12:32 08.12.2021
4375 Clouds 3 999 87 10000 6.69 140 10:32 08.12.2021
4376 Clouds 3 999 87 10000 5.66 150 09:30 08.12.2021
4377 Clouds 2 1000 90 10000 4.35 167 07:29 08.12.2021
4378 Clouds 2 1000 94 7638 6.58 158 04:57 08.12.2021
4379 Clouds 1 1003 87 10000 3.89 131 23:48 07.12.2021
4380 Clouds 1 1005 87 10000 4.51 143 22:27 07.12.2021
4381 Clouds 1 1007 95 10000 2.93 132 21:23 07.12.2021
4382 Clouds 1 1006 93 10000 1.54 140 20:24 07.12.2021
4383 Clouds 1 1007 93 10000 3.09 140 18:55 07.12.2021
4384 Clouds 2 1008 86 10000 3.09 150 17:53 07.12.2021
4385 Clouds 2 1008 87 10000 4.12 190 17:20 07.12.2021
4386 Clouds 3 1008 87 10000 2.57 170 16:34 07.12.2021
4387 Clouds 4 1009 81 10000 3.6 200 15:34 07.12.2021
4388 Clouds 4 1009 87 10000 3.09 220 14:30 07.12.2021
4389 Clouds 3 1009 93 9000 3.09 220 12:56 07.12.2021
4390 Clouds 3 1009 93 9000 3.09 220 12:56 07.12.2021
4391 Clouds 3 1009 93 8000 1.54 90 11:52 07.12.2021
4392 Drizzle 2 1009 100 7000 1.54 230 10:36 07.12.2021
4393 Rain 2 1008 93 10000 2.06 240 08:39 07.12.2021
4394 Rain 1 1007 98 38 4.84 250 06:20 07.12.2021
4395 Clouds 1 1007 98 38 4.84 250 05:39 07.12.2021
4396 Clouds 2 1010 87 10000 4.38 172 23:49 06.12.2021
4397 Clouds 2 1010 90 10000 3.94 177 22:58 06.12.2021
4398 Clouds 2 1010 90 10000 3.94 177 22:37 06.12.2021
4399 Clouds 1 1011 90 10000 3.12 166 21:52 06.12.2021
4400 Clouds 1 1011 93 10000 4.63 160 20:34 06.12.2021
4401 Clear 1 1011 86 10000 4.63 150 19:56 06.12.2021
4402 Clear 1 1011 93 10000 4.63 140 19:21 06.12.2021
4403 Clouds 1 1011 93 10000 4.12 140 18:29 06.12.2021
4404 Clouds 1 1011 87 10000 4.12 140 17:40 06.12.2021
4405 Clouds 2 1012 87 10000 3.09 140 16:48 06.12.2021
4406 Clouds 4 1012 75 10000 3.09 140 15:39 06.12.2021
4407 Clouds 4 1013 81 10000 2.06 120 13:46 06.12.2021
4408 Clouds 3 1014 87 10000 1.54 130 12:39 06.12.2021
4409 Clouds 2 1014 93 10000 2.57 130 11:38 06.12.2021
4410 Clouds 1 1014 93 6000 0.51 0 08:51 06.12.2021
4411 Clouds 1 1015 92 10000 0.57 356 06:42 06.12.2021
4412 Clouds 2 1012 88 10000 0.23 33 23:38 05.12.2021
4413 Clouds 2 1010 85 10000 0.45 142 21:51 05.12.2021
4414 Clouds 3 1010 86 10000 0.57 174 21:19 05.12.2021
4415 Clouds 3 1007 87 10000 1.03 110 20:19 05.12.2021
4416 Clouds 3 1007 87 10000 1.03 130 19:33 05.12.2021
4417 Clouds 3 1006 87 10000 0.51 100 18:47 05.12.2021
4418 Clouds 3 1006 81 10000 1.54 190 18:19 05.12.2021
4419 Clouds 3 1005 87 10000 2.06 180 17:48 05.12.2021
4420 Clouds 4 1005 75 10000 2.06 150 16:48 05.12.2021
4421 Clouds 4 1004 75 10000 2.06 140 16:26 05.12.2021
4422 Clouds 4 1004 75 10000 2.57 180 15:48 05.12.2021
4423 Clouds 5 1003 75 10000 2.57 230 14:41 05.12.2021
4424 Clouds 5 1003 70 10000 2.57 190 14:23 05.12.2021
4425 Clouds 6 1003 70 10000 2.57 230 13:22 05.12.2021
4426 Clouds 5 1003 81 10000 3.09 220 12:40 05.12.2021
4427 Clouds 5 1003 75 10000 3.6 210 12:18 05.12.2021
4428 Clouds 4 1002 81 10000 4.63 210 11:29 05.12.2021
4429 Clouds 3 1002 87 10000 3.09 180 09:59 05.12.2021
4430 Clouds 3 1000 87 10000 3.09 190 07:55 05.12.2021
4431 Clouds 4 1001 89 10000 5.23 216 03:27 05.12.2021
4432 Clouds 4 999 84 10000 4.66 257 23:45 04.12.2021
4433 Clouds 3 998 98 492 3.95 248 21:55 04.12.2021
4434 Clouds 3 997 98 106 3.27 230 20:57 04.12.2021
4435 Mist 3 994 100 2200 1.54 270 19:55 04.12.2021
4436 Mist 3 994 100 2200 1.54 270 19:32 04.12.2021
4437 Clouds 3 993 93 10000 3.6 120 18:20 04.12.2021
4438 Rain 3 994 93 10000 3.6 120 17:38 04.12.2021
4439 Clouds 3 994 87 10000 2.57 140 16:49 04.12.2021
4440 Clouds 3 994 87 10000 3.09 150 16:30 04.12.2021
4441 Clouds 4 995 87 10000 4.12 150 15:40 04.12.2021
4442 Clouds 3 997 93 10000 3.09 160 11:51 04.12.2021
4443 Clouds 3 997 93 10000 3.09 160 11:32 04.12.2021
4444 Clouds 3 998 87 10000 3.09 140 10:44 04.12.2021
4445 Clouds 2 998 93 10000 4.12 160 08:47 04.12.2021
4446 Clouds 2 1001 94 10000 2.76 182 06:28 04.12.2021
4447 Clouds 2 1001 92 10000 3.06 190 04:42 04.12.2021
4448 Clouds 2 1005 87 10000 6.16 201 00:24 04.12.2021
4449 Clouds 2 1002 86 10000 7.2 190 23:26 03.12.2021
4450 Clouds 2 1002 86 10000 7.2 190 23:26 03.12.2021
4451 Clouds 2 1005 86 10000 6.31 202 22:46 03.12.2021
4452 Clouds 2 1006 82 10000 7.06 205 21:26 03.12.2021
4453 Clouds 2 1006 82 10000 7.06 205 20:52 03.12.2021
4454 Drizzle 2 1005 80 10000 5.14 190 19:50 03.12.2021
4455 Clouds 2 1005 86 10000 5.14 170 18:34 03.12.2021
4456 Clouds 2 1006 80 10000 5.66 180 17:59 03.12.2021
4457 Clouds 2 1007 75 10000 6.69 190 15:47 03.12.2021
4458 Clouds 2 1009 86 10000 3.6 0 12:54 03.12.2021
4459 Clouds 2 1009 86 10000 4.63 180 11:49 03.12.2021
4460 Clouds 1 1010 86 10000 1.54 170 10:55 03.12.2021
4461 Clouds -1 1010 86 10000 3.6 190 08:26 03.12.2021
4462 Clouds -2 1009 86 10000 3.09 180 07:43 03.12.2021
4463 Clouds -2 1012 93 10000 2.5 197 04:35 03.12.2021
4464 Clouds -1 1010 89 10000 2.2 270 00:48 03.12.2021
4465 Clear -1 1007 93 10000 3.09 260 23:47 02.12.2021
4466 Clouds -1 1007 100 10000 4.12 290 22:24 02.12.2021
4467 Clouds 0 1007 100 10000 4.12 280 21:35 02.12.2021
4468 Clouds 0 1005 100 10000 3.09 300 20:40 02.12.2021
4469 Clouds 1 1004 100 10000 3.09 280 19:57 02.12.2021
4470 Snow 1 1003 100 10000 3.09 310 18:34 02.12.2021
4471 Clouds 2 1001 100 10000 3.6 290 16:33 02.12.2021
4472 Rain 3 1000 87 10000 4.63 290 15:30 02.12.2021
4473 Clouds 3 999 87 10000 1.54 310 14:51 02.12.2021
4474 Clouds 3 998 80 10000 4.12 290 12:53 02.12.2021
4475 Clouds 4 998 75 10000 6.17 280 12:19 02.12.2021
4476 Clouds 3 998 93 10000 3.09 280 10:41 02.12.2021
4477 Clouds 2 997 93 6000 1.03 0 09:25 02.12.2021
4478 Rain 3 998 92 10000 2.33 249 06:45 02.12.2021
4479 Clouds 5 997 85 10000 6.23 278 00:55 02.12.2021
4480 Clouds 5 996 83 10000 6.27 275 23:30 01.12.2021
4481 Clouds 5 995 80 10000 6.64 279 22:25 01.12.2021
4482 Clouds 5 995 80 10000 6.64 279 21:36 01.12.2021
4483 Rain 7 989 76 9000 8.23 240 19:59 01.12.2021
4484 Clouds 7 989 76 9000 8.23 240 19:36 01.12.2021
4485 Clouds 7 989 81 10000 7.72 250 17:50 01.12.2021
4486 Clouds 8 989 93 10000 5.66 280 16:59 01.12.2021
4487 Clouds 8 988 81 10000 8.23 210 15:37 01.12.2021
4488 Clouds 8 988 81 10000 10.29 210 14:24 01.12.2021
4489 Clouds 8 989 81 10000 9.26 200 13:36 01.12.2021
4490 Clouds 7 992 81 10000 8.23 190 10:43 01.12.2021
4491 Clouds 6 993 87 10000 8.75 180 09:59 01.12.2021
4492 Clouds 6 995 87 10000 7.2 190 08:50 01.12.2021
4493 Clouds 6 996 81 10000 8.23 190 07:54 01.12.2021
4494 Clouds 6 998 89 10000 9.26 216 07:19 01.12.2021
4495 Rain 7 1001 93 10000 8.08 215 03:50 01.12.2021
4496 Rain 7 1002 94 6164 7.3 217 02:34 01.12.2021
4497 Clouds 6 1005 97 10000 2.68 187 23:57 30.11.2021
4498 Rain 6 1006 94 10000 2.41 225 23:28 30.11.2021
4499 Clouds 6 1007 92 10000 2.93 260 22:22 30.11.2021
4500 Clouds 6 1005 93 6000 4.63 280 20:46 30.11.2021
4501 Clouds 6 1005 93 6000 4.63 280 20:23 30.11.2021
4502 Clouds 6 1004 93 6000 4.63 300 19:38 30.11.2021
4503 Mist 6 1004 93 4500 8.75 290 18:51 30.11.2021
4504 Rain 6 1003 93 9000 9.77 290 17:21 30.11.2021
4505 Rain 6 1004 85 10000 8.48 294 15:50 30.11.2021
4506 Clouds 7 1001 87 9000 10.29 280 14:29 30.11.2021
4507 Rain 6 1001 93 7000 5.14 250 13:29 30.11.2021
4508 Rain 5 1001 93 6000 4.63 260 12:53 30.11.2021
4509 Rain 5 1001 87 8000 5.14 240 11:52 30.11.2021
4510 Rain 4 1001 93 7000 6.17 240 11:25 30.11.2021
4511 Rain 3 1002 93 6000 4.12 240 10:35 30.11.2021
4512 Clouds 2 1002 93 3600 7.2 230 08:54 30.11.2021
4513 Clouds 2 1002 93 3600 7.2 230 08:31 30.11.2021
4514 Rain 2 1003 93 5000 7.2 220 07:48 30.11.2021
4515 Rain 3 1008 79 10000 7.69 236 04:59 30.11.2021
4516 Clouds 2 1010 94 4000 4.76 224 01:45 30.11.2021
4517 Clouds 1 1011 92 10000 2.74 204 00:33 30.11.2021
4518 Clouds 1 1011 90 10000 2.43 209 23:25 29.11.2021
4519 Clouds 1 1011 90 10000 2.43 209 22:58 29.11.2021
4520 Clouds 1 1011 90 10000 2.43 209 22:34 29.11.2021
4521 Clouds 1 1012 89 10000 2.15 223 21:44 29.11.2021
4522 Clouds 1 1011 88 10000 2.14 248 21:18 29.11.2021
4523 Clouds 2 1009 86 10000 4.12 280 20:41 29.11.2021
4524 Clouds 2 1009 86 10000 3.09 260 19:56 29.11.2021
4525 Clouds 2 1009 86 10000 3.09 260 19:37 29.11.2021
4526 Clouds 2 1009 86 10000 3.6 270 18:52 29.11.2021
4527 Clouds 1 1010 88 10000 2.06 268 18:26 29.11.2021
4528 Clouds 1 1009 87 10000 1.92 273 17:21 29.11.2021
4529 Clouds 1 1009 87 10000 1.92 273 16:32 29.11.2021
4530 Clouds 1 1008 86 10000 2.73 295 15:52 29.11.2021
4531 Clouds 1 1008 81 10000 3.81 309 14:43 29.11.2021
4532 Clouds 2 1007 83 10000 4.4 312 13:36 29.11.2021
4533 Clouds 2 1006 93 10000 3.53 317 12:42 29.11.2021
4534 Rain 1 1005 95 2399 3.93 316 11:41 29.11.2021
4535 Rain 1 1005 96 765 3.3 308 10:58 29.11.2021
4536 Snow 0 1005 96 117 2.62 266 09:50 29.11.2021
4537 Clouds 0 1002 91 10000 2.25 247 06:22 29.11.2021
4538 Snow 0 1001 96 618 2.39 261 03:46 29.11.2021
4539 Clouds 1 1000 82 10000 1.81 261 00:43 29.11.2021
4540 Clouds 1 1000 85 10000 1.61 262 23:44 28.11.2021
4541 Clouds 1 1000 87 10000 1.85 271 23:24 28.11.2021
4542 Clouds 1 1000 90 10000 1.49 266 21:52 28.11.2021
4543 Clouds 1 999 94 10000 1.15 259 21:23 28.11.2021
4544 Clouds 1 997 86 10000 2.06 240 20:35 28.11.2021
4545 Snow 2 997 93 8000 1.54 260 19:28 28.11.2021
4546 Snow 1 997 93 10000 1.03 230 18:35 28.11.2021
4547 Rain 2 996 93 10000 1.54 210 17:56 28.11.2021
4548 Rain 2 996 93 10000 1.54 210 17:32 28.11.2021
4549 Rain 2 996 86 10000 1.54 190 16:44 28.11.2021
4550 Clouds 3 996 87 10000 1.03 0 16:22 28.11.2021
4551 Clouds 3 996 87 10000 1.03 0 15:32 28.11.2021
4552 Clouds 3 996 80 10000 2.57 10 14:48 28.11.2021
4553 Clouds 2 996 80 10000 1.03 0 13:49 28.11.2021
4554 Clouds 3 995 81 10000 2.06 130 12:52 28.11.2021
4555 Clouds 1 996 93 10000 2.06 120 11:18 28.11.2021
4556 Clouds 2 996 93 9000 1.03 0 10:22 28.11.2021
4557 Clouds 1 995 93 10000 1.03 0 09:38 28.11.2021
4558 Clouds 0 995 100 6000 2.57 180 07:59 28.11.2021
4559 Clouds 0 996 93 10000 1.95 186 00:20 28.11.2021
4560 Clouds -2 995 93 10000 2.18 189 21:20 27.11.2021
4561 Clouds 0 993 86 10000 1.54 200 19:47 27.11.2021
4562 Clouds 0 992 93 10000 1.03 0 17:57 27.11.2021
4563 Clouds 4 990 81 10000 1.54 180 15:59 27.11.2021
4564 Clouds 4 990 87 10000 3.6 200 14:26 27.11.2021
4565 Rain 4 989 87 10000 3.09 170 12:58 27.11.2021
4566 Clouds 3 988 93 10000 3.09 180 10:52 27.11.2021
4567 Rain 3 987 93 10000 3.09 190 09:53 27.11.2021
4568 Drizzle 2 987 93 10000 3.09 180 08:44 27.11.2021
4569 Rain 2 988 97 101 3.5 177 06:34 27.11.2021
4570 Clouds 2 988 87 10000 5.91 186 01:59 27.11.2021
4571 Clouds 2 987 87 10000 7.72 170 23:40 26.11.2021
4572 Clouds 2 990 80 10000 6.69 182 22:26 26.11.2021
4573 Clouds 2 990 80 10000 6.68 182 21:41 26.11.2021
4574 Clouds 2 991 80 10000 6.3 186 21:22 26.11.2021
4575 Clouds 2 989 87 10000 6.17 180 20:40 26.11.2021
4576 Clouds 3 990 87 10000 6.17 170 19:55 26.11.2021
4577 Clouds 3 991 87 10000 6.17 170 18:44 26.11.2021
4578 Clouds 3 992 93 10000 4.63 160 17:24 26.11.2021
4579 Clouds 2 993 93 10000 3.6 150 16:29 26.11.2021
4580 Clouds 2 994 93 8000 2.57 160 14:50 26.11.2021
4581 Rain 3 995 93 8000 3.6 180 13:34 26.11.2021
4582 Drizzle 3 998 87 10000 5.14 170 10:44 26.11.2021
4583 Clouds 3 999 81 10000 4.12 180 09:49 26.11.2021
4584 Clouds 3 1000 81 10000 4.63 190 08:50 26.11.2021
4585 Clouds 3 1000 81 10000 3.6 200 08:19 26.11.2021
4586 Clouds 3 1003 91 10000 3.08 190 06:30 26.11.2021
4587 Clouds 3 1005 96 10000 2.99 188 04:52 26.11.2021
4588 Clouds 3 1006 97 10000 2.63 187 03:35 26.11.2021
4589 Clouds 3 1008 95 10000 1.56 219 23:30 25.11.2021
4590 Clouds 4 1008 87 10000 2.57 260 22:25 25.11.2021
4591 Clouds 4 1008 87 10000 3.6 250 20:43 25.11.2021
4592 Clouds 4 1008 81 10000 2.57 270 19:21 25.11.2021
4593 Clouds 4 1008 75 10000 2.57 260 18:25 25.11.2021
4594 Drizzle 4 1008 75 10000 2.57 250 17:27 25.11.2021
4595 Clouds 4 1008 75 10000 2.06 260 16:44 25.11.2021
4596 Clouds 5 1008 75 10000 2.06 330 15:58 25.11.2021
4597 Clouds 5 1009 70 10000 3.09 270 14:30 25.11.2021
4598 Clouds 5 1009 70 10000 3.09 270 12:55 25.11.2021
4599 Clouds 4 1010 75 10000 3.09 240 11:56 25.11.2021
4600 Clouds 4 1010 81 10000 2.06 230 10:43 25.11.2021
4601 Clouds 4 1010 81 10000 2.06 280 08:21 25.11.2021
4602 Clear 2 1013 94 10000 0.55 188 02:58 25.11.2021
4603 Clear 2 1015 93 10000 0.87 165 01:26 25.11.2021
4604 Clear 3 1016 91 10000 0.92 164 22:33 24.11.2021
4605 Clear 3 1017 91 10000 1.24 156 21:48 24.11.2021
4606 Clear 4 1017 90 10000 1.19 153 21:22 24.11.2021
4607 Clouds 5 1017 70 10000 2.57 160 20:27 24.11.2021
4608 Clouds 5 1017 70 10000 2.57 160 20:27 24.11.2021
4609 Clouds 5 1017 70 10000 3.6 140 19:36 24.11.2021
4610 Clouds 5 1018 75 10000 1.03 130 18:19 24.11.2021
4611 Clouds 6 1019 70 10000 1.54 130 16:47 24.11.2021
4612 Clouds 7 1020 75 10000 2.06 150 14:58 24.11.2021
4613 Clouds 7 1021 70 10000 1.03 0 14:22 24.11.2021
4614 Clouds 7 1021 75 10000 3.09 170 13:35 24.11.2021
4615 Clouds 6 1023 87 8000 1.54 110 11:34 24.11.2021
4616 Mist 6 1024 93 4500 1.03 0 10:58 24.11.2021
4617 Mist 6 1024 93 4500 1.03 0 10:36 24.11.2021
4618 Mist 5 1024 100 3000 1.03 150 09:33 24.11.2021
4619 Mist 5 1024 100 3000 0.51 120 07:41 24.11.2021
4620 Clouds 5 1026 92 10000 0.38 40 05:41 24.11.2021
4621 Clouds 5 1027 94 10000 0.69 339 03:44 24.11.2021
4622 Clouds 5 1028 90 10000 0.77 233 23:33 23.11.2021
4623 Clouds 5 1028 91 10000 0.74 229 22:39 23.11.2021
4624 Clouds 5 1029 93 10000 0.59 231 21:45 23.11.2021
4625 Clouds 5 1028 100 8000 1.03 150 20:23 23.11.2021
4626 Clouds 5 1028 100 10000 0.51 0 19:34 23.11.2021
4627 Clouds 5 1028 93 10000 1.03 160 18:34 23.11.2021
4628 Clouds 5 1028 93 10000 0.51 0 17:41 23.11.2021
4629 Clouds 5 1028 93 10000 0.51 0 17:41 23.11.2021
4630 Clouds 5 1028 87 9000 1.03 50 16:37 23.11.2021
4631 Clouds 5 1028 93 10000 1.03 140 15:27 23.11.2021
4632 Clouds 5 1028 93 9000 1.03 130 14:54 23.11.2021
4633 Clouds 4 1028 93 8000 1.54 110 13:29 23.11.2021
4634 Rain 2 1029 100 3000 1.54 120 10:28 23.11.2021
4635 Clouds 2 1029 93 4800 2.06 120 09:48 23.11.2021
4636 Clouds 1 1028 93 10000 1.03 110 08:41 23.11.2021
4637 Clouds 0 1029 83 10000 1.23 231 04:53 23.11.2021
4638 Clouds 0 1029 87 10000 0.85 241 03:35 23.11.2021
4639 Clouds -1 1030 88 10000 0.73 238 23:42 22.11.2021
4640 Clear -1 1030 90 10000 0.73 265 23:20 22.11.2021
4641 Clear -1 1030 90 10000 0.73 265 22:31 22.11.2021
4642 Clear -1 1030 90 10000 0.73 299 21:45 22.11.2021
4643 Clear -1 1029 90 10000 1 333 21:21 22.11.2021
4644 Clear 0 1028 86 10000 2.57 240 20:43 22.11.2021
4645 Clear 0 1027 86 10000 1.03 0 19:24 22.11.2021
4646 Clear 1 1027 80 10000 1.54 270 18:41 22.11.2021
4647 Clear 2 1026 80 10000 1.54 290 18:22 22.11.2021
4648 Clear 3 1026 80 10000 3.09 330 16:45 22.11.2021
4649 Clouds 5 1025 75 10000 4.12 340 15:32 22.11.2021
4650 Clouds 6 1024 75 10000 3.09 20 12:51 22.11.2021
4651 Clouds 5 1024 81 10000 5.14 30 11:39 22.11.2021
4652 Clouds 6 1023 87 10000 2.06 360 10:27 22.11.2021
4653 Drizzle 5 1021 93 10000 4.12 350 08:44 22.11.2021
4654 Clouds 4 1021 93 9000 3.09 350 08:24 22.11.2021
4655 Clouds 4 1018 95 10000 1.86 350 01:40 22.11.2021
4656 Clouds 4 1015 94 10000 1 301 23:21 21.11.2021
4657 Clouds 4 1015 94 10000 1 301 22:43 21.11.2021
4658 Clouds 5 1014 94 10000 1.02 281 21:22 21.11.2021
4659 Clouds 5 1013 93 10000 2.06 340 20:36 21.11.2021
4660 Clouds 6 1012 87 10000 2.06 310 19:35 21.11.2021
4661 Clouds 7 1011 93 10000 4.63 300 17:57 21.11.2021
4662 Clouds 7 1011 93 10000 4.63 300 17:36 21.11.2021
4663 Clouds 8 1010 93 8000 4.12 320 14:56 21.11.2021
4664 Rain 8 1010 93 8000 4.12 320 14:38 21.11.2021
4665 Clouds 8 1010 93 9000 2.57 260 12:59 21.11.2021
4666 Clouds 8 1010 93 10000 3.09 230 12:25 21.11.2021
4667 Clouds 7 1010 87 9000 3.09 240 11:37 21.11.2021
4668 Clouds 7 1010 87 10000 3.6 220 10:19 21.11.2021
4669 Clouds 7 1010 87 9000 4.12 220 09:47 21.11.2021
4670 Clouds 7 1010 93 9000 4.12 210 08:33 21.11.2021
4671 Clouds 7 1010 93 9000 3.09 200 07:53 21.11.2021
4672 Clouds 7 1011 90 10000 3.11 215 06:37 21.11.2021
4673 Clouds 7 1011 89 10000 2.93 210 05:42 21.11.2021
4674 Clouds 8 1013 90 10000 2.79 204 03:26 21.11.2021
4675 Clouds 8 1013 90 10000 2.79 204 02:56 21.11.2021
4676 Clouds 7 1014 91 10000 2.82 203 02:18 21.11.2021
4677 Clouds 8 1015 92 10000 2.63 198 00:43 21.11.2021
4678 Clouds 8 1017 95 10000 2.43 203 22:35 20.11.2021
4679 Clouds 8 1017 95 10000 2.36 201 21:33 20.11.2021
4680 Clouds 9 1017 81 10000 3.09 200 20:32 20.11.2021
4681 Clouds 9 1019 81 10000 4.12 220 18:45 20.11.2021
4682 Clouds 9 1019 76 10000 4.12 210 18:24 20.11.2021
4683 Clouds 10 1020 76 10000 3.6 220 17:22 20.11.2021
4684 Clouds 10 1021 71 10000 3.6 230 15:23 20.11.2021
4685 Clouds 11 1022 71 10000 4.12 240 14:39 20.11.2021
4686 Clouds 11 1022 71 10000 3.6 240 14:20 20.11.2021
4687 Clouds 11 1025 71 10000 3.6 270 11:56 20.11.2021
4688 Clouds 11 1025 71 10000 3.6 270 11:56 20.11.2021
4689 Clouds 10 1026 71 10000 3.09 260 09:58 20.11.2021
4690 Clouds 10 1026 71 10000 3.09 270 08:44 20.11.2021
4691 Clouds 9 1027 80 10000 3.08 262 06:50 20.11.2021
4692 Clouds 10 1027 80 10000 3.26 272 05:18 20.11.2021
4693 Clouds 9 1027 80 10000 3.26 272 04:49 20.11.2021
4694 Clouds 10 1029 94 10000 2.21 228 00:43 20.11.2021
4695 Clouds 10 1029 95 10000 2.33 229 00:18 20.11.2021
4696 Clouds 10 1029 94 10000 2.21 236 22:54 19.11.2021
4697 Clouds 10 1029 94 10000 2.29 238 21:36 19.11.2021
4698 Clouds 10 1029 93 10000 2.44 242 20:48 19.11.2021
4699 Clouds 10 1028 92 10000 2.61 251 20:29 19.11.2021
4700 Clouds 11 1027 76 10000 4.63 270 19:47 19.11.2021
4701 Clouds 10 1027 76 10000 3.09 270 18:49 19.11.2021
4702 Clouds 10 1027 81 10000 3.6 280 17:45 19.11.2021
4703 Clouds 10 1028 76 10000 4.63 290 16:43 19.11.2021
4704 Clouds 10 1028 76 10000 4.63 290 16:43 19.11.2021
4705 Clouds 11 1027 82 10000 4.63 290 15:22 19.11.2021
4706 Clouds 10 1028 87 10000 3.09 220 11:54 19.11.2021
4707 Clouds 10 1028 82 10000 3.6 250 10:25 19.11.2021
4708 Clouds 9 1027 87 10000 4.63 230 08:39 19.11.2021
4709 Clouds 9 1028 92 10000 3.34 214 06:29 19.11.2021
4710 Clouds 9 1028 91 10000 3.35 218 04:22 19.11.2021
4711 Clouds 8 1028 88 10000 3.41 228 23:59 18.11.2021
4712 Clouds 8 1028 88 10000 3.39 227 23:41 18.11.2021
4713 Clouds 8 1027 81 10000 4.12 230 21:41 18.11.2021
4714 Clouds 8 1027 81 10000 4.63 230 20:46 18.11.2021
4715 Clouds 8 1027 76 10000 5.14 220 20:28 18.11.2021
4716 Clouds 8 1027 76 10000 5.14 210 19:43 18.11.2021
4717 Clouds 9 1027 76 10000 5.14 210 18:40 18.11.2021
4718 Clear 8 1027 76 10000 4.12 210 17:54 18.11.2021
4719 Clear 8 1027 76 10000 4.12 210 17:35 18.11.2021
4720 Clouds 8 1026 76 10000 4.12 220 16:43 18.11.2021
4721 Clouds 9 1026 71 10000 5.14 230 15:23 18.11.2021
4722 Clouds 9 1026 71 10000 5.14 230 15:23 18.11.2021
4723 Clouds 9 1027 76 10000 5.66 220 13:21 18.11.2021
4724 Clouds 9 1027 81 10000 6.17 220 11:45 18.11.2021
4725 Clouds 9 1027 81 10000 5.66 210 11:26 18.11.2021
4726 Clouds 8 1027 81 10000 5.66 210 10:55 18.11.2021
4727 Clouds 7 1027 81 10000 5.14 200 09:28 18.11.2021
4728 Clouds 7 1026 87 10000 4.63 220 07:31 18.11.2021
4729 Clouds 5 1027 95 10000 2.28 219 05:47 18.11.2021
4730 Clouds 6 1026 94 10000 2.48 233 02:35 18.11.2021
4731 Clouds 6 1026 93 10000 2.33 240 01:21 18.11.2021
4732 Clouds 6 1025 81 10000 3.73 269 22:41 17.11.2021
4733 Clouds 6 1025 84 10000 3.7 274 22:20 17.11.2021
4734 Clouds 6 1025 84 10000 3.71 274 21:36 17.11.2021
4735 Clear 6 1023 93 10000 2.57 240 20:18 17.11.2021
4736 Clouds 6 1021 93 10000 2.06 220 17:44 17.11.2021
4737 Clouds 6 1020 93 10000 4.63 200 16:59 17.11.2021
4738 Clouds 7 1020 87 10000 4.63 180 13:59 17.11.2021
4739 Clouds 6 1020 81 10000 4.12 190 12:39 17.11.2021
4740 Clouds 6 1020 87 10000 4.12 210 11:37 17.11.2021
4741 Clouds 6 1019 87 10000 3.09 170 10:28 17.11.2021
4742 Clouds 5 1020 93 10000 3.09 240 09:23 17.11.2021
4743 Clouds 4 1019 87 10000 2.57 240 07:41 17.11.2021
4744 Clouds 4 1020 93 10000 1.39 210 03:31 17.11.2021
4745 Clouds 5 1020 93 10000 0.73 240 00:46 17.11.2021
4746 Clouds 5 1021 93 10000 0.74 238 22:41 16.11.2021
4747 Clouds 5 1020 93 8000 2.06 250 20:20 16.11.2021
4748 Clouds 5 1020 93 7000 2.06 210 19:57 16.11.2021
4749 Clouds 5 1020 93 7000 1.54 180 18:53 16.11.2021
4750 Clouds 5 1020 93 8000 3.09 200 18:29 16.11.2021
4751 Clouds 5 1020 87 8000 3.6 210 17:31 16.11.2021
4752 Clouds 5 1020 93 9000 1.54 200 16:31 16.11.2021
4753 Clouds 5 1020 93 9000 1.54 160 15:48 16.11.2021
4754 Clouds 5 1021 93 8000 1.03 0 14:31 16.11.2021
4755 Mist 4 1023 100 5000 1.54 290 11:22 16.11.2021
4756 Clouds 4 1023 100 6000 1.54 160 09:45 16.11.2021
4757 Clouds 4 1023 100 6000 1.03 0 08:25 16.11.2021
4758 Clouds 4 1023 95 10000 0.18 163 07:31 16.11.2021
4759 Clear 5 1024 94 10000 1.39 37 01:20 16.11.2021
4760 Clear 5 1025 94 10000 1.54 37 22:52 15.11.2021
4761 Clouds 5 1024 93 6000 3.6 90 22:21 15.11.2021
4762 Clouds 5 1024 93 6000 4.12 90 21:52 15.11.2021
4763 Clouds 5 1024 93 7000 4.12 90 21:26 15.11.2021
4764 Clouds 5 1024 93 8000 4.63 110 19:41 15.11.2021
4765 Clouds 6 1024 87 9000 4.12 80 18:18 15.11.2021
4766 Clouds 6 1024 87 9000 4.12 70 16:19 15.11.2021
4767 Clouds 6 1024 87 10000 4.63 80 15:40 15.11.2021
4768 Clouds 6 1024 87 10000 4.12 80 15:21 15.11.2021
4769 Clouds 6 1025 87 10000 6.17 80 13:22 15.11.2021
4770 Clouds 6 1026 87 9000 3.09 90 10:57 15.11.2021
4771 Clouds 6 1026 87 10000 3.09 80 09:27 15.11.2021
4772 Clouds 6 1025 87 10000 5.14 70 07:45 15.11.2021
4773 Clouds 6 1026 82 10000 2.68 85 05:19 15.11.2021
4774 Clear 7 1027 96 10000 1.83 45 23:37 14.11.2021
4775 Clear 7 1027 95 10000 1.65 41 22:35 14.11.2021
4776 Clouds 8 1025 93 10000 3.09 60 19:53 14.11.2021
4777 Clouds 8 1025 93 10000 2.57 40 19:18 14.11.2021
4778 Clouds 8 1025 87 10000 1.54 50 18:54 14.11.2021
4779 Clouds 8 1025 87 10000 1.54 50 18:36 14.11.2021
4780 Clouds 8 1025 87 10000 2.57 40 18:18 14.11.2021
4781 Clouds 9 1025 81 10000 2.57 60 17:55 14.11.2021
4782 Clouds 9 1025 81 10000 2.57 60 17:37 14.11.2021
4783 Clouds 9 1024 81 10000 3.6 80 17:19 14.11.2021
4784 Clouds 9 1024 81 10000 2.57 70 16:46 14.11.2021
4785 Clouds 9 1024 87 10000 3.09 80 16:20 14.11.2021
4786 Clouds 9 1023 87 10000 2.57 70 15:23 14.11.2021
4787 Clouds 9 1023 87 10000 3.09 90 14:49 14.11.2021
4788 Clouds 9 1023 87 10000 3.6 100 14:28 14.11.2021
4789 Clouds 9 1023 81 10000 3.6 100 13:54 14.11.2021
4790 Clouds 9 1023 81 10000 3.6 100 13:35 14.11.2021
4791 Clouds 9 1022 87 9000 3.6 90 12:27 14.11.2021
4792 Clouds 9 1022 87 9000 2.06 90 11:41 14.11.2021
4793 Clouds 8 1022 93 9000 1.03 0 10:41 14.11.2021
4794 Clouds 7 1021 100 8000 1.03 60 09:48 14.11.2021
4795 Clouds 6 1021 100 8000 1.54 70 08:54 14.11.2021
4796 Clouds 6 1020 94 10000 1.12 54 07:19 14.11.2021
4797 Clouds 6 1017 95 10000 0.24 56 23:47 13.11.2021
4798 Clouds 6 1017 94 10000 1.86 173 22:25 13.11.2021
4799 Clouds 6 1017 94 10000 1.85 173 21:56 13.11.2021
4800 Clouds 6 1017 94 10000 1.68 187 21:22 13.11.2021
4801 Clouds 6 1015 100 7000 1.54 140 19:38 13.11.2021
4802 Clouds 6 1014 100 8000 2.06 180 18:33 13.11.2021
4803 Clouds 6 1014 100 8000 2.06 180 18:33 13.11.2021
4804 Clouds 6 1014 93 8000 1.54 130 17:55 13.11.2021
4805 Clouds 6 1014 93 8000 1.54 130 16:37 13.11.2021
4806 Clouds 7 1013 87 8000 4.12 210 15:20 13.11.2021
4807 Clouds 6 1013 93 10000 1.54 190 14:20 13.11.2021
4808 Clouds 6 1013 93 10000 3.09 150 13:18 13.11.2021
4809 Clouds 6 1013 87 10000 3.6 130 12:22 13.11.2021
4810 Clouds 5 1013 93 10000 2.57 140 11:34 13.11.2021
4811 Clouds 5 1013 93 10000 3.6 190 10:44 13.11.2021
4812 Clouds 4 1013 93 9000 3.6 170 09:56 13.11.2021
4813 Clouds 4 1013 93 9000 3.6 170 09:34 13.11.2021
4814 Rain 4 1013 93 8000 3.6 140 08:56 13.11.2021
4815 Rain 4 1013 93 8000 3.09 180 08:22 13.11.2021
4816 Clouds 3 1014 64 10000 3.39 175 04:44 13.11.2021
4817 Clouds 3 1014 69 10000 3.19 177 04:25 13.11.2021
4818 Clouds 3 1015 64 10000 3.03 178 01:30 13.11.2021
4819 Clouds 3 1016 64 10000 2.74 180 22:46 12.11.2021
4820 Clouds 3 1016 64 10000 2.86 173 21:45 12.11.2021
4821 Clouds 3 1015 93 7000 1.54 130 19:46 12.11.2021
4822 Clouds 3 1015 100 8000 1.54 150 19:27 12.11.2021
4823 Mist 3 1016 100 5000 3.09 160 18:28 12.11.2021
4824 Mist 4 1015 93 4500 4.63 140 16:23 12.11.2021
4825 Mist 4 1016 93 4000 5.14 140 15:32 12.11.2021
4826 Mist 3 1018 100 1200 5.66 150 11:33 12.11.2021
4827 Fog 3 1019 100 400 5.66 150 10:50 12.11.2021
4828 Fog 3 1020 100 400 4.63 160 09:36 12.11.2021
4829 Fog 2 1020 100 400 3.6 150 08:38 12.11.2021
4830 Clouds 3 1023 73 10000 0.95 141 02:25 12.11.2021
4831 Clouds 3 1024 68 10000 1.14 156 23:39 11.11.2021
4832 Clouds 3 1025 65 10000 0.98 152 22:30 11.11.2021
4833 Mist 4 1024 100 1300 0.51 0 21:27 11.11.2021
4834 Mist 4 1024 100 1600 1.03 0 20:38 11.11.2021
4835 Drizzle 3 1024 100 4000 1.03 160 18:56 11.11.2021
4836 Mist 3 1024 100 3000 2.57 170 17:43 11.11.2021
4837 Mist 3 1024 100 1500 1.03 0 16:40 11.11.2021
4838 Mist 5 1024 93 2000 1.54 80 14:45 11.11.2021
4839 Mist 5 1024 100 2400 1.54 200 14:26 11.11.2021
4840 Mist 5 1024 93 2800 1.03 0 13:37 11.11.2021
4841 Mist 5 1024 93 2800 1.03 0 13:37 11.11.2021
4842 Mist 3 1024 100 5000 1.03 0 12:48 11.11.2021
4843 Mist 0 1024 100 5000 1.54 180 10:36 11.11.2021
4844 Fog 0 1024 100 200 0.51 0 09:33 11.11.2021
4845 Fog 0 1024 100 200 1.03 160 07:38 11.11.2021
4846 Clouds 1 1024 84 10000 0.45 185 02:36 11.11.2021
4847 Clouds 2 1025 82 10000 0.35 246 22:59 10.11.2021
4848 Clouds 3 1026 81 10000 1.32 207 22:22 10.11.2021
4849 Clear 3 1024 93 10000 1.54 200 21:18 10.11.2021
4850 Clear 3 1024 87 10000 1.03 0 20:45 10.11.2021
4851 Clear 4 1024 87 10000 1.03 0 19:46 10.11.2021
4852 Clear 6 1024 81 10000 0.51 0 17:50 10.11.2021
4853 Clear 7 1023 81 10000 1.03 110 16:33 10.11.2021
4854 Clouds 8 1024 81 10000 1.54 110 14:44 10.11.2021
4855 Clouds 9 1024 76 10000 1.54 110 13:41 10.11.2021
4856 Clear 8 1024 87 10000 1.03 0 12:47 10.11.2021
4857 Fog 5 1025 87 10000 2.06 100 10:39 10.11.2021
4858 Fog 0 1025 100 10000 0.51 0 08:45 10.11.2021
4859 Clouds 0 1025 86 10000 1.33 152 07:32 10.11.2021
4860 Fog 0 1024 100 10000 1.03 0 07:32 10.11.2021
4861 Clouds 3 1026 88 10000 1.89 182 06:26 10.11.2021
4862 Clouds 0 1026 88 10000 1.89 182 05:51 10.11.2021
4863 Clouds 2 1028 88 10000 1.32 174 23:52 09.11.2021
4864 Clouds 3 1028 85 10000 1.68 167 21:47 09.11.2021
4865 Clear 5 1026 81 10000 1.03 110 20:31 09.11.2021
4866 Clear 5 1027 81 10000 2.06 150 19:21 09.11.2021
4867 Clear 8 1027 61 10000 2.57 170 17:31 09.11.2021
4868 Clear 11 1027 54 10000 5.14 170 15:45 09.11.2021
4869 Clouds 12 1028 61 10000 2.65 179 14:29 09.11.2021
4870 Clouds 12 1028 62 10000 3.6 190 12:53 09.11.2021
4871 Clear 11 1028 66 10000 3.09 210 11:38 09.11.2021
4872 Clear 10 1028 81 10000 3.09 150 10:44 09.11.2021
4873 Clouds 7 1028 87 10000 2.06 130 09:24 09.11.2021
4874 Clouds 6 1027 93 9000 1.54 140 08:25 09.11.2021
4875 Clouds 7 1027 89 10000 1.65 180 05:47 09.11.2021
4876 Clouds 8 1026 84 10000 1.37 193 02:22 09.11.2021
4877 Clouds 7 1026 84 10000 1.37 193 01:43 09.11.2021
4878 Clouds 8 1026 83 10000 1.28 216 23:58 08.11.2021
4879 Clouds 8 1026 84 10000 0.97 221 22:49 08.11.2021
4880 Clouds 8 1025 87 10000 0.96 230 21:55 08.11.2021
4881 Clouds 8 1025 87 10000 1.24 246 20:53 08.11.2021
4882 Clouds 8 1023 81 10000 1.03 0 19:49 08.11.2021
4883 Clouds 9 1023 76 10000 2.57 240 18:25 08.11.2021
4884 Clouds 10 1022 66 10000 2.06 270 16:21 08.11.2021
4885 Clouds 10 1021 71 10000 4.12 300 14:58 08.11.2021
4886 Clouds 10 1021 71 10000 4.12 300 14:38 08.11.2021
4887 Clouds 10 1022 76 10000 3.09 270 13:31 08.11.2021
4888 Clouds 9 1022 81 10000 3.09 250 11:56 08.11.2021
4889 Clouds 9 1021 81 10000 2.57 240 10:50 08.11.2021
4890 Clouds 8 1021 87 10000 3.09 260 09:39 08.11.2021
4891 Clouds 7 1020 87 10000 3.6 250 08:53 08.11.2021
4892 Clouds 7 1021 94 10000 1.98 215 07:29 08.11.2021
4893 Clouds 7 1019 90 10000 2.57 250 03:48 08.11.2021
4894 Clouds 7 1019 91 10000 2.46 249 03:26 08.11.2021
4895 Clouds 7 1017 81 10000 4.12 260 23:46 07.11.2021
4896 Clouds 7 1016 87 10000 4.63 260 21:48 07.11.2021
4897 Clouds 7 1015 87 10000 3.09 240 20:54 07.11.2021
4898 Clouds 7 1015 87 7000 4.12 310 19:30 07.11.2021
4899 Clouds 8 1014 81 10000 5.14 260 18:22 07.11.2021
4900 Rain 8 1014 93 10000 7.2 290 16:50 07.11.2021
4901 Clouds 10 1013 66 10000 6.17 260 15:47 07.11.2021
4902 Clouds 11 1013 71 10000 6.17 260 14:28 07.11.2021
4903 Clouds 9 1014 87 9000 4.12 230 12:58 07.11.2021
4904 Rain 9 1014 87 10000 2.57 230 11:42 07.11.2021
4905 Rain 8 1013 93 7000 6.17 220 09:49 07.11.2021
4906 Clouds 7 1015 86 10000 7.66 223 07:20 07.11.2021
4907 Clouds 8 1018 77 10000 6.97 214 02:34 07.11.2021
4908 Clouds 8 1022 74 10000 5.95 206 23:22 06.11.2021
4909 Clouds 8 1022 74 10000 5.95 206 22:42 06.11.2021
4910 Clouds 8 1022 74 10000 5.8 201 21:32 06.11.2021
4911 Clouds 8 1023 76 10000 5.14 205 20:50 06.11.2021
4912 Clouds 8 1024 87 10000 2.57 210 18:56 06.11.2021
4913 Clouds 9 1025 76 10000 6.17 200 16:44 06.11.2021
4914 Clouds 11 1025 66 10000 5.14 200 14:37 06.11.2021
4915 Clouds 11 1026 66 10000 5.66 220 13:38 06.11.2021
4916 Clouds 11 1026 66 10000 5.66 220 13:38 06.11.2021
4917 Clouds 9 1027 76 10000 4.63 210 11:25 06.11.2021
4918 Clear 6 1028 87 10000 4.12 150 09:22 06.11.2021
4919 Clouds 6 1028 96 10000 2.36 213 04:56 06.11.2021
4920 Clouds 7 1028 95 10000 1.73 227 01:27 06.11.2021
4921 Clouds 7 1026 93 10000 2.57 240 23:34 05.11.2021
4922 Clouds 7 1026 87 10000 2.06 240 22:33 05.11.2021
4923 Clouds 7 1026 87 10000 2.06 240 22:33 05.11.2021
4924 Clouds 7 1025 87 10000 2.57 220 20:50 05.11.2021
4925 Clouds 7 1025 87 10000 2.57 240 20:19 05.11.2021
4926 Clouds 8 1025 87 10000 3.09 250 19:32 05.11.2021
4927 Clouds 8 1024 87 10000 2.57 240 18:38 05.11.2021
4928 Clouds 9 1023 87 10000 3.6 300 17:25 05.11.2021
4929 Clouds 10 1022 81 10000 4.63 300 14:54 05.11.2021
4930 Clouds 10 1021 81 10000 6.17 290 13:35 05.11.2021
4931 Clouds 8 1019 87 7000 3.6 270 10:29 05.11.2021
4932 Mist 7 1018 93 5000 2.57 290 08:39 05.11.2021
4933 Mist 7 1016 93 5000 4.12 280 07:21 05.11.2021
4934 Clouds 7 1016 93 10000 1.81 246 04:43 05.11.2021
4935 Clouds 7 1014 91 10000 3.19 261 02:24 05.11.2021
4936 Clouds 7 1013 90 10000 4.5 263 00:30 05.11.2021
4937 Clouds 7 1012 91 10000 4.65 269 22:59 04.11.2021
4938 Clouds 7 1010 93 8000 4.12 270 22:18 04.11.2021
4939 Clouds 7 1009 93 7000 3.6 270 21:30 04.11.2021
4940 Clouds 7 1008 93 10000 4.12 270 20:30 04.11.2021
4941 Clouds 7 1008 93 10000 4.12 270 20:30 04.11.2021
4942 Clouds 7 1008 93 9000 4.12 280 19:50 04.11.2021
4943 Drizzle 7 1007 93 9000 5.14 290 19:28 04.11.2021
4944 Clouds 7 1007 93 10000 4.63 280 18:42 04.11.2021
4945 Clouds 7 1005 93 10000 5.66 280 17:28 04.11.2021
4946 Clouds 7 1005 93 10000 6.69 290 16:23 04.11.2021
4947 Drizzle 7 1003 93 10000 8.23 280 14:19 04.11.2021
4948 Drizzle 8 1001 93 5000 6.17 290 10:52 04.11.2021
4949 Mist 7 1001 100 2000 5.14 300 08:58 04.11.2021
4950 Mist 7 1000 100 3000 5.14 310 08:28 04.11.2021
4951 Mist 7 1000 100 5000 3.6 300 07:33 04.11.2021
4952 Clouds 8 1001 93 6000 1.54 80 23:43 03.11.2021
4953 Clouds 8 1002 95 10000 0.98 160 22:49 03.11.2021
4954 Rain 8 1002 95 10000 1.08 116 21:45 03.11.2021
4955 Rain 8 1001 93 7000 2.06 100 20:45 03.11.2021
4956 Rain 8 1001 93 10000 2.06 110 20:27 03.11.2021
4957 Rain 8 1001 93 10000 2.57 100 19:38 03.11.2021
4958 Rain 8 1000 93 9000 3.09 100 18:33 03.11.2021
4959 Rain 8 1000 93 10000 3.6 110 17:56 03.11.2021
4960 Clouds 8 1000 100 8000 3.6 110 16:49 03.11.2021
4961 Rain 8 1000 93 10000 3.6 100 15:51 03.11.2021
4962 Rain 8 1000 93 10000 4.12 100 15:30 03.11.2021
4963 Rain 8 1000 93 10000 4.12 100 15:30 03.11.2021
4964 Rain 8 1000 93 7000 3.6 80 13:43 03.11.2021
4965 Rain 8 1001 87 10000 3.09 100 11:38 03.11.2021
4966 Fog 8 1001 93 10000 2.06 110 10:51 03.11.2021
4967 Fog 7 1001 100 8000 1.03 0 09:48 03.11.2021
4968 Clouds 6 1001 100 8000 0.51 0 08:58 03.11.2021
4969 Clouds 6 1001 100 8000 1.03 0 07:59 03.11.2021
4970 Clouds 6 1001 100 8000 1.03 0 07:35 03.11.2021
4971 Clouds 6 1002 97 10000 1.18 159 04:23 03.11.2021
4972 Clouds 7 1003 97 10000 2.54 193 00:58 03.11.2021
4973 Clouds 8 1003 91 10000 3.22 203 23:24 02.11.2021
4974 Clouds 7 1003 91 10000 2.56 188 21:59 02.11.2021
4975 Rain 8 1001 93 10000 2.06 140 20:43 02.11.2021
4976 Rain 8 1001 93 10000 2.06 140 20:21 02.11.2021
4977 Rain 8 1000 81 10000 3.6 190 19:31 02.11.2021
4978 Rain 8 1000 81 10000 3.6 190 19:31 02.11.2021
4979 Rain 8 1000 81 10000 3.09 190 18:36 02.11.2021
4980 Rain 8 1000 76 10000 2.06 150 17:46 02.11.2021
4981 Clouds 9 1000 71 10000 2.06 170 17:25 02.11.2021
4982 Clouds 10 1000 66 10000 3.6 190 16:19 02.11.2021
4983 Clouds 11 1000 66 10000 4.12 210 14:57 02.11.2021
4984 Clouds 11 1000 71 10000 3.6 210 13:31 02.11.2021
4985 Clouds 11 1000 76 10000 3.09 220 12:59 02.11.2021
4986 Clouds 10 1000 71 10000 3.09 220 12:18 02.11.2021
4987 Clouds 10 1000 81 10000 3.6 210 11:26 02.11.2021
4988 Clouds 9 1000 87 10000 3.6 200 10:38 02.11.2021
4989 Clouds 9 1000 87 10000 2.06 160 10:18 02.11.2021
4990 Clouds 7 1000 100 10000 2.06 100 07:47 02.11.2021
4991 Clouds 6 1001 97 10000 2.08 187 05:55 02.11.2021
4992 Clear 6 1001 97 10000 2.13 185 03:27 02.11.2021
4993 Clouds 7 1002 95 10000 2.12 194 00:19 02.11.2021
4994 Clouds 8 1003 94 10000 2.76 194 21:57 01.11.2021
4995 Clear 9 1002 87 10000 3.09 170 20:45 01.11.2021
4996 Clear 9 1002 87 10000 3.09 170 20:19 01.11.2021
4997 Clear 9 1002 81 10000 3.09 160 19:41 01.11.2021
4998 Clouds 11 1001 81 10000 3.6 180 18:34 01.11.2021
4999 Clouds 11 1001 81 10000 4.12 170 17:49 01.11.2021
5000 Clouds 12 1002 81 10000 2.73 183 16:57 01.11.2021
5001 Clouds 13 1001 71 10000 4.63 150 16:23 01.11.2021
5002 Clouds 13 1001 66 10000 4.12 170 15:29 01.11.2021
5003 Clouds 13 1001 62 10000 4.63 180 14:47 01.11.2021
5004 Clouds 13 1001 62 10000 4.63 200 14:25 01.11.2021
5005 Clouds 13 1001 62 10000 4.63 210 13:50 01.11.2021
5006 Clouds 13 1001 66 10000 5.14 200 12:36 01.11.2021
5007 Clouds 12 1002 71 10000 5.66 200 11:30 01.11.2021
5008 Clouds 11 1002 82 10000 4.63 160 10:19 01.11.2021
5009 Rain 10 1001 81 10000 4.63 170 08:18 01.11.2021
5010 Rain 10 1001 81 10000 4.12 190 07:46 01.11.2021
5011 Rain 12 1001 87 10000 3.4 230 03:49 01.11.2021
5012 Clouds 13 1000 93 10000 4.69 232 01:44 01.11.2021
5013 Clouds 13 1000 63 10000 4.35 184 22:48 31.10.2021
5014 Clouds 14 1001 54 10000 5.97 174 20:50 31.10.2021
5015 Clear 16 1001 67 10000 6.69 140 19:22 31.10.2021
5016 Clear 15 1001 77 10000 6.69 140 18:41 31.10.2021
5017 Clouds 16 1002 72 10000 6.17 160 17:52 31.10.2021
5018 Clouds 18 1004 72 10000 5.14 160 15:51 31.10.2021
5019 Clouds 17 1005 82 10000 4.12 140 14:24 31.10.2021
5020 Clouds 16 1006 82 10000 5.14 140 12:50 31.10.2021
5021 Clouds 14 1007 94 10000 3.6 140 11:41 31.10.2021
5022 Clouds 15 1007 82 10000 3.6 150 10:44 31.10.2021
5023 Clouds 13 1008 87 10000 2.06 160 09:22 31.10.2021
5024 Clouds 12 1009 93 10000 3.6 190 08:29 31.10.2021
5025 Clouds 11 1009 87 10000 4.82 203 01:57 31.10.2021
5026 Clouds 10 1008 83 10000 5.44 198 22:47 30.10.2021
5027 Clouds 10 1007 82 10000 5.56 199 21:35 30.10.2021
5028 Clouds 10 1007 77 10000 5.85 197 20:50 30.10.2021
5029 Clouds 10 1005 76 10000 4.12 160 18:48 30.10.2021
5030 Clear 11 1005 71 10000 4.12 150 17:25 30.10.2021
5031 Clear 11 1004 66 10000 3.09 150 15:21 30.10.2021
5032 Rain 12 1006 62 10000 1.03 0 13:40 30.10.2021
5033 Clear 11 1006 71 10000 1.03 0 13:21 30.10.2021
5034 Clear 11 1006 66 10000 4.12 120 12:51 30.10.2021
5035 Clear 10 1006 81 10000 6.17 130 11:44 30.10.2021
5036 Clear 10 1007 76 10000 3.6 120 10:32 30.10.2021
5037 Clear 7 1008 87 10000 4.12 80 08:53 30.10.2021
5038 Clouds 7 1010 73 10000 2.24 151 07:25 30.10.2021
5039 Clear 8 1009 76 10000 4.63 150 05:39 30.10.2021
5040 Clouds 7 1012 70 10000 2.79 176 00:56 30.10.2021
5041 Clouds 8 1012 70 10000 2.71 176 22:50 29.10.2021
5042 Clear 9 1010 81 10000 1.03 0 22:30 29.10.2021
5043 Clear 10 1009 76 10000 4.12 160 20:46 29.10.2021
5044 Clear 10 1009 76 10000 4.12 160 20:18 29.10.2021
5045 Clear 12 1009 76 10000 5.66 150 18:33 29.10.2021
5046 Clear 14 1010 67 10000 4.12 140 16:54 29.10.2021
5047 Clear 13 1011 71 10000 4.12 140 14:38 29.10.2021
5048 Clouds 10 1013 87 9000 4.12 140 11:56 29.10.2021
5049 Clouds 8 1013 93 7000 4.12 140 10:44 29.10.2021
5050 Mist 7 1013 93 4500 3.6 150 08:41 29.10.2021
5051 Clouds 8 1016 91 10000 2.85 171 00:37 29.10.2021
5052 Clear 8 1017 90 10000 2.94 172 23:25 28.10.2021
5053 Clear 8 1017 88 10000 2.91 168 22:18 28.10.2021
5054 Clouds 8 1017 93 10000 2.57 190 20:54 28.10.2021
5055 Clear 9 1016 87 10000 3.6 180 19:51 28.10.2021
5056 Clear 11 1016 76 10000 3.6 180 18:26 28.10.2021
5057 Clear 13 1017 67 10000 4.12 160 17:18 28.10.2021
5058 Clear 16 1017 63 10000 5.66 140 15:48 28.10.2021
5059 Clear 15 1019 62 10000 5.66 140 14:23 28.10.2021
5060 Clear 15 1019 67 10000 4.63 140 13:24 28.10.2021
5061 Clear 14 1019 71 10000 4.63 140 12:41 28.10.2021
5062 Fog 10 1020 93 10000 2.57 150 10:57 28.10.2021
5063 Fog 10 1020 93 10000 3.6 150 09:39 28.10.2021
5064 Fog 6 1020 100 10000 3.6 150 09:20 28.10.2021
5065 Fog 6 1021 93 10000 2.06 150 08:35 28.10.2021
5066 Clear 6 1021 93 10000 1.03 0 07:40 28.10.2021
5067 Clouds 9 1024 94 10000 2.31 174 00:21 28.10.2021
5068 Clear 10 1023 93 10000 1.54 190 22:31 27.10.2021
5069 Clear 10 1023 87 10000 1.54 130 21:34 27.10.2021
5070 Clear 10 1023 93 10000 2.57 160 20:53 27.10.2021
5071 Clear 11 1023 93 10000 2.57 160 20:33 27.10.2021
5072 Clear 12 1023 87 10000 3.09 160 19:41 27.10.2021
5073 Clouds 13 1023 82 10000 3.6 160 18:53 27.10.2021
5074 Clouds 14 1023 72 10000 3.09 200 16:32 27.10.2021
5075 Clouds 15 1024 72 10000 4.63 200 15:34 27.10.2021
5076 Clouds 15 1024 77 10000 3.6 200 14:42 27.10.2021
5077 Clouds 13 1025 82 10000 4.63 200 12:33 27.10.2021
5078 Clouds 11 1024 87 10000 3.09 170 10:58 27.10.2021
5079 Clouds 11 1024 87 10000 3.6 160 09:51 27.10.2021
5080 Clouds 10 1023 93 10000 4.63 160 08:47 27.10.2021
5081 Clouds 10 1023 87 10000 2.57 160 07:32 27.10.2021
5082 Clouds 8 1024 94 10000 2.84 191 02:39 27.10.2021
5083 Clouds 9 1024 94 10000 3.06 202 00:57 27.10.2021
5084 Clouds 9 1024 94 10000 3.06 202 00:30 27.10.2021
5085 Clouds 9 1024 93 10000 3.01 201 23:43 26.10.2021
5086 Clouds 9 1024 91 10000 3.08 199 22:39 26.10.2021
5087 Clouds 9 1024 89 10000 2.82 201 21:59 26.10.2021
5088 Clouds 11 1022 76 10000 3.09 220 20:51 26.10.2021
5089 Clouds 12 1022 76 10000 2.57 190 19:32 26.10.2021
5090 Clouds 12 1021 76 10000 2.06 200 18:41 26.10.2021
5091 Clouds 14 1021 62 10000 5.14 230 16:42 26.10.2021
5092 Clouds 14 1021 62 10000 5.66 240 14:56 26.10.2021
5093 Clouds 12 1020 82 10000 5.14 220 11:39 26.10.2021
5094 Clouds 11 1020 87 10000 5.66 220 10:33 26.10.2021
5095 Clouds 10 1019 87 10000 3.09 220 07:47 26.10.2021
5096 Clouds 9 1019 93 10000 0.51 0 07:20 26.10.2021
5097 Clouds 7 1020 94 10000 2.51 181 23:51 25.10.2021
5098 Clouds 7 1020 94 10000 2.51 181 23:51 25.10.2021
5099 Clouds 7 1020 92 10000 2.7 177 22:54 25.10.2021
5100 Clear 7 1018 87 10000 2.57 170 22:19 25.10.2021
5101 Clear 7 1018 87 10000 2.57 170 21:39 25.10.2021
5102 Clear 8 1018 81 10000 2.57 130 19:54 25.10.2021
5103 Clear 9 1018 76 10000 1.54 160 19:26 25.10.2021
5104 Clear 10 1018 71 10000 2.57 200 18:59 25.10.2021
5105 Clear 11 1018 71 10000 2.06 190 18:19 25.10.2021
5106 Clear 14 1018 62 10000 3.09 220 16:18 25.10.2021
5107 Clear 12 1019 71 10000 4.63 200 14:28 25.10.2021
5108 Clear 9 1020 81 10000 2.57 150 12:29 25.10.2021
5109 Clear 5 1020 87 10000 1.54 160 10:20 25.10.2021
5110 Clear 4 1020 93 10000 1.54 160 08:34 25.10.2021
5111 Clear 2 1020 87 10000 3.6 170 06:24 25.10.2021
5112 Clear 2 1023 82 10000 2.6 169 00:58 25.10.2021
5113 Clear 3 1023 82 10000 2.6 169 00:37 25.10.2021
5114 Clear 4 1021 81 10000 1.03 0 23:47 24.10.2021
5115 Clear 4 1022 75 10000 0.51 0 22:44 24.10.2021
5116 Clear 5 1022 81 10000 1.03 0 22:21 24.10.2021
5117 Clear 5 1022 70 10000 3.6 100 21:41 24.10.2021
5118 Clear 6 1022 75 10000 3.09 110 20:45 24.10.2021
5119 Clear 6 1022 81 10000 2.06 100 20:23 24.10.2021
5120 Clear 9 1022 57 10000 2.57 140 18:52 24.10.2021
5121 Clear 12 1023 58 10000 3.6 150 17:55 24.10.2021
5122 Clear 13 1024 54 10000 5.66 140 16:49 24.10.2021
5123 Clear 13 1025 58 10000 5.66 150 15:28 24.10.2021
5124 Clear 11 1026 61 10000 4.63 140 13:49 24.10.2021
5125 Fog 8 1027 87 10000 5.14 140 12:41 24.10.2021
5126 Fog 7 1027 93 10000 3.6 130 11:37 24.10.2021
5127 Clouds 4 1027 100 10000 3.09 120 10:43 24.10.2021
5128 Fog 3 1027 93 10000 1.03 120 09:38 24.10.2021
5129 Clouds 2 1029 91 10000 1.87 166 03:36 24.10.2021
5130 Clear 3 1031 88 10000 1.49 146 00:19 24.10.2021
5131 Clear 4 1031 87 10000 1.34 150 22:55 23.10.2021
5132 Clouds 5 1030 86 10000 1.29 138 21:45 23.10.2021
5133 Clouds 6 1029 87 10000 2.06 200 19:39 23.10.2021
5134 Clouds 8 1028 66 10000 0.51 0 18:45 23.10.2021
5135 Clouds 8 1028 66 10000 0.51 0 18:45 23.10.2021
5136 Clouds 10 1028 53 10000 2.57 280 17:48 23.10.2021
5137 Clouds 11 1028 53 10000 2.57 290 17:26 23.10.2021
5138 Clouds 11 1027 57 10000 2.57 270 15:58 23.10.2021
5139 Clouds 10 1027 66 10000 3.6 290 13:51 23.10.2021
5140 Clear 4 1024 92 10000 2.06 238 02:36 23.10.2021
5141 Clouds 6 1020 87 10000 5.66 280 23:41 22.10.2021
5142 Clouds 7 1018 87 10000 4.12 260 21:39 22.10.2021
5143 Clouds 8 1016 87 10000 5.14 260 19:43 22.10.2021
5144 Rain 8 1015 81 8000 7.2 270 18:27 22.10.2021
5145 Clouds 10 1013 66 10000 7.72 250 16:44 22.10.2021
5146 Clouds 10 1012 62 10000 8.23 240 14:45 22.10.2021
5147 Rain 9 1013 71 10000 8.23 230 12:45 22.10.2021
5148 Clouds 8 1012 66 10000 7.2 230 10:57 22.10.2021
5149 Clouds 8 1012 66 10000 7.2 230 10:33 22.10.2021
5150 Clouds 6 1012 75 10000 6.17 220 09:35 22.10.2021
5151 Clouds 5 1012 87 10000 6.17 220 07:46 22.10.2021
5152 Clouds 6 1014 84 10000 6.1 242 07:21 22.10.2021
5153 Clouds 6 1014 85 10000 4.64 251 01:41 22.10.2021
5154 Clouds 6 1013 83 10000 4.74 262 23:51 21.10.2021
5155 Clouds 6 1012 81 10000 5.07 269 22:44 21.10.2021
5156 Clouds 7 1009 81 10000 4.12 250 21:38 21.10.2021
5157 Clouds 8 1008 76 10000 6.69 260 20:24 21.10.2021
5158 Rain 8 1007 81 10000 4.12 270 19:55 21.10.2021
5159 Clouds 8 1006 81 10000 5.66 270 19:25 21.10.2021
5160 Clouds 8 1006 81 10000 7.2 270 18:33 21.10.2021
5161 Rain 9 1004 76 10000 9.26 250 17:51 21.10.2021
5162 Clouds 10 1003 71 10000 10.29 230 16:50 21.10.2021
5163 Rain 11 1002 76 10000 9.26 210 15:33 21.10.2021
5164 Clouds 12 1002 62 10000 9.77 230 14:56 21.10.2021
5165 Rain 12 1002 62 10000 9.77 230 14:37 21.10.2021
5166 Rain 12 1002 62 10000 9.77 230 14:37 21.10.2021
5167 Clouds 10 998 81 9000 14.4 270 11:56 21.10.2021
5168 Clouds 12 989 71 10000 13.38 210 09:42 21.10.2021
5169 Clouds 13 990 66 10000 10.29 210 07:54 21.10.2021
5170 Clouds 14 990 77 10000 9.26 220 06:46 21.10.2021
5171 Rain 16 999 82 10000 7.82 197 00:39 21.10.2021
5172 Clouds 16 1003 84 10000 6.91 213 22:29 20.10.2021
5173 Clouds 16 1003 84 10000 6.91 213 21:48 20.10.2021
5174 Clouds 16 1003 82 10000 6.96 214 20:59 20.10.2021
5175 Clouds 16 1003 77 10000 7.72 190 20:39 20.10.2021
5176 Clouds 16 1003 77 10000 7.72 190 20:19 20.10.2021
5177 Clouds 16 1004 77 10000 6.17 200 19:23 20.10.2021
5178 Clouds 16 1004 77 10000 6.69 200 18:45 20.10.2021
5179 Clouds 16 1004 77 10000 7.72 190 17:33 20.10.2021
5180 Clouds 17 1006 72 10000 8.23 200 14:33 20.10.2021
5181 Clear 13 1010 76 10000 7.72 190 09:57 20.10.2021
5182 Clouds 12 1012 80 10000 4.8 201 06:57 20.10.2021
5183 Clouds 11 1015 90 10000 4 191 02:37 20.10.2021
5184 Clouds 12 1016 92 10000 4.01 192 00:33 20.10.2021
5185 Clouds 12 1016 92 10000 4.01 192 00:33 20.10.2021
5186 Clouds 13 1017 94 10000 3.86 189 22:53 19.10.2021
5187 Clouds 13 1018 96 10000 3.56 190 21:37 19.10.2021
5188 Clouds 13 1017 94 9000 4.12 180 20:27 19.10.2021
5189 Clouds 13 1017 94 10000 5.14 180 19:59 19.10.2021
5190 Clouds 13 1017 94 10000 5.14 180 19:36 19.10.2021
5191 Clouds 13 1017 94 10000 4.12 170 18:40 19.10.2021
5192 Clouds 13 1018 82 10000 3.09 170 17:52 19.10.2021
5193 Rain 13 1019 87 10000 4.12 200 15:30 19.10.2021
5194 Rain 12 1019 93 10000 4.12 140 14:40 19.10.2021
5195 Rain 12 1019 93 10000 5.14 140 13:55 19.10.2021
5196 Clouds 12 1020 87 10000 5.14 200 12:24 19.10.2021
5197 Clouds 11 1020 87 10000 5.14 200 11:28 19.10.2021
5198 Clouds 10 1020 93 10000 4.12 150 09:55 19.10.2021
5199 Clouds 9 1020 87 10000 3.6 170 08:57 19.10.2021
5200 Clouds 8 1023 86 10000 2.78 175 02:25 19.10.2021
5201 Clouds 8 1023 86 10000 2.9 168 23:59 18.10.2021
5202 Clouds 9 1023 86 10000 2.9 168 23:40 18.10.2021
5203 Clouds 9 1024 87 10000 2.82 170 22:56 18.10.2021
5204 Clear 9 1023 87 10000 1.54 0 22:30 18.10.2021
5205 Clouds 9 1024 83 10000 2.84 169 20:50 18.10.2021
5206 Clear 9 1023 93 10000 1.54 230 20:30 18.10.2021
5207 Clear 11 1023 81 10000 0.51 0 19:32 18.10.2021
5208 Clear 11 1022 81 10000 0.51 0 18:59 18.10.2021
5209 Clear 14 1023 67 10000 4.12 210 16:48 18.10.2021
5210 Clear 14 1024 66 10000 3.09 200 14:57 18.10.2021
5211 Clear 11 1025 81 10000 2.57 150 12:28 18.10.2021
5212 Fog 7 1024 93 10000 2.57 140 10:25 18.10.2021
5213 Clouds 6 1024 93 10000 0.51 0 09:25 18.10.2021
5214 Clouds 5 1023 77 10000 1.31 190 01:23 18.10.2021
5215 Clouds 8 1023 69 10000 1.56 148 22:56 17.10.2021
5216 Clear 8 1021 87 10000 2.57 150 21:45 17.10.2021
5217 Rain 8 1021 87 10000 1.54 190 20:58 17.10.2021
5218 Clear 9 1021 87 10000 1.03 170 20:26 17.10.2021
5219 Clear 9 1021 87 10000 1.54 200 19:38 17.10.2021
5220 Clouds 10 1021 69 10000 0.87 187 18:35 17.10.2021
5221 Clear 13 1020 54 10000 2.06 220 16:57 17.10.2021
5222 Clear 13 1021 58 10000 1.54 0 14:42 17.10.2021
5223 Clear 13 1021 58 10000 1.03 0 14:22 17.10.2021
5224 Clear 13 1021 66 10000 1.03 0 13:33 17.10.2021
5225 Clear 10 1021 87 10000 0.51 0 11:54 17.10.2021
5226 Fog 7 1021 100 9000 1.54 130 10:20 17.10.2021
5227 Fog 5 1021 100 6000 1.03 0 09:22 17.10.2021
5228 Clear 4 1020 100 10000 1.03 0 06:55 17.10.2021
5229 Clouds 6 1022 87 10000 0.96 183 00:49 17.10.2021
5230 Clouds 7 1022 86 10000 0.7 197 23:33 16.10.2021
5231 Clouds 7 1022 81 10000 0.43 147 21:28 16.10.2021
5232 Clouds 8 1021 87 10000 1.54 60 20:30 16.10.2021
5233 Clouds 8 1021 87 10000 0.51 0 19:42 16.10.2021
5234 Clouds 9 1021 87 10000 1.03 0 19:20 16.10.2021
5235 Clouds 9 1021 81 10000 1.54 360 18:46 16.10.2021
5236 Clouds 10 1021 76 10000 1.54 30 18:28 16.10.2021
5237 Clouds 11 1021 76 10000 1.54 80 17:52 16.10.2021
5238 Clouds 11 1021 66 10000 2.06 100 17:21 16.10.2021
5239 Fog 11 1022 87 9000 3.09 130 13:59 16.10.2021
5240 Clouds 8 1023 100 6000 1.03 0 11:26 16.10.2021
5241 Fog 5 1022 100 5000 1.03 120 09:48 16.10.2021
5242 Clouds 4 1023 91 10000 0.58 221 06:50 16.10.2021
5243 Clear 6 1022 91 10000 0.95 243 01:25 16.10.2021
5244 Clear 6 1022 91 10000 0.95 243 01:24 16.10.2021
5245 Clear 6 1022 91 10000 0.95 243 01:24 16.10.2021
5246 Clear 5 1022 90 10000 0.93 250 23:40 15.10.2021
5247 Clouds 6 1020 93 10000 1.03 0 22:22 15.10.2021
5248 Clouds 6 1020 100 10000 0.51 0 21:51 15.10.2021
5249 Clouds 7 1019 100 10000 0.51 0 21:21 15.10.2021
5250 Clouds 7 1019 93 10000 2.06 280 20:45 15.10.2021
5251 Clouds 9 1018 93 10000 1.03 250 19:23 15.10.2021
5252 Clouds 10 1018 93 10000 0.51 0 18:38 15.10.2021
5253 Clouds 12 1017 71 10000 4.63 310 16:28 15.10.2021
5254 Clouds 11 1016 82 10000 6.17 310 15:22 15.10.2021
5255 Rain 11 1014 76 10000 5.14 220 12:31 15.10.2021
5256 Clouds 11 1014 82 10000 5.66 210 11:20 15.10.2021
5257 Clouds 10 1014 81 10000 6.17 210 10:42 15.10.2021
5258 Rain 10 1014 81 10000 5.66 210 08:58 15.10.2021
5259 Clouds 11 1016 82 10000 5.14 210 05:31 15.10.2021
5260 Clouds 11 1019 90 10000 3.12 206 00:44 15.10.2021
5261 Clouds 11 1020 92 10000 3.47 214 23:49 14.10.2021
5262 Clouds 11 1021 89 10000 4 220 22:50 14.10.2021
5263 Clouds 11 1020 87 10000 3.6 210 21:43 14.10.2021
5264 Clouds 12 1021 87 10000 3.6 210 20:36 14.10.2021
5265 Clouds 12 1021 82 10000 2.57 200 20:18 14.10.2021
5266 Clouds 12 1021 82 10000 2.57 230 19:26 14.10.2021
5267 Clouds 12 1022 87 10000 3.09 230 17:26 14.10.2021
5268 Clouds 12 1022 87 10000 4.38 255 16:46 14.10.2021
5269 Clouds 12 1022 87 10000 3.09 250 15:24 14.10.2021
5270 Clouds 12 1023 87 9000 3.09 250 14:40 14.10.2021
5271 Clouds 12 1023 93 10000 3.09 240 13:35 14.10.2021
5272 Clouds 12 1023 93 10000 3.09 240 13:35 14.10.2021
5273 Clouds 10 1023 93 8000 3.6 220 11:43 14.10.2021
5274 Clouds 10 1024 93 9000 1.03 0 09:55 14.10.2021
5275 Clouds 9 1024 97 10000 2.19 211 06:47 14.10.2021
5276 Clouds 9 1025 95 10000 1.81 215 00:54 14.10.2021
5277 Clouds 8 1026 94 10000 1.77 219 22:51 13.10.2021
5278 Clouds 9 1026 94 10000 1.7 230 21:41 13.10.2021
5279 Clouds 9 1024 93 10000 1.03 230 20:46 13.10.2021
5280 Clouds 9 1024 93 10000 1.03 0 19:48 13.10.2021
5281 Rain 10 1024 81 10000 2.06 310 18:49 13.10.2021
5282 Clouds 11 1024 71 10000 3.6 290 17:36 13.10.2021
5283 Clouds 12 1023 71 10000 4.63 300 15:23 13.10.2021
5284 Clouds 11 1024 71 10000 4.12 320 14:44 13.10.2021
5285 Clouds 10 1023 81 10000 3.09 300 12:54 13.10.2021
5286 Clouds 9 1023 87 10000 2.06 320 11:55 13.10.2021
5287 Clouds 8 1023 93 10000 2.57 280 10:21 13.10.2021
5288 Clouds 6 1022 93 10000 2.57 310 07:56 13.10.2021
5289 Clouds 7 1021 87 10000 4.12 300 05:41 13.10.2021
5290 Clouds 6 1021 94 10000 1.06 284 02:24 13.10.2021
5291 Clouds 6 1020 94 10000 1.34 281 23:54 12.10.2021
5292 Clouds 6 1020 93 10000 1.44 285 23:28 12.10.2021
5293 Clouds 6 1020 93 10000 1.44 285 22:42 12.10.2021
5294 Clouds 6 1019 92 10000 1.5 310 20:55 12.10.2021
5295 Clouds 7 1017 93 10000 2.06 260 20:32 12.10.2021
5296 Clouds 7 1017 93 10000 3.6 300 19:50 12.10.2021
5297 Clouds 9 1016 81 10000 2.06 340 18:26 12.10.2021
5298 Clouds 10 1016 81 10000 3.6 340 17:35 12.10.2021
5299 Rain 10 1015 81 10000 7.72 350 16:35 12.10.2021
5300 Clouds 11 1016 93 10000 2.06 310 15:35 12.10.2021
5301 Clouds 11 1017 88 10000 4.15 300 14:20 12.10.2021
5302 Rain 11 1016 87 8000 3.6 340 13:41 12.10.2021
5303 Clouds 10 1017 93 6000 3.6 260 11:36 12.10.2021
5304 Clouds 10 1018 87 10000 4.12 260 09:41 12.10.2021
5305 Clouds 9 1018 87 10000 4.12 260 08:35 12.10.2021
5306 Clouds 8 1020 96 10000 2.39 226 06:46 12.10.2021
5307 Clouds 8 1021 97 10000 1.83 221 04:52 12.10.2021
5308 Clouds 8 1022 98 8903 1.91 225 04:28 12.10.2021
5309 Clouds 9 1023 87 10000 3.09 280 23:59 11.10.2021
5310 Clouds 9 1023 87 10000 3.09 280 23:37 11.10.2021
5311 Clouds 8 1024 97 10000 1.71 282 22:52 11.10.2021
5312 Clouds 9 1024 95 10000 1.78 282 21:32 11.10.2021
5313 Clouds 10 1023 87 10000 2.57 270 20:31 11.10.2021
5314 Clouds 10 1023 76 10000 3.09 260 19:36 11.10.2021
5315 Clouds 12 1023 82 10000 4.63 290 18:23 11.10.2021
5316 Clouds 13 1023 71 10000 4.63 300 16:41 11.10.2021
5317 Clouds 13 1024 76 10000 5.66 310 16:21 11.10.2021
5318 Clouds 13 1024 76 10000 5.14 310 15:44 11.10.2021
5319 Clouds 13 1024 76 10000 4.63 310 14:54 11.10.2021
5320 Clouds 12 1024 82 10000 5.14 290 14:20 11.10.2021
5321 Clouds 12 1024 82 10000 5.66 300 13:35 11.10.2021
5322 Drizzle 8 1024 93 2500 1.03 0 11:24 11.10.2021
5323 Mist 6 1024 100 2000 1.03 90 09:47 11.10.2021
5324 Drizzle 6 1024 100 1400 1.03 0 08:40 11.10.2021
5325 Clouds 4 1026 75 10000 1.94 192 01:46 11.10.2021
5326 Clouds 3 1026 74 10000 1.77 196 00:59 11.10.2021
5327 Clouds 3 1026 74 10000 1.77 196 00:40 11.10.2021
5328 Clear 5 1025 87 10000 1.54 180 22:42 10.10.2021
5329 Clear 6 1025 81 10000 1.03 0 21:50 10.10.2021
5330 Clear 7 1025 81 10000 1.03 0 21:20 10.10.2021
5331 Clear 6 1025 81 10000 2.06 200 20:40 10.10.2021
5332 Clear 6 1025 81 10000 2.06 200 20:40 10.10.2021
5333 Clear 7 1025 76 10000 2.57 200 20:19 10.10.2021
5334 Clear 7 1025 76 10000 2.57 200 19:44 10.10.2021
5335 Clear 9 1025 66 10000 2.06 190 19:26 10.10.2021
5336 Clear 13 1025 41 10000 1.54 190 18:20 10.10.2021
5337 Clear 15 1026 41 10000 3.6 140 15:49 10.10.2021
5338 Clear 15 1026 44 10000 1.54 0 14:57 10.10.2021
5339 Clear 14 1027 54 10000 1.54 0 13:41 10.10.2021
5340 Clear 13 1027 62 10000 1.54 60 12:43 10.10.2021
5341 Clear 8 1027 81 10000 1.03 0 11:31 10.10.2021
5342 Clear 7 1027 87 10000 1.03 0 10:29 10.10.2021
5343 Clear 4 1027 87 10000 1.54 140 09:19 10.10.2021
5344 Clear 1 1027 93 10000 0.51 0 08:50 10.10.2021
5345 Clouds 1 1029 76 10000 0.66 123 04:50 10.10.2021
5346 Clouds 3 1030 77 10000 1.25 90 02:20 10.10.2021
5347 Clouds 5 1030 77 10000 1.27 86 00:50 10.10.2021
5348 Clouds 5 1030 77 10000 1.21 73 23:45 09.10.2021
5349 Clouds 7 1030 77 10000 1.28 76 22:20 09.10.2021
5350 Clouds 7 1030 77 10000 1.28 76 21:30 09.10.2021
5351 Clear 10 1029 66 10000 4.12 100 20:19 09.10.2021
5352 Clear 10 1029 66 10000 1.54 150 19:41 09.10.2021
5353 Clear 12 1029 54 10000 3.09 120 18:48 09.10.2021
5354 Clear 13 1029 51 10000 3.09 110 18:26 09.10.2021
5355 Clear 15 1029 47 10000 4.12 100 16:21 09.10.2021
5356 Clear 15 1030 54 10000 4.63 100 14:37 09.10.2021
5357 Clear 14 1030 58 10000 4.12 100 13:39 09.10.2021
5358 Clear 12 1030 71 10000 4.12 80 12:28 09.10.2021
5359 Clouds 9 1031 87 10000 1.03 0 10:45 09.10.2021
5360 Clouds 7 1031 87 10000 1.03 0 10:19 09.10.2021
5361 Clouds 7 1031 87 10000 1.03 0 10:19 09.10.2021
5362 Clouds 4 1030 100 10000 0.51 0 08:45 09.10.2021
5363 Clouds 4 1030 100 10000 1.03 0 08:20 09.10.2021
5364 Clear 4 1031 87 10000 1.34 68 06:37 09.10.2021
5365 Mist 5 1029 100 4000 0.51 0 04:43 09.10.2021
5366 Clear 5 1030 86 10000 1.79 45 02:46 09.10.2021
5367 Clouds 8 1031 93 8000 0.51 0 00:30 09.10.2021
5368 Clouds 8 1030 93 8000 0.51 0 23:33 08.10.2021
5369 Clouds 9 1031 87 10000 3.09 100 22:46 08.10.2021
5370 Clouds 11 1031 82 10000 3.09 100 21:44 08.10.2021
5371 Clouds 12 1030 82 10000 3.09 50 20:27 08.10.2021
5372 Clouds 15 1029 72 10000 2.06 30 18:23 08.10.2021
5373 Clouds 16 1030 63 10000 4.12 70 16:56 08.10.2021
5374 Clouds 17 1030 63 10000 3.6 60 16:25 08.10.2021
5375 Clouds 16 1031 72 10000 2.57 50 14:57 08.10.2021
5376 Clouds 14 1031 88 10000 0.51 0 13:46 08.10.2021
5377 Fog 8 1032 100 150 1.03 0 11:42 08.10.2021
5378 Fog 7 1032 100 150 1.03 0 10:43 08.10.2021
5379 Fog 6 1032 100 150 0.51 0 09:47 08.10.2021
5380 Clear 6 1031 91 10000 1.2 40 04:20 08.10.2021
5381 Clear 8 1030 90 10000 1.02 61 23:25 07.10.2021
5382 Clear 9 1030 90 10000 1.02 61 22:35 07.10.2021
5383 Clear 10 1030 87 10000 1.03 230 21:29 07.10.2021
5384 Clouds 10 1030 87 10000 0.51 120 20:39 07.10.2021
5385 Clouds 12 1029 82 10000 1.54 60 19:32 07.10.2021
5386 Clouds 14 1029 72 10000 1.54 70 18:41 07.10.2021
5387 Clouds 16 1028 63 10000 0.51 0 17:32 07.10.2021
5388 Clouds 16 1028 67 10000 2.06 120 16:25 07.10.2021
5389 Clouds 16 1028 67 10000 3.09 130 14:48 07.10.2021
5390 Clouds 14 1028 76 10000 2.57 120 13:43 07.10.2021
5391 Clouds 14 1028 87 10000 1.03 0 12:53 07.10.2021
5392 Clouds 12 1027 87 9000 2.57 280 10:58 07.10.2021
5393 Clouds 12 1027 87 9000 1.54 250 10:22 07.10.2021
5394 Clouds 12 1026 93 9000 1.03 240 09:42 07.10.2021
5395 Drizzle 11 1026 100 8000 0 0 08:53 07.10.2021
5396 Clouds 11 1025 100 7000 0.51 0 07:58 07.10.2021
5397 Clouds 11 1025 100 7000 0.51 0 07:38 07.10.2021
5398 Clouds 11 1024 100 10000 0.51 80 06:36 07.10.2021
5399 Clouds 11 1021 92 10000 3.34 193 00:29 07.10.2021
5400 Clouds 11 1021 91 10000 3.97 193 23:18 06.10.2021
5401 Clouds 11 1020 90 10000 4.09 195 22:24 06.10.2021
5402 Clouds 11 1019 82 10000 3.09 170 21:24 06.10.2021
5403 Clouds 11 1019 82 10000 3.6 160 20:28 06.10.2021
5404 Clouds 12 1018 71 10000 2.57 160 18:43 06.10.2021
5405 Clouds 13 1017 71 10000 5.66 180 17:19 06.10.2021
5406 Clouds 13 1016 67 10000 7.2 200 15:34 06.10.2021
5407 Clouds 13 1015 76 10000 6.17 200 14:34 06.10.2021
5408 Rain 14 1015 67 9000 5.14 190 13:24 06.10.2021
5409 Clouds 14 1015 67 10000 7.2 190 12:45 06.10.2021
5410 Clouds 14 1014 71 10000 6.17 200 12:23 06.10.2021
5411 Clouds 12 1014 76 10000 6.17 190 10:36 06.10.2021
5412 Clouds 11 1013 76 10000 6.17 200 09:39 06.10.2021
5413 Clouds 11 1013 87 10000 3.6 160 08:57 06.10.2021
5414 Clouds 10 1012 87 10000 4.12 170 07:54 06.10.2021
5415 Clouds 11 1011 87 10000 4.63 180 05:37 06.10.2021
5416 Clouds 12 1010 93 10000 4.05 214 01:23 06.10.2021
5417 Clouds 12 1009 88 10000 4.38 226 00:20 06.10.2021
5418 Clouds 12 1009 88 10000 4.38 226 00:20 06.10.2021
5419 Clouds 12 1009 88 10000 4.38 226 23:48 05.10.2021
5420 Rain 13 1009 91 10000 5.1 217 23:29 05.10.2021
5421 Rain 13 1009 91 10000 5.1 217 22:30 05.10.2021
5422 Rain 13 1008 85 10000 5.98 203 21:50 05.10.2021
5423 Clear 13 1007 87 10000 3.6 140 20:50 05.10.2021
5424 Clear 12 1007 87 10000 3.6 140 20:25 05.10.2021
5425 Clear 13 1007 82 10000 4.12 160 19:50 05.10.2021
5426 Clear 13 1007 82 10000 4.12 160 19:50 05.10.2021
5427 Clouds 13 1006 82 10000 4.63 160 19:21 05.10.2021
5428 Clouds 15 1007 77 10000 5.14 170 17:23 05.10.2021
5429 Clouds 14 1008 88 10000 4.12 160 15:22 05.10.2021
5430 Clouds 13 1009 87 10000 3.09 160 13:43 05.10.2021
5431 Clouds 13 1009 87 10000 1.54 200 12:54 05.10.2021
5432 Clouds 12 1010 93 10000 2.06 160 12:19 05.10.2021
5433 Clouds 11 1010 93 9000 2.06 140 11:21 05.10.2021
5434 Rain 11 1011 93 8000 3.09 140 09:50 05.10.2021
5435 Rain 10 1013 93 10000 1.1 130 05:36 05.10.2021
5436 Clouds 9 1017 95 10000 1.45 161 23:54 04.10.2021
5437 Clouds 10 1018 94 10000 1.62 165 22:39 04.10.2021
5438 Clear 11 1018 82 10000 1.03 0 20:43 04.10.2021
5439 Clouds 15 1018 67 10000 4.12 160 18:34 04.10.2021
5440 Clouds 15 1018 67 10000 4.63 170 16:39 04.10.2021
5441 Clouds 15 1018 72 10000 4.63 180 15:32 04.10.2021
5442 Clouds 15 1018 72 10000 5.66 180 14:43 04.10.2021
5443 Clouds 15 1018 77 10000 3.6 200 13:57 04.10.2021
5444 Clouds 15 1018 77 10000 3.09 170 13:27 04.10.2021
5445 Rain 14 1018 82 10000 3.6 160 12:28 04.10.2021
5446 Rain 14 1018 82 10000 2.57 200 11:31 04.10.2021
5447 Rain 13 1017 76 10000 3.09 160 10:23 04.10.2021
5448 Rain 12 1016 87 10000 3.6 210 08:45 04.10.2021
5449 Rain 12 1016 87 10000 2.57 110 07:43 04.10.2021
5450 Clouds 13 1015 84 10000 2.87 238 01:56 04.10.2021
5451 Rain 15 1011 88 10000 7.72 290 22:41 03.10.2021
5452 Rain 18 1009 77 10000 5.14 180 21:42 03.10.2021
5453 Rain 18 1008 77 10000 6.17 180 21:23 03.10.2021
5454 Clouds 19 1007 72 10000 6.69 170 20:21 03.10.2021
5455 Clouds 20 1006 63 10000 8.75 180 19:30 03.10.2021
5456 Clouds 21 1004 56 10000 7.72 180 18:28 03.10.2021
5457 Clear 22 1003 52 10000 7.72 180 17:28 03.10.2021
5458 Clear 22 1002 49 10000 8.23 170 14:48 03.10.2021
5459 Clear 23 1003 46 10000 7.72 180 14:24 03.10.2021
5460 Clear 21 1003 49 10000 8.75 190 13:34 03.10.2021
5461 Clear 21 1003 49 10000 7.2 150 12:41 03.10.2021
5462 Clear 19 1002 52 10000 7.72 150 10:52 03.10.2021
5463 Clear 19 1002 55 10000 6.17 150 08:53 03.10.2021
5464 Clouds 18 1003 55 10000 6.96 177 03:29 03.10.2021
5465 Clouds 16 1005 61 10000 6.54 167 22:43 02.10.2021
5466 Clouds 15 1006 71 10000 3.77 154 21:21 02.10.2021
5467 Clear 16 1008 72 10000 2.57 140 19:51 02.10.2021
5468 Clouds 18 1008 63 10000 4.12 160 18:55 02.10.2021
5469 Clouds 18 1009 59 10000 5.14 180 17:57 02.10.2021
5470 Clouds 18 1009 63 10000 5.66 170 17:26 02.10.2021
5471 Clouds 18 1011 63 10000 5.14 160 15:38 02.10.2021
5472 Clouds 15 1025 51 10000 3.6 220 16:50 30.09.2021
5473 Clouds 15 1025 51 10000 3.09 230 15:37 30.09.2021
5474 Clouds 13 1026 62 10000 4.12 240 13:45 30.09.2021
5475 Clouds 13 1026 71 10000 5.14 230 11:37 30.09.2021
5476 Clouds 11 1026 76 10000 4.12 220 10:43 30.09.2021
5477 Clouds 9 1025 81 10000 5.66 220 09:32 30.09.2021
5478 Clouds 8 1024 87 10000 3.09 200 08:29 30.09.2021
5479 Clear 8 1026 96 10000 3.53 212 07:23 30.09.2021
5480 Clear 7 1025 95 10000 3.87 223 04:52 30.09.2021
5481 Clear 8 1024 91 10000 3.97 227 01:19 30.09.2021
5482 Clear 9 1023 91 10000 4.06 228 23:49 29.09.2021
5483 Clear 9 1022 87 10000 4.05 235 21:58 29.09.2021
5484 Clear 9 1022 86 10000 4.36 242 20:57 29.09.2021
5485 Clear 9 1019 81 10000 2.57 200 20:24 29.09.2021
5486 Clouds 10 1019 81 10000 2.06 210 19:43 29.09.2021
5487 Clouds 12 1018 81 10000 6.69 270 18:28 29.09.2021
5488 Clouds 13 1017 76 10000 8.23 290 17:33 29.09.2021
5489 Clouds 13 1016 87 10000 5.14 240 16:46 29.09.2021
5490 Clouds 13 1015 87 9000 7.2 230 15:48 29.09.2021
5491 Clouds 16 1015 67 10000 6.17 210 14:38 29.09.2021
5492 Clouds 16 1015 67 10000 4.63 190 13:40 29.09.2021
5493 Clouds 16 1016 72 10000 4.12 170 12:46 29.09.2021
5494 Clouds 16 1016 67 10000 5.66 210 11:26 29.09.2021
5495 Clouds 14 1016 77 10000 4.63 200 10:38 29.09.2021
5496 Clouds 11 1017 93 10000 2.57 130 09:47 29.09.2021
5497 Clouds 10 1017 93 10000 2.06 150 08:44 29.09.2021
5498 Clouds 9 1018 92 10000 1.94 167 06:55 29.09.2021
5499 Clouds 10 1019 88 10000 1.35 142 02:40 29.09.2021
5500 Clouds 11 1021 79 10000 1.32 114 23:21 28.09.2021
5501 Clouds 12 1021 78 10000 1.22 114 22:22 28.09.2021
5502 Clouds 12 1021 76 10000 1.5 105 21:25 28.09.2021
5503 Clear 13 1021 87 10000 0.51 130 20:26 28.09.2021
5504 Clear 14 1021 77 10000 0.51 130 19:41 28.09.2021
5505 Clear 16 1021 63 10000 1.54 200 18:44 28.09.2021
5506 Clouds 17 1022 55 10000 1.54 120 17:53 28.09.2021
5507 Clouds 17 1023 63 10000 3.09 120 15:21 28.09.2021
5508 Clouds 17 1024 63 10000 1.03 0 13:30 28.09.2021
5509 Clouds 15 1024 82 10000 1.03 0 12:28 28.09.2021
5510 Clouds 15 1024 82 10000 2.06 80 11:57 28.09.2021
5511 Clouds 15 1024 82 10000 2.06 80 11:39 28.09.2021
5512 Fog 13 1024 94 10000 2.57 260 10:47 28.09.2021
5513 Fog 12 1024 93 10000 1.03 0 09:45 28.09.2021
5514 Fog 11 1024 100 10000 1.54 210 08:44 28.09.2021
5515 Fog 11 1023 100 10000 0.51 0 08:25 28.09.2021
5516 Clouds 12 1024 95 10000 0.8 228 06:47 28.09.2021
5517 Clouds 12 1023 95 10000 0.89 254 04:48 28.09.2021
5518 Rain 14 1021 92 10000 2.08 335 01:22 28.09.2021
5519 Clouds 15 1020 93 10000 4.74 307 23:54 27.09.2021
5520 Clouds 15 1019 94 7000 7.72 290 23:28 27.09.2021
5521 Clouds 17 1018 94 10000 1.54 190 22:44 27.09.2021
5522 Clouds 17 1018 90 10000 2.12 187 21:41 27.09.2021
5523 Rain 19 1016 72 10000 3.6 180 20:38 27.09.2021
5524 Clear 18 1016 77 10000 3.09 180 19:41 27.09.2021
5525 Clear 19 1016 72 10000 5.14 160 19:22 27.09.2021
5526 Rain 20 1016 72 10000 3.09 170 18:27 27.09.2021
5527 Clouds 20 1016 72 10000 4.63 170 17:22 27.09.2021
5528 Clouds 20 1016 72 10000 4.63 160 16:39 27.09.2021
5529 Clouds 21 1016 68 10000 5.14 180 15:42 27.09.2021
5530 Clouds 20 1016 72 10000 4.12 180 14:32 27.09.2021
5531 Clouds 19 1016 82 10000 3.09 180 12:59 27.09.2021
5532 Clouds 18 1016 88 10000 3.09 150 10:52 27.09.2021
5533 Clouds 17 1016 94 9000 3.09 180 09:50 27.09.2021
5534 Fog 16 1016 100 1600 2.06 140 08:38 27.09.2021
5535 Clouds 16 1017 100 5000 3.09 150 05:21 27.09.2021
5536 Clouds 16 1017 96 10000 2.24 184 01:48 27.09.2021
5537 Rain 18 1017 92 10000 2.32 203 22:28 26.09.2021
5538 Rain 18 1017 92 10000 2.32 203 21:45 26.09.2021
5539 Clouds 18 1016 90 10000 2.06 211 20:52 26.09.2021
5540 Clear 19 1016 82 10000 2.06 120 20:20 26.09.2021
5541 Clear 19 1016 82 10000 1.54 130 19:37 26.09.2021
5542 Clear 20 1016 73 10000 3.09 190 18:45 26.09.2021
5543 Clear 21 1016 68 10000 4.63 200 17:50 26.09.2021
5544 Rain 22 1016 68 10000 4.12 190 17:21 26.09.2021
5545 Clouds 24 1016 64 10000 4.63 180 16:28 26.09.2021
5546 Clouds 24 1016 60 10000 4.12 160 15:56 26.09.2021
5547 Clouds 24 1016 60 10000 4.63 200 14:26 26.09.2021
5548 Clouds 24 1016 60 10000 3.6 190 13:45 26.09.2021
5549 Clear 22 1016 64 10000 4.12 200 12:32 26.09.2021
5550 Clear 21 1016 68 10000 3.09 190 11:59 26.09.2021
5551 Clear 21 1016 68 10000 3.09 190 11:36 26.09.2021
5552 Clear 18 1016 77 10000 3.09 140 10:21 26.09.2021
5553 Clear 15 1016 88 10000 1.54 120 08:55 26.09.2021
5554 Clouds 13 1017 88 10000 1.52 142 03:24 26.09.2021
5555 Clouds 14 1017 87 10000 1.29 125 00:20 26.09.2021
5556 Clouds 14 1017 87 10000 1.33 123 22:42 25.09.2021
5557 Clouds 15 1017 87 10000 1.25 126 22:23 25.09.2021
5558 Clouds 14 1017 87 10000 1.25 126 21:49 25.09.2021
5559 Clear 15 1017 88 10000 0.51 0 20:53 25.09.2021
5560 Clear 18 1017 77 10000 1.54 20 19:54 25.09.2021
5561 Clear 19 1016 77 10000 1.54 20 18:39 25.09.2021
5562 Clear 21 1016 68 10000 2.06 30 17:46 25.09.2021
5563 Clouds 21 1017 68 10000 1.03 0 14:49 25.09.2021
5564 Clouds 20 1018 72 10000 2.06 200 13:56 25.09.2021
5565 Clouds 19 1018 77 10000 2.06 160 12:48 25.09.2021
5566 Clouds 17 1018 82 10000 2.06 130 11:38 25.09.2021
5567 Clouds 15 1017 88 10000 2.06 150 10:21 25.09.2021
5568 Clouds 15 1017 88 10000 1.54 170 09:25 25.09.2021
5569 Clouds 12 1016 94 10000 1.54 160 07:50 25.09.2021
5570 Clouds 14 1017 95 10000 2.54 209 00:59 25.09.2021
5571 Clouds 15 1016 92 10000 2.43 224 23:33 24.09.2021
5572 Clouds 16 1016 88 10000 2.06 170 21:41 24.09.2021
5573 Clouds 17 1016 82 10000 1.54 250 20:33 24.09.2021
5574 Clouds 18 1016 77 10000 2.06 260 19:44 24.09.2021
5575 Clouds 19 1015 68 10000 3.6 240 18:30 24.09.2021
5576 Clouds 19 1015 72 10000 5.14 230 17:53 24.09.2021
5577 Clouds 19 1015 72 10000 5.14 230 17:35 24.09.2021
5578 Clouds 19 1015 72 10000 5.14 230 16:35 24.09.2021
5579 Clouds 18 1016 77 10000 1.54 190 13:41 24.09.2021
5580 Clouds 17 1017 77 10000 3.09 220 12:44 24.09.2021
5581 Clouds 17 1017 77 10000 2.57 220 12:26 24.09.2021
5582 Clouds 16 1017 82 10000 3.09 220 10:56 24.09.2021
5583 Clouds 15 1016 88 10000 2.06 210 09:59 24.09.2021
5584 Clouds 14 1016 94 10000 1.03 270 08:24 24.09.2021
5585 Clouds 14 1016 94 8000 2.57 300 07:31 24.09.2021
5586 Clouds 14 1016 94 10000 4.63 270 06:24 24.09.2021
5587 Clouds 14 1016 94 10000 4.12 270 04:52 24.09.2021
5588 Clouds 17 1016 86 10000 5.62 294 22:44 23.09.2021
5589 Clouds 17 1015 79 10000 6.13 288 21:59 23.09.2021
5590 Clouds 18 1014 67 10000 8.23 280 21:37 23.09.2021
5591 Clouds 18 1014 67 10000 9.26 280 20:32 23.09.2021
5592 Clouds 20 1014 48 10000 6.69 260 18:55 23.09.2021
5593 Clear 22 1015 40 10000 7.2 270 16:47 23.09.2021
5594 Clear 21 1015 37 10000 9.26 260 15:19 23.09.2021
5595 Clear 22 1016 40 10000 6.69 250 14:52 23.09.2021
5596 Clear 20 1017 52 10000 5.14 240 13:28 23.09.2021
5597 Clear 19 1017 52 10000 5.66 220 12:57 23.09.2021
5598 Clear 19 1017 52 10000 5.66 220 12:37 23.09.2021
5599 Clear 19 1018 55 10000 5.66 210 12:18 23.09.2021
5600 Clear 16 1019 67 10000 4.12 210 10:31 23.09.2021
5601 Clear 15 1019 72 10000 4.63 210 09:57 23.09.2021
5602 Clear 14 1019 72 10000 4.63 210 09:38 23.09.2021
5603 Clouds 9 1021 93 7000 1.03 100 06:24 23.09.2021
5604 Clear 10 1025 90 10000 1.6 196 00:21 23.09.2021
5605 Clear 11 1025 88 10000 1.75 186 22:52 22.09.2021
5606 Clear 12 1026 87 10000 0.72 205 22:20 22.09.2021
5607 Clear 12 1026 87 10000 0.72 205 21:42 22.09.2021
5608 Clear 13 1026 86 10000 0.04 287 20:57 22.09.2021
5609 Clear 15 1025 72 10000 2.06 330 19:48 22.09.2021
5610 Clear 16 1025 67 10000 3.09 330 19:26 22.09.2021
5611 Clear 19 1026 55 10000 3.6 290 18:30 22.09.2021
5612 Clouds 19 1026 54 10000 2.44 324 17:18 22.09.2021
5613 Clouds 19 1028 59 10000 2.06 330 15:38 22.09.2021
5614 Clouds 17 1028 67 10000 2.57 330 14:28 22.09.2021
5615 Clouds 16 1029 72 10000 4.63 300 13:19 22.09.2021
5616 Clouds 14 1029 82 10000 4.63 290 11:20 22.09.2021
5617 Clouds 13 1029 82 10000 2.57 280 09:30 22.09.2021
5618 Clouds 11 1029 82 10000 1.54 280 08:44 22.09.2021
5619 Clouds 9 1029 82 10000 1.03 280 07:33 22.09.2021
5620 Clouds 7 1029 93 10000 0.87 255 06:31 22.09.2021
5621 Clouds 9 1029 76 10000 1.03 0 05:48 22.09.2021
5622 Clouds 8 1029 89 10000 1.12 244 03:59 22.09.2021
5623 Clouds 8 1029 88 10000 1.15 250 02:56 22.09.2021
5624 Clouds 10 1030 84 10000 1.5 242 23:42 21.09.2021
5625 Clouds 10 1030 80 10000 1.09 257 22:26 21.09.2021
5626 Clouds 10 1030 79 10000 1.2 279 20:31 21.09.2021
5627 Clouds 13 1029 72 10000 1.63 319 19:25 21.09.2021
5628 Clear 15 1029 58 10000 3.09 300 18:35 21.09.2021
5629 Clouds 16 1029 51 10000 3.6 330 16:47 21.09.2021
5630 Clouds 16 1029 51 10000 3.09 340 15:56 21.09.2021
5631 Clouds 16 1029 48 10000 3.09 350 14:59 21.09.2021
5632 Clouds 16 1029 51 10000 3.6 320 14:20 21.09.2021
5633 Clouds 16 1029 51 10000 4.12 340 13:39 21.09.2021
5634 Clouds 15 1029 58 10000 2.57 0 12:44 21.09.2021
5635 Clear 13 1029 82 10000 2.06 330 10:42 21.09.2021
5636 Clear 9 1028 93 10000 1.54 270 08:57 21.09.2021
5637 Clear 9 1027 87 10000 1.54 260 07:38 21.09.2021
5638 Clouds 7 1027 76 10000 0.36 285 05:18 21.09.2021
5639 Clouds 9 1025 77 10000 0.96 47 23:19 20.09.2021
5640 Clouds 11 1025 68 10000 1.17 51 21:43 20.09.2021
5641 Clouds 11 1024 66 10000 1.51 53 21:25 20.09.2021
5642 Clouds 13 1023 62 10000 2.06 60 19:48 20.09.2021
5643 Clouds 13 1022 54 10000 2.57 50 17:55 20.09.2021
5644 Clouds 13 1022 54 10000 2.57 50 17:55 20.09.2021
5645 Clouds 13 1022 54 10000 3.09 50 17:19 20.09.2021
5646 Clouds 14 1022 58 10000 3.09 70 16:23 20.09.2021
5647 Clouds 14 1021 58 10000 3.09 90 15:36 20.09.2021
5648 Clouds 14 1021 58 10000 3.6 90 14:38 20.09.2021
5649 Clouds 14 1021 58 10000 4.12 70 12:44 20.09.2021
5650 Clouds 14 1021 62 10000 5.66 80 12:24 20.09.2021
5651 Clouds 12 1020 71 10000 2.06 90 10:56 20.09.2021
5652 Clouds 10 1020 93 10000 0.51 0 09:51 20.09.2021
5653 Clouds 10 1020 93 10000 0.51 0 09:32 20.09.2021
5654 Clouds 9 1020 93 10000 1.03 340 08:48 20.09.2021
5655 Clouds 7 1020 92 10000 1.57 57 06:22 20.09.2021
5656 Clouds 10 1019 85 10000 1.33 82 22:58 19.09.2021
5657 Clouds 12 1018 76 10000 2.06 90 21:50 19.09.2021
5658 Clouds 12 1018 76 10000 2.06 80 21:19 19.09.2021
5659 Clouds 12 1018 76 10000 2.06 90 20:19 19.09.2021
5660 Clouds 13 1017 62 10000 4.12 80 18:54 19.09.2021
5661 Clouds 13 1017 66 10000 4.12 60 17:49 19.09.2021
5662 Clouds 13 1017 66 10000 4.12 70 16:51 19.09.2021
5663 Clouds 13 1017 66 10000 4.63 80 15:44 19.09.2021
5664 Clouds 14 1017 62 10000 5.14 90 14:49 19.09.2021
5665 Clouds 13 1017 66 10000 5.66 90 13:58 19.09.2021
5666 Clouds 14 1017 67 10000 5.14 90 12:56 19.09.2021
5667 Clouds 14 1017 67 10000 5.66 90 12:18 19.09.2021
5668 Clouds 14 1017 71 10000 4.63 90 11:23 19.09.2021
5669 Clouds 13 1016 76 10000 4.63 80 09:52 19.09.2021
5670 Clouds 14 1016 82 10000 4.12 100 09:26 19.09.2021
5671 Clouds 14 1016 88 10000 2.57 90 06:49 19.09.2021
5672 Clouds 14 1017 85 10000 2.82 91 01:38 19.09.2021
5673 Clouds 14 1017 87 10000 1.93 69 23:25 18.09.2021
5674 Clouds 15 1017 85 10000 1.9 46 21:56 18.09.2021
5675 Clouds 15 1017 82 10000 2.57 30 20:47 18.09.2021
5676 Clouds 17 1017 77 10000 1.54 50 19:58 18.09.2021
5677 Clouds 17 1017 77 10000 1.54 50 19:37 18.09.2021
5678 Clouds 17 1017 77 10000 2.57 60 19:19 18.09.2021
5679 Clouds 17 1017 72 10000 2.06 40 18:30 18.09.2021
5680 Clouds 18 1017 67 10000 2.57 30 16:35 18.09.2021
5681 Clouds 18 1017 67 10000 2.06 360 14:32 18.09.2021
5682 Clouds 18 1017 63 10000 2.06 360 13:45 18.09.2021
5683 Clouds 17 1018 63 10000 2.57 350 13:21 18.09.2021
5684 Clouds 17 1018 72 10000 2.57 320 12:18 18.09.2021
5685 Clouds 15 1018 88 9000 1.54 0 11:30 18.09.2021
5686 Mist 14 1017 94 4000 2.57 20 10:30 18.09.2021
5687 Mist 14 1017 94 4000 2.57 20 10:30 18.09.2021
5688 Mist 13 1017 100 4000 1.54 230 09:23 18.09.2021
5689 Fog 12 1017 100 200 1.03 0 08:25 18.09.2021
5690 Clouds 13 1016 94 10000 0.52 272 00:53 18.09.2021
5691 Clouds 14 1016 94 10000 0.62 243 23:56 17.09.2021
5692 Clouds 15 1016 93 10000 0.64 246 22:48 17.09.2021
5693 Clouds 14 1016 92 10000 0.51 293 22:23 17.09.2021
5694 Clouds 15 1016 88 10000 1.54 250 21:32 17.09.2021
5695 Clouds 15 1016 88 10000 1.54 250 21:32 17.09.2021
5696 Clouds 17 1015 77 10000 2.06 300 19:31 17.09.2021
5697 Clouds 18 1015 72 10000 3.09 300 18:40 17.09.2021
5698 Clouds 19 1015 63 10000 5.14 300 16:35 17.09.2021
5699 Clouds 18 1016 72 10000 4.63 300 14:48 17.09.2021
5700 Clouds 17 1016 72 10000 5.66 290 11:48 17.09.2021
5701 Clouds 14 1016 88 9000 3.6 290 09:57 17.09.2021
5702 Clouds 13 1016 88 10000 1.03 0 07:42 17.09.2021
5703 Clouds 12 1016 94 10000 2.57 260 05:27 17.09.2021
5704 Clear 14 1018 94 10000 1.35 248 00:31 17.09.2021
5705 Clear 15 1017 82 10000 5.14 270 22:41 16.09.2021
5706 Clear 15 1017 82 10000 5.14 270 22:23 16.09.2021
5707 Clouds 15 1016 82 10000 5.14 270 21:31 16.09.2021
5708 Clouds 16 1016 77 10000 5.66 270 20:29 16.09.2021
5709 Clouds 17 1016 72 10000 6.17 290 18:38 16.09.2021
5710 Clouds 17 1016 72 10000 4.63 280 18:18 16.09.2021
5711 Clouds 17 1016 77 10000 5.66 290 15:33 16.09.2021
5712 Clouds 17 1016 77 10000 5.14 310 14:43 16.09.2021
5713 Clouds 17 1016 77 10000 8.75 290 13:23 16.09.2021
5714 Clouds 18 1016 67 10000 6.17 280 12:40 16.09.2021
5715 Clouds 17 1016 72 10000 5.66 280 11:46 16.09.2021
5716 Clouds 16 1016 77 10000 5.14 290 10:50 16.09.2021
5717 Clouds 15 1016 77 10000 4.12 270 10:21 16.09.2021
5718 Clouds 15 1015 77 10000 3.6 260 08:45 16.09.2021
5719 Clouds 14 1015 94 10000 2.06 0 07:46 16.09.2021
5720 Clouds 15 1014 82 10000 8.23 300 06:56 16.09.2021
5721 Clouds 15 1014 82 10000 8.23 300 06:32 16.09.2021
5722 Clouds 16 1014 96 10000 1.77 260 02:58 16.09.2021
5723 Clouds 17 1013 95 10000 2.2 282 00:46 16.09.2021
5724 Clouds 18 1012 97 10000 1.53 261 22:59 15.09.2021
5725 Clouds 19 1012 98 10000 1.54 225 22:20 15.09.2021
5726 Clouds 19 1012 98 10000 1.54 225 21:30 15.09.2021
5727 Clouds 20 1011 94 10000 2.06 0 20:24 15.09.2021
5728 Clouds 20 1011 83 10000 3.6 210 19:29 15.09.2021
5729 Clouds 21 1010 78 10000 4.12 210 18:25 15.09.2021
5730 Clouds 21 1010 78 10000 4.12 190 17:27 15.09.2021
5731 Clouds 21 1011 78 10000 3.6 190 16:27 15.09.2021
5732 Clouds 21 1011 83 10000 3.6 190 14:46 15.09.2021
5733 Rain 20 1011 83 10000 4.12 200 14:24 15.09.2021
5734 Clouds 20 1011 83 10000 4.12 200 13:40 15.09.2021
5735 Clouds 21 1011 78 10000 4.12 200 13:21 15.09.2021
5736 Rain 20 1012 83 10000 3.09 180 12:23 15.09.2021
5737 Rain 20 1012 88 10000 2.57 190 11:47 15.09.2021
5738 Rain 20 1012 77 10000 2.57 150 10:56 15.09.2021
5739 Clear 19 1012 88 10000 2.06 160 09:31 15.09.2021
5740 Clouds 18 1012 88 10000 2.06 150 08:41 15.09.2021
5741 Clouds 17 1012 93 10000 2.23 173 05:55 15.09.2021
5742 Clouds 18 1014 79 10000 2.02 167 23:56 14.09.2021
5743 Clouds 18 1014 77 10000 1.53 149 21:58 14.09.2021
5744 Clouds 19 1014 79 10000 1.64 134 20:56 14.09.2021
5745 Clear 21 1014 68 10000 2.06 190 19:51 14.09.2021
5746 Clear 25 1014 57 10000 3.6 190 18:24 14.09.2021
5747 Clouds 25 1015 53 10000 2.57 170 17:28 14.09.2021
5748 Clear 25 1015 57 10000 3.6 150 15:58 14.09.2021
5749 Clear 24 1015 60 10000 3.09 110 14:32 14.09.2021
5750 Clear 23 1016 60 10000 3.09 110 13:20 14.09.2021
5751 Clouds 18 1016 82 10000 2.06 120 10:55 14.09.2021
5752 Clouds 15 1016 88 10000 1.03 0 09:51 14.09.2021
5753 Fog 12 1017 100 10000 0.51 0 08:49 14.09.2021
5754 Clouds 11 1017 93 10000 1.15 100 06:47 14.09.2021
5755 Clouds 13 1018 86 10000 1.15 80 00:41 14.09.2021
5756 Clouds 14 1018 81 10000 1.32 61 22:53 13.09.2021
5757 Clouds 14 1018 79 10000 1.32 66 22:24 13.09.2021
5758 Clouds 14 1018 79 10000 1.32 66 21:53 13.09.2021
5759 Clouds 15 1018 75 10000 1.41 53 20:51 13.09.2021
5760 Clear 18 1018 68 10000 1.54 30 19:26 13.09.2021
5761 Clear 19 1018 63 10000 1.54 10 18:43 13.09.2021
5762 Clouds 20 1019 59 10000 1.54 20 16:58 13.09.2021
5763 Clouds 20 1019 59 10000 2.06 0 15:32 13.09.2021
5764 Clouds 19 1020 63 10000 1.54 340 13:32 13.09.2021
5765 Clouds 16 1020 88 9000 1.03 0 10:58 13.09.2021
5766 Clouds 16 1020 88 9000 1.03 0 10:58 13.09.2021
5767 Clouds 14 1019 88 6000 1.54 360 09:41 13.09.2021
5768 Clouds 11 1018 88 10000 0.54 279 07:27 13.09.2021
5769 Clouds 14 1018 86 10000 0.71 255 23:41 12.09.2021
5770 Clouds 16 1018 82 10000 2.57 270 22:26 12.09.2021
5771 Clouds 16 1018 82 10000 2.57 270 22:26 12.09.2021
5772 Clouds 16 1018 82 10000 2.57 270 22:26 12.09.2021
5773 Clouds 16 1018 82 10000 3.6 290 21:37 12.09.2021
5774 Clouds 17 1017 82 10000 2.57 310 20:34 12.09.2021
5775 Clouds 19 1017 77 10000 3.09 320 19:51 12.09.2021
5776 Clouds 19 1017 72 10000 2.57 330 19:20 12.09.2021
5777 Clouds 21 1017 68 10000 4.12 340 18:29 12.09.2021
5778 Clouds 22 1017 64 10000 1.03 0 16:33 12.09.2021
5779 Clouds 21 1018 68 10000 1.54 310 14:56 12.09.2021
5780 Clouds 21 1018 68 10000 1.54 310 14:56 12.09.2021
5781 Clouds 20 1018 72 10000 2.06 260 13:45 12.09.2021
5782 Clouds 18 1019 94 9000 2.57 300 11:31 12.09.2021
5783 Clouds 16 1018 94 6000 1.03 0 09:27 12.09.2021
5784 Clouds 16 1018 94 6000 1.03 110 08:38 12.09.2021
5785 Clouds 14 1018 95 10000 1.62 210 02:22 12.09.2021
5786 Clouds 16 1018 86 10000 1.48 225 23:28 11.09.2021
5787 Clouds 16 1018 83 10000 1.25 235 21:50 11.09.2021
5788 Clear 18 1017 77 10000 1.54 220 20:31 11.09.2021
5789 Clouds 21 1017 60 10000 2.57 270 19:21 11.09.2021
5790 Clouds 22 1017 64 10000 4.63 270 17:34 11.09.2021
5791 Clouds 22 1016 73 10000 4.12 240 15:51 11.09.2021
5792 Clouds 20 1017 94 10000 2.06 210 13:49 11.09.2021
5793 Rain 21 1017 73 3000 3.6 240 12:50 11.09.2021
5794 Clouds 20 1017 77 10000 2.57 190 11:19 11.09.2021
5795 Clouds 19 1017 82 10000 1.54 0 09:38 11.09.2021
5796 Clouds 17 1016 100 10000 0.51 0 07:45 11.09.2021
5797 Clouds 17 1016 97 10000 2.21 194 06:48 11.09.2021
5798 Clouds 19 1015 95 10000 1.72 199 23:37 10.09.2021
5799 Clouds 18 1014 95 10000 1.64 194 22:24 10.09.2021
5800 Rain 19 1014 95 10000 1.64 194 21:54 10.09.2021
5801 Clouds 20 1014 83 10000 2.57 190 19:58 10.09.2021
5802 Clouds 21 1014 88 10000 2.06 100 18:26 10.09.2021
5803 Clouds 23 1014 68 10000 4.63 210 16:48 10.09.2021
5804 Clouds 24 1014 68 10000 5.14 190 13:55 10.09.2021
5805 Clouds 22 1015 78 10000 4.12 220 11:56 10.09.2021
5806 Clear 18 1014 94 10000 2.57 120 08:36 10.09.2021
5807 Clear 18 1013 100 10000 1.03 0 07:49 10.09.2021
5808 Clouds 19 1013 96 10000 2.17 195 00:42 10.09.2021
5809 Rain 22 1013 73 10000 1.54 260 22:31 09.09.2021
5810 Clouds 21 1012 78 10000 2.57 340 21:39 09.09.2021
5811 Clear 22 1011 68 10000 3.6 160 20:46 09.09.2021
5812 Clear 25 1011 53 10000 3.6 200 18:58 09.09.2021
5813 Clouds 27 1011 50 10000 3.6 210 17:56 09.09.2021
5814 Clouds 27 1011 54 10000 3.6 180 16:40 09.09.2021
5815 Clear 27 1012 53 10000 4.12 190 15:27 09.09.2021
5816 Clear 24 1012 56 10000 3.6 140 12:48 09.09.2021
5817 Clear 21 1012 64 10000 4.63 140 11:33 09.09.2021
5818 Clear 17 1012 77 10000 2.06 120 09:39 09.09.2021
5819 Clear 15 1012 82 10000 1.03 0 08:32 09.09.2021
5820 Clouds 14 1013 86 10000 1.42 135 06:24 09.09.2021
5821 Clouds 14 1014 86 10000 1.27 101 01:31 09.09.2021
5822 Clouds 15 1015 86 10000 1.63 83 22:34 08.09.2021
5823 Clear 19 1015 68 10000 1.03 190 21:22 08.09.2021
5824 Clear 22 1015 53 10000 2.57 90 19:56 08.09.2021
5825 Clear 24 1016 46 10000 3.6 110 18:50 08.09.2021
5826 Clear 25 1016 44 10000 3.6 110 18:27 08.09.2021
5827 Clear 26 1016 44 10000 3.09 130 17:54 08.09.2021
5828 Clear 26 1017 44 10000 3.6 120 16:27 08.09.2021
5829 Clouds 25 1019 50 10000 3.09 100 13:56 08.09.2021
5830 Clear 23 1019 56 10000 3.09 110 12:42 08.09.2021
5831 Clear 23 1020 56 10000 2.57 110 12:24 08.09.2021
5832 Clear 21 1020 64 10000 2.57 120 11:28 08.09.2021
5833 Clear 19 1020 68 10000 2.57 110 10:32 08.09.2021
5834 Clear 17 1021 82 10000 1.03 0 09:58 08.09.2021
5835 Clear 12 1021 93 10000 1.03 220 07:55 08.09.2021
5836 Clear 12 1021 93 10000 1.03 220 07:55 08.09.2021
5837 Clear 12 1021 93 10000 1.03 220 07:55 08.09.2021
5838 Clear 12 1021 93 10000 1.03 220 07:55 08.09.2021
5839 Clear 12 1021 93 10000 1.03 220 07:55 08.09.2021
5840 Clouds 11 1020 81 10000 0.97 89 07:30 08.09.2021
5841 Clouds 14 1023 83 10000 1.29 75 00:33 08.09.2021
5842 Clouds 15 1023 80 10000 1.14 87 22:30 07.09.2021
5843 Clouds 16 1023 79 10000 1.37 86 21:38 07.09.2021
5844 Clear 21 1023 56 10000 2.57 50 19:40 07.09.2021
5845 Clear 23 1023 53 10000 1.54 50 18:39 07.09.2021
5846 Clear 24 1023 46 10000 2.06 90 17:43 07.09.2021
5847 Clear 23 1024 49 10000 1.54 0 15:57 07.09.2021
5848 Clear 23 1024 49 10000 1.54 0 15:33 07.09.2021
5849 Clear 23 1025 46 10000 1.54 20 13:54 07.09.2021
5850 Clear 21 1025 60 10000 1.54 320 12:28 07.09.2021
5851 Clear 19 1025 63 10000 1.03 0 11:26 07.09.2021
5852 Clear 18 1025 72 10000 1.54 350 10:37 07.09.2021
5853 Clear 13 1024 100 10000 1.03 190 08:18 07.09.2021
5854 Clouds 12 1024 79 10000 1.17 35 06:43 07.09.2021
5855 Clouds 13 1024 69 10000 0.74 14 02:43 07.09.2021
5856 Clouds 13 1025 75 10000 0.13 55 02:25 07.09.2021
5857 Clouds 14 1025 74 10000 0.5 69 00:23 07.09.2021
5858 Clouds 15 1025 74 10000 0.5 69 23:31 06.09.2021
5859 Clouds 16 1025 72 10000 0.71 64 22:53 06.09.2021
5860 Clouds 16 1025 66 10000 1.2 27 22:25 06.09.2021
5861 Clear 18 1024 67 10000 2.57 270 20:37 06.09.2021
5862 Clear 21 1024 45 10000 3.09 290 19:22 06.09.2021
5863 Clear 23 1024 37 10000 3.6 320 18:37 06.09.2021
5864 Clear 24 1024 38 10000 4.12 340 17:58 06.09.2021
5865 Clear 24 1024 38 10000 3.6 330 17:24 06.09.2021
5866 Clear 25 1024 43 10000 4.12 310 15:37 06.09.2021
5867 Clear 24 1024 56 10000 3.09 320 13:46 06.09.2021
5868 Clear 22 1024 60 10000 1.03 0 12:45 06.09.2021
5869 Fog 17 1024 82 7000 1.03 0 10:40 06.09.2021
5870 Clear 9 1024 100 100 1.03 0 07:54 06.09.2021
5871 Clear 11 1023 90 10000 0.75 94 04:38 06.09.2021
5872 Clear 14 1023 84 10000 0.86 77 23:24 05.09.2021
5873 Clear 15 1023 82 10000 1.54 180 22:34 05.09.2021
5874 Clear 15 1023 82 10000 1.54 220 21:57 05.09.2021
5875 Clear 16 1022 77 10000 1.03 0 21:21 05.09.2021
5876 Clear 20 1022 56 10000 1.54 80 19:48 05.09.2021
5877 Clear 22 1021 53 10000 2.57 80 18:32 05.09.2021
5878 Clear 24 1021 49 10000 1.54 40 17:22 05.09.2021
5879 Clear 23 1022 53 10000 1.54 0 15:24 05.09.2021
5880 Clear 20 1022 60 10000 2.06 90 13:40 05.09.2021
5881 Clear 17 1022 77 10000 2.57 80 11:45 05.09.2021
5882 Fog 14 1022 88 8000 1.54 110 10:46 05.09.2021
5883 Fog 12 1022 100 100 0.51 0 09:42 05.09.2021
5884 Fog 10 1021 100 150 0.51 0 08:37 05.09.2021
5885 Fog 9 1021 100 300 0.51 0 06:45 05.09.2021
5886 Clear 13 1020 91 10000 1.34 64 00:42 05.09.2021
5887 Clear 13 1020 90 10000 1.35 60 23:59 04.09.2021
5888 Clear 14 1020 90 10000 1.64 52 23:26 04.09.2021
5889 Clear 14 1020 90 10000 1.64 52 22:35 04.09.2021
5890 Clear 15 1019 88 10000 2.2 43 21:20 04.09.2021
5891 Clear 19 1018 72 10000 2.57 360 19:40 04.09.2021
5892 Clear 20 1019 72 10000 2.57 330 17:25 04.09.2021
5893 Clouds 20 1019 82 10000 2.06 320 15:41 04.09.2021
5894 Clouds 14 1020 100 1600 1.03 0 11:54 04.09.2021
5895 Fog 13 1020 100 500 1.54 340 10:55 04.09.2021
5896 Fog 11 1019 100 250 1.03 0 08:39 04.09.2021
5897 Clear 13 1019 89 10000 1.36 36 00:50 04.09.2021
5898 Clear 14 1019 88 10000 1.5 37 00:19 04.09.2021
5899 Clear 15 1019 88 10000 1.54 240 23:22 03.09.2021
5900 Clear 16 1019 88 10000 1.54 240 21:43 03.09.2021
5901 Clear 16 1019 82 10000 1.54 230 21:23 03.09.2021
5902 Clear 19 1019 68 10000 2.57 10 20:30 03.09.2021
5903 Clear 21 1019 60 10000 2.57 20 19:38 03.09.2021
5904 Clear 24 1019 53 10000 2.57 340 18:33 03.09.2021
5905 Clouds 24 1019 53 10000 2.06 350 17:21 03.09.2021
5906 Clouds 24 1021 53 10000 1.54 0 15:46 03.09.2021
5907 Clouds 24 1021 60 10000 2.06 0 14:40 03.09.2021
5908 Clouds 16 1022 100 1500 0.51 0 11:21 03.09.2021
5909 Clouds 16 1022 100 1500 0.51 0 11:21 03.09.2021
5910 Fog 13 1022 100 150 1.03 0 10:18 03.09.2021
5911 Fog 11 1023 100 100 0.51 0 08:22 03.09.2021
5912 Clear 11 1023 93 10000 0.31 132 06:51 03.09.2021
5913 Clear 13 1025 89 10000 1.12 102 23:58 02.09.2021
5914 Clear 14 1025 85 10000 1.32 103 22:21 02.09.2021
5915 Clear 17 1025 77 10000 0.51 0 20:51 02.09.2021
5916 Clouds 22 1025 49 10000 1.54 110 18:52 02.09.2021
5917 Clouds 23 1026 53 10000 3.09 90 16:39 02.09.2021
5918 Clouds 22 1027 64 10000 1.54 0 15:31 02.09.2021
5919 Clouds 20 1028 72 10000 1.54 180 13:42 02.09.2021
5920 Clouds 16 1028 88 5000 0.51 0 11:46 02.09.2021
5921 Mist 15 1028 94 3000 1.03 0 11:24 02.09.2021
5922 Mist 11 1028 100 3000 0.51 0 09:20 02.09.2021
5923 Clear 10 1027 95 10000 0.44 23 07:36 02.09.2021
5924 Clear 10 1027 100 10000 1.54 240 05:53 02.09.2021
5925 Clear 10 1028 94 10000 1.09 350 02:37 02.09.2021
5926 Clear 11 1028 92 10000 0.73 354 01:50 02.09.2021
5927 Clear 12 1028 91 10000 1.02 344 23:41 01.09.2021
5928 Clear 12 1027 90 10000 0.86 353 23:23 01.09.2021
5929 Clear 13 1027 90 10000 0.86 353 22:30 01.09.2021
5930 Clear 13 1027 89 10000 0.81 349 21:32 01.09.2021
5931 Clouds 18 1027 63 10000 3.09 320 19:37 01.09.2021
5932 Clouds 19 1027 59 10000 2.57 320 17:55 01.09.2021
5933 Clouds 19 1027 59 10000 2.06 300 16:59 01.09.2021
5934 Clouds 19 1027 59 10000 2.06 300 16:36 01.09.2021
5935 Clouds 18 1028 67 10000 3.09 320 14:59 01.09.2021
5936 Clouds 16 1028 77 10000 2.57 330 11:47 01.09.2021
5937 Clouds 15 1028 88 10000 2.57 340 10:23 01.09.2021
5938 Clouds 14 1027 88 10000 2.57 340 08:42 01.09.2021
5939 Clouds 13 1026 94 10000 1.72 332 06:59 01.09.2021
5940 Clouds 13 1025 85 10000 1.59 322 23:33 31.08.2021
5941 Clouds 14 1024 70 10000 1.86 330 22:23 31.08.2021
5942 Clouds 18 1023 77 10000 3.6 290 20:19 31.08.2021
5943 Clouds 19 1023 68 10000 4.63 300 19:43 31.08.2021
5944 Clouds 20 1023 60 10000 6.69 310 17:52 31.08.2021
5945 Clouds 20 1023 60 10000 5.14 320 17:26 31.08.2021
5946 Clouds 20 1023 60 10000 6.17 320 16:41 31.08.2021
5947 Clouds 19 1024 72 10000 6.17 300 15:26 31.08.2021
5948 Clouds 18 1023 72 10000 5.66 320 12:19 31.08.2021
5949 Clouds 17 1023 77 10000 5.14 320 11:20 31.08.2021
5950 Clouds 17 1023 82 10000 5.66 320 10:43 31.08.2021
5951 Clouds 15 1022 94 10000 4.12 300 09:41 31.08.2021
5952 Clouds 13 1022 94 10000 2.57 280 07:52 31.08.2021
5953 Clouds 13 1021 97 10000 1.65 340 05:57 31.08.2021
5954 Clouds 15 1020 96 10000 2.14 341 23:36 30.08.2021
5955 Clouds 15 1020 96 10000 2.34 348 22:36 30.08.2021
5956 Clouds 15 1019 94 10000 4.12 330 21:35 30.08.2021
5957 Clouds 16 1019 88 10000 3.6 340 20:41 30.08.2021
5958 Clouds 17 1018 82 10000 3.6 340 19:53 30.08.2021
5959 Clouds 17 1018 77 10000 4.63 350 19:19 30.08.2021
5960 Clouds 18 1018 77 10000 5.66 340 17:50 30.08.2021
5961 Clouds 17 1018 88 10000 5.14 340 16:28 30.08.2021
5962 Clouds 17 1018 77 10000 5.14 350 15:45 30.08.2021
5963 Clouds 17 1017 88 10000 4.12 350 13:58 30.08.2021
5964 Clouds 16 1017 94 4800 6.69 340 12:58 30.08.2021
5965 Clouds 16 1017 94 10000 5.66 350 10:59 30.08.2021
5966 Clouds 15 1015 95 10000 4.09 345 03:31 30.08.2021
5967 Clouds 16 1016 100 10000 4.63 310 21:36 29.08.2021
5968 Clouds 16 1016 94 10000 5.14 320 20:48 29.08.2021
5969 Clouds 16 1015 94 10000 4.63 330 19:28 29.08.2021
5970 Clouds 16 1016 94 10000 4.12 320 18:24 29.08.2021
5971 Clouds 16 1016 94 10000 4.12 330 15:58 29.08.2021
5972 Clouds 16 1016 94 10000 4.12 310 14:28 29.08.2021
5973 Clouds 16 1016 94 10000 4.63 320 13:55 29.08.2021
5974 Clouds 16 1016 94 10000 4.63 320 13:55 29.08.2021
5975 Clouds 15 1016 94 6000 4.12 330 12:57 29.08.2021
5976 Clouds 15 1016 100 5000 4.63 340 11:59 29.08.2021
5977 Clouds 14 1016 100 5000 4.63 340 11:39 29.08.2021
5978 Mist 14 1016 94 4900 3.6 330 10:46 29.08.2021
5979 Mist 14 1016 100 4800 3.6 330 10:27 29.08.2021
5980 Mist 14 1016 100 3500 3.09 320 09:26 29.08.2021
5981 Rain 14 1016 98 3099 2.66 323 03:26 29.08.2021
5982 Rain 14 1018 98 9014 2.35 323 22:29 28.08.2021
5983 Rain 15 1017 100 9000 3.09 300 20:31 28.08.2021
5984 Rain 16 1017 88 10000 4.63 320 19:19 28.08.2021
5985 Clouds 18 1017 72 10000 4.63 320 18:22 28.08.2021
5986 Clouds 18 1017 68 10000 4.63 340 17:45 28.08.2021
5987 Clouds 17 1017 88 10000 4.63 340 16:21 28.08.2021
5988 Clouds 18 1017 68 10000 4.63 320 14:43 28.08.2021
5989 Clouds 17 1017 67 10000 3.6 350 13:47 28.08.2021
5990 Clouds 17 1017 72 10000 3.6 340 12:46 28.08.2021
5991 Clouds 16 1017 77 10000 3.09 320 11:58 28.08.2021
5992 Clouds 15 1017 82 10000 3.6 300 10:45 28.08.2021
5993 Clouds 14 1017 88 9000 2.06 300 09:33 28.08.2021
5994 Rain 12 1017 97 10000 1.06 300 07:25 28.08.2021
5995 Clouds 13 1016 95 10000 1.6 318 22:50 27.08.2021
5996 Clouds 13 1015 100 10000 3.09 280 21:26 27.08.2021
5997 Clouds 14 1015 94 10000 3.6 290 20:35 27.08.2021
5998 Clouds 14 1014 100 9000 6.17 300 19:29 27.08.2021
5999 Rain 15 1014 88 10000 3.09 270 18:38 27.08.2021
6000 Clouds 15 1013 88 10000 4.12 330 17:30 27.08.2021
6001 Clouds 15 1013 94 10000 4.63 310 16:28 27.08.2021
6002 Rain 16 1013 82 10000 7.72 300 14:44 27.08.2021
6003 Rain 15 1014 88 10000 7.2 280 12:55 27.08.2021
6004 Rain 14 1014 88 10000 7.2 290 11:38 27.08.2021
6005 Clouds 14 1014 82 10000 7.72 290 10:45 27.08.2021
6006 Clouds 14 1014 88 10000 5.66 280 09:51 27.08.2021
6007 Clouds 13 1014 87 10000 6.69 290 08:48 27.08.2021
6008 Clouds 13 1014 87 10000 5.14 290 07:39 27.08.2021
6009 Clouds 12 1014 98 2635 2.04 294 05:31 27.08.2021
6010 Clouds 12 1014 94 10000 1.49 287 00:37 27.08.2021
6011 Clear 12 1014 92 10000 1.61 302 23:19 26.08.2021
6012 Clouds 13 1013 82 10000 3.09 310 22:19 26.08.2021
6013 Clouds 13 1013 82 10000 3.09 310 22:19 26.08.2021
6014 Clouds 13 1013 82 10000 3.09 310 22:19 26.08.2021
6015 Clouds 13 1013 82 10000 3.09 310 22:19 26.08.2021
6016 Clouds 13 1013 94 10000 4.12 290 20:44 26.08.2021
6017 Clouds 15 1012 88 10000 5.14 280 19:20 26.08.2021
6018 Clouds 15 1012 94 10000 5.66 280 17:45 26.08.2021
6019 Clouds 17 1012 36 10000 7.2 290 16:44 26.08.2021
6020 Clouds 16 1012 77 10000 9.77 300 16:26 26.08.2021
6021 Clouds 19 1012 63 10000 8.23 290 13:53 26.08.2021
6022 Clouds 18 1012 63 10000 8.23 300 12:56 26.08.2021
6023 Clouds 18 1012 67 10000 8.75 300 12:31 26.08.2021
6024 Clouds 15 1013 88 10000 5.14 310 10:21 26.08.2021
6025 Clouds 14 1012 94 10000 3.6 290 08:34 26.08.2021
6026 Clouds 13 1012 87 10000 4.09 316 06:34 26.08.2021
6027 Clouds 17 1014 80 10000 4.34 279 22:54 25.08.2021
6028 Clouds 17 1014 80 10000 4.34 279 22:35 25.08.2021
6029 Clear 17 1016 67 10000 3.09 300 21:42 25.08.2021
6030 Clear 18 1016 59 10000 4.63 300 20:48 25.08.2021
6031 Clear 19 1016 55 10000 4.12 300 20:28 25.08.2021
6032 Clear 20 1017 55 10000 5.66 300 18:42 25.08.2021
6033 Clear 21 1018 52 10000 5.66 290 17:36 25.08.2021
6034 Clouds 22 1020 46 10000 4.63 270 15:44 25.08.2021
6035 Clouds 21 1021 52 10000 5.14 290 14:48 25.08.2021
6036 Clouds 21 1021 49 10000 4.12 300 14:29 25.08.2021
6037 Clouds 20 1022 52 10000 2.57 280 13:25 25.08.2021
6038 Clear 17 1024 63 10000 1.03 0 11:27 25.08.2021
6039 Clear 15 1024 82 10000 1.03 0 10:43 25.08.2021
6040 Clear 14 1024 82 10000 0.51 0 09:55 25.08.2021
6041 Clear 11 1024 93 10000 0.51 0 08:50 25.08.2021
6042 Clouds 11 1024 93 10000 0.51 0 08:29 25.08.2021
6043 Clouds 9 1025 86 10000 0.84 19 03:53 25.08.2021
6044 Clear 12 1027 87 10000 0.51 0 23:54 24.08.2021
6045 Clear 14 1027 72 10000 1.03 0 21:49 24.08.2021
6046 Clear 16 1027 67 10000 1.54 20 20:48 24.08.2021
6047 Clouds 18 1026 55 10000 2.57 40 19:52 24.08.2021
6048 Clouds 20 1027 52 10000 4.63 50 17:58 24.08.2021
6049 Clouds 20 1027 52 10000 4.63 50 17:58 24.08.2021
6050 Clouds 20 1027 52 10000 4.63 50 17:58 24.08.2021
6051 Clouds 20 1027 52 10000 4.12 40 17:28 24.08.2021
6052 Clouds 21 1027 49 10000 4.12 60 16:56 24.08.2021
6053 Clouds 19 1027 55 10000 4.63 50 14:30 24.08.2021
6054 Clouds 19 1027 63 10000 4.12 50 13:25 24.08.2021
6055 Clouds 17 1027 67 10000 3.6 40 11:47 24.08.2021
6056 Clouds 16 1027 72 10000 2.06 340 10:48 24.08.2021
6057 Clouds 15 1027 77 10000 1.54 30 10:27 24.08.2021
6058 Clouds 12 1027 87 10000 3.09 320 08:50 24.08.2021
6059 Clear 8 1027 91 10000 2.37 8 06:51 24.08.2021
6060 Clear 10 1026 87 10000 2.61 5 04:54 24.08.2021
6061 Clear 11 1026 79 10000 2.31 19 00:47 24.08.2021
6062 Clear 13 1025 75 10000 2.37 26 22:52 23.08.2021
6063 Clear 14 1025 73 10000 2.42 27 22:21 23.08.2021
6064 Clouds 17 1023 63 10000 3.09 340 20:31 23.08.2021
6065 Clouds 20 1023 55 10000 3.6 20 19:19 23.08.2021
6066 Clouds 20 1022 60 10000 5.14 360 16:39 23.08.2021
6067 Clouds 18 1022 88 10000 4.63 340 14:46 23.08.2021
6068 Clouds 17 1022 94 8000 4.63 340 12:57 23.08.2021
6069 Drizzle 17 1022 100 7000 4.63 350 12:19 23.08.2021
6070 Clouds 17 1021 94 7000 4.12 330 10:38 23.08.2021
6071 Mist 16 1020 100 5000 3.6 320 09:41 23.08.2021
6072 Mist 15 1020 100 5000 3.09 290 08:33 23.08.2021
6073 Clouds 15 1020 96 10000 1.15 308 06:50 23.08.2021
6074 Clouds 15 1020 96 10000 1.15 308 06:30 23.08.2021
6075 Clouds 15 1018 91 10000 0.41 283 00:54 23.08.2021
6076 Clear 16 1018 94 10000 0.51 0 22:45 22.08.2021
6077 Clear 16 1018 94 10000 0.51 0 22:26 22.08.2021
6078 Rain 16 1016 94 10000 2.57 160 20:22 22.08.2021
6079 Rain 17 1016 88 10000 3.6 220 19:35 22.08.2021
6080 Clouds 19 1016 88 10000 2.06 170 16:33 22.08.2021
6081 Rain 19 1015 65 10000 4.2 252 15:22 22.08.2021
6082 Rain 21 1015 73 10000 2.57 300 14:37 22.08.2021
6083 Clouds 22 1016 64 10000 4.12 250 13:21 22.08.2021
6084 Clouds 21 1016 73 10000 2.06 260 12:51 22.08.2021
6085 Clouds 21 1016 77 10000 2.06 160 12:25 22.08.2021
6086 Clouds 20 1016 82 10000 2.06 270 11:42 22.08.2021
6087 Clouds 19 1016 94 10000 1.54 170 10:21 22.08.2021
6088 Clouds 17 1015 94 10000 0.51 0 08:19 22.08.2021
6089 Rain 17 1015 82 10000 1.54 60 04:56 22.08.2021
6090 Clouds 17 1016 76 10000 1.31 94 23:57 21.08.2021
6091 Clouds 17 1016 76 10000 1.31 94 23:57 21.08.2021
6092 Clear 19 1017 77 10000 1.03 0 22:34 21.08.2021
6093 Clear 22 1017 60 10000 1.03 140 20:24 21.08.2021
6094 Clear 24 1018 53 10000 3.09 160 18:39 21.08.2021
6095 Clear 25 1018 46 10000 3.6 140 17:48 21.08.2021
6096 Clouds 25 1018 50 10000 2.06 170 16:53 21.08.2021
6097 Clouds 25 1019 50 10000 2.57 180 15:52 21.08.2021
6098 Clouds 25 1019 50 10000 2.06 150 15:26 21.08.2021
6099 Clouds 24 1019 53 10000 1.54 120 14:32 21.08.2021
6100 Clouds 23 1020 64 10000 1.54 0 13:28 21.08.2021
6101 Clouds 23 1020 64 10000 1.03 0 12:24 21.08.2021
6102 Clouds 17 1020 94 8000 0.51 0 09:21 21.08.2021
6103 Clear 12 1019 100 8000 1.03 160 05:32 21.08.2021
6104 Clouds 15 1019 78 10000 0.76 250 22:43 20.08.2021
6105 Clear 17 1018 77 10000 2.57 240 21:18 20.08.2021
6106 Clouds 21 1018 64 10000 1.54 340 17:46 20.08.2021
6107 Clouds 21 1017 60 10000 4.12 290 15:51 20.08.2021
6108 Clouds 21 1017 56 10000 3.6 290 13:35 20.08.2021
6109 Clouds 19 1017 68 10000 2.57 240 11:35 20.08.2021
6110 Clouds 18 1017 77 10000 4.63 290 10:41 20.08.2021
6111 Clouds 17 1016 82 10000 3.09 240 09:29 20.08.2021
6112 Clouds 16 1016 88 10000 3.09 220 08:40 20.08.2021
6113 Clouds 15 1015 92 10000 2.07 210 06:22 20.08.2021
6114 Clouds 16 1015 91 10000 2.07 189 04:21 20.08.2021
6115 Clouds 17 1016 93 10000 1.86 218 00:18 20.08.2021
6116 Clouds 17 1016 92 10000 1.86 224 22:39 19.08.2021
6117 Clouds 17 1015 82 10000 1.03 290 22:18 19.08.2021
6118 Clouds 18 1014 82 10000 1.54 330 20:25 19.08.2021
6119 Clouds 19 1014 77 10000 2.57 280 19:30 19.08.2021
6120 Clouds 19 1014 88 10000 4.12 290 17:18 19.08.2021
6121 Clouds 19 1014 82 10000 3.6 260 15:40 19.08.2021
6122 Clouds 18 1014 94 10000 2.57 260 13:19 19.08.2021
6123 Clouds 18 1014 88 10000 2.57 210 12:31 19.08.2021
6124 Clouds 17 1014 94 10000 1.54 230 11:18 19.08.2021
6125 Mist 16 1014 100 4500 3.09 270 09:50 19.08.2021
6126 Rain 16 1014 100 3000 3.6 300 09:30 19.08.2021
6127 Mist 16 1013 94 2500 2.06 320 08:54 19.08.2021
6128 Clouds 16 1013 91 10000 3.17 226 06:32 19.08.2021
6129 Clouds 16 1014 96 10000 2.43 220 02:21 19.08.2021
6130 Clouds 16 1014 96 10000 2.57 209 01:41 19.08.2021
6131 Clouds 17 1014 95 10000 2.86 228 22:40 18.08.2021
6132 Clouds 17 1014 72 10000 3.09 250 21:37 18.08.2021
6133 Clouds 18 1014 68 10000 4.12 240 20:24 18.08.2021
6134 Clouds 19 1014 63 10000 3.09 270 19:28 18.08.2021
6135 Clouds 19 1014 63 10000 4.12 280 18:36 18.08.2021
6136 Clouds 19 1015 59 10000 5.14 250 17:24 18.08.2021
6137 Clouds 19 1015 59 10000 5.14 260 15:45 18.08.2021
6138 Clouds 19 1015 63 10000 4.12 240 15:22 18.08.2021
6139 Clouds 18 1015 67 10000 4.12 260 13:28 18.08.2021
6140 Clouds 17 1015 72 10000 4.63 280 12:41 18.08.2021
6141 Clouds 17 1016 77 10000 4.63 240 12:23 18.08.2021
6142 Clouds 15 1015 94 10000 4.12 250 08:59 18.08.2021
6143 Clouds 13 1016 94 10000 3.39 232 04:30 18.08.2021
6144 Clouds 12 1016 92 10000 2.82 228 23:35 17.08.2021
6145 Clouds 12 1016 88 10000 3.69 227 22:21 17.08.2021
6146 Clear 13 1016 71 10000 3.6 230 21:22 17.08.2021
6147 Clear 14 1016 62 10000 4.12 240 20:42 17.08.2021
6148 Clouds 15 1016 59 10000 5.14 260 18:49 17.08.2021
6149 Clouds 18 1016 52 10000 6.17 260 17:26 17.08.2021
6150 Clouds 18 1016 55 10000 6.69 260 16:28 17.08.2021
6151 Rain 17 1016 59 10000 6.17 250 15:35 17.08.2021
6152 Clouds 17 1016 59 10000 7.2 270 13:23 17.08.2021
6153 Clouds 16 1017 67 10000 8.23 280 11:25 17.08.2021
6154 Clouds 14 1016 71 10000 6.17 270 09:20 17.08.2021
6155 Clouds 12 1016 76 10000 6.17 260 07:37 17.08.2021
6156 Clouds 12 1015 79 10000 5.42 262 23:28 16.08.2021
6157 Clouds 12 1015 79 10000 5.42 262 22:54 16.08.2021
6158 Clouds 12 1015 79 10000 5.42 262 22:35 16.08.2021
6159 Clouds 12 1013 87 10000 4.63 240 21:51 16.08.2021
6160 Rain 13 1013 87 10000 3.6 260 20:53 16.08.2021
6161 Clouds 13 1012 94 10000 4.12 270 19:29 16.08.2021
6162 Clouds 14 1012 87 10000 5.14 280 18:50 16.08.2021
6163 Clouds 15 1011 88 10000 3.6 250 17:55 16.08.2021
6164 Rain 15 1011 88 10000 5.14 270 16:57 16.08.2021
6165 Clouds 19 1009 63 10000 6.69 220 15:28 16.08.2021
6166 Clouds 20 1009 63 10000 6.69 230 14:27 16.08.2021
6167 Clouds 20 1010 63 10000 8.23 220 13:24 16.08.2021
6168 Clouds 18 1010 72 10000 6.69 230 12:29 16.08.2021
6169 Clouds 19 1009 63 10000 6.17 230 10:36 16.08.2021
6170 Clouds 17 1010 67 10000 4.12 260 08:43 16.08.2021
6171 Clouds 17 1009 72 10000 5.14 260 07:30 16.08.2021
6172 Clouds 16 1009 95 10000 2.73 203 06:21 16.08.2021
6173 Clouds 16 1010 85 10000 2.32 222 01:44 16.08.2021
6174 Clear 21 1011 68 10000 1.54 200 21:37 15.08.2021
6175 Clouds 24 1011 50 10000 3.09 270 20:27 15.08.2021
6176 Clear 27 1012 36 10000 3.09 200 18:42 15.08.2021
6177 Clear 26 1012 47 10000 3.6 210 17:50 15.08.2021
6178 Clear 27 1013 41 10000 4.63 230 17:22 15.08.2021
6179 Clouds 26 1014 47 10000 4.12 200 15:49 15.08.2021
6180 Clouds 25 1014 53 10000 4.12 200 14:38 15.08.2021
6181 Clouds 25 1015 60 10000 4.12 180 13:35 15.08.2021
6182 Clear 22 1016 68 10000 3.09 130 10:50 15.08.2021
6183 Clear 16 1017 88 10000 1.03 0 08:35 15.08.2021
6184 Clear 16 1019 83 10000 0.72 224 01:22 15.08.2021
6185 Clear 17 1019 77 10000 2.57 260 00:33 15.08.2021
6186 Clear 20 1018 60 10000 3.09 310 21:27 14.08.2021
6187 Clear 22 1018 62 10000 2.71 307 20:28 14.08.2021
6188 Clear 26 1018 38 10000 5.14 270 19:33 14.08.2021
6189 Clear 27 1018 41 10000 6.69 260 18:33 14.08.2021
6190 Clear 28 1019 41 10000 5.66 290 16:44 14.08.2021
6191 Clouds 28 1019 41 10000 4.63 260 15:34 14.08.2021
6192 Clouds 26 1020 50 10000 4.63 200 13:49 14.08.2021
6193 Clouds 22 1022 64 10000 2.06 120 10:58 14.08.2021
6194 Clouds 19 1022 77 10000 1.54 100 09:43 14.08.2021
6195 Clear 14 1022 86 10000 1.33 180 05:26 14.08.2021
6196 Clouds 17 1023 81 10000 0.7 308 23:51 13.08.2021
6197 Clear 21 1022 68 10000 4.12 300 21:51 13.08.2021
6198 Clear 24 1021 60 10000 5.14 300 20:22 13.08.2021
6199 Clouds 26 1021 61 10000 6.17 310 18:46 13.08.2021
6200 Clear 28 1021 57 10000 7.2 300 17:18 13.08.2021
6201 Clear 29 1020 44 10000 4.12 240 15:55 13.08.2021
6202 Clear 26 1021 65 10000 3.09 120 11:56 13.08.2021
6203 Clear 25 1021 69 10000 2.06 140 11:18 13.08.2021
6204 Clear 18 1021 94 10000 1.54 160 08:40 13.08.2021
6205 Clear 16 1021 94 10000 1.03 80 07:59 13.08.2021
6206 Clouds 16 1020 89 10000 1.33 180 06:35 13.08.2021
6207 Clouds 17 1021 85 10000 0.66 145 00:29 13.08.2021
6208 Clouds 19 1020 77 10000 2.06 210 21:51 12.08.2021
6209 Clear 22 1020 64 10000 1.03 0 20:42 12.08.2021
6210 Clear 25 1020 53 10000 2.57 190 19:50 12.08.2021
6211 Clear 27 1019 50 10000 2.57 160 18:34 12.08.2021
6212 Clouds 26 1020 53 10000 4.12 210 16:50 12.08.2021
6213 Clouds 27 1020 50 10000 4.63 170 15:51 12.08.2021
6214 Clouds 26 1020 53 10000 4.63 190 13:52 12.08.2021
6215 Clear 24 1021 64 10000 3.09 140 11:39 12.08.2021
6216 Clear 21 1021 68 10000 3.09 140 09:35 12.08.2021
6217 Clouds 15 1021 94 10000 1.03 100 07:51 12.08.2021
6218 Clouds 16 1021 78 10000 1.35 106 23:22 11.08.2021
6219 Clouds 17 1021 77 10000 1.33 66 21:53 11.08.2021
6220 Clear 23 1020 49 10000 1.03 0 19:20 11.08.2021
6221 Clouds 24 1020 46 10000 2.06 0 18:26 11.08.2021
6222 Clouds 23 1020 60 10000 2.06 40 15:37 11.08.2021
6223 Clouds 23 1020 60 10000 2.06 0 15:19 11.08.2021
6224 Clouds 21 1021 64 10000 1.03 0 13:50 11.08.2021
6225 Clouds 21 1020 68 10000 3.6 140 12:29 11.08.2021
6226 Clouds 19 1020 68 10000 1.54 270 11:45 11.08.2021
6227 Clouds 19 1020 68 10000 1.54 0 11:21 11.08.2021
6228 Fog 15 1020 94 10000 1.03 120 08:54 11.08.2021
6229 Fog 13 1019 100 10000 0.51 0 06:58 11.08.2021
6230 Clouds 15 1018 93 10000 1.37 191 22:46 10.08.2021
6231 Clouds 16 1018 92 10000 0.67 189 22:20 10.08.2021
6232 Rain 17 1016 94 10000 2.06 300 20:55 10.08.2021
6233 Clouds 21 1016 64 10000 4.63 330 19:27 10.08.2021
6234 Clouds 23 1016 49 10000 3.6 260 18:18 10.08.2021
6235 Clouds 21 1017 60 10000 5.66 230 15:37 10.08.2021
6236 Clouds 22 1017 60 10000 3.6 230 14:40 10.08.2021
6237 Clouds 16 1018 82 10000 2.57 180 10:58 10.08.2021
6238 Clouds 15 1018 88 10000 2.06 180 09:37 10.08.2021
6239 Clouds 12 1018 94 10000 2.48 173 06:21 10.08.2021
6240 Clouds 13 1019 92 10000 2.61 176 00:55 10.08.2021
6241 Clouds 14 1019 90 10000 2.31 174 23:35 09.08.2021
6242 Clear 16 1018 67 10000 2.57 200 21:54 09.08.2021
6243 Clear 18 1017 63 10000 2.57 200 21:29 09.08.2021
6244 Clouds 21 1017 56 10000 6.17 190 18:54 09.08.2021
6245 Clouds 19 1018 72 10000 3.6 190 16:57 09.08.2021
6246 Rain 20 1018 59 10000 4.12 210 14:42 09.08.2021
6247 Clouds 21 1017 56 10000 6.17 200 13:32 09.08.2021
6248 Clouds 20 1018 63 10000 4.63 200 12:40 09.08.2021
6249 Clouds 17 1017 72 10000 3.6 170 09:56 09.08.2021
6250 Clouds 14 1017 88 10000 0.51 0 08:25 09.08.2021
6251 Rain 15 1015 82 10000 3.09 180 22:40 08.08.2021
6252 Clouds 16 1014 67 10000 3.09 230 21:24 08.08.2021
6253 Clouds 16 1014 67 10000 3.09 230 21:24 08.08.2021
6254 Clouds 18 1012 55 10000 7.72 200 18:25 08.08.2021
6255 Clouds 20 1011 52 10000 6.69 210 16:39 08.08.2021
6256 Clouds 21 1011 56 10000 5.14 210 15:30 08.08.2021
6257 Clouds 19 1010 55 10000 6.17 210 12:48 08.08.2021
6258 Clouds 17 1009 67 10000 4.63 210 10:43 08.08.2021
6259 Clouds 15 1008 92 10000 5.95 213 06:42 08.08.2021
6260 Clouds 15 1006 88 10000 4.63 200 05:35 08.08.2021
6261 Clouds 16 1006 95 10000 3.99 191 00:29 08.08.2021
6262 Clear 18 1004 77 10000 6.17 190 22:19 07.08.2021
6263 Rain 18 1004 77 10000 6.17 190 21:39 07.08.2021
6264 Clouds 22 1003 60 10000 8.23 190 18:59 07.08.2021
6265 Clouds 21 1003 64 10000 6.17 180 17:19 07.08.2021
6266 Clouds 21 1004 68 10000 4.12 190 16:24 07.08.2021
6267 Clouds 21 1005 68 10000 4.63 180 14:00 07.08.2021
6268 Clouds 21 1005 68 10000 6.17 180 12:26 07.08.2021
6269 Clouds 17 1006 82 10000 2.06 120 09:45 07.08.2021
6270 Clear 13 1007 97 10000 2.44 173 04:56 07.08.2021
6271 Clear 15 1007 94 10000 2.57 193 23:54 06.08.2021
6272 Clear 17 1006 89 10000 2.44 227 21:22 06.08.2021
6273 Clouds 20 1005 68 10000 1.54 0 20:27 06.08.2021
6274 Clouds 21 1005 73 10000 2.57 320 19:55 06.08.2021
6275 Clouds 22 1005 60 10000 3.6 260 17:51 06.08.2021
6276 Clouds 21 1004 73 10000 5.66 210 13:42 06.08.2021
6277 Clouds 18 1005 59 10000 3.6 120 09:57 06.08.2021
6278 Clouds 17 1005 100 10000 4.12 170 08:39 06.08.2021
6279 Clouds 14 1007 93 10000 2.33 160 00:37 06.08.2021
6280 Clouds 15 1007 90 10000 1.84 164 23:26 05.08.2021
6281 Rain 18 1008 77 10000 2.06 0 21:31 05.08.2021
6282 Rain 19 1007 68 10000 2.06 110 19:53 05.08.2021
6283 Clouds 22 1008 64 10000 2.57 110 18:26 05.08.2021
6284 Clouds 20 1009 77 10000 4.12 0 15:44 05.08.2021
6285 Clouds 21 1010 64 10000 3.09 100 12:49 05.08.2021
6286 Clouds 15 1011 100 6000 1.03 0 08:52 05.08.2021
6287 Fog 15 1011 100 200 1.54 120 07:51 05.08.2021
6288 Clouds 15 1012 93 10000 1.33 193 02:51 05.08.2021
6289 Clouds 16 1012 89 10000 1.09 156 22:41 04.08.2021
6290 Clouds 17 1012 86 10000 0.61 95 21:26 04.08.2021
6291 Clouds 20 1012 68 10000 1.54 350 19:25 04.08.2021
6292 Clouds 21 1013 82 10000 0.51 0 17:22 04.08.2021
6293 Clouds 21 1013 64 10000 2.57 270 14:46 04.08.2021
6294 Clouds 19 1014 72 10000 1.03 0 12:21 04.08.2021
6295 Fog 14 1014 100 1000 0.51 0 07:38 04.08.2021
6296 Clouds 16 1012 82 10000 2.57 130 20:58 03.08.2021
6297 Clouds 17 1012 77 10000 1.54 30 20:26 03.08.2021
6298 Clouds 17 1013 77 10000 1.03 0 18:37 03.08.2021
6299 Clouds 17 1013 68 10000 1.54 0 16:58 03.08.2021
6300 Clouds 19 1014 59 10000 3.09 120 13:57 03.08.2021
6301 Clouds 16 1014 82 10000 1.54 120 10:57 03.08.2021
6302 Clouds 16 1015 82 10000 1.03 0 09:42 03.08.2021
6303 Clouds 15 1015 85 10000 0.94 310 21:55 02.08.2021
6304 Clouds 19 1014 55 10000 5.14 310 16:40 02.08.2021
6305 Clouds 19 1014 59 10000 4.63 310 15:31 02.08.2021
6306 Clouds 17 1014 77 10000 3.6 340 12:40 02.08.2021
6307 Rain 17 1014 72 10000 2.57 260 11:57 02.08.2021
6308 Clouds 16 1014 77 10000 3.09 280 09:51 02.08.2021
6309 Clouds 14 1013 96 10000 1.54 261 05:30 02.08.2021
6310 Clouds 20 1009 77 10000 1.54 180 18:27 01.08.2021
6311 Clouds 20 1008 60 10000 2.47 279 15:31 01.08.2021
6312 Clouds 19 1009 72 10000 2.57 280 11:38 01.08.2021
6313 Clouds 17 1009 82 10000 2.06 280 09:47 01.08.2021
6314 Clouds 13 1010 94 10000 1.15 195 03:49 01.08.2021
6315 Clouds 16 1010 91 10000 1.94 229 22:53 31.07.2021
6316 Clouds 19 1009 59 10000 4.63 250 20:54 31.07.2021
6317 Clouds 22 1009 52 10000 7.2 240 17:49 31.07.2021
6318 Clouds 21 1009 52 10000 6.17 230 16:37 31.07.2021
6319 Clouds 21 1008 49 10000 7.72 230 13:31 31.07.2021
6320 Clouds 18 1007 63 10000 7.2 210 09:19 31.07.2021
6321 Clear 16 1008 92 10000 3.58 217 02:35 31.07.2021
6322 Clear 23 1006 49 10000 4.12 210 20:36 30.07.2021
6323 Clear 24 1007 46 10000 5.14 220 20:18 30.07.2021
6324 Clouds 24 1009 53 10000 5.14 190 14:18 30.07.2021
6325 Clear 22 1012 46 10000 5.14 240 18:19 29.07.2021
6326 Clouds 16 1011 82 10000 4.12 210 06:59 29.07.2021
6327 Clouds 14 1012 94 10000 3.65 209 04:34 29.07.2021
6328 Clouds 20 1011 72 10000 2.57 240 21:22 28.07.2021
6329 Clouds 22 1011 73 10000 4.12 200 17:47 28.07.2021
6330 Rain 22 1011 56 10000 6.46 230 16:54 28.07.2021
6331 Clouds 17 1012 94 10000 2.06 170 08:26 28.07.2021
6332 Rain 16 1013 79 10000 3.28 210 23:31 27.07.2021
6333 Clouds 17 1013 88 10000 1.03 0 21:29 27.07.2021
6334 Clouds 23 1013 60 10000 5.14 170 14:53 27.07.2021
6335 Clouds 22 1014 64 10000 4.12 210 11:41 27.07.2021
6336 Clouds 20 1013 72 10000 3.09 220 09:49 27.07.2021
6337 Clouds 24 1011 64 10000 2.06 0 17:54 26.07.2021
6338 Clouds 25 1011 57 10000 4.12 200 15:31 26.07.2021
6339 Clouds 16 1011 94 10000 2.28 172 04:52 26.07.2021
6340 Clear 24 1009 60 10000 1.54 360 20:56 25.07.2021
6341 Clouds 25 1010 64 10000 2.06 10 18:25 25.07.2021
6342 Clouds 25 1010 60 10000 3.09 0 15:46 25.07.2021
6343 Clouds 22 1010 78 10000 2.57 160 10:56 25.07.2021
6344 Fog 18 1010 88 10000 2.06 140 08:19 25.07.2021
6345 Clouds 20 1009 95 10000 1.63 166 22:35 24.07.2021
6346 Clouds 23 1008 78 10000 1.03 0 20:19 24.07.2021
6347 Rain 26 1009 53 10000 4.63 160 15:44 24.07.2021
6348 Clouds 14 1013 94 10000 1.58 49 04:20 24.07.2021
6349 Clouds 24 1017 56 10000 2.57 300 14:38 23.07.2021
6350 Clouds 22 1018 64 10000 2.06 0 12:42 23.07.2021
6351 Clouds 12 1019 93 10000 1.59 2 06:18 23.07.2021
6352 Clear 22 1019 56 10000 2.06 150 20:33 22.07.2021
6353 Clear 21 1023 77 10000 1.03 0 11:28 22.07.2021
6354 Clear 17 1023 94 10000 0.51 0 08:54 22.07.2021
6355 Clear 13 1023 91 10000 0.42 295 03:42 22.07.2021
6356 Clear 18 1023 77 10000 1.03 90 21:45 21.07.2021
6357 Clear 19 1023 72 10000 1.54 80 21:27 21.07.2021
6358 Clouds 21 1024 64 10000 2.57 310 14:42 21.07.2021
6359 Clear 16 1024 82 10000 0.51 0 09:49 21.07.2021
6360 Clear 15 1023 88 10000 0.51 0 07:59 21.07.2021
6361 Clear 13 1023 86 10000 0.31 11 23:46 20.07.2021
6362 Clouds 20 1021 59 10000 3.6 360 17:22 20.07.2021
6363 Clouds 20 1021 55 10000 4.63 350 16:25 20.07.2021
6364 Clouds 19 1021 55 10000 2.06 10 15:25 20.07.2021
6365 Clouds 17 1021 67 10000 3.09 360 10:22 20.07.2021
6366 Clear 12 1020 96 10000 1.48 348 04:48 20.07.2021
6367 Clouds 17 1020 77 10000 3.09 320 22:25 19.07.2021
6368 Clouds 19 1021 59 10000 3.6 320 12:53 19.07.2021
6369 Clouds 17 1022 72 10000 4.12 350 10:29 19.07.2021
6370 Clouds 25 1020 60 10000 4.63 330 19:38 18.07.2021
6371 Clouds 24 1022 60 10000 4.12 290 13:49 18.07.2021
6372 Clouds 19 1024 82 10000 4.63 320 10:18 18.07.2021
6373 Clouds 18 1023 90 10000 2.72 334 22:25 17.07.2021
6374 Clear 20 1022 59 10000 6.69 330 21:53 17.07.2021
6375 Clear 20 1022 59 10000 6.69 330 21:53 17.07.2021
6376 Clear 20 1022 59 10000 6.69 330 21:34 17.07.2021
6377 Clouds 20 1024 94 9000 6.17 310 12:28 17.07.2021
6378 Clouds 18 1023 88 10000 5.66 320 08:55 17.07.2021
6379 Clouds 17 1022 97 10000 1.47 311 02:46 17.07.2021
6380 Clouds 19 1021 88 10000 5.14 300 14:22 16.07.2021
6381 Clouds 18 1018 98 616 1.63 304 07:33 16.07.2021
6382 Clouds 17 1016 92 10000 1 285 00:41 16.07.2021
6383 Clouds 22 1014 64 10000 1.03 0 13:53 15.07.2021
6384 Clouds 21 1014 68 10000 2.06 320 12:25 15.07.2021
6385 Clouds 15 1012 94 10000 1.37 143 07:27 15.07.2021
6386 Clouds 17 1010 94 10000 5.66 170 19:27 14.07.2021
6387 Rain 17 1009 94 9000 3.6 180 15:55 14.07.2021
6388 Rain 17 1009 100 7000 3.09 160 07:52 14.07.2021
6389 Rain 21 1009 88 10000 1.54 310 21:50 13.07.2021
6390 Clouds 22 1009 83 10000 1.03 0 19:55 13.07.2021
6391 Clouds 23 1008 83 10000 2.06 10 19:28 13.07.2021
6392 Rain 23 1009 73 10000 3.09 360 18:46 13.07.2021
6393 Rain 23 1009 73 10000 3.6 340 18:28 13.07.2021
6394 Clouds 23 1009 73 10000 3.09 360 17:56 13.07.2021
6395 Clear 22 1009 83 10000 2.57 320 13:21 13.07.2021
6396 Rain 18 1009 82 10000 1.05 302 08:49 13.07.2021
6397 Clear 23 1010 60 10000 1.54 170 20:24 12.07.2021
6398 Clouds 26 1011 53 10000 3.6 200 16:45 12.07.2021
6399 Clouds 22 1013 77 10000 1.54 130 10:56 12.07.2021
6400 Clouds 18 1016 94 10000 2.57 230 21:59 11.07.2021
6401 Clouds 20 1016 82 10000 2.57 220 19:53 11.07.2021
6402 Clouds 18 1016 82 10000 3.6 300 09:19 11.07.2021
6403 Clouds 17 1015 86 10000 1.25 98 22:45 10.07.2021
6404 Clouds 20 1018 77 10000 2.57 160 12:20 10.07.2021
6405 Clouds 15 1019 88 10000 1.62 199 07:49 10.07.2021
6406 Clouds 16 1020 94 10000 2.57 190 23:19 09.07.2021
6407 Clouds 16 1020 88 10000 4.12 300 18:20 09.07.2021
6408 Rain 17 1020 94 9000 5.66 310 14:48 09.07.2021
6409 Rain 16 1019 98 3032 3.28 316 08:37 09.07.2021
6410 Clouds 16 1020 88 10000 2.07 325 23:49 08.07.2021
6411 Clouds 16 1020 81 10000 0.53 74 22:30 08.07.2021
6412 Rain 20 1019 73 10000 3.09 290 18:56 08.07.2021
6413 Rain 22 1019 53 10000 1.54 340 17:37 08.07.2021
6414 Clouds 24 1020 60 10000 2.57 90 13:31 08.07.2021
6415 Clouds 24 1021 60 10000 2.06 90 12:40 08.07.2021
6416 Clear 22 1021 73 10000 2.06 110 11:30 08.07.2021
6417 Clear 19 1021 82 10000 0.51 0 09:51 08.07.2021
6418 Clouds 13 1020 91 10000 0.91 146 04:42 08.07.2021
6419 Clear 16 1019 86 10000 1.44 144 23:50 07.07.2021
6420 Clouds 18 1019 80 10000 1.1 141 22:21 07.07.2021
6421 Clouds 18 1019 80 10000 1.1 141 21:48 07.07.2021
6422 Clear 22 1018 53 10000 1.54 170 21:27 07.07.2021
6423 Clear 22 1018 56 10000 3.09 200 20:42 07.07.2021
6424 Clear 23 1017 49 10000 3.09 190 19:55 07.07.2021
6425 Clear 24 1017 49 10000 3.09 180 19:27 07.07.2021
6426 Clear 24 1017 46 10000 4.63 190 16:52 07.07.2021
6427 Clear 24 1017 49 10000 3.6 170 15:26 07.07.2021
6428 Clouds 21 1017 64 10000 4.63 150 12:24 07.07.2021
6429 Clouds 15 1016 91 10000 2.04 160 07:45 07.07.2021
6430 Clouds 14 1015 94 10000 2.22 167 05:58 07.07.2021
6431 Clouds 15 1015 94 10000 2.22 167 05:30 07.07.2021
6432 Clouds 19 1011 77 10000 4.12 190 20:57 06.07.2021
6433 Clouds 20 1010 77 10000 4.12 180 19:18 06.07.2021
6434 Clouds 20 1010 77 10000 3.6 190 18:45 06.07.2021
6435 Clouds 21 1010 73 10000 4.12 180 18:23 06.07.2021
6436 Clouds 20 1007 94 10000 8.75 140 13:44 06.07.2021
6437 Clear 23 1008 73 10000 5.66 150 10:28 06.07.2021
6438 Clear 23 1008 73 10000 5.66 150 10:28 06.07.2021
6439 Clouds 22 1008 73 10000 5.66 140 09:40 06.07.2021
6440 Clouds 21 1008 75 10000 3.52 176 08:32 06.07.2021
6441 Clouds 21 1008 76 10000 3.28 174 08:32 06.07.2021
6442 Clouds 16 1008 96 10000 2.31 152 04:50 06.07.2021
6443 Clouds 17 1010 96 10000 2.27 148 00:26 06.07.2021
6444 Clouds 19 1010 82 10000 3.09 170 21:59 05.07.2021
6445 Clouds 19 1010 82 10000 2.06 230 17:41 05.07.2021
6446 Clouds 21 1010 68 10000 3.09 210 14:29 05.07.2021
6447 Clouds 15 1011 97 10000 2.46 180 06:28 05.07.2021
6448 Clouds 14 1011 97 10000 2.46 180 05:43 05.07.2021
6449 Clouds 14 1011 97 10000 2.09 188 04:25 05.07.2021
6450 Clouds 16 1010 96 10000 2.05 207 23:18 04.07.2021
6451 Clouds 17 1010 82 10000 3.09 240 18:51 04.07.2021
6452 Rain 22 1009 64 10000 9.26 130 16:23 04.07.2021
6453 Clear 23 1011 64 10000 2.57 160 11:50 04.07.2021
6454 Clouds 19 1012 77 10000 2.06 80 09:24 04.07.2021
6455 Clouds 17 1013 85 10000 0.91 84 23:32 03.07.2021
6456 Clear 19 1014 77 10000 1.54 210 22:39 03.07.2021
6457 Clouds 23 1016 53 10000 2.06 300 14:26 03.07.2021
6458 Clouds 23 1016 60 10000 2.57 90 12:38 03.07.2021
6459 Fog 16 1017 100 700 2.06 110 09:29 03.07.2021
6460 Clouds 17 1017 73 10000 1.26 191 08:46 03.07.2021
6461 Clear 11 1018 90 10000 0.85 160 03:21 03.07.2021
6462 Drizzle 15 1018 94 5000 2.57 270 12:51 02.07.2021
6463 Clouds 14 1017 94 5000 3.09 290 07:41 02.07.2021
6464 Clouds 13 1016 99 3273 1.72 229 04:49 02.07.2021
6465 Rain 14 1016 96 10000 2.56 255 22:38 01.07.2021
6466 Clouds 14 1015 100 10000 1.54 240 21:53 01.07.2021
6467 Mist 14 1015 100 5000 1.03 0 20:45 01.07.2021
6468 Clouds 14 1015 94 10000 2.06 240 19:21 01.07.2021
6469 Clouds 15 1015 94 10000 2.57 250 18:49 01.07.2021
6470 Rain 14 1014 88 10000 4.63 260 17:48 01.07.2021
6471 Clouds 14 1014 94 10000 3.09 260 17:18 01.07.2021
6472 Rain 14 1014 94 8000 3.09 250 15:25 01.07.2021
6473 Rain 14 1014 94 4000 3.09 260 14:23 01.07.2021
6474 Rain 14 1013 94 7000 3.09 240 10:55 01.07.2021
6475 Rain 14 1012 88 9000 4.12 270 06:56 01.07.2021
6476 Clouds 15 1012 96 10000 2.35 296 23:23 30.06.2021
6477 Rain 15 1012 96 10000 2.19 297 22:20 30.06.2021
6478 Rain 16 1011 94 10000 3.26 310 21:22 30.06.2021
6479 Rain 18 1011 77 10000 5.14 290 20:27 30.06.2021
6480 Clouds 18 1010 68 10000 4.63 290 18:54 30.06.2021
6481 Rain 20 1011 72 10000 3.09 210 14:26 30.06.2021
6482 Rain 20 1011 68 10000 3.09 270 13:21 30.06.2021
6483 Clouds 16 1011 94 10000 3.83 222 08:18 30.06.2021
6484 Rain 18 1009 87 10000 1.88 260 21:29 29.06.2021
6485 Clouds 25 1009 50 10000 3.09 310 18:36 29.06.2021
6486 Clouds 25 1009 57 10000 3.09 320 17:43 29.06.2021
6487 Clouds 24 1010 68 10000 2.06 310 16:36 29.06.2021
6488 Clouds 25 1011 64 10000 1.54 0 15:38 29.06.2021
6489 Clouds 23 1012 73 10000 3.09 210 13:31 29.06.2021
6490 Clouds 22 1012 73 10000 3.09 190 12:19 29.06.2021
6491 Rain 18 1013 91 10000 1.3 142 00:41 29.06.2021
6492 Clouds 18 1013 88 10000 0.84 94 21:47 28.06.2021
6493 Rain 25 1013 78 10000 1.54 10 19:40 28.06.2021
6494 Clear 26 1015 65 10000 2.57 80 17:29 28.06.2021
6495 Clear 26 1015 64 10000 2.57 100 15:22 28.06.2021
6496 Clear 25 1015 68 10000 1.54 170 12:58 28.06.2021
6497 Clear 19 1016 82 10000 1.03 0 07:50 28.06.2021
6498 Clouds 21 1016 75 10000 1.22 97 23:45 27.06.2021
6499 Rain 22 1016 78 10000 1.79 86 21:33 27.06.2021
6500 Clear 25 1015 44 10000 3.6 90 19:40 27.06.2021
6501 Clear 27 1016 39 10000 3.09 110 16:50 27.06.2021
6502 Clear 26 1017 44 10000 3.6 90 13:24 27.06.2021
6503 Clouds 16 1018 83 10000 0.92 109 07:38 27.06.2021
6504 Clouds 17 1019 89 10000 0.97 94 22:58 26.06.2021
6505 Clear 22 1018 56 10000 2.06 50 20:59 26.06.2021
6506 Clear 22 1018 56 10000 2.06 50 20:40 26.06.2021
6507 Clouds 24 1018 53 10000 3.6 30 19:25 26.06.2021
6508 Clouds 24 1019 49 10000 3.09 60 15:22 26.06.2021
6509 Clouds 23 1020 46 10000 1.54 0 12:28 26.06.2021
6510 Clouds 17 1020 73 10000 0.92 176 08:54 26.06.2021
6511 Clouds 11 1020 86 10000 0.73 148 04:35 26.06.2021
6512 Clear 20 1018 52 10000 2.06 360 20:40 25.06.2021
6513 Clear 21 1017 49 10000 4.63 340 19:43 25.06.2021
6514 Clouds 22 1017 52 10000 2.57 280 17:52 25.06.2021
6515 Clouds 22 1018 60 10000 3.09 250 16:49 25.06.2021
6516 Clouds 21 1018 60 10000 2.57 270 14:59 25.06.2021
6517 Clouds 19 1018 72 10000 3.6 320 11:46 25.06.2021
6518 Clouds 16 1018 87 10000 0.84 310 08:48 25.06.2021
6519 Clouds 16 1018 93 10000 0.54 303 07:20 25.06.2021
6520 Rain 16 1018 96 10000 0.78 326 03:49 25.06.2021
6521 Clouds 16 1018 94 10000 1.19 344 22:41 24.06.2021
6522 Clouds 17 1018 94 10000 1.03 354 21:41 24.06.2021
6523 Clouds 17 1018 100 10000 3.09 350 20:41 24.06.2021
6524 Clouds 18 1018 94 10000 2.57 350 18:47 24.06.2021
6525 Rain 18 1019 94 4000 1.03 0 16:30 24.06.2021
6526 Clouds 18 1019 94 10000 3.09 150 15:22 24.06.2021
6527 Clouds 19 1019 72 10000 3.6 340 14:48 24.06.2021
6528 Clouds 19 1019 82 10000 1.03 0 11:26 24.06.2021
6529 Clouds 17 1019 88 10000 3.09 330 09:34 24.06.2021
6530 Clouds 16 1020 90 10000 1.93 4 08:23 24.06.2021
6531 Clouds 16 1020 97 10000 1.7 17 03:32 24.06.2021
6532 Clouds 17 1020 96 10000 2.45 18 23:20 23.06.2021
6533 Clouds 19 1020 94 10000 2.23 20 21:44 23.06.2021
6534 Clouds 19 1019 72 10000 2.57 20 20:38 23.06.2021
6535 Clouds 21 1020 68 10000 2.06 350 18:35 23.06.2021
6536 Clouds 21 1020 68 10000 3.09 10 17:38 23.06.2021
6537 Clouds 21 1020 72 10000 3.09 10 16:34 23.06.2021
6538 Clouds 19 1020 72 10000 2.57 360 13:22 23.06.2021
6539 Clouds 18 1020 77 10000 3.09 330 11:59 23.06.2021
6540 Clouds 15 1020 82 10000 2.06 330 09:55 23.06.2021
6541 Clouds 15 1020 82 10000 1.03 0 08:49 23.06.2021
6542 Clouds 14 1020 83 10000 1.39 25 07:52 23.06.2021
6543 Clouds 14 1019 87 10000 1.8 9 06:58 23.06.2021
6544 Clouds 13 1019 95 10000 1.91 6 04:25 23.06.2021
6545 Clouds 14 1018 95 10000 2.07 18 00:44 23.06.2021
6546 Clouds 15 1018 94 10000 1.87 5 23:56 22.06.2021
6547 Clouds 15 1017 93 10000 1.99 5 22:44 22.06.2021
6548 Clouds 16 1017 91 10000 2.2 4 22:22 22.06.2021
6549 Clouds 16 1017 91 10000 2.19 4 21:37 22.06.2021
6550 Rain 17 1017 77 10000 2.06 340 19:42 22.06.2021
6551 Rain 17 1016 77 10000 2.06 340 18:54 22.06.2021
6552 Clouds 18 1016 72 10000 2.57 340 18:24 22.06.2021
6553 Clouds 18 1016 72 10000 2.57 350 17:21 22.06.2021
6554 Clouds 19 1016 67 10000 2.06 10 16:30 22.06.2021
6555 Clouds 19 1016 67 10000 2.06 10 16:30 22.06.2021
6556 Clouds 18 1016 67 10000 3.09 330 14:36 22.06.2021
6557 Clouds 17 1016 72 10000 3.09 10 13:48 22.06.2021
6558 Clouds 16 1016 72 10000 3.09 30 12:35 22.06.2021
6559 Clouds 15 1015 77 10000 3.09 10 10:58 22.06.2021
6560 Clouds 14 1015 82 10000 3.09 40 09:21 22.06.2021
6561 Clouds 14 1015 81 10000 3.41 24 06:37 22.06.2021
6562 Clouds 15 1014 87 10000 2.29 319 00:37 22.06.2021
6563 Clouds 16 1012 85 10000 4.09 321 22:59 21.06.2021
6564 Clouds 16 1011 88 10000 5.66 300 21:48 21.06.2021
6565 Clouds 17 1011 82 10000 6.69 300 20:53 21.06.2021
6566 Clouds 19 1010 77 10000 8.23 300 20:21 21.06.2021
6567 Clouds 19 1010 77 10000 10.29 300 19:49 21.06.2021
6568 Clouds 24 1008 68 10000 9.26 280 18:25 21.06.2021
6569 Clouds 25 1007 57 10000 6.69 220 16:56 21.06.2021
6570 Clouds 25 1007 60 10000 7.72 210 16:30 21.06.2021
6571 Clouds 25 1007 60 10000 7.72 210 16:30 21.06.2021
6572 Clouds 25 1007 64 10000 6.69 180 15:57 21.06.2021
6573 Clouds 24 1007 68 10000 6.17 180 15:29 21.06.2021
6574 Clouds 24 1007 57 10000 6.38 209 13:52 21.06.2021
6575 Clouds 22 1007 77 10000 3.6 190 12:56 21.06.2021
6576 Clouds 22 1007 77 10000 3.6 190 12:35 21.06.2021
6577 Clouds 20 1006 82 10000 5.66 190 10:55 21.06.2021
6578 Clouds 20 1006 83 10000 4.12 190 10:23 21.06.2021
6579 Clouds 19 1006 82 10000 4.12 190 08:47 21.06.2021
6580 Clouds 19 1005 88 10000 3.6 200 08:18 21.06.2021
6581 Clouds 19 1006 97 10000 1.57 170 06:23 21.06.2021
6582 Clouds 21 1007 87 10000 1.42 354 23:54 20.06.2021
6583 Clouds 21 1007 87 10000 1.42 354 23:34 20.06.2021
6584 Clouds 21 1007 86 10000 0.88 23 22:50 20.06.2021
6585 Rain 23 1007 79 10000 1.16 17 21:48 20.06.2021
6586 Clear 26 1008 61 10000 2.06 240 20:27 20.06.2021
6587 Clear 26 1008 65 10000 2.06 250 19:38 20.06.2021
6588 Clouds 27 1008 53 10000 3.6 170 18:49 20.06.2021
6589 Clouds 27 1008 50 10000 3.09 150 17:45 20.06.2021
6590 Clouds 28 1009 47 10000 2.06 250 16:44 20.06.2021
6591 Clouds 27 1010 50 10000 4.12 230 15:38 20.06.2021
6592 Clouds 27 1010 53 10000 5.14 200 14:55 20.06.2021
6593 Clouds 26 1010 53 10000 5.66 220 14:36 20.06.2021
6594 Clouds 26 1010 57 10000 6.17 190 13:28 20.06.2021
6595 Clouds 25 1010 68 10000 5.14 200 11:48 20.06.2021
6596 Clear 25 1011 68 10000 5.66 220 11:23 20.06.2021
6597 Clouds 24 1010 73 10000 5.66 220 09:49 20.06.2021
6598 Clouds 23 1010 85 10000 5 214 08:59 20.06.2021
6599 Clouds 21 1010 90 10000 1.88 120 02:25 20.06.2021
6600 Clouds 21 1011 85 10000 1.51 82 23:35 19.06.2021
6601 Clouds 22 1011 81 10000 2.3 81 22:51 19.06.2021
6602 Clouds 24 1011 76 10000 1.42 90 21:49 19.06.2021
6603 Clouds 24 1011 76 10000 1.42 90 21:49 19.06.2021
6604 Clear 29 1013 42 10000 3.09 160 20:40 19.06.2021
6605 Clear 31 1013 37 10000 3.6 170 18:48 19.06.2021
6606 Clear 32 1013 37 10000 4.63 180 17:55 19.06.2021
6607 Clear 31 1013 37 10000 5.14 180 17:21 19.06.2021
6608 Clear 32 1013 35 10000 1.54 0 15:52 19.06.2021
6609 Clear 31 1014 35 10000 3.6 0 14:21 19.06.2021
6610 Clear 30 1015 39 10000 3.6 200 12:47 19.06.2021
6611 Clouds 29 1015 44 10000 4.12 250 11:53 19.06.2021
6612 Clear 28 1016 57 10000 3.09 180 10:42 19.06.2021
6613 Clear 28 1016 61 10000 2.06 110 10:22 19.06.2021
6614 Clear 24 1015 77 10000 2.25 232 08:57 19.06.2021
6615 Clouds 21 1015 87 10000 2.32 196 07:44 19.06.2021
6616 Clouds 19 1015 93 10000 2.14 192 05:55 19.06.2021
6617 Clouds 20 1015 94 10000 1.64 177 01:27 19.06.2021
6618 Clouds 20 1015 95 10000 0.94 178 00:18 19.06.2021
6619 Clouds 22 1015 95 10000 2.47 201 23:25 18.06.2021
6620 Clouds 22 1015 96 10000 2.47 200 22:47 18.06.2021
6621 Clouds 24 1014 94 10000 1.68 137 21:57 18.06.2021
6622 Clouds 25 1014 93 10000 2.39 86 21:29 18.06.2021
6623 Clear 27 1013 61 10000 1.03 0 20:41 18.06.2021
6624 Clouds 26 1013 61 10000 1.54 330 19:25 18.06.2021
6625 Clouds 28 1013 61 10000 5.66 270 18:21 18.06.2021
6626 Clear 33 1013 35 10000 3.09 180 17:18 18.06.2021
6627 Clear 34 1013 31 10000 3.09 100 15:58 18.06.2021
6628 Clear 34 1013 31 10000 3.6 140 15:18 18.06.2021
6629 Clear 34 1013 33 10000 4.12 0 14:32 18.06.2021
6630 Clear 33 1014 33 10000 1.54 0 13:32 18.06.2021
6631 Clear 32 1014 33 10000 1.03 0 12:44 18.06.2021
6632 Clear 31 1014 42 10000 1.03 0 11:57 18.06.2021
6633 Clear 30 1014 48 10000 1.54 130 11:25 18.06.2021
6634 Clear 29 1014 51 10000 1.54 150 10:52 18.06.2021
6635 Clear 28 1014 54 10000 2.06 110 10:21 18.06.2021
6636 Clear 27 1014 57 10000 1.54 100 09:40 18.06.2021
6637 Clear 24 1014 66 10000 1.85 220 08:44 18.06.2021
6638 Clear 20 1014 72 10000 1.02 222 07:52 18.06.2021
6639 Clear 21 1014 80 10000 0.94 204 07:21 18.06.2021
6640 Clear 19 1013 76 10000 1.51 144 00:48 18.06.2021
6641 Clear 21 1013 75 10000 1.32 137 23:41 17.06.2021
6642 Clouds 22 1013 75 10000 1.02 123 22:49 17.06.2021
6643 Clouds 24 1013 74 10000 1.71 113 22:23 17.06.2021
6644 Clouds 24 1013 74 10000 1.71 113 21:38 17.06.2021
6645 Clear 30 1013 35 10000 2.57 200 20:49 17.06.2021
6646 Clear 31 1013 35 10000 2.57 200 20:23 17.06.2021
6647 Clear 31 1013 35 10000 3.09 190 19:46 17.06.2021
6648 Clear 32 1013 31 10000 3.6 180 18:33 17.06.2021
6649 Clear 33 1013 31 10000 4.12 180 17:42 17.06.2021
6650 Clear 33 1013 31 10000 5.66 160 17:19 17.06.2021
6651 Clear 33 1013 33 10000 4.